<?xml version='1.0' encoding='UTF-8'?><gpx version="1.1" creator="JPX - https://github.com/jenetics/jpx" xmlns="http://www.topografix.com/GPX/1/1"><trk><trkseg><trkpt lat="36.91308158182428" lon="15.1515793450279"><ele>10.0</ele><time>2026-03-28T13:46:37Z</time></trkpt><trkpt lat="36.912987305636555" lon="15.151566766016202"><ele>10.0</ele><time>2026-03-28T13:47:22.999Z</time></trkpt><trkpt lat="36.91305265842261" lon="15.15154256915991"><ele>10.0</ele><time>2026-03-28T13:47:46.998Z</time></trkpt><trkpt lat="36.91301071529726" lon="15.1516926485959"><ele>10.0</ele><time>2026-03-28T13:48:16Z</time></trkpt><trkpt lat="36.913018704621564" lon="15.151535999200906"><ele>10.0</ele><time>2026-03-28T13:48:19Z</time></trkpt><trkpt lat="36.912970518805054" lon="15.151470251335011"><ele>10.0</ele><time>2026-03-28T13:50:03.998Z</time></trkpt><trkpt lat="36.91297715443545" lon="15.151381827116207"><ele>10.0</ele><time>2026-03-28T13:50:04.998Z</time></trkpt><trkpt lat="36.91304106924767" lon="15.151332385617003"><ele>10.0</ele><time>2026-03-28T13:50:06.998Z</time></trkpt><trkpt lat="36.913077636345996" lon="15.15141884038302"><ele>10.0</ele><time>2026-03-28T13:50:10Z</time></trkpt><trkpt lat="36.91309111936488" lon="15.151511724507575"><ele>10.0</ele><time>2026-03-28T13:50:13Z</time></trkpt><trkpt lat="36.91311879973356" lon="15.151610942321117"><ele>10.0</ele><time>2026-03-28T13:51:09.999Z</time></trkpt><trkpt lat="36.91307138691272" lon="15.15168085955443"><ele>10.0</ele><time>2026-03-28T13:52:01.999Z</time></trkpt><trkpt lat="36.913000938419486" lon="15.15175956833027"><ele>10.0</ele><time>2026-03-28T13:52:51Z</time></trkpt><trkpt lat="36.912940437458914" lon="15.151837050598381"><ele>10.0</ele><time>2026-03-28T13:52:54Z</time></trkpt><trkpt lat="36.912910550068126" lon="15.151916298060321"><ele>10.0</ele><time>2026-03-28T13:52:56Z</time></trkpt><trkpt lat="36.912875456857634" lon="15.151986881877354"><ele>10.0</ele><time>2026-03-28T13:52:58Z</time></trkpt><trkpt lat="36.912836464354704" lon="15.152062169923262"><ele>10.0</ele><time>2026-03-28T13:53:00.999Z</time></trkpt><trkpt lat="36.912773690610855" lon="15.15209111559285"><ele>10.0</ele><time>2026-03-28T13:53:03.999Z</time></trkpt><trkpt lat="36.912711095960034" lon="15.15205703592762"><ele>10.0</ele><time>2026-03-28T13:53:07.999Z</time></trkpt><trkpt lat="36.91264551659248" lon="15.152049306509591"><ele>10.0</ele><time>2026-03-28T13:53:28.999Z</time></trkpt><trkpt lat="36.9125805407945" lon="15.152035568802138"><ele>10.0</ele><time>2026-03-28T13:53:30.999Z</time></trkpt><trkpt lat="36.912489664892014" lon="15.151996590391347"><ele>10.0</ele><time>2026-03-28T13:53:33.999Z</time></trkpt><trkpt lat="36.912400308530735" lon="15.151949073398347"><ele>10.0</ele><time>2026-03-28T13:53:35.999Z</time></trkpt><trkpt lat="36.91228859689926" lon="15.151886288409875"><ele>9.6</ele><time>2026-03-28T13:53:37.999Z</time></trkpt><trkpt lat="36.912171761699966" lon="15.151822812922381"><ele>9.2</ele><time>2026-03-28T13:53:39.999Z</time></trkpt><trkpt lat="36.91211981931393" lon="15.151771504906051"><ele>8.8</ele><time>2026-03-28T13:53:40.999Z</time></trkpt><trkpt lat="36.91205738091159" lon="15.15173466134044"><ele>8.4</ele><time>2026-03-28T13:53:41.999Z</time></trkpt><trkpt lat="36.91199412880879" lon="15.151698814058134"><ele>8.0</ele><time>2026-03-28T13:53:42.999Z</time></trkpt><trkpt lat="36.91187332110643" lon="15.151651480178716"><ele>8.0</ele><time>2026-03-28T13:53:44.999Z</time></trkpt><trkpt lat="36.911814779184695" lon="15.15161240220728"><ele>8.0</ele><time>2026-03-28T13:53:45.999Z</time></trkpt><trkpt lat="36.91169278080064" lon="15.151547754213102"><ele>8.0</ele><time>2026-03-28T13:53:47.999Z</time></trkpt><trkpt lat="36.91161680750068" lon="15.15150069154538"><ele>8.0</ele><time>2026-03-28T13:53:48.999Z</time></trkpt><trkpt lat="36.911537992715914" lon="15.151451777944018"><ele>8.0</ele><time>2026-03-28T13:53:49.999Z</time></trkpt><trkpt lat="36.91144861550041" lon="15.151396770954923"><ele>8.666666666666666</ele><time>2026-03-28T13:53:50.999Z</time></trkpt><trkpt lat="36.91136057406193" lon="15.151348506979717"><ele>9.333333333333332</ele><time>2026-03-28T13:53:51.999Z</time></trkpt><trkpt lat="36.91127609468595" lon="15.151304939927016"><ele>10.0</ele><time>2026-03-28T13:53:52.999Z</time></trkpt><trkpt lat="36.911194091882365" lon="15.151271399927284"><ele>10.666666666666666</ele><time>2026-03-28T13:53:53.999Z</time></trkpt><trkpt lat="36.91111093929828" lon="15.151241184695019"><ele>11.333333333333334</ele><time>2026-03-28T13:53:54.999Z</time></trkpt><trkpt lat="36.911032477367584" lon="15.151214541664409"><ele>12.0</ele><time>2026-03-28T13:53:55.999Z</time></trkpt><trkpt lat="36.91096897237926" lon="15.151188341096516"><ele>11.857142857142856</ele><time>2026-03-28T13:53:56.999Z</time></trkpt><trkpt lat="36.910899822210105" lon="15.151164873314004"><ele>11.714285714285714</ele><time>2026-03-28T13:53:57.999Z</time></trkpt><trkpt lat="36.91082473185722" lon="15.151142191704523"><ele>11.571428571428571</ele><time>2026-03-28T13:53:58.999Z</time></trkpt><trkpt lat="36.91075205208546" lon="15.151121177254781"><ele>11.428571428571427</ele><time>2026-03-28T13:53:59.999Z</time></trkpt><trkpt lat="36.91067915543442" lon="15.151098626769286"><ele>11.285714285714285</ele><time>2026-03-28T13:54:00.999Z</time></trkpt><trkpt lat="36.9106131825087" lon="15.151074022592757"><ele>11.142857142857142</ele><time>2026-03-28T13:54:01.999Z</time></trkpt><trkpt lat="36.91054572726253" lon="15.151051860172261"><ele>11.0</ele><time>2026-03-28T13:54:02.999Z</time></trkpt><trkpt lat="36.91047760447734" lon="15.151026314265389"><ele>11.0</ele><time>2026-03-28T13:54:03.999Z</time></trkpt><trkpt lat="36.910407321304135" lon="15.15099714561735"><ele>11.0</ele><time>2026-03-28T13:54:04.999Z</time></trkpt><trkpt lat="36.91033176884829" lon="15.150967023288752"><ele>11.0</ele><time>2026-03-28T13:54:05.999Z</time></trkpt><trkpt lat="36.91025061720373" lon="15.150939976764382"><ele>11.0</ele><time>2026-03-28T13:54:06.999Z</time></trkpt><trkpt lat="36.910165486707854" lon="15.150907608830572"><ele>11.0</ele><time>2026-03-28T13:54:07.999Z</time></trkpt><trkpt lat="36.91007446809674" lon="15.150871734923946"><ele>11.0</ele><time>2026-03-28T13:54:08.999Z</time></trkpt><trkpt lat="36.90998142622872" lon="15.150830951993127"><ele>11.200000000000001</ele><time>2026-03-28T13:54:09.999Z</time></trkpt><trkpt lat="36.90989069603448" lon="15.150766739697477"><ele>11.4</ele><time>2026-03-28T13:54:10.999Z</time></trkpt><trkpt lat="36.9097947565297" lon="15.150716002458251"><ele>11.6</ele><time>2026-03-28T13:54:11.999Z</time></trkpt><trkpt lat="36.909701503346604" lon="15.150666502418163"><ele>11.8</ele><time>2026-03-28T13:54:12.999Z</time></trkpt><trkpt lat="36.90960724537002" lon="15.150615887776398"><ele>12.0</ele><time>2026-03-28T13:54:13.999Z</time></trkpt><trkpt lat="36.90949901156571" lon="15.150557620700464"><ele>12.0</ele><time>2026-03-28T13:54:14.998Z</time></trkpt><trkpt lat="36.90937995931548" lon="15.150493356545976"><ele>12.0</ele><time>2026-03-28T13:54:15.998Z</time></trkpt><trkpt lat="36.90927400061088" lon="15.15043616025633"><ele>12.0</ele><time>2026-03-28T13:54:16.998Z</time></trkpt><trkpt lat="36.90915635889297" lon="15.150392717101491"><ele>12.0</ele><time>2026-03-28T13:54:17.998Z</time></trkpt><trkpt lat="36.909050463109985" lon="15.15032118861748"><ele>11.6</ele><time>2026-03-28T13:54:18.998Z</time></trkpt><trkpt lat="36.908958087768134" lon="15.15026090059965"><ele>11.2</ele><time>2026-03-28T13:54:19.998Z</time></trkpt><trkpt lat="36.90886349945949" lon="15.150212234333013"><ele>10.8</ele><time>2026-03-28T13:54:20.998Z</time></trkpt><trkpt lat="36.90877608945152" lon="15.15016579594065"><ele>10.4</ele><time>2026-03-28T13:54:22Z</time></trkpt><trkpt lat="36.90868617601007" lon="15.150120010946107"><ele>10.0</ele><time>2026-03-28T13:54:23Z</time></trkpt><trkpt lat="36.908590884372714" lon="15.150071975868704"><ele>10.0</ele><time>2026-03-28T13:54:24Z</time></trkpt><trkpt lat="36.90849506741766" lon="15.150026870194592"><ele>10.0</ele><time>2026-03-28T13:54:25Z</time></trkpt><trkpt lat="36.90839991793319" lon="15.149987972057593"><ele>10.0</ele><time>2026-03-28T13:54:26Z</time></trkpt><trkpt lat="36.90832393033063" lon="15.149955303542692"><ele>10.0</ele><time>2026-03-28T13:54:27Z</time></trkpt><trkpt lat="36.90824755881185" lon="15.149928470349476"><ele>10.0</ele><time>2026-03-28T13:54:28Z</time></trkpt><trkpt lat="36.90816954670168" lon="15.149909560641362"><ele>10.0</ele><time>2026-03-28T13:54:29Z</time></trkpt><trkpt lat="36.908083627333795" lon="15.149890206812538"><ele>10.6</ele><time>2026-03-28T13:54:30Z</time></trkpt><trkpt lat="36.90799221634729" lon="15.149869995315273"><ele>11.2</ele><time>2026-03-28T13:54:31Z</time></trkpt><trkpt lat="36.90789752552183" lon="15.149848298258705"><ele>11.8</ele><time>2026-03-28T13:54:32Z</time></trkpt><trkpt lat="36.90780764255083" lon="15.149819522356463"><ele>12.4</ele><time>2026-03-28T13:54:33Z</time></trkpt><trkpt lat="36.90771594185667" lon="15.14978137252882"><ele>13.0</ele><time>2026-03-28T13:54:34Z</time></trkpt><trkpt lat="36.907630517789975" lon="15.149723583913936"><ele>12.8</ele><time>2026-03-28T13:54:35Z</time></trkpt><trkpt lat="36.90755921552589" lon="15.149634535371785"><ele>12.600000000000001</ele><time>2026-03-28T13:54:36Z</time></trkpt><trkpt lat="36.90750123839712" lon="15.149560298290838"><ele>12.399999999999999</ele><time>2026-03-28T13:54:37Z</time></trkpt><trkpt lat="36.90744800599236" lon="15.149467593791307"><ele>12.2</ele><time>2026-03-28T13:54:38Z</time></trkpt><trkpt lat="36.90739274655677" lon="15.149373683392735"><ele>12.0</ele><time>2026-03-28T13:54:39Z</time></trkpt><trkpt lat="36.907340057603385" lon="15.14928352176506"><ele>12.0</ele><time>2026-03-28T13:54:40Z</time></trkpt><trkpt lat="36.90729349219117" lon="15.149203283944578"><ele>12.0</ele><time>2026-03-28T13:54:41Z</time></trkpt><trkpt lat="36.90723007105079" lon="15.149128084478397"><ele>12.0</ele><time>2026-03-28T13:54:42Z</time></trkpt><trkpt lat="36.90718554121802" lon="15.149031011079428"><ele>12.0</ele><time>2026-03-28T13:54:43Z</time></trkpt><trkpt lat="36.907131312408374" lon="15.148931400672156"><ele>12.0</ele><time>2026-03-28T13:54:44Z</time></trkpt><trkpt lat="36.90707337236776" lon="15.148832029827117"><ele>12.333333333333334</ele><time>2026-03-28T13:54:45Z</time></trkpt><trkpt lat="36.90702068793598" lon="15.1487414872089"><ele>12.666666666666668</ele><time>2026-03-28T13:54:46Z</time></trkpt><trkpt lat="36.906966920178405" lon="15.148654655239582"><ele>13.0</ele><time>2026-03-28T13:54:47Z</time></trkpt><trkpt lat="36.906916584792285" lon="15.148571900825122"><ele>13.333333333333334</ele><time>2026-03-28T13:54:48Z</time></trkpt><trkpt lat="36.90685982667081" lon="15.148491361769313"><ele>13.666666666666668</ele><time>2026-03-28T13:54:49Z</time></trkpt><trkpt lat="36.906789100556644" lon="15.148420159667154"><ele>14.0</ele><time>2026-03-28T13:54:50Z</time></trkpt><trkpt lat="36.90671242948604" lon="15.148355224462913"><ele>14.0</ele><time>2026-03-28T13:54:51Z</time></trkpt><trkpt lat="36.906623830536844" lon="15.148305058309486"><ele>13.999999999999998</ele><time>2026-03-28T13:54:52Z</time></trkpt><trkpt lat="36.90654119151798" lon="15.148247884638236"><ele>13.999999999999998</ele><time>2026-03-28T13:54:53Z</time></trkpt><trkpt lat="36.90645233382174" lon="15.148200799611713"><ele>14.0</ele><time>2026-03-28T13:54:54Z</time></trkpt><trkpt lat="36.906361281304946" lon="15.148161961744385"><ele>14.0</ele><time>2026-03-28T13:54:55Z</time></trkpt><trkpt lat="36.90624914101059" lon="15.148121807276377"><ele>14.0</ele><time>2026-03-28T13:54:56Z</time></trkpt><trkpt lat="36.906094522812225" lon="15.148075199618667"><ele>14.0</ele><time>2026-03-28T13:54:57Z</time></trkpt><trkpt lat="36.90595275916775" lon="15.148034331265817"><ele>14.0</ele><time>2026-03-28T13:54:58Z</time></trkpt><trkpt lat="36.905764881496204" lon="15.147979952546581"><ele>14.0</ele><time>2026-03-28T13:54:59Z</time></trkpt><trkpt lat="36.905610125437896" lon="15.147935280704953"><ele>14.0</ele><time>2026-03-28T13:55:00Z</time></trkpt><trkpt lat="36.905438321635174" lon="15.147884831483779"><ele>14.0</ele><time>2026-03-28T13:55:01Z</time></trkpt><trkpt lat="36.905267564708765" lon="15.147877636317713"><ele>14.0</ele><time>2026-03-28T13:55:02Z</time></trkpt><trkpt lat="36.905109380187774" lon="15.147822523687804"><ele>14.0</ele><time>2026-03-28T13:55:03Z</time></trkpt><trkpt lat="36.90494830568374" lon="15.147771616304613"><ele>14.0</ele><time>2026-03-28T13:55:04Z</time></trkpt><trkpt lat="36.904796634833666" lon="15.147708101151586"><ele>13.0</ele><time>2026-03-28T13:55:05Z</time></trkpt><trkpt lat="36.9046364080149" lon="15.147658114958894"><ele>12.0</ele><time>2026-03-28T13:55:06Z</time></trkpt><trkpt lat="36.904476385824644" lon="15.147616330766546"><ele>11.0</ele><time>2026-03-28T13:55:07Z</time></trkpt><trkpt lat="36.90433269848819" lon="15.147549773031809"><ele>10.666666666666666</ele><time>2026-03-28T13:55:08Z</time></trkpt><trkpt lat="36.904186050379835" lon="15.147504902366338"><ele>10.333333333333334</ele><time>2026-03-28T13:55:09Z</time></trkpt><trkpt lat="36.90402972483455" lon="15.14745824215039"><ele>10.0</ele><time>2026-03-28T13:55:10Z</time></trkpt><trkpt lat="36.90387151572138" lon="15.147414525991438"><ele>10.75</ele><time>2026-03-28T13:55:10.999Z</time></trkpt><trkpt lat="36.90372556265394" lon="15.14736855390329"><ele>11.5</ele><time>2026-03-28T13:55:11.999Z</time></trkpt><trkpt lat="36.903582146254024" lon="15.147317408681161"><ele>12.25</ele><time>2026-03-28T13:55:12.999Z</time></trkpt><trkpt lat="36.903478757045484" lon="15.147184631407404"><ele>13.0</ele><time>2026-03-28T13:55:13.999Z</time></trkpt><trkpt lat="36.903373071916114" lon="15.147050584726811"><ele>13.0</ele><time>2026-03-28T13:55:14.999Z</time></trkpt><trkpt lat="36.903258160666304" lon="15.146921436411793"><ele>13.0</ele><time>2026-03-28T13:55:15.999Z</time></trkpt><trkpt lat="36.9031587074254" lon="15.146776629487832"><ele>13.0</ele><time>2026-03-28T13:55:16.999Z</time></trkpt><trkpt lat="36.90306126568104" lon="15.146640011448605"><ele>13.5</ele><time>2026-03-28T13:55:17.999Z</time></trkpt><trkpt lat="36.90296061544393" lon="15.146513251296144"><ele>14.0</ele><time>2026-03-28T13:55:18.999Z</time></trkpt><trkpt lat="36.902861314007566" lon="15.14638724161126"><ele>14.5</ele><time>2026-03-28T13:55:19.999Z</time></trkpt><trkpt lat="36.902766631098416" lon="15.146274154035696"><ele>15.0</ele><time>2026-03-28T13:55:20.999Z</time></trkpt><trkpt lat="36.90268005151476" lon="15.14616544620423"><ele>15.0</ele><time>2026-03-28T13:55:21.999Z</time></trkpt><trkpt lat="36.902588811276395" lon="15.146052718219245"><ele>15.0</ele><time>2026-03-28T13:55:22.999Z</time></trkpt><trkpt lat="36.90249732809415" lon="15.145932733555073"><ele>15.0</ele><time>2026-03-28T13:55:23.999Z</time></trkpt><trkpt lat="36.90240411252584" lon="15.145822109106492"><ele>15.0</ele><time>2026-03-28T13:55:24.999Z</time></trkpt><trkpt lat="36.902309329717504" lon="15.145704136931855"><ele>15.25</ele><time>2026-03-28T13:55:25.999Z</time></trkpt><trkpt lat="36.90221848096917" lon="15.145592822317028"><ele>15.5</ele><time>2026-03-28T13:55:26.999Z</time></trkpt><trkpt lat="36.902149793764934" lon="15.145477341125318"><ele>15.75</ele><time>2026-03-28T13:55:27.999Z</time></trkpt><trkpt lat="36.90207556997218" lon="15.145381139591294"><ele>16.0</ele><time>2026-03-28T13:55:28.999Z</time></trkpt><trkpt lat="36.90200566045805" lon="15.145290529806104"><ele>16.0</ele><time>2026-03-28T13:55:29.999Z</time></trkpt><trkpt lat="36.90192934077862" lon="15.14521628118055"><ele>16.0</ele><time>2026-03-28T13:55:30.999Z</time></trkpt><trkpt lat="36.901862216054425" lon="15.145131423810001"><ele>16.0</ele><time>2026-03-28T13:55:31.999Z</time></trkpt><trkpt lat="36.90179841870858" lon="15.145043346455118"><ele>16.0</ele><time>2026-03-28T13:55:32.999Z</time></trkpt><trkpt lat="36.901735817641466" lon="15.144959876175427"><ele>16.0</ele><time>2026-03-28T13:55:33.999Z</time></trkpt><trkpt lat="36.90167703832523" lon="15.144886653094932"><ele>15.8</ele><time>2026-03-28T13:55:34.999Z</time></trkpt><trkpt lat="36.90162809451486" lon="15.144814949558546"><ele>15.600000000000001</ele><time>2026-03-28T13:55:35.999Z</time></trkpt><trkpt lat="36.90157946284644" lon="15.144754393379198"><ele>15.4</ele><time>2026-03-28T13:55:36.999Z</time></trkpt><trkpt lat="36.90150089000016" lon="15.144659567455133"><ele>15.2</ele><time>2026-03-28T13:55:38.999Z</time></trkpt><trkpt lat="36.90142709051793" lon="15.144548294792026"><ele>15.0</ele><time>2026-03-28T13:55:40.999Z</time></trkpt><trkpt lat="36.901346992272394" lon="15.144445700289234"><ele>15.0</ele><time>2026-03-28T13:55:42.999Z</time></trkpt><trkpt lat="36.90129200810769" lon="15.144381303323257"><ele>15.0</ele><time>2026-03-28T13:55:43.999Z</time></trkpt><trkpt lat="36.901230082199824" lon="15.144304933283733"><ele>15.0</ele><time>2026-03-28T13:55:44.999Z</time></trkpt><trkpt lat="36.90117632932506" lon="15.144235283239679"><ele>15.0</ele><time>2026-03-28T13:55:45.999Z</time></trkpt><trkpt lat="36.90111922636824" lon="15.144173002702498"><ele>15.0</ele><time>2026-03-28T13:55:46.999Z</time></trkpt><trkpt lat="36.90106267765368" lon="15.144099650661753"><ele>15.0</ele><time>2026-03-28T13:55:47.999Z</time></trkpt><trkpt lat="36.90100614718625" lon="15.144033515148786"><ele>15.0</ele><time>2026-03-28T13:55:48.999Z</time></trkpt><trkpt lat="36.900944868154376" lon="15.143964071785227"><ele>15.0</ele><time>2026-03-28T13:55:49.999Z</time></trkpt><trkpt lat="36.90087627874918" lon="15.143900601261361"><ele>15.0</ele><time>2026-03-28T13:55:50.999Z</time></trkpt><trkpt lat="36.90080765728908" lon="15.143854827950157"><ele>15.0</ele><time>2026-03-28T13:55:51.999Z</time></trkpt><trkpt lat="36.90073300765157" lon="15.143812277160045"><ele>15.0</ele><time>2026-03-28T13:55:52.999Z</time></trkpt><trkpt lat="36.9006669814952" lon="15.14377487122835"><ele>15.0</ele><time>2026-03-28T13:55:53.999Z</time></trkpt><trkpt lat="36.90060760230262" lon="15.14373965615246"><ele>15.0</ele><time>2026-03-28T13:55:54.999Z</time></trkpt><trkpt lat="36.90054757322495" lon="15.1437042704973"><ele>15.0</ele><time>2026-03-28T13:55:55.999Z</time></trkpt><trkpt lat="36.90044106704361" lon="15.143646268937461"><ele>15.0</ele><time>2026-03-28T13:55:57.999Z</time></trkpt><trkpt lat="36.90035380350191" lon="15.143596675389105"><ele>15.0</ele><time>2026-03-28T13:55:59.999Z</time></trkpt><trkpt lat="36.900287044784015" lon="15.143547209889146"><ele>15.0</ele><time>2026-03-28T13:56:01.999Z</time></trkpt><trkpt lat="36.90022581032314" lon="15.143527059152676"><ele>15.0</ele><time>2026-03-28T13:56:14.999Z</time></trkpt><trkpt lat="36.90008580056498" lon="15.143669260079163"><ele>14.4</ele><time>2026-03-28T13:56:18.999Z</time></trkpt><trkpt lat="36.90003177344604" lon="15.143783640534082"><ele>13.8</ele><time>2026-03-28T13:56:19.999Z</time></trkpt><trkpt lat="36.89998164465953" lon="15.14390413834199"><ele>13.2</ele><time>2026-03-28T13:56:20.999Z</time></trkpt><trkpt lat="36.89993214997888" lon="15.14399258402773"><ele>12.6</ele><time>2026-03-28T13:56:21.999Z</time></trkpt><trkpt lat="36.89988088174321" lon="15.144074900276754"><ele>12.0</ele><time>2026-03-28T13:56:22.999Z</time></trkpt><trkpt lat="36.8998413680657" lon="15.144188401167106"><ele>12.0</ele><time>2026-03-28T13:56:23.999Z</time></trkpt><trkpt lat="36.899778445709124" lon="15.144301272100103"><ele>12.0</ele><time>2026-03-28T13:56:24.999Z</time></trkpt><trkpt lat="36.89971081092037" lon="15.14443848686578"><ele>12.0</ele><time>2026-03-28T13:56:25.999Z</time></trkpt><trkpt lat="36.89964278404273" lon="15.144572424396877"><ele>12.0</ele><time>2026-03-28T13:56:26.999Z</time></trkpt><trkpt lat="36.89957244739751" lon="15.14469771683467"><ele>12.0</ele><time>2026-03-28T13:56:28Z</time></trkpt><trkpt lat="36.89952218432603" lon="15.144797577376783"><ele>12.0</ele><time>2026-03-28T13:56:29Z</time></trkpt><trkpt lat="36.8994828602336" lon="15.144873955182632"><ele>12.0</ele><time>2026-03-28T13:56:30Z</time></trkpt><trkpt lat="36.89943761109549" lon="15.144972561505652"><ele>12.0</ele><time>2026-03-28T13:56:32Z</time></trkpt><trkpt lat="36.899392295580306" lon="15.145041157868961"><ele>12.0</ele><time>2026-03-28T13:56:34Z</time></trkpt><trkpt lat="36.899332421227776" lon="15.145099260230653"><ele>12.0</ele><time>2026-03-28T13:56:37Z</time></trkpt><trkpt lat="36.8992635448619" lon="15.14501565977428"><ele>12.0</ele><time>2026-03-28T13:56:38Z</time></trkpt><trkpt lat="36.8991914516004" lon="15.14496102978502"><ele>12.0</ele><time>2026-03-28T13:56:39Z</time></trkpt><trkpt lat="36.899132495714355" lon="15.144916236228456"><ele>12.0</ele><time>2026-03-28T13:56:40Z</time></trkpt><trkpt lat="36.89901959014483" lon="15.144853749774944"><ele>12.0</ele><time>2026-03-28T13:56:42Z</time></trkpt><trkpt lat="36.89897310383376" lon="15.144793965707748"><ele>12.0</ele><time>2026-03-28T13:56:43Z</time></trkpt><trkpt lat="36.89891426561618" lon="15.144739212783165"><ele>12.0</ele><time>2026-03-28T13:56:44Z</time></trkpt><trkpt lat="36.898855323553846" lon="15.144673630850608"><ele>12.0</ele><time>2026-03-28T13:56:45Z</time></trkpt><trkpt lat="36.898777515328554" lon="15.144609874592968"><ele>12.0</ele><time>2026-03-28T13:56:46Z</time></trkpt><trkpt lat="36.898693919148776" lon="15.144507142215863"><ele>12.0</ele><time>2026-03-28T13:56:47Z</time></trkpt><trkpt lat="36.898576360455664" lon="15.144386364839487"><ele>12.0</ele><time>2026-03-28T13:56:48Z</time></trkpt><trkpt lat="36.898454615276016" lon="15.144286283469363"><ele>12.0</ele><time>2026-03-28T13:56:49Z</time></trkpt><trkpt lat="36.89835213953801" lon="15.144162765796606"><ele>12.0</ele><time>2026-03-28T13:56:50Z</time></trkpt><trkpt lat="36.898239730304255" lon="15.144049377338032"><ele>12.0</ele><time>2026-03-28T13:56:51Z</time></trkpt><trkpt lat="36.8981101853821" lon="15.143951027817229"><ele>12.0</ele><time>2026-03-28T13:56:52Z</time></trkpt><trkpt lat="36.89796726473916" lon="15.143869639197343"><ele>11.333333333333334</ele><time>2026-03-28T13:56:53Z</time></trkpt><trkpt lat="36.8978194255553" lon="15.14380890952208"><ele>10.666666666666668</ele><time>2026-03-28T13:56:54Z</time></trkpt><trkpt lat="36.8976712117295" lon="15.143757071035498"><ele>10.0</ele><time>2026-03-28T13:56:55Z</time></trkpt><trkpt lat="36.89752819853717" lon="15.14370887815507"><ele>9.5</ele><time>2026-03-28T13:56:56Z</time></trkpt><trkpt lat="36.89739961314077" lon="15.143662837154814"><ele>9.0</ele><time>2026-03-28T13:56:57Z</time></trkpt><trkpt lat="36.89728324822501" lon="15.143629623497088"><ele>8.5</ele><time>2026-03-28T13:56:58Z</time></trkpt><trkpt lat="36.89717199637926" lon="15.143615272537952"><ele>8.0</ele><time>2026-03-28T13:56:59Z</time></trkpt><trkpt lat="36.897067641139586" lon="15.1435958934933"><ele>8.0</ele><time>2026-03-28T13:57:00Z</time></trkpt><trkpt lat="36.89694798059134" lon="15.143576578656408"><ele>8.0</ele><time>2026-03-28T13:57:01Z</time></trkpt><trkpt lat="36.896817710103704" lon="15.143555551233588"><ele>8.0</ele><time>2026-03-28T13:57:02Z</time></trkpt><trkpt lat="36.89668446157639" lon="15.14353404311247"><ele>8.0</ele><time>2026-03-28T13:57:03Z</time></trkpt><trkpt lat="36.896548300291286" lon="15.143510220431853"><ele>7.75</ele><time>2026-03-28T13:57:04Z</time></trkpt><trkpt lat="36.89639939501909" lon="15.14349490598072"><ele>7.5</ele><time>2026-03-28T13:57:05Z</time></trkpt><trkpt lat="36.8962603368141" lon="15.143444990925605"><ele>7.25</ele><time>2026-03-28T13:57:06Z</time></trkpt><trkpt lat="36.896116391587206" lon="15.14339429286425"><ele>7.0</ele><time>2026-03-28T13:57:07Z</time></trkpt><trkpt lat="36.895968807815066" lon="15.143347786506405"><ele>6.5</ele><time>2026-03-28T13:57:08Z</time></trkpt><trkpt lat="36.895827395141374" lon="15.143309388909781"><ele>6.0</ele><time>2026-03-28T13:57:09Z</time></trkpt><trkpt lat="36.89569122862148" lon="15.143273342458668"><ele>5.5</ele><time>2026-03-28T13:57:10Z</time></trkpt><trkpt lat="36.89556011355958" lon="15.143238842395455"><ele>5.0</ele><time>2026-03-28T13:57:11Z</time></trkpt><trkpt lat="36.89543257021298" lon="15.143214157316638"><ele>5.0</ele><time>2026-03-28T13:57:12Z</time></trkpt><trkpt lat="36.895306993938306" lon="15.14322156525331"><ele>5.0</ele><time>2026-03-28T13:57:13Z</time></trkpt><trkpt lat="36.89518467389126" lon="15.14327109864652"><ele>5.0</ele><time>2026-03-28T13:57:14Z</time></trkpt><trkpt lat="36.895061716286385" lon="15.143335142554468"><ele>5.0</ele><time>2026-03-28T13:57:15Z</time></trkpt><trkpt lat="36.89492359763648" lon="15.143369005449095"><ele>5.0</ele><time>2026-03-28T13:57:16Z</time></trkpt><trkpt lat="36.89480134757022" lon="15.143357011181603"><ele>5.0</ele><time>2026-03-28T13:57:17Z</time></trkpt><trkpt lat="36.89469328805704" lon="15.143324732180425"><ele>5.0</ele><time>2026-03-28T13:57:18Z</time></trkpt><trkpt lat="36.894597207265505" lon="15.143280053632967"><ele>5.0</ele><time>2026-03-28T13:57:19Z</time></trkpt><trkpt lat="36.894507687086694" lon="15.143222216463286"><ele>5.0</ele><time>2026-03-28T13:57:20Z</time></trkpt><trkpt lat="36.89442494663866" lon="15.143165660386712"><ele>5.333333333333334</ele><time>2026-03-28T13:57:21Z</time></trkpt><trkpt lat="36.894350568440814" lon="15.143101058717951"><ele>5.666666666666667</ele><time>2026-03-28T13:57:22Z</time></trkpt><trkpt lat="36.894285070250135" lon="15.143046963178474"><ele>6.0</ele><time>2026-03-28T13:57:23Z</time></trkpt><trkpt lat="36.89421991370996" lon="15.143007133666417"><ele>6.333333333333334</ele><time>2026-03-28T13:57:23.999Z</time></trkpt><trkpt lat="36.89415697656818" lon="15.142972748037295"><ele>6.666666666666667</ele><time>2026-03-28T13:57:24.999Z</time></trkpt><trkpt lat="36.8940744740419" lon="15.142942049280107"><ele>7.0</ele><time>2026-03-28T13:57:25.999Z</time></trkpt><trkpt lat="36.893969765796996" lon="15.142880321675477"><ele>7.0</ele><time>2026-03-28T13:57:26.999Z</time></trkpt><trkpt lat="36.89382554387289" lon="15.14283722036771"><ele>7.0</ele><time>2026-03-28T13:57:27.999Z</time></trkpt><trkpt lat="36.89366412066444" lon="15.14278930018015"><ele>7.0</ele><time>2026-03-28T13:57:28.999Z</time></trkpt><trkpt lat="36.89348569898838" lon="15.142725003455064"><ele>6.666666666666667</ele><time>2026-03-28T13:57:29.999Z</time></trkpt><trkpt lat="36.89328499475437" lon="15.142622256184799"><ele>6.333333333333334</ele><time>2026-03-28T13:57:30.999Z</time></trkpt><trkpt lat="36.89309637002596" lon="15.142511250412609"><ele>6.0</ele><time>2026-03-28T13:57:31.999Z</time></trkpt><trkpt lat="36.89295626431659" lon="15.142406313417263"><ele>7.333333333333334</ele><time>2026-03-28T13:57:32.999Z</time></trkpt><trkpt lat="36.89281980873672" lon="15.14228455567614"><ele>8.666666666666668</ele><time>2026-03-28T13:57:33.999Z</time></trkpt><trkpt lat="36.89274281222986" lon="15.14208277117788"><ele>10.0</ele><time>2026-03-28T13:57:34.999Z</time></trkpt><trkpt lat="36.892636615895604" lon="15.141915109397875"><ele>8.666666666666668</ele><time>2026-03-28T13:57:35.999Z</time></trkpt><trkpt lat="36.89250243689772" lon="15.141792730702463"><ele>7.333333333333334</ele><time>2026-03-28T13:57:36.999Z</time></trkpt><trkpt lat="36.892342404956786" lon="15.141713097718279"><ele>6.0</ele><time>2026-03-28T13:57:37.999Z</time></trkpt><trkpt lat="36.89217611986649" lon="15.141645804003296"><ele>6.0</ele><time>2026-03-28T13:57:38.999Z</time></trkpt><trkpt lat="36.89203472595252" lon="15.141562949277427"><ele>6.0</ele><time>2026-03-28T13:57:39.999Z</time></trkpt><trkpt lat="36.891896978645526" lon="15.14147809537521"><ele>6.0</ele><time>2026-03-28T13:57:40.999Z</time></trkpt><trkpt lat="36.89174909989943" lon="15.14133524062253"><ele>6.333333333333334</ele><time>2026-03-28T13:57:41.999Z</time></trkpt><trkpt lat="36.89156885475201" lon="15.141256618632495"><ele>6.666666666666667</ele><time>2026-03-28T13:57:42.999Z</time></trkpt><trkpt lat="36.8914181848127" lon="15.141190842641887"><ele>7.0</ele><time>2026-03-28T13:57:43.999Z</time></trkpt><trkpt lat="36.891270950011396" lon="15.141144865177472"><ele>7.0</ele><time>2026-03-28T13:57:44.999Z</time></trkpt><trkpt lat="36.89115053308865" lon="15.141041276505348"><ele>7.0</ele><time>2026-03-28T13:57:45.999Z</time></trkpt><trkpt lat="36.8910412135831" lon="15.14092148229115"><ele>7.0</ele><time>2026-03-28T13:57:46.999Z</time></trkpt><trkpt lat="36.890930611682755" lon="15.14082212125071"><ele>7.0</ele><time>2026-03-28T13:57:47.999Z</time></trkpt><trkpt lat="36.890813658981294" lon="15.14072492166306"><ele>7.25</ele><time>2026-03-28T13:57:48.999Z</time></trkpt><trkpt lat="36.89068507943292" lon="15.140632534269454"><ele>7.5</ele><time>2026-03-28T13:57:49.999Z</time></trkpt><trkpt lat="36.89055459967565" lon="15.140562606277465"><ele>7.75</ele><time>2026-03-28T13:57:50.999Z</time></trkpt><trkpt lat="36.89044107034359" lon="15.140513213807667"><ele>8.0</ele><time>2026-03-28T13:57:51.999Z</time></trkpt><trkpt lat="36.890342942309616" lon="15.14049201737837"><ele>8.0</ele><time>2026-03-28T13:57:52.999Z</time></trkpt><trkpt lat="36.890246166191744" lon="15.140485683342039"><ele>8.0</ele><time>2026-03-28T13:57:53.999Z</time></trkpt><trkpt lat="36.89013815961181" lon="15.140478267930419"><ele>8.0</ele><time>2026-03-28T13:57:54.999Z</time></trkpt><trkpt lat="36.890018647499836" lon="15.140458601154926"><ele>8.0</ele><time>2026-03-28T13:57:55.999Z</time></trkpt><trkpt lat="36.889890205372055" lon="15.14047130625235"><ele>8.200000000000001</ele><time>2026-03-28T13:57:56.999Z</time></trkpt><trkpt lat="36.889781111115894" lon="15.14051949200116"><ele>8.4</ele><time>2026-03-28T13:57:57.999Z</time></trkpt><trkpt lat="36.88968153435238" lon="15.14053676322794"><ele>8.600000000000001</ele><time>2026-03-28T13:57:58.999Z</time></trkpt><trkpt lat="36.88958157794066" lon="15.140545178743587"><ele>8.8</ele><time>2026-03-28T13:57:59.999Z</time></trkpt><trkpt lat="36.889475720590085" lon="15.140551831409878"><ele>9.0</ele><time>2026-03-28T13:58:00.999Z</time></trkpt><trkpt lat="36.88937282773402" lon="15.140557699308237"><ele>9.0</ele><time>2026-03-28T13:58:01.999Z</time></trkpt><trkpt lat="36.88926922569229" lon="15.140570751065058"><ele>9.0</ele><time>2026-03-28T13:58:02.999Z</time></trkpt><trkpt lat="36.88916643586457" lon="15.140585502969289"><ele>9.0</ele><time>2026-03-28T13:58:03.999Z</time></trkpt><trkpt lat="36.88906532766287" lon="15.140597197138185"><ele>9.0</ele><time>2026-03-28T13:58:04.999Z</time></trkpt><trkpt lat="36.888968818264765" lon="15.140601278400084"><ele>9.0</ele><time>2026-03-28T13:58:05.999Z</time></trkpt><trkpt lat="36.88886969570807" lon="15.14061178354347"><ele>8.833333333333334</ele><time>2026-03-28T13:58:06.999Z</time></trkpt><trkpt lat="36.888775525281005" lon="15.140619527389086"><ele>8.666666666666666</ele><time>2026-03-28T13:58:07.999Z</time></trkpt><trkpt lat="36.888697591138786" lon="15.140618771643643"><ele>8.5</ele><time>2026-03-28T13:58:08.999Z</time></trkpt><trkpt lat="36.888635928651915" lon="15.140597891645653"><ele>8.333333333333332</ele><time>2026-03-28T13:58:09.999Z</time></trkpt><trkpt lat="36.8885802465636" lon="15.140545346103691"><ele>8.166666666666666</ele><time>2026-03-28T13:58:10.999Z</time></trkpt><trkpt lat="36.88852889432585" lon="15.14045597986058"><ele>8.0</ele><time>2026-03-28T13:58:11.999Z</time></trkpt><trkpt lat="36.888432553877934" lon="15.140369036400967"><ele>7.666666666666666</ele><time>2026-03-28T13:58:12.999Z</time></trkpt><trkpt lat="36.88828158460624" lon="15.140220628702343"><ele>7.333333333333334</ele><time>2026-03-28T13:58:13.999Z</time></trkpt><trkpt lat="36.888104428373104" lon="15.140070725538415"><ele>7.0</ele><time>2026-03-28T13:58:14.999Z</time></trkpt><trkpt lat="36.88796720966815" lon="15.139930512218038"><ele>7.0</ele><time>2026-03-28T13:58:15.999Z</time></trkpt><trkpt lat="36.88784205082353" lon="15.139804033467318"><ele>7.0</ele><time>2026-03-28T13:58:16.999Z</time></trkpt><trkpt lat="36.88772294317062" lon="15.139688256461259"><ele>7.0</ele><time>2026-03-28T13:58:17.999Z</time></trkpt><trkpt lat="36.88761090041555" lon="15.139596882381584"><ele>7.0</ele><time>2026-03-28T13:58:18.999Z</time></trkpt><trkpt lat="36.887510751895476" lon="15.139534378325381"><ele>6.8</ele><time>2026-03-28T13:58:19.999Z</time></trkpt><trkpt lat="36.88740444032569" lon="15.13951499116214"><ele>6.6</ele><time>2026-03-28T13:58:20.999Z</time></trkpt><trkpt lat="36.887300989232315" lon="15.139594542137747"><ele>6.3999999999999995</ele><time>2026-03-28T13:58:21.999Z</time></trkpt><trkpt lat="36.88721591525094" lon="15.139662553345339"><ele>6.199999999999999</ele><time>2026-03-28T13:58:22.999Z</time></trkpt><trkpt lat="36.887140406383004" lon="15.139703836647987"><ele>6.0</ele><time>2026-03-28T13:58:23.999Z</time></trkpt><trkpt lat="36.88706057126257" lon="15.139700479706695"><ele>6.0</ele><time>2026-03-28T13:58:24.999Z</time></trkpt><trkpt lat="36.88698696446043" lon="15.139621478313268"><ele>6.0</ele><time>2026-03-28T13:58:25.999Z</time></trkpt><trkpt lat="36.886898044984385" lon="15.13956676880006"><ele>6.0</ele><time>2026-03-28T13:58:26.999Z</time></trkpt><trkpt lat="36.88680159714517" lon="15.13953127382272"><ele>6.0</ele><time>2026-03-28T13:58:27.999Z</time></trkpt><trkpt lat="36.88670881985443" lon="15.139468575348788"><ele>6.0</ele><time>2026-03-28T13:58:28.999Z</time></trkpt><trkpt lat="36.886612386886604" lon="15.139412569140031"><ele>6.25</ele><time>2026-03-28T13:58:29.999Z</time></trkpt><trkpt lat="36.88650910025882" lon="15.139357864543458"><ele>6.5</ele><time>2026-03-28T13:58:30.999Z</time></trkpt><trkpt lat="36.88639973651882" lon="15.139311325242502"><ele>6.75</ele><time>2026-03-28T13:58:31.999Z</time></trkpt><trkpt lat="36.88628569732566" lon="15.139287725852705"><ele>7.0</ele><time>2026-03-28T13:58:32.999Z</time></trkpt><trkpt lat="36.88615663359215" lon="15.139308850265586"><ele>7.0</ele><time>2026-03-28T13:58:34Z</time></trkpt><trkpt lat="36.88601307879229" lon="15.139355321360485"><ele>7.0</ele><time>2026-03-28T13:58:35Z</time></trkpt><trkpt lat="36.88588944383142" lon="15.139388888348885"><ele>7.0</ele><time>2026-03-28T13:58:36Z</time></trkpt><trkpt lat="36.885778356928945" lon="15.139396649286534"><ele>7.0</ele><time>2026-03-28T13:58:37Z</time></trkpt><trkpt lat="36.88568348140315" lon="15.13937179838148"><ele>6.8</ele><time>2026-03-28T13:58:38Z</time></trkpt><trkpt lat="36.88559088867237" lon="15.139293048693572"><ele>6.6</ele><time>2026-03-28T13:58:39Z</time></trkpt><trkpt lat="36.88549027642428" lon="15.139258509581609"><ele>6.3999999999999995</ele><time>2026-03-28T13:58:40Z</time></trkpt><trkpt lat="36.88539067893589" lon="15.139215980315475"><ele>6.199999999999999</ele><time>2026-03-28T13:58:41Z</time></trkpt><trkpt lat="36.885304599270555" lon="15.139185056180253"><ele>6.0</ele><time>2026-03-28T13:58:42Z</time></trkpt><trkpt lat="36.885216987588855" lon="15.139212501386899"><ele>6.0</ele><time>2026-03-28T13:58:43Z</time></trkpt><trkpt lat="36.885143553290696" lon="15.139223644986828"><ele>6.0</ele><time>2026-03-28T13:58:44Z</time></trkpt><trkpt lat="36.885057076048426" lon="15.13923991690547"><ele>6.0</ele><time>2026-03-28T13:58:45Z</time></trkpt><trkpt lat="36.88494809470275" lon="15.13926604354439"><ele>6.0</ele><time>2026-03-28T13:58:46Z</time></trkpt><trkpt lat="36.884841130114964" lon="15.139293002534682"><ele>6.0</ele><time>2026-03-28T13:58:47Z</time></trkpt><trkpt lat="36.884733287576694" lon="15.139306800431276"><ele>6.25</ele><time>2026-03-28T13:58:48Z</time></trkpt><trkpt lat="36.88463094574183" lon="15.139301218219726"><ele>6.5</ele><time>2026-03-28T13:58:49Z</time></trkpt><trkpt lat="36.88452740071027" lon="15.139282197762798"><ele>6.75</ele><time>2026-03-28T13:58:50Z</time></trkpt><trkpt lat="36.8843939498019" lon="15.139230458913227"><ele>7.0</ele><time>2026-03-28T13:58:51Z</time></trkpt><trkpt lat="36.88425094985" lon="15.139182844260525"><ele>7.0</ele><time>2026-03-28T13:58:52Z</time></trkpt><trkpt lat="36.88410055322293" lon="15.139133804891012"><ele>7.0</ele><time>2026-03-28T13:58:53Z</time></trkpt><trkpt lat="36.88394728152813" lon="15.139078360982214"><ele>7.0</ele><time>2026-03-28T13:58:54Z</time></trkpt><trkpt lat="36.88379278292097" lon="15.13901997673849"><ele>7.5</ele><time>2026-03-28T13:58:55Z</time></trkpt><trkpt lat="36.88364676035451" lon="15.138966320314802"><ele>8.0</ele><time>2026-03-28T13:58:56Z</time></trkpt><trkpt lat="36.88350695944736" lon="15.138913602396785"><ele>8.5</ele><time>2026-03-28T13:58:57Z</time></trkpt><trkpt lat="36.88338093381069" lon="15.138869974429365"><ele>9.0</ele><time>2026-03-28T13:58:58Z</time></trkpt><trkpt lat="36.883255025623235" lon="15.138821653402987"><ele>9.25</ele><time>2026-03-28T13:58:59Z</time></trkpt><trkpt lat="36.88312615124648" lon="15.138754517412993"><ele>9.5</ele><time>2026-03-28T13:59:00Z</time></trkpt><trkpt lat="36.88299063580744" lon="15.138705527536857"><ele>9.75</ele><time>2026-03-28T13:59:01Z</time></trkpt><trkpt lat="36.882860060529154" lon="15.13868147640977"><ele>10.0</ele><time>2026-03-28T13:59:02Z</time></trkpt><trkpt lat="36.882736161556736" lon="15.138629472720462"><ele>10.0</ele><time>2026-03-28T13:59:03Z</time></trkpt><trkpt lat="36.88261460492524" lon="15.138590664208472"><ele>10.0</ele><time>2026-03-28T13:59:04Z</time></trkpt><trkpt lat="36.88250742742141" lon="15.138550401863991"><ele>10.0</ele><time>2026-03-28T13:59:05Z</time></trkpt><trkpt lat="36.88240170913573" lon="15.138509099721386"><ele>10.0</ele><time>2026-03-28T13:59:06Z</time></trkpt><trkpt lat="36.88230321944963" lon="15.138467603687364"><ele>9.8</ele><time>2026-03-28T13:59:07Z</time></trkpt><trkpt lat="36.88221143393675" lon="15.138436211954316"><ele>9.6</ele><time>2026-03-28T13:59:08Z</time></trkpt><trkpt lat="36.882124391460984" lon="15.138411054665223"><ele>9.4</ele><time>2026-03-28T13:59:09Z</time></trkpt><trkpt lat="36.88204692059471" lon="15.138381223557227"><ele>9.2</ele><time>2026-03-28T13:59:10Z</time></trkpt><trkpt lat="36.88197821928431" lon="15.138350766528385"><ele>9.0</ele><time>2026-03-28T13:59:11Z</time></trkpt><trkpt lat="36.88187147829668" lon="15.138261637738939"><ele>9.4</ele><time>2026-03-28T13:59:13Z</time></trkpt><trkpt lat="36.88181919448027" lon="15.138191628206291"><ele>9.8</ele><time>2026-03-28T13:59:14Z</time></trkpt><trkpt lat="36.881761196583064" lon="15.138087244747283"><ele>10.200000000000001</ele><time>2026-03-28T13:59:15Z</time></trkpt><trkpt lat="36.88169337458252" lon="15.137970687070458"><ele>10.600000000000001</ele><time>2026-03-28T13:59:16Z</time></trkpt><trkpt lat="36.88160969389977" lon="15.13785040085287"><ele>11.0</ele><time>2026-03-28T13:59:17Z</time></trkpt><trkpt lat="36.88152853472733" lon="15.137740789129364"><ele>10.200000000000001</ele><time>2026-03-28T13:59:18Z</time></trkpt><trkpt lat="36.88146620556056" lon="15.137628908420865"><ele>9.4</ele><time>2026-03-28T13:59:19Z</time></trkpt><trkpt lat="36.88141679214806" lon="15.137516751148489"><ele>8.6</ele><time>2026-03-28T13:59:20Z</time></trkpt><trkpt lat="36.88137240726047" lon="15.137411780120939"><ele>7.8</ele><time>2026-03-28T13:59:21Z</time></trkpt><trkpt lat="36.881326086017125" lon="15.137302811978648"><ele>7.0</ele><time>2026-03-28T13:59:22Z</time></trkpt><trkpt lat="36.88128849427298" lon="15.137181850998932"><ele>7.0</ele><time>2026-03-28T13:59:23Z</time></trkpt><trkpt lat="36.88124516442286" lon="15.137075678747584"><ele>6.999999999999999</ele><time>2026-03-28T13:59:24Z</time></trkpt><trkpt lat="36.881216003905855" lon="15.136976783970425"><ele>6.999999999999999</ele><time>2026-03-28T13:59:25Z</time></trkpt><trkpt lat="36.881199407738855" lon="15.136869184229456"><ele>7.0</ele><time>2026-03-28T13:59:26Z</time></trkpt><trkpt lat="36.88119304551204" lon="15.13674616298829"><ele>7.0</ele><time>2026-03-28T13:59:27Z</time></trkpt><trkpt lat="36.881186486135555" lon="15.1366236568977"><ele>7.199999999999999</ele><time>2026-03-28T13:59:28Z</time></trkpt><trkpt lat="36.88118111739196" lon="15.13649948051406"><ele>7.3999999999999995</ele><time>2026-03-28T13:59:29Z</time></trkpt><trkpt lat="36.881186083729936" lon="15.13637485159822"><ele>7.6000000000000005</ele><time>2026-03-28T13:59:30Z</time></trkpt><trkpt lat="36.881166177349705" lon="15.136257413563749"><ele>7.800000000000001</ele><time>2026-03-28T13:59:30.999Z</time></trkpt><trkpt lat="36.881157508049" lon="15.13613504014443"><ele>8.0</ele><time>2026-03-28T13:59:31.999Z</time></trkpt><trkpt lat="36.88114802766435" lon="15.136010339548848"><ele>8.0</ele><time>2026-03-28T13:59:32.999Z</time></trkpt><trkpt lat="36.88113818903417" lon="15.135887065667369"><ele>8.0</ele><time>2026-03-28T13:59:33.999Z</time></trkpt><trkpt lat="36.881131526678494" lon="15.135780807464394"><ele>8.0</ele><time>2026-03-28T13:59:34.999Z</time></trkpt><trkpt lat="36.88112575170821" lon="15.1356893414136"><ele>8.0</ele><time>2026-03-28T13:59:35.999Z</time></trkpt><trkpt lat="36.88111467109542" lon="15.135563696504024"><ele>8.0</ele><time>2026-03-28T13:59:37.999Z</time></trkpt><trkpt lat="36.880972285356336" lon="15.135555998297917"><ele>7.4</ele><time>2026-03-28T13:59:41.999Z</time></trkpt><trkpt lat="36.88087054138389" lon="15.135609981052387"><ele>6.800000000000001</ele><time>2026-03-28T13:59:43.999Z</time></trkpt><trkpt lat="36.88082074713864" lon="15.135659836983328"><ele>6.2</ele><time>2026-03-28T13:59:44.999Z</time></trkpt><trkpt lat="36.88075645749113" lon="15.135716585302385"><ele>5.6</ele><time>2026-03-28T13:59:45.999Z</time></trkpt><trkpt lat="36.880682912948224" lon="15.135777796334912"><ele>5.0</ele><time>2026-03-28T13:59:46.999Z</time></trkpt><trkpt lat="36.88057323860215" lon="15.135854091727623"><ele>5.0</ele><time>2026-03-28T13:59:47.999Z</time></trkpt><trkpt lat="36.88048438084791" lon="15.135889463222409"><ele>5.0</ele><time>2026-03-28T13:59:48.999Z</time></trkpt><trkpt lat="36.880439977820615" lon="15.135947573770354"><ele>5.0</ele><time>2026-03-28T13:59:49.999Z</time></trkpt><trkpt lat="36.880369976295185" lon="15.135983086500833"><ele>5.0</ele><time>2026-03-28T13:59:51.999Z</time></trkpt><trkpt lat="36.88030882668183" lon="15.135918250536879"><ele>5.0</ele><time>2026-03-28T13:59:55.999Z</time></trkpt><trkpt lat="36.88024949107713" lon="15.135807038383556"><ele>5.0</ele><time>2026-03-28T13:59:58.999Z</time></trkpt><trkpt lat="36.88019253882772" lon="15.135750035336216"><ele>5.0</ele><time>2026-03-28T14:00:02.999Z</time></trkpt><trkpt lat="36.88012610814365" lon="15.135762415573124"><ele>5.0</ele><time>2026-03-28T14:00:04.999Z</time></trkpt><trkpt lat="36.88005392112309" lon="15.135764957011721"><ele>5.0</ele><time>2026-03-28T14:00:06.999Z</time></trkpt><trkpt lat="36.87998913617544" lon="15.135766336785123"><ele>5.0</ele><time>2026-03-28T14:00:08.999Z</time></trkpt><trkpt lat="36.879912683585445" lon="15.1357746867359"><ele>5.0</ele><time>2026-03-28T14:00:10.999Z</time></trkpt><trkpt lat="36.879843883868155" lon="15.135782555841542"><ele>5.0</ele><time>2026-03-28T14:00:12.999Z</time></trkpt><trkpt lat="36.87978046843012" lon="15.135790385427676"><ele>5.0</ele><time>2026-03-28T14:00:14.999Z</time></trkpt><trkpt lat="36.87971283581387" lon="15.13580637663583"><ele>4.714285714285714</ele><time>2026-03-28T14:00:16.999Z</time></trkpt><trkpt lat="36.87964808682026" lon="15.135823770111875"><ele>4.428571428571429</ele><time>2026-03-28T14:00:18.999Z</time></trkpt><trkpt lat="36.879582618541974" lon="15.135833760981035"><ele>4.142857142857142</ele><time>2026-03-28T14:00:21.999Z</time></trkpt><trkpt lat="36.879526697964344" lon="15.135784765583542"><ele>3.8571428571428568</ele><time>2026-03-28T14:00:24.999Z</time></trkpt><trkpt lat="36.87950623178538" lon="15.135668227570623"><ele>3.571428571428571</ele><time>2026-03-28T14:00:27.999Z</time></trkpt><trkpt lat="36.879491623538684" lon="15.13558627343328"><ele>3.2857142857142856</ele><time>2026-03-28T14:00:29.999Z</time></trkpt><trkpt lat="36.879472953456805" lon="15.135487649112317"><ele>3.0</ele><time>2026-03-28T14:00:31.999Z</time></trkpt><trkpt lat="36.87943765020765" lon="15.135418908145253"><ele>3.0</ele><time>2026-03-28T14:00:33.999Z</time></trkpt><trkpt lat="36.87939682354539" lon="15.135294968738544"><ele>3.0</ele><time>2026-03-28T14:00:36.999Z</time></trkpt><trkpt lat="36.8793691856691" lon="15.135187847713912"><ele>3.0</ele><time>2026-03-28T14:00:38.999Z</time></trkpt><trkpt lat="36.879324687217625" lon="15.135059775921777"><ele>3.0</ele><time>2026-03-28T14:00:41Z</time></trkpt><trkpt lat="36.87927508708605" lon="15.134910666297934"><ele>3.0</ele><time>2026-03-28T14:00:43Z</time></trkpt><trkpt lat="36.87924596529548" lon="15.134770493393829"><ele>3.1666666666666665</ele><time>2026-03-28T14:00:45Z</time></trkpt><trkpt lat="36.879218870213016" lon="15.134697324323655"><ele>3.333333333333333</ele><time>2026-03-28T14:00:46Z</time></trkpt><trkpt lat="36.87921259801017" lon="15.134600183254573"><ele>3.5</ele><time>2026-03-28T14:00:47Z</time></trkpt><trkpt lat="36.879187599125714" lon="15.134508920965096"><ele>3.6666666666666665</ele><time>2026-03-28T14:00:48Z</time></trkpt><trkpt lat="36.879161693222976" lon="15.134414347468043"><ele>3.833333333333333</ele><time>2026-03-28T14:00:49Z</time></trkpt><trkpt lat="36.87912984814896" lon="15.13430244166641"><ele>4.0</ele><time>2026-03-28T14:00:50Z</time></trkpt><trkpt lat="36.879085903749655" lon="15.134148142379667"><ele>4.0</ele><time>2026-03-28T14:00:51Z</time></trkpt><trkpt lat="36.8790486068028" lon="15.134015799786704"><ele>4.0</ele><time>2026-03-28T14:00:52Z</time></trkpt><trkpt lat="36.87901609111612" lon="15.133899707598594"><ele>4.0</ele><time>2026-03-28T14:00:53Z</time></trkpt><trkpt lat="36.878998576901346" lon="15.133769921044106"><ele>4.0</ele><time>2026-03-28T14:00:54Z</time></trkpt><trkpt lat="36.878986214261886" lon="15.133614757299396"><ele>4.0</ele><time>2026-03-28T14:00:55Z</time></trkpt><trkpt lat="36.87897332463504" lon="15.13345297933757"><ele>3.9999999999999996</ele><time>2026-03-28T14:00:56Z</time></trkpt><trkpt lat="36.87896121066384" lon="15.133304444774515"><ele>4.0</ele><time>2026-03-28T14:00:57Z</time></trkpt><trkpt lat="36.87895060987849" lon="15.133176205549235"><ele>4.0</ele><time>2026-03-28T14:00:58Z</time></trkpt><trkpt lat="36.878939665614936" lon="15.13306727063806"><ele>4.0</ele><time>2026-03-28T14:00:59Z</time></trkpt><trkpt lat="36.87893160584333" lon="15.132987046815336"><ele>3.9999999999999996</ele><time>2026-03-28T14:01:00Z</time></trkpt><trkpt lat="36.87890876707898" lon="15.132904320118133"><ele>4.0</ele><time>2026-03-28T14:01:02Z</time></trkpt><trkpt lat="36.879009902413" lon="15.132839322448712"><ele>3.9999999999999996</ele><time>2026-03-28T14:01:05Z</time></trkpt><trkpt lat="36.879090696088774" lon="15.132818767438893"><ele>4.0</ele><time>2026-03-28T14:01:06Z</time></trkpt><trkpt lat="36.879171026934806" lon="15.132781994826896"><ele>4.0</ele><time>2026-03-28T14:01:07Z</time></trkpt><trkpt lat="36.87924913510113" lon="15.132753177465304"><ele>4.0</ele><time>2026-03-28T14:01:08Z</time></trkpt><trkpt lat="36.879311857175" lon="15.132723651141005"><ele>3.9999999999999996</ele><time>2026-03-28T14:01:09Z</time></trkpt><trkpt lat="36.87940279193189" lon="15.132624107309047"><ele>4.0</ele><time>2026-03-28T14:01:11Z</time></trkpt><trkpt lat="36.879433584431624" lon="15.13255261679579"><ele>4.4</ele><time>2026-03-28T14:01:12Z</time></trkpt><trkpt lat="36.879484280573905" lon="15.132491555765181"><ele>4.800000000000001</ele><time>2026-03-28T14:01:13Z</time></trkpt><trkpt lat="36.87951599431791" lon="15.132414132774043"><ele>5.199999999999999</ele><time>2026-03-28T14:01:14Z</time></trkpt><trkpt lat="36.8795559058628" lon="15.132323072291381"><ele>5.6</ele><time>2026-03-28T14:01:15Z</time></trkpt><trkpt lat="36.879634481060805" lon="15.132203175215526"><ele>6.0</ele><time>2026-03-28T14:01:16Z</time></trkpt><trkpt lat="36.879730077299214" lon="15.13206587249387"><ele>7.0</ele><time>2026-03-28T14:01:17Z</time></trkpt><trkpt lat="36.87984454897552" lon="15.131910638442966"><ele>8.0</ele><time>2026-03-28T14:01:18Z</time></trkpt><trkpt lat="36.87996908403848" lon="15.1317066944144"><ele>9.0</ele><time>2026-03-28T14:01:19Z</time></trkpt><trkpt lat="36.88007315409734" lon="15.131486951388672"><ele>10.75</ele><time>2026-03-28T14:01:20Z</time></trkpt><trkpt lat="36.88014935466734" lon="15.131303535552105"><ele>12.5</ele><time>2026-03-28T14:01:21Z</time></trkpt><trkpt lat="36.880237145747536" lon="15.13117749773702"><ele>14.25</ele><time>2026-03-28T14:01:22Z</time></trkpt><trkpt lat="36.88031588674469" lon="15.131076540905896"><ele>16.0</ele><time>2026-03-28T14:01:23Z</time></trkpt><trkpt lat="36.88040095408211" lon="15.13098911317972"><ele>16.0</ele><time>2026-03-28T14:01:24Z</time></trkpt><trkpt lat="36.88049251123152" lon="15.130891498619897"><ele>16.0</ele><time>2026-03-28T14:01:25Z</time></trkpt><trkpt lat="36.88058972327339" lon="15.13082358788204"><ele>16.0</ele><time>2026-03-28T14:01:26Z</time></trkpt><trkpt lat="36.880663590415246" lon="15.130774110048128"><ele>16.0</ele><time>2026-03-28T14:01:27Z</time></trkpt><trkpt lat="36.880749510873386" lon="15.13070740597999"><ele>16.0</ele><time>2026-03-28T14:01:29Z</time></trkpt><trkpt lat="36.8806475486116" lon="15.13058675328174"><ele>15.8</ele><time>2026-03-28T14:01:47.999Z</time></trkpt><trkpt lat="36.880575485795234" lon="15.13056269676039"><ele>15.600000000000001</ele><time>2026-03-28T14:01:48.999Z</time></trkpt><trkpt lat="36.880493720649476" lon="15.13052708287094"><ele>15.4</ele><time>2026-03-28T14:01:49.999Z</time></trkpt><trkpt lat="36.88041176428561" lon="15.130492138645126"><ele>15.2</ele><time>2026-03-28T14:01:50.999Z</time></trkpt><trkpt lat="36.88031947611748" lon="15.130443829984083"><ele>15.0</ele><time>2026-03-28T14:01:51.999Z</time></trkpt><trkpt lat="36.88022126880575" lon="15.130397649540903"><ele>15.0</ele><time>2026-03-28T14:01:52.999Z</time></trkpt><trkpt lat="36.88010848450572" lon="15.130346341825987"><ele>15.0</ele><time>2026-03-28T14:01:53.999Z</time></trkpt><trkpt lat="36.87999880648247" lon="15.130299518093583"><ele>15.0</ele><time>2026-03-28T14:01:54.999Z</time></trkpt><trkpt lat="36.87988604723878" lon="15.13024791744338"><ele>15.0</ele><time>2026-03-28T14:01:55.999Z</time></trkpt><trkpt lat="36.87977063719548" lon="15.130174552256802"><ele>14.0</ele><time>2026-03-28T14:01:56.999Z</time></trkpt><trkpt lat="36.87965427762972" lon="15.130125575230519"><ele>13.0</ele><time>2026-03-28T14:01:57.999Z</time></trkpt><trkpt lat="36.87954216296328" lon="15.130036675483586"><ele>12.0</ele><time>2026-03-28T14:01:58.999Z</time></trkpt><trkpt lat="36.87946586858798" lon="15.129894802035265"><ele>11.0</ele><time>2026-03-28T14:01:59.999Z</time></trkpt><trkpt lat="36.87937370036321" lon="15.129737981458186"><ele>10.0</ele><time>2026-03-28T14:02:00.999Z</time></trkpt><trkpt lat="36.87928009207142" lon="15.12957346233707"><ele>9.0</ele><time>2026-03-28T14:02:01.999Z</time></trkpt><trkpt lat="36.87919957530192" lon="15.12941253583928"><ele>8.0</ele><time>2026-03-28T14:02:02.999Z</time></trkpt><trkpt lat="36.879124677156234" lon="15.129236639804473"><ele>8.333333333333332</ele><time>2026-03-28T14:02:03.999Z</time></trkpt><trkpt lat="36.87905019655439" lon="15.129050858970517"><ele>8.666666666666666</ele><time>2026-03-28T14:02:04.999Z</time></trkpt><trkpt lat="36.8790039407537" lon="15.128855557255996"><ele>9.0</ele><time>2026-03-28T14:02:05.999Z</time></trkpt><trkpt lat="36.87895301735461" lon="15.128677374811618"><ele>9.0</ele><time>2026-03-28T14:02:06.999Z</time></trkpt><trkpt lat="36.87888906682217" lon="15.128518781609793"><ele>9.0</ele><time>2026-03-28T14:02:07.999Z</time></trkpt><trkpt lat="36.87876365497753" lon="15.128402539925334"><ele>9.0</ele><time>2026-03-28T14:02:08.999Z</time></trkpt><trkpt lat="36.87863292645223" lon="15.128282983002626"><ele>9.0</ele><time>2026-03-28T14:02:09.999Z</time></trkpt><trkpt lat="36.87846938030987" lon="15.128201824147796"><ele>9.0</ele><time>2026-03-28T14:02:10.999Z</time></trkpt><trkpt lat="36.87832165079605" lon="15.12807250530488"><ele>9.0</ele><time>2026-03-28T14:02:11.999Z</time></trkpt><trkpt lat="36.87816782985586" lon="15.127945789745379"><ele>9.0</ele><time>2026-03-28T14:02:12.999Z</time></trkpt><trkpt lat="36.87801105525168" lon="15.127835758702982"><ele>9.0</ele><time>2026-03-28T14:02:13.999Z</time></trkpt><trkpt lat="36.87787791267243" lon="15.127722430814096"><ele>9.0</ele><time>2026-03-28T14:02:14.999Z</time></trkpt><trkpt lat="36.87774866114992" lon="15.127590953233677"><ele>9.0</ele><time>2026-03-28T14:02:15.999Z</time></trkpt><trkpt lat="36.877618203138304" lon="15.127480860855098"><ele>9.0</ele><time>2026-03-28T14:02:16.999Z</time></trkpt><trkpt lat="36.877479281910894" lon="15.127390723817134"><ele>9.0</ele><time>2026-03-28T14:02:17.999Z</time></trkpt><trkpt lat="36.87733650697012" lon="15.127335702063753"><ele>8.666666666666666</ele><time>2026-03-28T14:02:18.999Z</time></trkpt><trkpt lat="36.87717924991509" lon="15.127320778990613"><ele>8.333333333333332</ele><time>2026-03-28T14:02:19.999Z</time></trkpt><trkpt lat="36.8770211861257" lon="15.1273007245253"><ele>8.0</ele><time>2026-03-28T14:02:20.999Z</time></trkpt><trkpt lat="36.87685663068472" lon="15.127285288036465"><ele>8.0</ele><time>2026-03-28T14:02:21.999Z</time></trkpt><trkpt lat="36.87668896252591" lon="15.12726057153417"><ele>8.0</ele><time>2026-03-28T14:02:22.999Z</time></trkpt><trkpt lat="36.876526264188165" lon="15.12723509488024"><ele>8.0</ele><time>2026-03-28T14:02:23.999Z</time></trkpt><trkpt lat="36.876360331863346" lon="15.127214668919418"><ele>8.0</ele><time>2026-03-28T14:02:24.999Z</time></trkpt><trkpt lat="36.87619299702381" lon="15.127193686667907"><ele>8.0</ele><time>2026-03-28T14:02:25.999Z</time></trkpt><trkpt lat="36.87602465494686" lon="15.12717375457282"><ele>8.0</ele><time>2026-03-28T14:02:26.999Z</time></trkpt><trkpt lat="36.87585333671636" lon="15.127155808126421"><ele>8.0</ele><time>2026-03-28T14:02:27.999Z</time></trkpt><trkpt lat="36.87568291936863" lon="15.12713877013418"><ele>8.0</ele><time>2026-03-28T14:02:28.999Z</time></trkpt><trkpt lat="36.87551081470446" lon="15.127122192364808"><ele>8.0</ele><time>2026-03-28T14:02:29.999Z</time></trkpt><trkpt lat="36.8753427118233" lon="15.127101871475992"><ele>8.0</ele><time>2026-03-28T14:02:30.999Z</time></trkpt><trkpt lat="36.87518119859764" lon="15.127083834880432"><ele>8.0</ele><time>2026-03-28T14:02:31.999Z</time></trkpt><trkpt lat="36.87502735470765" lon="15.12705713721028"><ele>8.0</ele><time>2026-03-28T14:02:32.999Z</time></trkpt><trkpt lat="36.87488364781099" lon="15.1270108987333"><ele>8.0</ele><time>2026-03-28T14:02:33.999Z</time></trkpt><trkpt lat="36.87476386267052" lon="15.126910294745455"><ele>8.0</ele><time>2026-03-28T14:02:34.999Z</time></trkpt><trkpt lat="36.874654753148384" lon="15.126807107182367"><ele>8.0</ele><time>2026-03-28T14:02:35.999Z</time></trkpt><trkpt lat="36.874542815269805" lon="15.126711657342755"><ele>8.0</ele><time>2026-03-28T14:02:36.999Z</time></trkpt><trkpt lat="36.87444248784406" lon="15.126602267428686"><ele>8.5</ele><time>2026-03-28T14:02:37.999Z</time></trkpt><trkpt lat="36.8743379216339" lon="15.126493795063686"><ele>9.0</ele><time>2026-03-28T14:02:38.999Z</time></trkpt><trkpt lat="36.874239450393425" lon="15.126373246452449"><ele>9.5</ele><time>2026-03-28T14:02:39.999Z</time></trkpt><trkpt lat="36.874116963250536" lon="15.126301392387909"><ele>10.0</ele><time>2026-03-28T14:02:40.999Z</time></trkpt><trkpt lat="36.87398942842289" lon="15.126306079922182"><ele>10.0</ele><time>2026-03-28T14:02:41.998Z</time></trkpt><trkpt lat="36.873865700475065" lon="15.12632794563352"><ele>10.0</ele><time>2026-03-28T14:02:42.998Z</time></trkpt><trkpt lat="36.87374407107137" lon="15.126394451097397"><ele>10.0</ele><time>2026-03-28T14:02:43.998Z</time></trkpt><trkpt lat="36.87362061802207" lon="15.126487621745651"><ele>10.0</ele><time>2026-03-28T14:02:44.998Z</time></trkpt><trkpt lat="36.87348556207243" lon="15.126583748482732"><ele>11.333333333333334</ele><time>2026-03-28T14:02:46Z</time></trkpt><trkpt lat="36.873345303834505" lon="15.126671329486475"><ele>12.666666666666668</ele><time>2026-03-28T14:02:47Z</time></trkpt><trkpt lat="36.873201629671925" lon="15.12675162595064"><ele>14.0</ele><time>2026-03-28T14:02:48Z</time></trkpt><trkpt lat="36.87305212626387" lon="15.126812583657092"><ele>14.0</ele><time>2026-03-28T14:02:49Z</time></trkpt><trkpt lat="36.87289793538323" lon="15.126844171104624"><ele>14.0</ele><time>2026-03-28T14:02:50Z</time></trkpt><trkpt lat="36.87274562669183" lon="15.126900043150698"><ele>14.0</ele><time>2026-03-28T14:02:51Z</time></trkpt><trkpt lat="36.87259414523511" lon="15.126984097185641"><ele>14.666666666666668</ele><time>2026-03-28T14:02:52Z</time></trkpt><trkpt lat="36.8724399790046" lon="15.127073335270985"><ele>15.333333333333332</ele><time>2026-03-28T14:02:53Z</time></trkpt><trkpt lat="36.87229403410998" lon="15.127164900550017"><ele>16.0</ele><time>2026-03-28T14:02:54Z</time></trkpt><trkpt lat="36.87216060872849" lon="15.127259595323409"><ele>16.0</ele><time>2026-03-28T14:02:55Z</time></trkpt><trkpt lat="36.87204125387985" lon="15.127348009624512"><ele>16.0</ele><time>2026-03-28T14:02:56Z</time></trkpt><trkpt lat="36.87193839346478" lon="15.127422922965065"><ele>16.0</ele><time>2026-03-28T14:02:57Z</time></trkpt><trkpt lat="36.87184780777558" lon="15.127474036786076"><ele>16.0</ele><time>2026-03-28T14:02:58Z</time></trkpt><trkpt lat="36.87176761258836" lon="15.127482850605618"><ele>16.0</ele><time>2026-03-28T14:02:59Z</time></trkpt><trkpt lat="36.87169810462549" lon="15.127453300503332"><ele>16.166666666666664</ele><time>2026-03-28T14:03:00Z</time></trkpt><trkpt lat="36.87164249945125" lon="15.12739502280419"><ele>16.333333333333332</ele><time>2026-03-28T14:03:01Z</time></trkpt><trkpt lat="36.87159550725966" lon="15.127326605481956"><ele>16.5</ele><time>2026-03-28T14:03:02Z</time></trkpt><trkpt lat="36.87152615716275" lon="15.127269551950981"><ele>16.666666666666668</ele><time>2026-03-28T14:03:03Z</time></trkpt><trkpt lat="36.87143423442982" lon="15.127263366046531"><ele>16.833333333333336</ele><time>2026-03-28T14:03:04Z</time></trkpt><trkpt lat="36.871350285266026" lon="15.127298367603231"><ele>17.0</ele><time>2026-03-28T14:03:05Z</time></trkpt><trkpt lat="36.87128175707842" lon="15.127366493202357"><ele>17.0</ele><time>2026-03-28T14:03:06Z</time></trkpt><trkpt lat="36.87122738924081" lon="15.127458431958495"><ele>17.0</ele><time>2026-03-28T14:03:07Z</time></trkpt><trkpt lat="36.871178388161326" lon="15.12755806311905"><ele>17.0</ele><time>2026-03-28T14:03:08Z</time></trkpt><trkpt lat="36.87112568414527" lon="15.127665899155296"><ele>17.0</ele><time>2026-03-28T14:03:09Z</time></trkpt><trkpt lat="36.87107566552905" lon="15.12777498790726"><ele>17.0</ele><time>2026-03-28T14:03:10Z</time></trkpt><trkpt lat="36.871028033456135" lon="15.12789097787691"><ele>17.0</ele><time>2026-03-28T14:03:11Z</time></trkpt><trkpt lat="36.8709683603775" lon="15.128013025577932"><ele>17.0</ele><time>2026-03-28T14:03:12Z</time></trkpt><trkpt lat="36.87088089564817" lon="15.128124900847261"><ele>17.0</ele><time>2026-03-28T14:03:13Z</time></trkpt><trkpt lat="36.87076976882968" lon="15.128231894236905"><ele>17.0</ele><time>2026-03-28T14:03:14Z</time></trkpt><trkpt lat="36.8706458319979" lon="15.128340275059085"><ele>16.333333333333336</ele><time>2026-03-28T14:03:15Z</time></trkpt><trkpt lat="36.87052260604388" lon="15.128438459714586"><ele>15.666666666666668</ele><time>2026-03-28T14:03:16Z</time></trkpt><trkpt lat="36.87039154484501" lon="15.128535892168186"><ele>15.0</ele><time>2026-03-28T14:03:17Z</time></trkpt><trkpt lat="36.870254257061994" lon="15.128637586444036"><ele>15.0</ele><time>2026-03-28T14:03:18Z</time></trkpt><trkpt lat="36.87011751597304" lon="15.128732793882131"><ele>15.0</ele><time>2026-03-28T14:03:19Z</time></trkpt><trkpt lat="36.869975275489274" lon="15.128830124021311"><ele>15.0</ele><time>2026-03-28T14:03:20Z</time></trkpt><trkpt lat="36.86982828433663" lon="15.128921941747807"><ele>14.666666666666668</ele><time>2026-03-28T14:03:21Z</time></trkpt><trkpt lat="36.86967672896407" lon="15.128995928192028"><ele>14.333333333333334</ele><time>2026-03-28T14:03:22Z</time></trkpt><trkpt lat="36.86952663200663" lon="15.129050709178335"><ele>14.0</ele><time>2026-03-28T14:03:23Z</time></trkpt><trkpt lat="36.869372432670914" lon="15.129094933776933"><ele>13.666666666666668</ele><time>2026-03-28T14:03:24Z</time></trkpt><trkpt lat="36.86921398073571" lon="15.12912717498716"><ele>13.333333333333332</ele><time>2026-03-28T14:03:25Z</time></trkpt><trkpt lat="36.86905638591434" lon="15.129153780644943"><ele>13.0</ele><time>2026-03-28T14:03:26Z</time></trkpt><trkpt lat="36.868894167001756" lon="15.129166977886934"><ele>13.0</ele><time>2026-03-28T14:03:27Z</time></trkpt><trkpt lat="36.86873001948967" lon="15.12916616909922"><ele>13.0</ele><time>2026-03-28T14:03:28Z</time></trkpt><trkpt lat="36.868563650405655" lon="15.129153345644735"><ele>13.0</ele><time>2026-03-28T14:03:29Z</time></trkpt><trkpt lat="36.86839724532958" lon="15.129129075279426"><ele>12.666666666666666</ele><time>2026-03-28T14:03:30Z</time></trkpt><trkpt lat="36.8682317916558" lon="15.129086044784783"><ele>12.333333333333332</ele><time>2026-03-28T14:03:31Z</time></trkpt><trkpt lat="36.8680703514506" lon="15.129025019377707"><ele>12.0</ele><time>2026-03-28T14:03:32Z</time></trkpt><trkpt lat="36.86790992376956" lon="15.128955597151396"><ele>12.0</ele><time>2026-03-28T14:03:33Z</time></trkpt><trkpt lat="36.867753254199116" lon="15.128880651345083"><ele>12.0</ele><time>2026-03-28T14:03:34Z</time></trkpt><trkpt lat="36.86760183532095" lon="15.128795274658854"><ele>12.0</ele><time>2026-03-28T14:03:35Z</time></trkpt><trkpt lat="36.867456513334346" lon="15.12870708804496"><ele>11.666666666666666</ele><time>2026-03-28T14:03:36Z</time></trkpt><trkpt lat="36.867310091973096" lon="15.128609695473775"><ele>11.333333333333332</ele><time>2026-03-28T14:03:37Z</time></trkpt><trkpt lat="36.86717387585049" lon="15.128500792491973"><ele>11.0</ele><time>2026-03-28T14:03:38Z</time></trkpt><trkpt lat="36.86704977036865" lon="15.128374696863322"><ele>11.0</ele><time>2026-03-28T14:03:38.999Z</time></trkpt><trkpt lat="36.866931709659866" lon="15.128232722201746"><ele>11.0</ele><time>2026-03-28T14:03:39.999Z</time></trkpt><trkpt lat="36.86682993415537" lon="15.12808511648753"><ele>11.0</ele><time>2026-03-28T14:03:40.999Z</time></trkpt><trkpt lat="36.8667298897717" lon="15.127930726448279"><ele>10.666666666666666</ele><time>2026-03-28T14:03:41.999Z</time></trkpt><trkpt lat="36.86663792151407" lon="15.127765144372471"><ele>10.333333333333334</ele><time>2026-03-28T14:03:42.999Z</time></trkpt><trkpt lat="36.86656300248621" lon="15.127587484083643"><ele>10.0</ele><time>2026-03-28T14:03:43.999Z</time></trkpt><trkpt lat="36.866496345174546" lon="15.127407354231169"><ele>10.0</ele><time>2026-03-28T14:03:44.999Z</time></trkpt><trkpt lat="36.866431697585774" lon="15.127229916099532"><ele>10.0</ele><time>2026-03-28T14:03:45.999Z</time></trkpt><trkpt lat="36.86636205888702" lon="15.127045789153435"><ele>10.0</ele><time>2026-03-28T14:03:46.999Z</time></trkpt><trkpt lat="36.866284778938635" lon="15.126875388452998"><ele>10.0</ele><time>2026-03-28T14:03:47.999Z</time></trkpt><trkpt lat="36.86619988619535" lon="15.126702145309967"><ele>10.0</ele><time>2026-03-28T14:03:48.999Z</time></trkpt><trkpt lat="36.866111133824226" lon="15.126540384467049"><ele>10.0</ele><time>2026-03-28T14:03:49.999Z</time></trkpt><trkpt lat="36.86601003702195" lon="15.126386537946281"><ele>10.0</ele><time>2026-03-28T14:03:50.999Z</time></trkpt><trkpt lat="36.86590088179344" lon="15.126236463361986"><ele>10.0</ele><time>2026-03-28T14:03:51.999Z</time></trkpt><trkpt lat="36.86579089686183" lon="15.126089470968786"><ele>10.0</ele><time>2026-03-28T14:03:52.999Z</time></trkpt><trkpt lat="36.86567687892915" lon="15.125941303365336"><ele>10.0</ele><time>2026-03-28T14:03:53.999Z</time></trkpt><trkpt lat="36.86556537295258" lon="15.125790309383966"><ele>10.0</ele><time>2026-03-28T14:03:54.999Z</time></trkpt><trkpt lat="36.86544658374183" lon="15.125646396251886"><ele>10.0</ele><time>2026-03-28T14:03:55.999Z</time></trkpt><trkpt lat="36.86533063381597" lon="15.125499235937246"><ele>9.666666666666668</ele><time>2026-03-28T14:03:56.999Z</time></trkpt><trkpt lat="36.86521489405529" lon="15.125350418821835"><ele>9.333333333333334</ele><time>2026-03-28T14:03:57.999Z</time></trkpt><trkpt lat="36.86509855894189" lon="15.125203997168377"><ele>9.0</ele><time>2026-03-28T14:03:58.999Z</time></trkpt><trkpt lat="36.864983411176894" lon="15.125057770416833"><ele>9.0</ele><time>2026-03-28T14:03:59.999Z</time></trkpt><trkpt lat="36.86486352632761" lon="15.124914109342958"><ele>9.0</ele><time>2026-03-28T14:04:00.999Z</time></trkpt><trkpt lat="36.86474814092084" lon="15.124772295703432"><ele>9.0</ele><time>2026-03-28T14:04:01.999Z</time></trkpt><trkpt lat="36.864647672029406" lon="15.124617751857649"><ele>9.0</ele><time>2026-03-28T14:04:02.999Z</time></trkpt><trkpt lat="36.86453216687273" lon="15.124471982312826"><ele>9.0</ele><time>2026-03-28T14:04:03.999Z</time></trkpt><trkpt lat="36.86440378436318" lon="15.124337199666257"><ele>9.0</ele><time>2026-03-28T14:04:04.999Z</time></trkpt><trkpt lat="36.86428479189906" lon="15.124188382884745"><ele>9.0</ele><time>2026-03-28T14:04:05.999Z</time></trkpt><trkpt lat="36.864178889476335" lon="15.124025592067586"><ele>9.0</ele><time>2026-03-28T14:04:06.999Z</time></trkpt><trkpt lat="36.8640609609742" lon="15.123877118124035"><ele>9.0</ele><time>2026-03-28T14:04:07.999Z</time></trkpt><trkpt lat="36.86394390290081" lon="15.123730092551368"><ele>9.0</ele><time>2026-03-28T14:04:08.999Z</time></trkpt><trkpt lat="36.86382634120425" lon="15.123582434438239"><ele>9.0</ele><time>2026-03-28T14:04:09.999Z</time></trkpt><trkpt lat="36.863707183096174" lon="15.12343277122414"><ele>9.0</ele><time>2026-03-28T14:04:10.999Z</time></trkpt><trkpt lat="36.86358952118054" lon="15.123284876636001"><ele>9.666666666666666</ele><time>2026-03-28T14:04:11.999Z</time></trkpt><trkpt lat="36.863474196264" lon="15.123139896751052"><ele>10.333333333333332</ele><time>2026-03-28T14:04:12.999Z</time></trkpt><trkpt lat="36.86335798990292" lon="15.122993808748863"><ele>11.0</ele><time>2026-03-28T14:04:13.999Z</time></trkpt><trkpt lat="36.86324222702679" lon="15.122849393106929"><ele>11.0</ele><time>2026-03-28T14:04:14.999Z</time></trkpt><trkpt lat="36.86312964416192" lon="15.122709653850617"><ele>11.0</ele><time>2026-03-28T14:04:15.999Z</time></trkpt><trkpt lat="36.8630212429162" lon="15.1225751048785"><ele>11.0</ele><time>2026-03-28T14:04:16.999Z</time></trkpt><trkpt lat="36.86291604240996" lon="15.122442514654821"><ele>11.666666666666666</ele><time>2026-03-28T14:04:17.999Z</time></trkpt><trkpt lat="36.8628083243759" lon="15.122306514452317"><ele>12.333333333333332</ele><time>2026-03-28T14:04:18.999Z</time></trkpt><trkpt lat="36.86269785334782" lon="15.122168777722491"><ele>13.0</ele><time>2026-03-28T14:04:19.999Z</time></trkpt><trkpt lat="36.86258310871635" lon="15.122025712598633"><ele>13.0</ele><time>2026-03-28T14:04:20.999Z</time></trkpt><trkpt lat="36.862468923736984" lon="15.121883345261361"><ele>13.0</ele><time>2026-03-28T14:04:21.999Z</time></trkpt><trkpt lat="36.862354964530084" lon="15.121740922598585"><ele>13.0</ele><time>2026-03-28T14:04:22.999Z</time></trkpt><trkpt lat="36.86224027019936" lon="15.121594345460293"><ele>12.666666666666666</ele><time>2026-03-28T14:04:23.999Z</time></trkpt><trkpt lat="36.86212725781585" lon="15.12144913960867"><ele>12.333333333333332</ele><time>2026-03-28T14:04:24.999Z</time></trkpt><trkpt lat="36.86202287116273" lon="15.121310819715902"><ele>12.0</ele><time>2026-03-28T14:04:25.999Z</time></trkpt><trkpt lat="36.86192512062295" lon="15.121174594649103"><ele>12.0</ele><time>2026-03-28T14:04:26.999Z</time></trkpt><trkpt lat="36.86182886982452" lon="15.121033250587287"><ele>12.0</ele><time>2026-03-28T14:04:27.999Z</time></trkpt><trkpt lat="36.86171707354225" lon="15.120893241121761"><ele>12.0</ele><time>2026-03-28T14:04:28.999Z</time></trkpt><trkpt lat="36.861629350042236" lon="15.120724630936365"><ele>10.333333333333334</ele><time>2026-03-28T14:04:29.999Z</time></trkpt><trkpt lat="36.861529054291864" lon="15.120536060956745"><ele>8.666666666666668</ele><time>2026-03-28T14:04:30.999Z</time></trkpt><trkpt lat="36.86143337110034" lon="15.120346870115503"><ele>7.0</ele><time>2026-03-28T14:04:31.999Z</time></trkpt><trkpt lat="36.861341931318684" lon="15.120158372334744"><ele>7.0</ele><time>2026-03-28T14:04:32.999Z</time></trkpt><trkpt lat="36.86125062820799" lon="15.11998107695531"><ele>7.0</ele><time>2026-03-28T14:04:33.999Z</time></trkpt><trkpt lat="36.86116087988196" lon="15.119804026183948"><ele>7.0</ele><time>2026-03-28T14:04:34.999Z</time></trkpt><trkpt lat="36.86107358190656" lon="15.119628978353019"><ele>6.333333333333334</ele><time>2026-03-28T14:04:35.999Z</time></trkpt><trkpt lat="36.860983283078724" lon="15.11946235752503"><ele>5.666666666666667</ele><time>2026-03-28T14:04:36.999Z</time></trkpt><trkpt lat="36.86091191256733" lon="15.119283238533056"><ele>5.0</ele><time>2026-03-28T14:04:37.999Z</time></trkpt><trkpt lat="36.860829404301406" lon="15.119120599764642"><ele>7.666666666666666</ele><time>2026-03-28T14:04:38.999Z</time></trkpt><trkpt lat="36.86073122142269" lon="15.118961955469047"><ele>10.333333333333332</ele><time>2026-03-28T14:04:39.999Z</time></trkpt><trkpt lat="36.86065845953637" lon="15.118789801910962"><ele>13.0</ele><time>2026-03-28T14:04:40.999Z</time></trkpt><trkpt lat="36.860549745439435" lon="15.118646231380469"><ele>13.0</ele><time>2026-03-28T14:04:41.999Z</time></trkpt><trkpt lat="36.86044539063354" lon="15.118501696464962"><ele>13.0</ele><time>2026-03-28T14:04:42.999Z</time></trkpt><trkpt lat="36.86032495061656" lon="15.11837105059048"><ele>13.0</ele><time>2026-03-28T14:04:43.998Z</time></trkpt><trkpt lat="36.860198242480664" lon="15.11824321776309"><ele>13.0</ele><time>2026-03-28T14:04:44.998Z</time></trkpt><trkpt lat="36.8600690749497" lon="15.11814398512996"><ele>13.0</ele><time>2026-03-28T14:04:45.998Z</time></trkpt><trkpt lat="36.85994470884577" lon="15.118072444558196"><ele>13.0</ele><time>2026-03-28T14:04:46.998Z</time></trkpt><trkpt lat="36.859833002355266" lon="15.117974506742483"><ele>13.0</ele><time>2026-03-28T14:04:47.998Z</time></trkpt><trkpt lat="36.85971176352505" lon="15.11791296205704"><ele>13.0</ele><time>2026-03-28T14:04:48.998Z</time></trkpt><trkpt lat="36.85961332915424" lon="15.11782916148148"><ele>13.0</ele><time>2026-03-28T14:04:49.998Z</time></trkpt><trkpt lat="36.85950037033849" lon="15.117750143862951"><ele>13.0</ele><time>2026-03-28T14:04:50.998Z</time></trkpt><trkpt lat="36.859393486799455" lon="15.117667931356602"><ele>13.0</ele><time>2026-03-28T14:04:52Z</time></trkpt><trkpt lat="36.85929710677638" lon="15.117603855631378"><ele>12.600000000000001</ele><time>2026-03-28T14:04:53Z</time></trkpt><trkpt lat="36.85922069790805" lon="15.117543426813784"><ele>12.200000000000001</ele><time>2026-03-28T14:04:54Z</time></trkpt><trkpt lat="36.85914592193714" lon="15.117477276521987"><ele>11.8</ele><time>2026-03-28T14:04:55Z</time></trkpt><trkpt lat="36.8590741014804" lon="15.117408329925059"><ele>11.4</ele><time>2026-03-28T14:04:56Z</time></trkpt><trkpt lat="36.858988627032275" lon="15.117341568388895"><ele>11.0</ele><time>2026-03-28T14:04:57Z</time></trkpt><trkpt lat="36.85889109431173" lon="15.117275595174096"><ele>11.0</ele><time>2026-03-28T14:04:58Z</time></trkpt><trkpt lat="36.858785492838486" lon="15.11721181548451"><ele>11.0</ele><time>2026-03-28T14:04:59Z</time></trkpt><trkpt lat="36.858686746466084" lon="15.117139921909986"><ele>11.0</ele><time>2026-03-28T14:05:00Z</time></trkpt><trkpt lat="36.858578734080744" lon="15.117071676262634"><ele>11.0</ele><time>2026-03-28T14:05:01Z</time></trkpt><trkpt lat="36.85846377527051" lon="15.116996318792918"><ele>10.25</ele><time>2026-03-28T14:05:02Z</time></trkpt><trkpt lat="36.85835743865429" lon="15.116916701467815"><ele>9.5</ele><time>2026-03-28T14:05:03Z</time></trkpt><trkpt lat="36.85824510380511" lon="15.11683099430901"><ele>8.75</ele><time>2026-03-28T14:05:04Z</time></trkpt><trkpt lat="36.85813101289683" lon="15.11675211127395"><ele>8.0</ele><time>2026-03-28T14:05:05Z</time></trkpt><trkpt lat="36.85801936551623" lon="15.116670607427881"><ele>8.0</ele><time>2026-03-28T14:05:06Z</time></trkpt><trkpt lat="36.85790994232386" lon="15.116589024588727"><ele>8.0</ele><time>2026-03-28T14:05:07Z</time></trkpt><trkpt lat="36.85780613110861" lon="15.11651457479364"><ele>8.0</ele><time>2026-03-28T14:05:08Z</time></trkpt><trkpt lat="36.857704277578335" lon="15.11643953611758"><ele>8.0</ele><time>2026-03-28T14:05:09Z</time></trkpt><trkpt lat="36.85760352524129" lon="15.116371375314205"><ele>8.0</ele><time>2026-03-28T14:05:10Z</time></trkpt><trkpt lat="36.85750536401519" lon="15.11629901459622"><ele>8.0</ele><time>2026-03-28T14:05:11Z</time></trkpt><trkpt lat="36.85740366346392" lon="15.116225497015742"><ele>8.0</ele><time>2026-03-28T14:05:12Z</time></trkpt><trkpt lat="36.857304375564105" lon="15.116151030827877"><ele>8.0</ele><time>2026-03-28T14:05:13Z</time></trkpt><trkpt lat="36.85720250949845" lon="15.116076193245032"><ele>8.0</ele><time>2026-03-28T14:05:14Z</time></trkpt><trkpt lat="36.85710141161543" lon="15.116003200144654"><ele>8.0</ele><time>2026-03-28T14:05:15Z</time></trkpt><trkpt lat="36.857000483429466" lon="15.115927727528977"><ele>8.0</ele><time>2026-03-28T14:05:16Z</time></trkpt><trkpt lat="36.856895460688804" lon="15.115848520003876"><ele>8.0</ele><time>2026-03-28T14:05:17Z</time></trkpt><trkpt lat="36.85678289482416" lon="15.115768777888796"><ele>8.0</ele><time>2026-03-28T14:05:18Z</time></trkpt><trkpt lat="36.85666035656558" lon="15.11568499854593"><ele>8.0</ele><time>2026-03-28T14:05:19Z</time></trkpt><trkpt lat="36.85653070270624" lon="15.1155940918738"><ele>8.0</ele><time>2026-03-28T14:05:20Z</time></trkpt><trkpt lat="36.85640319737573" lon="15.115497636437587"><ele>8.0</ele><time>2026-03-28T14:05:21Z</time></trkpt><trkpt lat="36.85627190007151" lon="15.115400751182802"><ele>8.0</ele><time>2026-03-28T14:05:22Z</time></trkpt><trkpt lat="36.85614011945721" lon="15.115304963878241"><ele>8.0</ele><time>2026-03-28T14:05:23Z</time></trkpt><trkpt lat="36.856005037784804" lon="15.115211935749713"><ele>8.0</ele><time>2026-03-28T14:05:24Z</time></trkpt><trkpt lat="36.85586801906609" lon="15.115115348790079"><ele>7.333333333333333</ele><time>2026-03-28T14:05:25Z</time></trkpt><trkpt lat="36.855736268289895" lon="15.115024966627402"><ele>6.666666666666666</ele><time>2026-03-28T14:05:26Z</time></trkpt><trkpt lat="36.8556016410034" lon="15.114932315873066"><ele>6.0</ele><time>2026-03-28T14:05:27Z</time></trkpt><trkpt lat="36.855462934191515" lon="15.11483934294606"><ele>6.0</ele><time>2026-03-28T14:05:28Z</time></trkpt><trkpt lat="36.85532876429598" lon="15.11474558333521"><ele>6.0</ele><time>2026-03-28T14:05:29Z</time></trkpt><trkpt lat="36.85520308070979" lon="15.11465636431693"><ele>6.0</ele><time>2026-03-28T14:05:30Z</time></trkpt><trkpt lat="36.855077706388045" lon="15.114570723137337"><ele>6.0</ele><time>2026-03-28T14:05:31Z</time></trkpt><trkpt lat="36.85495406074065" lon="15.114486339492306"><ele>6.5</ele><time>2026-03-28T14:05:32Z</time></trkpt><trkpt lat="36.85483379249521" lon="15.11440383247872"><ele>7.0</ele><time>2026-03-28T14:05:33Z</time></trkpt><trkpt lat="36.854714778675145" lon="15.114322701256222"><ele>7.5</ele><time>2026-03-28T14:05:34Z</time></trkpt><trkpt lat="36.85459637914694" lon="15.11424275330477"><ele>8.0</ele><time>2026-03-28T14:05:35Z</time></trkpt><trkpt lat="36.854484999217654" lon="15.11415437577189"><ele>8.4</ele><time>2026-03-28T14:05:36Z</time></trkpt><trkpt lat="36.85440652156018" lon="15.114034487590025"><ele>8.8</ele><time>2026-03-28T14:05:37Z</time></trkpt><trkpt lat="36.85432565304161" lon="15.113956988622663"><ele>9.2</ele><time>2026-03-28T14:05:38Z</time></trkpt><trkpt lat="36.85423414174401" lon="15.113899926527298"><ele>9.6</ele><time>2026-03-28T14:05:39Z</time></trkpt><trkpt lat="36.85416191624215" lon="15.113807670072699"><ele>10.0</ele><time>2026-03-28T14:05:40Z</time></trkpt><trkpt lat="36.85405294593689" lon="15.113744505000367"><ele>11.0</ele><time>2026-03-28T14:05:40.999Z</time></trkpt><trkpt lat="36.85395758494317" lon="15.113659298828415"><ele>12.0</ele><time>2026-03-28T14:05:41.999Z</time></trkpt><trkpt lat="36.853864282748496" lon="15.113570662935189"><ele>13.0</ele><time>2026-03-28T14:05:42.999Z</time></trkpt><trkpt lat="36.85377653689795" lon="15.113487928030647"><ele>14.0</ele><time>2026-03-28T14:05:43.999Z</time></trkpt><trkpt lat="36.85369602017938" lon="15.113410407344508"><ele>15.0</ele><time>2026-03-28T14:05:44.999Z</time></trkpt><trkpt lat="36.8536190449033" lon="15.113339139690385"><ele>15.0</ele><time>2026-03-28T14:05:45.999Z</time></trkpt><trkpt lat="36.8535520036126" lon="15.113264615240341"><ele>15.0</ele><time>2026-03-28T14:05:46.999Z</time></trkpt><trkpt lat="36.85350156738067" lon="15.113183260193388"><ele>15.0</ele><time>2026-03-28T14:05:47.999Z</time></trkpt><trkpt lat="36.85346983924432" lon="15.113000836363602"><ele>15.0</ele><time>2026-03-28T14:05:49.999Z</time></trkpt><trkpt lat="36.853472532626114" lon="15.112901542133402"><ele>15.0</ele><time>2026-03-28T14:05:50.999Z</time></trkpt><trkpt lat="36.85346327096419" lon="15.11277346071852"><ele>14.0</ele><time>2026-03-28T14:05:51.999Z</time></trkpt><trkpt lat="36.85343094836874" lon="15.11261461503171"><ele>13.0</ele><time>2026-03-28T14:05:52.999Z</time></trkpt><trkpt lat="36.85340311359661" lon="15.11242915505639"><ele>12.0</ele><time>2026-03-28T14:05:53.999Z</time></trkpt><trkpt lat="36.85332391238251" lon="15.112260034498526"><ele>11.0</ele><time>2026-03-28T14:05:54.999Z</time></trkpt><trkpt lat="36.85325276937039" lon="15.11210127905087"><ele>10.0</ele><time>2026-03-28T14:05:55.999Z</time></trkpt><trkpt lat="36.8531862770674" lon="15.111958984518086"><ele>9.0</ele><time>2026-03-28T14:05:56.999Z</time></trkpt><trkpt lat="36.853134203215" lon="15.111811830931217"><ele>8.0</ele><time>2026-03-28T14:05:57.999Z</time></trkpt><trkpt lat="36.853082840908996" lon="15.111663741913468"><ele>7.0</ele><time>2026-03-28T14:05:58.999Z</time></trkpt><trkpt lat="36.853032661256925" lon="15.11151500431039"><ele>7.0</ele><time>2026-03-28T14:05:59.999Z</time></trkpt><trkpt lat="36.85298766354643" lon="15.111376862019698"><ele>7.0</ele><time>2026-03-28T14:06:00.999Z</time></trkpt><trkpt lat="36.85290459998558" lon="15.111270906743085"><ele>7.0</ele><time>2026-03-28T14:06:01.999Z</time></trkpt><trkpt lat="36.85278574741907" lon="15.111214140985894"><ele>7.0</ele><time>2026-03-28T14:06:02.999Z</time></trkpt><trkpt lat="36.852687600614836" lon="15.111164845588707"><ele>7.199999999999999</ele><time>2026-03-28T14:06:03.999Z</time></trkpt><trkpt lat="36.852616823455705" lon="15.11106850715766"><ele>7.3999999999999995</ele><time>2026-03-28T14:06:04.999Z</time></trkpt><trkpt lat="36.85257018649391" lon="15.110961618025303"><ele>7.6000000000000005</ele><time>2026-03-28T14:06:05.999Z</time></trkpt><trkpt lat="36.85252032053391" lon="15.1108452641247"><ele>7.800000000000001</ele><time>2026-03-28T14:06:06.999Z</time></trkpt><trkpt lat="36.85246642577961" lon="15.110730067194249"><ele>8.0</ele><time>2026-03-28T14:06:07.999Z</time></trkpt><trkpt lat="36.85242618757466" lon="15.110603923074219"><ele>10.75</ele><time>2026-03-28T14:06:08.999Z</time></trkpt><trkpt lat="36.8523942692277" lon="15.11044822806394"><ele>13.5</ele><time>2026-03-28T14:06:09.999Z</time></trkpt><trkpt lat="36.85237393049066" lon="15.110283776141161"><ele>16.25</ele><time>2026-03-28T14:06:10.999Z</time></trkpt><trkpt lat="36.852361791547764" lon="15.110129740197062"><ele>19.0</ele><time>2026-03-28T14:06:11.999Z</time></trkpt><trkpt lat="36.852312827269465" lon="15.109993649937469"><ele>20.75</ele><time>2026-03-28T14:06:12.999Z</time></trkpt><trkpt lat="36.852222185314105" lon="15.109889819100054"><ele>22.5</ele><time>2026-03-28T14:06:13.999Z</time></trkpt><trkpt lat="36.852098353671266" lon="15.109819807453233"><ele>24.25</ele><time>2026-03-28T14:06:14.999Z</time></trkpt><trkpt lat="36.85196716508481" lon="15.109787194479214"><ele>26.0</ele><time>2026-03-28T14:06:15.999Z</time></trkpt><trkpt lat="36.85185297273473" lon="15.109762785839536"><ele>25.0</ele><time>2026-03-28T14:06:16.999Z</time></trkpt><trkpt lat="36.85174976153545" lon="15.109708868229864"><ele>24.0</ele><time>2026-03-28T14:06:17.999Z</time></trkpt><trkpt lat="36.851633558459945" lon="15.109654051361087"><ele>23.0</ele><time>2026-03-28T14:06:18.999Z</time></trkpt><trkpt lat="36.85152503665002" lon="15.109602908949915"><ele>22.0</ele><time>2026-03-28T14:06:19.999Z</time></trkpt><trkpt lat="36.85141984703667" lon="15.109563939823103"><ele>22.0</ele><time>2026-03-28T14:06:20.999Z</time></trkpt><trkpt lat="36.8513419112544" lon="15.109531028170712"><ele>22.0</ele><time>2026-03-28T14:06:21.999Z</time></trkpt><trkpt lat="36.85127581898038" lon="15.109506606065379"><ele>22.0</ele><time>2026-03-28T14:06:22.999Z</time></trkpt><trkpt lat="36.85116577683466" lon="15.109459263230987"><ele>22.0</ele><time>2026-03-28T14:06:24.999Z</time></trkpt><trkpt lat="36.85109398888352" lon="15.109429781898166"><ele>22.0</ele><time>2026-03-28T14:06:25.999Z</time></trkpt><trkpt lat="36.85098227040516" lon="15.10941696363643"><ele>20.6</ele><time>2026-03-28T14:06:26.999Z</time></trkpt><trkpt lat="36.85087459786796" lon="15.109359120761171"><ele>19.200000000000003</ele><time>2026-03-28T14:06:27.999Z</time></trkpt><trkpt lat="36.85076600713277" lon="15.109337141622948"><ele>17.8</ele><time>2026-03-28T14:06:28.999Z</time></trkpt><trkpt lat="36.85067210283528" lon="15.109303253972943"><ele>16.4</ele><time>2026-03-28T14:06:29.999Z</time></trkpt><trkpt lat="36.8506013480822" lon="15.109247544228065"><ele>15.0</ele><time>2026-03-28T14:06:30.999Z</time></trkpt><trkpt lat="36.850553998129286" lon="15.109178310793723"><ele>15.0</ele><time>2026-03-28T14:06:31.999Z</time></trkpt><trkpt lat="36.85053979460235" lon="15.109081276189448"><ele>15.0</ele><time>2026-03-28T14:06:32.999Z</time></trkpt><trkpt lat="36.85056203374344" lon="15.108967681479731"><ele>15.0</ele><time>2026-03-28T14:06:33.999Z</time></trkpt><trkpt lat="36.85057703121669" lon="15.108844073080437"><ele>15.0</ele><time>2026-03-28T14:06:34.999Z</time></trkpt><trkpt lat="36.85059387009663" lon="15.10871014504464"><ele>15.0</ele><time>2026-03-28T14:06:35.999Z</time></trkpt><trkpt lat="36.85066221478778" lon="15.108577971342136"><ele>14.75</ele><time>2026-03-28T14:06:36.999Z</time></trkpt><trkpt lat="36.85069609557972" lon="15.108433540932072"><ele>14.5</ele><time>2026-03-28T14:06:37.999Z</time></trkpt><trkpt lat="36.85072712211393" lon="15.108295461858958"><ele>14.25</ele><time>2026-03-28T14:06:38.999Z</time></trkpt><trkpt lat="36.85075524533644" lon="15.108154573795401"><ele>14.0</ele><time>2026-03-28T14:06:39.999Z</time></trkpt><trkpt lat="36.85078193487961" lon="15.108011109164865"><ele>14.0</ele><time>2026-03-28T14:06:40.999Z</time></trkpt><trkpt lat="36.85080502461863" lon="15.10787418560937"><ele>13.999999999999998</ele><time>2026-03-28T14:06:41.999Z</time></trkpt><trkpt lat="36.85082738940349" lon="15.10773666053744"><ele>13.999999999999998</ele><time>2026-03-28T14:06:42.999Z</time></trkpt><trkpt lat="36.85084177467576" lon="15.107607176657096"><ele>14.0</ele><time>2026-03-28T14:06:43.998Z</time></trkpt><trkpt lat="36.85085177773144" lon="15.107485171374075"><ele>14.0</ele><time>2026-03-28T14:06:44.998Z</time></trkpt><trkpt lat="36.85085783562494" lon="15.107380558838662"><ele>14.000000000000002</ele><time>2026-03-28T14:06:45.998Z</time></trkpt><trkpt lat="36.85085660096327" lon="15.1072829950037"><ele>14.0</ele><time>2026-03-28T14:06:46.998Z</time></trkpt><trkpt lat="36.85085534253027" lon="15.107198792953783"><ele>14.0</ele><time>2026-03-28T14:06:47.998Z</time></trkpt><trkpt lat="36.85084866234021" lon="15.107112962159192"><ele>14.0</ele><time>2026-03-28T14:06:48.998Z</time></trkpt><trkpt lat="36.850838983916645" lon="15.10697522276866"><ele>14.000000000000002</ele><time>2026-03-28T14:06:50.998Z</time></trkpt><trkpt lat="36.85089382079973" lon="15.106915459896504"><ele>14.0</ele><time>2026-03-28T14:06:52.998Z</time></trkpt><trkpt lat="36.85098975309844" lon="15.106995843634559"><ele>14.0</ele><time>2026-03-28T14:06:53.998Z</time></trkpt><trkpt lat="36.85106795827415" lon="15.107025674063918"><ele>13.999999999999998</ele><time>2026-03-28T14:06:55.998Z</time></trkpt><trkpt lat="36.85105518118111" lon="15.106820562678074"><ele>13.999999999999998</ele><time>2026-03-28T14:07:00Z</time></trkpt><trkpt lat="36.85099188116219" lon="15.106782109619955"><ele>14.0</ele><time>2026-03-28T14:07:02Z</time></trkpt><trkpt lat="36.85092579134955" lon="15.106724148319607"><ele>14.0</ele><time>2026-03-28T14:08:00.999Z</time></trkpt><trkpt lat="36.85086513722134" lon="15.106668447307394"><ele>14.000000000000002</ele><time>2026-03-28T14:08:01.999Z</time></trkpt><trkpt lat="36.85079711220284" lon="15.106619690552822"><ele>14.0</ele><time>2026-03-28T14:08:02.999Z</time></trkpt><trkpt lat="36.85073213895079" lon="15.106572243313938"><ele>14.0</ele><time>2026-03-28T14:08:03.999Z</time></trkpt><trkpt lat="36.85066820791445" lon="15.10651435379425"><ele>14.0</ele><time>2026-03-28T14:08:04.999Z</time></trkpt><trkpt lat="36.85059812059928" lon="15.106447992582018"><ele>14.000000000000002</ele><time>2026-03-28T14:08:05.999Z</time></trkpt><trkpt lat="36.85052465166625" lon="15.10637951064972"><ele>14.0</ele><time>2026-03-28T14:08:06.999Z</time></trkpt><trkpt lat="36.850448092236114" lon="15.106310992115798"><ele>14.0</ele><time>2026-03-28T14:08:07.999Z</time></trkpt><trkpt lat="36.85036534780523" lon="15.106242383346247"><ele>13.999999999999998</ele><time>2026-03-28T14:08:08.999Z</time></trkpt><trkpt lat="36.85028316773732" lon="15.106165914626569"><ele>13.999999999999998</ele><time>2026-03-28T14:08:09.999Z</time></trkpt><trkpt lat="36.85019879958169" lon="15.106085683726395"><ele>14.0</ele><time>2026-03-28T14:08:10.999Z</time></trkpt><trkpt lat="36.85011001702478" lon="15.106006520404037"><ele>14.0</ele><time>2026-03-28T14:08:11.999Z</time></trkpt><trkpt lat="36.85002939162432" lon="15.105934261430846"><ele>13.75</ele><time>2026-03-28T14:08:12.999Z</time></trkpt><trkpt lat="36.84994106986785" lon="15.105855128777804"><ele>13.5</ele><time>2026-03-28T14:08:13.999Z</time></trkpt><trkpt lat="36.849844028093834" lon="15.105766606601463"><ele>13.25</ele><time>2026-03-28T14:08:14.999Z</time></trkpt><trkpt lat="36.84973791315242" lon="15.105668194962679"><ele>13.0</ele><time>2026-03-28T14:08:15.999Z</time></trkpt><trkpt lat="36.84961961018641" lon="15.105559128511313"><ele>13.0</ele><time>2026-03-28T14:08:16.999Z</time></trkpt><trkpt lat="36.84947565552741" lon="15.105418757356913"><ele>13.0</ele><time>2026-03-28T14:08:17.999Z</time></trkpt><trkpt lat="36.84932760313578" lon="15.105263158104654"><ele>13.0</ele><time>2026-03-28T14:08:18.999Z</time></trkpt><trkpt lat="36.849155444025996" lon="15.10511184501288"><ele>13.0</ele><time>2026-03-28T14:08:19.999Z</time></trkpt><trkpt lat="36.849000792184654" lon="15.104980642317265"><ele>13.0</ele><time>2026-03-28T14:08:20.999Z</time></trkpt><trkpt lat="36.848846141998884" lon="15.104836105259533"><ele>13.0</ele><time>2026-03-28T14:08:21.999Z</time></trkpt><trkpt lat="36.848703998548736" lon="15.104702941558136"><ele>14.0</ele><time>2026-03-28T14:08:22.999Z</time></trkpt><trkpt lat="36.848561717727975" lon="15.104578448308537"><ele>15.0</ele><time>2026-03-28T14:08:23.999Z</time></trkpt><trkpt lat="36.848418980119526" lon="15.104453222276987"><ele>16.0</ele><time>2026-03-28T14:08:24.999Z</time></trkpt><trkpt lat="36.848281355959905" lon="15.104330485913534"><ele>19.666666666666664</ele><time>2026-03-28T14:08:25.999Z</time></trkpt><trkpt lat="36.84815047614195" lon="15.1042123745519"><ele>23.333333333333332</ele><time>2026-03-28T14:08:26.999Z</time></trkpt><trkpt lat="36.848022064642265" lon="15.104103307575977"><ele>27.0</ele><time>2026-03-28T14:08:27.999Z</time></trkpt><trkpt lat="36.84788989342487" lon="15.103988276138141"><ele>27.666666666666664</ele><time>2026-03-28T14:08:28.999Z</time></trkpt><trkpt lat="36.84776402438091" lon="15.103870824066416"><ele>28.333333333333332</ele><time>2026-03-28T14:08:29.999Z</time></trkpt><trkpt lat="36.84764071673259" lon="15.103757756981837"><ele>29.0</ele><time>2026-03-28T14:08:30.999Z</time></trkpt><trkpt lat="36.84750796223297" lon="15.103641928528008"><ele>29.0</ele><time>2026-03-28T14:08:31.999Z</time></trkpt><trkpt lat="36.84737685503395" lon="15.103515755025555"><ele>29.0</ele><time>2026-03-28T14:08:32.999Z</time></trkpt><trkpt lat="36.84724688713259" lon="15.103401535226572"><ele>29.0</ele><time>2026-03-28T14:08:33.999Z</time></trkpt><trkpt lat="36.84711558799351" lon="15.10329131861272"><ele>29.0</ele><time>2026-03-28T14:08:34.999Z</time></trkpt><trkpt lat="36.846994521412554" lon="15.103173235659705"><ele>29.0</ele><time>2026-03-28T14:08:35.999Z</time></trkpt><trkpt lat="36.84687275984366" lon="15.103043125654073"><ele>29.0</ele><time>2026-03-28T14:08:36.999Z</time></trkpt><trkpt lat="36.84675929287855" lon="15.102901436197637"><ele>27.333333333333332</ele><time>2026-03-28T14:08:37.999Z</time></trkpt><trkpt lat="36.84664869215278" lon="15.102758965752066"><ele>25.666666666666664</ele><time>2026-03-28T14:08:38.999Z</time></trkpt><trkpt lat="36.846543162837726" lon="15.102605448485878"><ele>24.0</ele><time>2026-03-28T14:08:39.999Z</time></trkpt><trkpt lat="36.84644815044394" lon="15.10244029423239"><ele>23.666666666666668</ele><time>2026-03-28T14:08:40.999Z</time></trkpt><trkpt lat="36.84635919627409" lon="15.102268160683542"><ele>23.333333333333336</ele><time>2026-03-28T14:08:41.999Z</time></trkpt><trkpt lat="36.84627957533901" lon="15.102079650799274"><ele>23.0</ele><time>2026-03-28T14:08:42.999Z</time></trkpt><trkpt lat="36.84620934327674" lon="15.101902292252952"><ele>23.0</ele><time>2026-03-28T14:08:43.999Z</time></trkpt><trkpt lat="36.84614604235347" lon="15.101710262937834"><ele>23.0</ele><time>2026-03-28T14:08:44.999Z</time></trkpt><trkpt lat="36.84609328470178" lon="15.101528318002442"><ele>23.0</ele><time>2026-03-28T14:08:45.999Z</time></trkpt><trkpt lat="36.846037610073516" lon="15.101344061891647"><ele>21.333333333333336</ele><time>2026-03-28T14:08:46.999Z</time></trkpt><trkpt lat="36.84597898819471" lon="15.101162480208387"><ele>19.666666666666668</ele><time>2026-03-28T14:08:47.998Z</time></trkpt><trkpt lat="36.845919888343296" lon="15.100982077912345"><ele>18.0</ele><time>2026-03-28T14:08:48.998Z</time></trkpt><trkpt lat="36.845864788900556" lon="15.100803759041144"><ele>16.0</ele><time>2026-03-28T14:08:49.998Z</time></trkpt><trkpt lat="36.84580834224286" lon="15.100623674386819"><ele>14.0</ele><time>2026-03-28T14:08:50.998Z</time></trkpt><trkpt lat="36.84575158057129" lon="15.100439782024528"><ele>12.0</ele><time>2026-03-28T14:08:51.998Z</time></trkpt><trkpt lat="36.84569307603657" lon="15.100258129564823"><ele>12.0</ele><time>2026-03-28T14:08:52.998Z</time></trkpt><trkpt lat="36.84563578542919" lon="15.100082812282043"><ele>12.0</ele><time>2026-03-28T14:08:53.998Z</time></trkpt><trkpt lat="36.845578740968115" lon="15.09990611260784"><ele>12.0</ele><time>2026-03-28T14:08:54.998Z</time></trkpt><trkpt lat="36.84552036309547" lon="15.09972524077022"><ele>12.333333333333332</ele><time>2026-03-28T14:08:55.998Z</time></trkpt><trkpt lat="36.845467327662874" lon="15.09954317936044"><ele>12.666666666666666</ele><time>2026-03-28T14:08:56.998Z</time></trkpt><trkpt lat="36.8454127885999" lon="15.09936315975104"><ele>13.0</ele><time>2026-03-28T14:08:57.998Z</time></trkpt><trkpt lat="36.845355304623084" lon="15.099189740099042"><ele>14.333333333333332</ele><time>2026-03-28T14:08:58.998Z</time></trkpt><trkpt lat="36.845295910126715" lon="15.099014080582903"><ele>15.666666666666668</ele><time>2026-03-28T14:08:59.998Z</time></trkpt><trkpt lat="36.845238647208916" lon="15.098833387339813"><ele>17.0</ele><time>2026-03-28T14:09:00.998Z</time></trkpt><trkpt lat="36.845184269028834" lon="15.0986467638106"><ele>17.0</ele><time>2026-03-28T14:09:01.998Z</time></trkpt><trkpt lat="36.845141589698095" lon="15.098466962433946"><ele>17.0</ele><time>2026-03-28T14:09:02.998Z</time></trkpt><trkpt lat="36.84510290461158" lon="15.098281381612498"><ele>17.0</ele><time>2026-03-28T14:09:04Z</time></trkpt><trkpt lat="36.845081502748485" lon="15.09808603168448"><ele>16.333333333333336</ele><time>2026-03-28T14:09:05Z</time></trkpt><trkpt lat="36.84506780819456" lon="15.097888222422837"><ele>15.666666666666668</ele><time>2026-03-28T14:09:06Z</time></trkpt><trkpt lat="36.845059948395665" lon="15.097694652152919"><ele>15.0</ele><time>2026-03-28T14:09:07Z</time></trkpt><trkpt lat="36.84505884916889" lon="15.097499506379386"><ele>14.0</ele><time>2026-03-28T14:09:08Z</time></trkpt><trkpt lat="36.845069579386085" lon="15.09730703752589"><ele>13.0</ele><time>2026-03-28T14:09:09Z</time></trkpt><trkpt lat="36.84508677066582" lon="15.097118942628592"><ele>12.0</ele><time>2026-03-28T14:09:10Z</time></trkpt><trkpt lat="36.845116623310126" lon="15.096932028702584"><ele>15.0</ele><time>2026-03-28T14:09:11Z</time></trkpt><trkpt lat="36.84514680873442" lon="15.096754504850542"><ele>18.0</ele><time>2026-03-28T14:09:12Z</time></trkpt><trkpt lat="36.84518174987093" lon="15.096574494974014"><ele>21.0</ele><time>2026-03-28T14:09:13Z</time></trkpt><trkpt lat="36.84521846992975" lon="15.096407335917148"><ele>24.0</ele><time>2026-03-28T14:09:14Z</time></trkpt><trkpt lat="36.845251842226304" lon="15.09622821897832"><ele>24.5</ele><time>2026-03-28T14:09:15Z</time></trkpt><trkpt lat="36.84528419540071" lon="15.096052698797502"><ele>25.0</ele><time>2026-03-28T14:09:16Z</time></trkpt><trkpt lat="36.8453175679257" lon="15.09587375214664"><ele>25.5</ele><time>2026-03-28T14:09:17Z</time></trkpt><trkpt lat="36.8453520273126" lon="15.095690243835422"><ele>26.0</ele><time>2026-03-28T14:09:18Z</time></trkpt><trkpt lat="36.84538552285755" lon="15.095489311383185"><ele>24.333333333333332</ele><time>2026-03-28T14:09:19Z</time></trkpt><trkpt lat="36.84541675857974" lon="15.095278092029892"><ele>22.666666666666664</ele><time>2026-03-28T14:09:20Z</time></trkpt><trkpt lat="36.84545452462308" lon="15.095069865800333"><ele>21.0</ele><time>2026-03-28T14:09:21Z</time></trkpt><trkpt lat="36.845492707619684" lon="15.0948714702671"><ele>20.0</ele><time>2026-03-28T14:09:22Z</time></trkpt><trkpt lat="36.84552945309977" lon="15.094666830644384"><ele>19.0</ele><time>2026-03-28T14:09:23Z</time></trkpt><trkpt lat="36.845564772010135" lon="15.094460847905772"><ele>18.0</ele><time>2026-03-28T14:09:24Z</time></trkpt><trkpt lat="36.84559627145986" lon="15.094247796148597"><ele>19.0</ele><time>2026-03-28T14:09:25Z</time></trkpt><trkpt lat="36.84561651134719" lon="15.09403075357736"><ele>20.0</ele><time>2026-03-28T14:09:26Z</time></trkpt><trkpt lat="36.845618052419866" lon="15.093821963873197"><ele>21.0</ele><time>2026-03-28T14:09:27Z</time></trkpt><trkpt lat="36.84561276866159" lon="15.093631211911106"><ele>21.0</ele><time>2026-03-28T14:09:28Z</time></trkpt><trkpt lat="36.84559920580649" lon="15.093456419411124"><ele>21.0</ele><time>2026-03-28T14:09:29Z</time></trkpt><trkpt lat="36.845581973943" lon="15.093294553881934"><ele>21.0</ele><time>2026-03-28T14:09:30Z</time></trkpt><trkpt lat="36.845559600853186" lon="15.093149098510228"><ele>21.0</ele><time>2026-03-28T14:09:31Z</time></trkpt><trkpt lat="36.845528497707264" lon="15.093000095772387"><ele>20.0</ele><time>2026-03-28T14:09:32Z</time></trkpt><trkpt lat="36.84548969633892" lon="15.092844560051017"><ele>19.0</ele><time>2026-03-28T14:09:33Z</time></trkpt><trkpt lat="36.845445073307324" lon="15.092685890817528"><ele>18.0</ele><time>2026-03-28T14:09:34Z</time></trkpt><trkpt lat="36.84539516038462" lon="15.09253113630183"><ele>17.0</ele><time>2026-03-28T14:09:35Z</time></trkpt><trkpt lat="36.845337280374764" lon="15.092372559876548"><ele>15.25</ele><time>2026-03-28T14:09:36Z</time></trkpt><trkpt lat="36.84527336336927" lon="15.092217704595807"><ele>13.5</ele><time>2026-03-28T14:09:37Z</time></trkpt><trkpt lat="36.84520365881246" lon="15.092069018695597"><ele>11.75</ele><time>2026-03-28T14:09:38Z</time></trkpt><trkpt lat="36.845129544738036" lon="15.091926153670622"><ele>10.0</ele><time>2026-03-28T14:09:39Z</time></trkpt><trkpt lat="36.84505754606422" lon="15.091799494112042"><ele>9.4</ele><time>2026-03-28T14:09:40Z</time></trkpt><trkpt lat="36.8449786154931" lon="15.091675754652522"><ele>8.8</ele><time>2026-03-28T14:09:41Z</time></trkpt><trkpt lat="36.84489775030385" lon="15.091565482584915"><ele>8.2</ele><time>2026-03-28T14:09:42Z</time></trkpt><trkpt lat="36.84482149155411" lon="15.091468828936138"><ele>7.6</ele><time>2026-03-28T14:09:43Z</time></trkpt><trkpt lat="36.84475418622676" lon="15.091390828316298"><ele>7.0</ele><time>2026-03-28T14:09:44Z</time></trkpt><trkpt lat="36.84469280454007" lon="15.091322880093447"><ele>7.0</ele><time>2026-03-28T14:09:45Z</time></trkpt><trkpt lat="36.844634242560026" lon="15.091262816933316"><ele>7.0</ele><time>2026-03-28T14:09:46Z</time></trkpt><trkpt lat="36.84457769083432" lon="15.091215997777688"><ele>7.0</ele><time>2026-03-28T14:09:48.999Z</time></trkpt><trkpt lat="36.844512819956" lon="15.09119527815225"><ele>7.0</ele><time>2026-03-28T14:09:56.999Z</time></trkpt><trkpt lat="36.8444614789126" lon="15.091149283671644"><ele>7.0</ele><time>2026-03-28T14:10:04.999Z</time></trkpt><trkpt lat="36.844457587807284" lon="15.091065771729209"><ele>7.0</ele><time>2026-03-28T14:10:09.999Z</time></trkpt><trkpt lat="36.844495965144134" lon="15.090997862713824"><ele>7.0</ele><time>2026-03-28T14:10:33.999Z</time></trkpt><trkpt lat="36.84447809497549" lon="15.090922159116557"><ele>7.000000000000001</ele><time>2026-03-28T14:10:35.999Z</time></trkpt><trkpt lat="36.84442463775991" lon="15.090879783146114"><ele>7.0</ele><time>2026-03-28T14:10:59.998Z</time></trkpt><trkpt lat="36.8443704706969" lon="15.090808895862057"><ele>7.0</ele><time>2026-03-28T14:12:46.999Z</time></trkpt><trkpt lat="36.84427161654967" lon="15.090741666971432"><ele>7.0</ele><time>2026-03-28T14:12:49.999Z</time></trkpt><trkpt lat="36.84420857531709" lon="15.090696325720662"><ele>7.000000000000001</ele><time>2026-03-28T14:12:50.999Z</time></trkpt><trkpt lat="36.84411491469599" lon="15.0906196911337"><ele>7.0</ele><time>2026-03-28T14:12:51.999Z</time></trkpt><trkpt lat="36.84401385567861" lon="15.090510008935269"><ele>7.166666666666667</ele><time>2026-03-28T14:12:52.999Z</time></trkpt><trkpt lat="36.843957602946695" lon="15.090438654942306"><ele>7.333333333333334</ele><time>2026-03-28T14:12:53.999Z</time></trkpt><trkpt lat="36.84394906320437" lon="15.090357158586743"><ele>7.5</ele><time>2026-03-28T14:12:55.999Z</time></trkpt><trkpt lat="36.84396408035342" lon="15.090254470587217"><ele>7.666666666666666</ele><time>2026-03-28T14:12:57.999Z</time></trkpt><trkpt lat="36.84398145212589" lon="15.090137957109372"><ele>7.833333333333333</ele><time>2026-03-28T14:12:58.998Z</time></trkpt><trkpt lat="36.84399841628124" lon="15.090018688463841"><ele>8.0</ele><time>2026-03-28T14:12:59.998Z</time></trkpt><trkpt lat="36.844011444704705" lon="15.089875582801692"><ele>8.0</ele><time>2026-03-28T14:13:00.998Z</time></trkpt><trkpt lat="36.84402999938257" lon="15.089714417889"><ele>8.0</ele><time>2026-03-28T14:13:01.998Z</time></trkpt><trkpt lat="36.84405787141175" lon="15.08955726863074"><ele>8.0</ele><time>2026-03-28T14:13:02.998Z</time></trkpt><trkpt lat="36.844087671643365" lon="15.08940335143093"><ele>8.0</ele><time>2026-03-28T14:13:03.998Z</time></trkpt><trkpt lat="36.84410532723824" lon="15.089244550985288"><ele>8.0</ele><time>2026-03-28T14:13:04.998Z</time></trkpt><trkpt lat="36.84412316666504" lon="15.0890824671338"><ele>8.0</ele><time>2026-03-28T14:13:05.998Z</time></trkpt><trkpt lat="36.84414529702405" lon="15.088922296977588"><ele>8.0</ele><time>2026-03-28T14:13:06.998Z</time></trkpt><trkpt lat="36.84416486422442" lon="15.088770666215872"><ele>8.0</ele><time>2026-03-28T14:13:07.998Z</time></trkpt><trkpt lat="36.84418023284018" lon="15.088619080685689"><ele>8.0</ele><time>2026-03-28T14:13:08.998Z</time></trkpt><trkpt lat="36.84419854361466" lon="15.08845910712335"><ele>8.0</ele><time>2026-03-28T14:13:09.998Z</time></trkpt><trkpt lat="36.84421775546542" lon="15.08830309406027"><ele>8.0</ele><time>2026-03-28T14:13:10.998Z</time></trkpt><trkpt lat="36.84423837382379" lon="15.08814184903694"><ele>8.0</ele><time>2026-03-28T14:13:11.998Z</time></trkpt><trkpt lat="36.844264058377085" lon="15.087982486954642"><ele>8.0</ele><time>2026-03-28T14:13:12.998Z</time></trkpt><trkpt lat="36.84428635884159" lon="15.087815480744538"><ele>8.0</ele><time>2026-03-28T14:13:13.998Z</time></trkpt><trkpt lat="36.84430421263273" lon="15.087650206799342"><ele>8.0</ele><time>2026-03-28T14:13:14.998Z</time></trkpt><trkpt lat="36.844321944779615" lon="15.087485277761578"><ele>8.0</ele><time>2026-03-28T14:13:16Z</time></trkpt><trkpt lat="36.844344789601124" lon="15.087321110336582"><ele>7.75</ele><time>2026-03-28T14:13:17Z</time></trkpt><trkpt lat="36.84436435278802" lon="15.08715018091186"><ele>7.5</ele><time>2026-03-28T14:13:18Z</time></trkpt><trkpt lat="36.84438172770504" lon="15.086978345206239"><ele>7.25</ele><time>2026-03-28T14:13:19Z</time></trkpt><trkpt lat="36.844397002509474" lon="15.08680341188132"><ele>7.0</ele><time>2026-03-28T14:13:20Z</time></trkpt><trkpt lat="36.84441168089832" lon="15.086657796877782"><ele>7.000000000000001</ele><time>2026-03-28T14:13:21Z</time></trkpt><trkpt lat="36.84442726999196" lon="15.086528971191429"><ele>7.0</ele><time>2026-03-28T14:13:22Z</time></trkpt><trkpt lat="36.84444145408235" lon="15.08642390798782"><ele>7.0</ele><time>2026-03-28T14:13:23Z</time></trkpt><trkpt lat="36.84445116790176" lon="15.086340683965416"><ele>7.0</ele><time>2026-03-28T14:13:24Z</time></trkpt><trkpt lat="36.84448358542517" lon="15.086233323527889"><ele>7.000000000000001</ele><time>2026-03-28T14:13:26Z</time></trkpt><trkpt lat="36.84456447156632" lon="15.086221046873991"><ele>7.0</ele><time>2026-03-28T14:13:29Z</time></trkpt><trkpt lat="36.84463859510946" lon="15.086228736172092"><ele>7.0</ele><time>2026-03-28T14:13:31Z</time></trkpt><trkpt lat="36.844707095916355" lon="15.08622962051616"><ele>6.999999999999999</ele><time>2026-03-28T14:13:34Z</time></trkpt><trkpt lat="36.84480843994364" lon="15.086242483208745"><ele>6.999999999999999</ele><time>2026-03-28T14:13:37Z</time></trkpt><trkpt lat="36.84489802366964" lon="15.086241087727961"><ele>7.0</ele><time>2026-03-28T14:13:39Z</time></trkpt><trkpt lat="36.84499344941577" lon="15.086246303298589"><ele>7.0</ele><time>2026-03-28T14:13:41Z</time></trkpt><trkpt lat="36.8451029032787" lon="15.086260737487951"><ele>7.199999999999999</ele><time>2026-03-28T14:13:43Z</time></trkpt><trkpt lat="36.84523241115329" lon="15.086274068277818"><ele>7.3999999999999995</ele><time>2026-03-28T14:13:45Z</time></trkpt><trkpt lat="36.84530566697754" lon="15.086278212132822"><ele>7.6000000000000005</ele><time>2026-03-28T14:13:46Z</time></trkpt><trkpt lat="36.84539801037858" lon="15.086291742594328"><ele>7.800000000000001</ele><time>2026-03-28T14:13:47Z</time></trkpt><trkpt lat="36.84549536536591" lon="15.086305806626838"><ele>8.0</ele><time>2026-03-28T14:13:48Z</time></trkpt><trkpt lat="36.845599402302376" lon="15.086321272136955"><ele>8.0</ele><time>2026-03-28T14:13:49Z</time></trkpt><trkpt lat="36.845705417804034" lon="15.086340320048159"><ele>8.0</ele><time>2026-03-28T14:13:50Z</time></trkpt><trkpt lat="36.84581655255651" lon="15.086366015078836"><ele>8.0</ele><time>2026-03-28T14:13:51Z</time></trkpt><trkpt lat="36.84592264556478" lon="15.08638572449869"><ele>8.0</ele><time>2026-03-28T14:13:52Z</time></trkpt><trkpt lat="36.84604643746664" lon="15.08639247620148"><ele>8.0</ele><time>2026-03-28T14:13:53Z</time></trkpt><trkpt lat="36.84619808912858" lon="15.086399125630763"><ele>8.0</ele><time>2026-03-28T14:13:54Z</time></trkpt><trkpt lat="36.84634663853563" lon="15.086408370112082"><ele>8.0</ele><time>2026-03-28T14:13:55Z</time></trkpt><trkpt lat="36.84647250206528" lon="15.086422623926879"><ele>8.0</ele><time>2026-03-28T14:13:56Z</time></trkpt><trkpt lat="36.84660825101146" lon="15.08644630361446"><ele>8.0</ele><time>2026-03-28T14:13:57Z</time></trkpt><trkpt lat="36.846734292492656" lon="15.08647187315809"><ele>8.0</ele><time>2026-03-28T14:13:58Z</time></trkpt><trkpt lat="36.84683535475972" lon="15.086500214897539"><ele>8.0</ele><time>2026-03-28T14:13:59Z</time></trkpt><trkpt lat="36.84692243754855" lon="15.086519680728973"><ele>8.0</ele><time>2026-03-28T14:14:00Z</time></trkpt><trkpt lat="36.84699255825932" lon="15.086545829443974"><ele>8.0</ele><time>2026-03-28T14:14:01Z</time></trkpt><trkpt lat="36.84705885453522" lon="15.086553256218194"><ele>9.4</ele><time>2026-03-28T14:14:01.999Z</time></trkpt><trkpt lat="36.84717610421197" lon="15.086558833034413"><ele>10.8</ele><time>2026-03-28T14:14:03.999Z</time></trkpt><trkpt lat="36.84724583791891" lon="15.08655061685251"><ele>12.2</ele><time>2026-03-28T14:14:04.999Z</time></trkpt><trkpt lat="36.847349035017864" lon="15.08654183335982"><ele>13.6</ele><time>2026-03-28T14:14:05.999Z</time></trkpt><trkpt lat="36.84744970494644" lon="15.086526809920878"><ele>15.0</ele><time>2026-03-28T14:14:06.999Z</time></trkpt><trkpt lat="36.84751508391113" lon="15.086518903277906"><ele>15.0</ele><time>2026-03-28T14:14:07.999Z</time></trkpt><trkpt lat="36.847615503103256" lon="15.086516222271621"><ele>15.0</ele><time>2026-03-28T14:14:09.999Z</time></trkpt><trkpt lat="36.84768329182617" lon="15.086550725396497"><ele>15.0</ele><time>2026-03-28T14:14:11.999Z</time></trkpt><trkpt lat="36.847780454238816" lon="15.086614538743866"><ele>15.0</ele><time>2026-03-28T14:14:13.999Z</time></trkpt><trkpt lat="36.84787990652845" lon="15.086652609683133"><ele>15.0</ele><time>2026-03-28T14:14:15.999Z</time></trkpt><trkpt lat="36.84797204959673" lon="15.086697382464966"><ele>16.333333333333332</ele><time>2026-03-28T14:14:17.999Z</time></trkpt><trkpt lat="36.848040800499895" lon="15.086731822981205"><ele>17.666666666666668</ele><time>2026-03-28T14:14:19.999Z</time></trkpt><trkpt lat="36.84814045534736" lon="15.086775858202227"><ele>19.0</ele><time>2026-03-28T14:14:27.999Z</time></trkpt><trkpt lat="36.84822895545266" lon="15.08681330532495"><ele>20.333333333333336</ele><time>2026-03-28T14:14:28.999Z</time></trkpt><trkpt lat="36.84831928589985" lon="15.086855832446087"><ele>21.666666666666668</ele><time>2026-03-28T14:14:29.999Z</time></trkpt><trkpt lat="36.8483926347015" lon="15.086866054501069"><ele>23.0</ele><time>2026-03-28T14:14:30.999Z</time></trkpt><trkpt lat="36.84851637373384" lon="15.08685793680525"><ele>25.4</ele><time>2026-03-28T14:14:32.999Z</time></trkpt><trkpt lat="36.848609503638826" lon="15.086792740422245"><ele>27.799999999999997</ele><time>2026-03-28T14:14:34.999Z</time></trkpt><trkpt lat="36.84871225441099" lon="15.086710447084496"><ele>30.2</ele><time>2026-03-28T14:14:36.999Z</time></trkpt><trkpt lat="36.84876897581434" lon="15.086660821730515"><ele>32.6</ele><time>2026-03-28T14:14:37.999Z</time></trkpt><trkpt lat="36.84879280420221" lon="15.086529911734939"><ele>35.0</ele><time>2026-03-28T14:14:38.999Z</time></trkpt><trkpt lat="36.848808490097255" lon="15.086438008858922"><ele>35.0</ele><time>2026-03-28T14:14:39.999Z</time></trkpt><trkpt lat="36.84883732286892" lon="15.086333675270218"><ele>35.0</ele><time>2026-03-28T14:14:40.999Z</time></trkpt><trkpt lat="36.84887416824447" lon="15.086186119403616"><ele>35.0</ele><time>2026-03-28T14:14:41.999Z</time></trkpt><trkpt lat="36.84891598688173" lon="15.08601463429763"><ele>35.0</ele><time>2026-03-28T14:14:42.999Z</time></trkpt><trkpt lat="36.84896805414672" lon="15.085888074834761"><ele>35.0</ele><time>2026-03-28T14:14:43.999Z</time></trkpt><trkpt lat="36.84903606932391" lon="15.085809094179954"><ele>35.0</ele><time>2026-03-28T14:14:44.999Z</time></trkpt><trkpt lat="36.84915113599979" lon="15.085782117409789"><ele>35.0</ele><time>2026-03-28T14:14:45.999Z</time></trkpt><trkpt lat="36.84925652774655" lon="15.085786100956204"><ele>35.0</ele><time>2026-03-28T14:14:46.999Z</time></trkpt><trkpt lat="36.84935044232279" lon="15.085831195215949"><ele>35.0</ele><time>2026-03-28T14:14:47.999Z</time></trkpt><trkpt lat="36.84945686713479" lon="15.085876817038937"><ele>34.5</ele><time>2026-03-28T14:14:48.999Z</time></trkpt><trkpt lat="36.8495671632857" lon="15.085909856823235"><ele>34.0</ele><time>2026-03-28T14:14:49.999Z</time></trkpt><trkpt lat="36.84967788595891" lon="15.085940987371263"><ele>33.5</ele><time>2026-03-28T14:14:50.999Z</time></trkpt><trkpt lat="36.849794523952454" lon="15.085970287735956"><ele>33.0</ele><time>2026-03-28T14:14:51.999Z</time></trkpt><trkpt lat="36.84991337776048" lon="15.086001236125968"><ele>33.0</ele><time>2026-03-28T14:14:52.999Z</time></trkpt><trkpt lat="36.850050730386926" lon="15.08605407555715"><ele>33.0</ele><time>2026-03-28T14:14:53.999Z</time></trkpt><trkpt lat="36.85020404948205" lon="15.086109167007303"><ele>33.0</ele><time>2026-03-28T14:14:54.999Z</time></trkpt><trkpt lat="36.85037976737538" lon="15.086137915122743"><ele>34.0</ele><time>2026-03-28T14:14:55.999Z</time></trkpt><trkpt lat="36.850561828310425" lon="15.086175145622029"><ele>35.0</ele><time>2026-03-28T14:14:56.999Z</time></trkpt><trkpt lat="36.85071350798395" lon="15.086214560211303"><ele>36.0</ele><time>2026-03-28T14:14:57.999Z</time></trkpt><trkpt lat="36.85084467000317" lon="15.086259273775532"><ele>36.0</ele><time>2026-03-28T14:14:58.999Z</time></trkpt><trkpt lat="36.85094818262513" lon="15.086311433630483"><ele>36.0</ele><time>2026-03-28T14:14:59.999Z</time></trkpt><trkpt lat="36.851035115415456" lon="15.08638010015973"><ele>36.0</ele><time>2026-03-28T14:15:00.999Z</time></trkpt><trkpt lat="36.85111940526961" lon="15.086470631876875"><ele>36.0</ele><time>2026-03-28T14:15:01.999Z</time></trkpt><trkpt lat="36.85119040157647" lon="15.086574313505814"><ele>36.0</ele><time>2026-03-28T14:15:02.999Z</time></trkpt><trkpt lat="36.851233801720745" lon="15.086643008994095"><ele>37.0</ele><time>2026-03-28T14:15:03.999Z</time></trkpt><trkpt lat="36.85131226347151" lon="15.08658539133835"><ele>38.0</ele><time>2026-03-28T14:15:05.998Z</time></trkpt><trkpt lat="36.85136070482853" lon="15.086462506308271"><ele>39.0</ele><time>2026-03-28T14:15:07.998Z</time></trkpt><trkpt lat="36.85139074800481" lon="15.086385064388576"><ele>40.0</ele><time>2026-03-28T14:15:09.998Z</time></trkpt><trkpt lat="36.8514067702136" lon="15.08626087621477"><ele>41.0</ele><time>2026-03-28T14:15:11.998Z</time></trkpt><trkpt lat="36.851430025717086" lon="15.086154826429398"><ele>41.0</ele><time>2026-03-28T14:15:12.998Z</time></trkpt><trkpt lat="36.851462268470996" lon="15.08599362129948"><ele>41.0</ele><time>2026-03-28T14:15:13.998Z</time></trkpt><trkpt lat="36.851489525342764" lon="15.085835961481695"><ele>41.0</ele><time>2026-03-28T14:15:14.998Z</time></trkpt><trkpt lat="36.85151002930915" lon="15.085704203658581"><ele>41.0</ele><time>2026-03-28T14:15:15.998Z</time></trkpt><trkpt lat="36.851521994873316" lon="15.085602667563801"><ele>40.25</ele><time>2026-03-28T14:15:16.998Z</time></trkpt><trkpt lat="36.85147273347617" lon="15.08550176856665"><ele>39.5</ele><time>2026-03-28T14:15:18.998Z</time></trkpt><trkpt lat="36.85136754961997" lon="15.085471688332746"><ele>38.75</ele><time>2026-03-28T14:15:20.998Z</time></trkpt><trkpt lat="36.85125674725174" lon="15.085455466699411"><ele>38.0</ele><time>2026-03-28T14:15:22Z</time></trkpt><trkpt lat="36.85111529174378" lon="15.08541968891975"><ele>38.0</ele><time>2026-03-28T14:15:23Z</time></trkpt><trkpt lat="36.85096750803138" lon="15.085382809500398"><ele>38.0</ele><time>2026-03-28T14:15:24Z</time></trkpt><trkpt lat="36.85080927801223" lon="15.085342357711909"><ele>38.0</ele><time>2026-03-28T14:15:25Z</time></trkpt><trkpt lat="36.850674285609685" lon="15.085310423515766"><ele>36.75</ele><time>2026-03-28T14:15:26Z</time></trkpt><trkpt lat="36.85054239485422" lon="15.085276822435944"><ele>35.5</ele><time>2026-03-28T14:15:27Z</time></trkpt><trkpt lat="36.85042327190185" lon="15.085250826690183"><ele>34.25</ele><time>2026-03-28T14:15:28Z</time></trkpt><trkpt lat="36.85031269440097" lon="15.085231312401186"><ele>33.0</ele><time>2026-03-28T14:15:29Z</time></trkpt><trkpt lat="36.850224610474065" lon="15.085212561047099"><ele>33.0</ele><time>2026-03-28T14:15:30Z</time></trkpt><trkpt lat="36.850160092294935" lon="15.085180763094328"><ele>33.0</ele><time>2026-03-28T14:15:31Z</time></trkpt><trkpt lat="36.85009263153831" lon="15.085155334422929"><ele>33.0</ele><time>2026-03-28T14:15:33Z</time></trkpt><trkpt lat="36.850086086142134" lon="15.085031900088971"><ele>33.0</ele><time>2026-03-28T14:15:35Z</time></trkpt><trkpt lat="36.85009125636953" lon="15.084927252316588"><ele>33.0</ele><time>2026-03-28T14:15:36Z</time></trkpt><trkpt lat="36.85008711823596" lon="15.084815015243887"><ele>33.0</ele><time>2026-03-28T14:15:37Z</time></trkpt><trkpt lat="36.85008642058631" lon="15.08469511418733"><ele>31.2</ele><time>2026-03-28T14:15:38Z</time></trkpt><trkpt lat="36.8500845699119" lon="15.08457603232954"><ele>29.4</ele><time>2026-03-28T14:15:39Z</time></trkpt><trkpt lat="36.850076837997605" lon="15.084447442737023"><ele>27.599999999999998</ele><time>2026-03-28T14:15:40Z</time></trkpt><trkpt lat="36.85007089153865" lon="15.084317309956283"><ele>25.799999999999997</ele><time>2026-03-28T14:15:41Z</time></trkpt><trkpt lat="36.85007783618588" lon="15.08419820633334"><ele>24.0</ele><time>2026-03-28T14:15:42Z</time></trkpt><trkpt lat="36.850043968375886" lon="15.084096411500727"><ele>22.75</ele><time>2026-03-28T14:15:43Z</time></trkpt><trkpt lat="36.849961370559086" lon="15.084015527679052"><ele>21.5</ele><time>2026-03-28T14:15:44Z</time></trkpt><trkpt lat="36.84987137578634" lon="15.083927489131169"><ele>20.25</ele><time>2026-03-28T14:15:45Z</time></trkpt><trkpt lat="36.84979788750446" lon="15.083812109029571"><ele>19.0</ele><time>2026-03-28T14:15:46Z</time></trkpt><trkpt lat="36.84972693980747" lon="15.083696933609213"><ele>19.0</ele><time>2026-03-28T14:15:47Z</time></trkpt><trkpt lat="36.84963927351575" lon="15.083581385578759"><ele>19.0</ele><time>2026-03-28T14:15:48Z</time></trkpt><trkpt lat="36.849553833375566" lon="15.083466772401273"><ele>19.0</ele><time>2026-03-28T14:15:49Z</time></trkpt><trkpt lat="36.8494759189742" lon="15.08336957238321"><ele>19.0</ele><time>2026-03-28T14:15:50Z</time></trkpt><trkpt lat="36.849415145728216" lon="15.083270449840597"><ele>18.0</ele><time>2026-03-28T14:15:51Z</time></trkpt><trkpt lat="36.8493718450602" lon="15.083189347015585"><ele>17.0</ele><time>2026-03-28T14:15:52Z</time></trkpt><trkpt lat="36.849340272558486" lon="15.083119177424761"><ele>15.999999999999998</ele><time>2026-03-28T14:15:53Z</time></trkpt><trkpt lat="36.849343202876824" lon="15.08296943582821"><ele>15.0</ele><time>2026-03-28T14:15:55Z</time></trkpt><trkpt lat="36.84940162316478" lon="15.082878448823442"><ele>14.0</ele><time>2026-03-28T14:15:56Z</time></trkpt><trkpt lat="36.84944207830854" lon="15.082733649597982"><ele>14.0</ele><time>2026-03-28T14:15:57Z</time></trkpt><trkpt lat="36.84949934155596" lon="15.082574855226005"><ele>13.999999999999998</ele><time>2026-03-28T14:15:58Z</time></trkpt><trkpt lat="36.84955136217957" lon="15.082433477386646"><ele>13.999999999999998</ele><time>2026-03-28T14:15:59Z</time></trkpt><trkpt lat="36.84957791611164" lon="15.082340673033444"><ele>14.0</ele><time>2026-03-28T14:16:00Z</time></trkpt><trkpt lat="36.84959981083911" lon="15.082266184598147"><ele>14.0</ele><time>2026-03-28T14:16:01Z</time></trkpt><trkpt lat="36.849662689664704" lon="15.082240954048212"><ele>14.0</ele><time>2026-03-28T14:16:02Z</time></trkpt><trkpt lat="36.84972318199197" lon="15.082280412984455"><ele>13.999999999999998</ele><time>2026-03-28T14:16:03Z</time></trkpt><trkpt lat="36.84974117970678" lon="15.082394877542326"><ele>13.999999999999998</ele><time>2026-03-28T14:16:04Z</time></trkpt><trkpt lat="36.84978793568443" lon="15.0824973458056"><ele>14.0</ele><time>2026-03-28T14:16:05Z</time></trkpt><trkpt lat="36.84984379817443" lon="15.08262453374114"><ele>14.0</ele><time>2026-03-28T14:16:06Z</time></trkpt><trkpt lat="36.849881642429715" lon="15.082762735643941"><ele>14.000000000000002</ele><time>2026-03-28T14:16:06.999Z</time></trkpt><trkpt lat="36.84992137782596" lon="15.082857103526992"><ele>14.0</ele><time>2026-03-28T14:16:07.999Z</time></trkpt><trkpt lat="36.84999480048844" lon="15.082879177177889"><ele>14.0</ele><time>2026-03-28T14:16:08.999Z</time></trkpt><trkpt lat="36.85006141608924" lon="15.082872524517008"><ele>14.0</ele><time>2026-03-28T14:16:09.999Z</time></trkpt><trkpt lat="36.850129901694196" lon="15.082774217637636"><ele>14.000000000000002</ele><time>2026-03-28T14:16:10.999Z</time></trkpt><trkpt lat="36.8501963917191" lon="15.082705554098968"><ele>14.0</ele><time>2026-03-28T14:16:11.999Z</time></trkpt><trkpt lat="36.850275705256905" lon="15.082638016082187"><ele>13.799999999999999</ele><time>2026-03-28T14:16:12.999Z</time></trkpt><trkpt lat="36.85033675458755" lon="15.082588659025213"><ele>13.599999999999998</ele><time>2026-03-28T14:16:13.999Z</time></trkpt><trkpt lat="36.850306245963154" lon="15.082437881214666"><ele>13.4</ele><time>2026-03-28T14:16:14.999Z</time></trkpt><trkpt lat="36.85023786761782" lon="15.082336584578591"><ele>13.2</ele><time>2026-03-28T14:16:15.999Z</time></trkpt><trkpt lat="36.85013866998869" lon="15.082231308538322"><ele>13.0</ele><time>2026-03-28T14:16:16.999Z</time></trkpt><trkpt lat="36.85006178291685" lon="15.082072472014362"><ele>13.0</ele><time>2026-03-28T14:16:17.999Z</time></trkpt><trkpt lat="36.84996731241078" lon="15.081906332704836"><ele>13.0</ele><time>2026-03-28T14:16:18.999Z</time></trkpt><trkpt lat="36.84986934652136" lon="15.081769857515992"><ele>13.0</ele><time>2026-03-28T14:16:19.999Z</time></trkpt><trkpt lat="36.84982211577501" lon="15.081649218563754"><ele>13.0</ele><time>2026-03-28T14:16:20.999Z</time></trkpt><trkpt lat="36.8497820030094" lon="15.081562500507957"><ele>12.75</ele><time>2026-03-28T14:16:21.999Z</time></trkpt><trkpt lat="36.849746174268105" lon="15.081496404457678"><ele>12.5</ele><time>2026-03-28T14:16:22.999Z</time></trkpt><trkpt lat="36.8497577525576" lon="15.081418974721018"><ele>12.25</ele><time>2026-03-28T14:16:23.999Z</time></trkpt><trkpt lat="36.84974464181397" lon="15.081318556458303"><ele>12.0</ele><time>2026-03-28T14:16:25.999Z</time></trkpt><trkpt lat="36.84952006108274" lon="15.081082134866527"><ele>12.0</ele><time>2026-03-28T14:16:34.999Z</time></trkpt><trkpt lat="36.84944904321931" lon="15.08103590423757"><ele>12.0</ele><time>2026-03-28T14:16:36.999Z</time></trkpt><trkpt lat="36.849361922478536" lon="15.080979106184202"><ele>12.0</ele><time>2026-03-28T14:16:38.999Z</time></trkpt><trkpt lat="36.849275834651486" lon="15.080925389138727"><ele>12.0</ele><time>2026-03-28T14:16:40.999Z</time></trkpt><trkpt lat="36.84918569002776" lon="15.08086460140738"><ele>12.0</ele><time>2026-03-28T14:16:42.999Z</time></trkpt><trkpt lat="36.849068411296244" lon="15.080792003821871"><ele>11.5</ele><time>2026-03-28T14:16:44.999Z</time></trkpt><trkpt lat="36.84900592374891" lon="15.08076199324658"><ele>11.0</ele><time>2026-03-28T14:16:45.999Z</time></trkpt><trkpt lat="36.8489423822641" lon="15.080735742709662"><ele>10.5</ele><time>2026-03-28T14:16:46.999Z</time></trkpt><trkpt lat="36.84887901926901" lon="15.080705185270665"><ele>10.0</ele><time>2026-03-28T14:16:47.999Z</time></trkpt><trkpt lat="36.84877344957338" lon="15.080649214317186"><ele>9.5</ele><time>2026-03-28T14:16:49.999Z</time></trkpt><trkpt lat="36.84865920733686" lon="15.080602977720453"><ele>9.0</ele><time>2026-03-28T14:16:51.999Z</time></trkpt><trkpt lat="36.8485474231486" lon="15.080573229375648"><ele>9.000000000000002</ele><time>2026-03-28T14:16:53.999Z</time></trkpt><trkpt lat="36.848483822169754" lon="15.08055895393145"><ele>9.0</ele><time>2026-03-28T14:16:54.999Z</time></trkpt><trkpt lat="36.84841511586546" lon="15.080544009624465"><ele>9.0</ele><time>2026-03-28T14:16:55.999Z</time></trkpt><trkpt lat="36.848350593565506" lon="15.080518289596867"><ele>9.0</ele><time>2026-03-28T14:16:56.999Z</time></trkpt><trkpt lat="36.84828148176565" lon="15.080494729287366"><ele>9.0</ele><time>2026-03-28T14:16:57.999Z</time></trkpt><trkpt lat="36.84821862538632" lon="15.080472639187896"><ele>9.000000000000002</ele><time>2026-03-28T14:16:58.999Z</time></trkpt><trkpt lat="36.848157114393835" lon="15.080451019346379"><ele>9.0</ele><time>2026-03-28T14:16:59.999Z</time></trkpt><trkpt lat="36.848072055193164" lon="15.080396425984558"><ele>8.833333333333334</ele><time>2026-03-28T14:17:01.999Z</time></trkpt><trkpt lat="36.84802596004822" lon="15.080336640100404"><ele>8.666666666666666</ele><time>2026-03-28T14:17:03.999Z</time></trkpt><trkpt lat="36.848008533713546" lon="15.080223975893615"><ele>8.5</ele><time>2026-03-28T14:17:06.999Z</time></trkpt><trkpt lat="36.84806516992774" lon="15.080169560418456"><ele>8.333333333333332</ele><time>2026-03-28T14:17:08.999Z</time></trkpt><trkpt lat="36.84813953153915" lon="15.080164617405403"><ele>8.166666666666666</ele><time>2026-03-28T14:17:10.998Z</time></trkpt><trkpt lat="36.84821648134582" lon="15.080227299652455"><ele>8.0</ele><time>2026-03-28T14:17:13.998Z</time></trkpt><trkpt lat="36.848300795265175" lon="15.080268369737501"><ele>8.0</ele><time>2026-03-28T14:17:16.998Z</time></trkpt><trkpt lat="36.84839826037488" lon="15.080272554764168"><ele>8.0</ele><time>2026-03-28T14:17:18.998Z</time></trkpt><trkpt lat="36.84851131983684" lon="15.080281406997976"><ele>8.0</ele><time>2026-03-28T14:17:20.998Z</time></trkpt><trkpt lat="36.8486354672784" lon="15.08029044584703"><ele>8.0</ele><time>2026-03-28T14:17:22.998Z</time></trkpt><trkpt lat="36.84872804051495" lon="15.080300637330952"><ele>8.0</ele><time>2026-03-28T14:17:23.998Z</time></trkpt><trkpt lat="36.84886934697094" lon="15.080320121391257"><ele>8.333333333333332</ele><time>2026-03-28T14:17:24.998Z</time></trkpt><trkpt lat="36.84904657808215" lon="15.080343992262625"><ele>8.666666666666666</ele><time>2026-03-28T14:17:25.998Z</time></trkpt><trkpt lat="36.84925070324729" lon="15.08036934937582"><ele>9.0</ele><time>2026-03-28T14:17:26.998Z</time></trkpt><trkpt lat="36.84943937995829" lon="15.080386719866219"><ele>9.333333333333334</ele><time>2026-03-28T14:17:28Z</time></trkpt><trkpt lat="36.84962814367112" lon="15.080399391583457"><ele>9.666666666666668</ele><time>2026-03-28T14:17:29Z</time></trkpt><trkpt lat="36.84978846124884" lon="15.080416845601409"><ele>10.0</ele><time>2026-03-28T14:17:30Z</time></trkpt><trkpt lat="36.84994147500678" lon="15.080415294904105"><ele>10.0</ele><time>2026-03-28T14:17:31Z</time></trkpt><trkpt lat="36.85008130406824" lon="15.080438897816117"><ele>10.0</ele><time>2026-03-28T14:17:32Z</time></trkpt><trkpt lat="36.85019799973162" lon="15.080466049682268"><ele>10.0</ele><time>2026-03-28T14:17:33Z</time></trkpt><trkpt lat="36.850277588870284" lon="15.08050051409617"><ele>10.0</ele><time>2026-03-28T14:17:34Z</time></trkpt><trkpt lat="36.85037037270513" lon="15.08056234249112"><ele>10.0</ele><time>2026-03-28T14:17:36Z</time></trkpt><trkpt lat="36.850403156138924" lon="15.08049395454114"><ele>10.8</ele><time>2026-03-28T14:17:38Z</time></trkpt><trkpt lat="36.85052714850023" lon="15.080431108733574"><ele>11.6</ele><time>2026-03-28T14:18:02Z</time></trkpt><trkpt lat="36.850610907940954" lon="15.080409270827706"><ele>12.399999999999999</ele><time>2026-03-28T14:18:03Z</time></trkpt><trkpt lat="36.85068958979701" lon="15.080389960469684"><ele>13.2</ele><time>2026-03-28T14:18:04Z</time></trkpt><trkpt lat="36.85077284265755" lon="15.080372972832308"><ele>14.0</ele><time>2026-03-28T14:18:05Z</time></trkpt><trkpt lat="36.85086292075502" lon="15.080337090051868"><ele>14.799999999999999</ele><time>2026-03-28T14:18:06Z</time></trkpt><trkpt lat="36.85095877410819" lon="15.080324052661217"><ele>15.599999999999998</ele><time>2026-03-28T14:18:07Z</time></trkpt><trkpt lat="36.85106206181905" lon="15.08033175489866"><ele>16.4</ele><time>2026-03-28T14:18:08Z</time></trkpt><trkpt lat="36.85116875244017" lon="15.080322810947608"><ele>17.2</ele><time>2026-03-28T14:18:09Z</time></trkpt><trkpt lat="36.851278326891105" lon="15.0802959914418"><ele>18.0</ele><time>2026-03-28T14:18:10Z</time></trkpt><trkpt lat="36.85137859566115" lon="15.080274728828531"><ele>18.0</ele><time>2026-03-28T14:18:10.999Z</time></trkpt><trkpt lat="36.851484380263685" lon="15.080228971724102"><ele>18.0</ele><time>2026-03-28T14:18:11.999Z</time></trkpt><trkpt lat="36.85158357340851" lon="15.080161901006662"><ele>18.0</ele><time>2026-03-28T14:18:12.999Z</time></trkpt><trkpt lat="36.851673363998955" lon="15.080068664209254"><ele>18.0</ele><time>2026-03-28T14:18:13.999Z</time></trkpt><trkpt lat="36.85176376385769" lon="15.079973218042523"><ele>20.0</ele><time>2026-03-28T14:18:14.999Z</time></trkpt><trkpt lat="36.851854056804704" lon="15.079883304727941"><ele>22.0</ele><time>2026-03-28T14:18:15.999Z</time></trkpt><trkpt lat="36.85194078240389" lon="15.079794828298237"><ele>24.0</ele><time>2026-03-28T14:18:16.999Z</time></trkpt><trkpt lat="36.85201247960488" lon="15.07968808252746"><ele>26.0</ele><time>2026-03-28T14:18:17.999Z</time></trkpt><trkpt lat="36.85207098897094" lon="15.079544012541778"><ele>26.0</ele><time>2026-03-28T14:18:18.999Z</time></trkpt><trkpt lat="36.85211220908759" lon="15.07937958270647"><ele>26.0</ele><time>2026-03-28T14:18:19.999Z</time></trkpt><trkpt lat="36.85214380366766" lon="15.079224301525334"><ele>26.0</ele><time>2026-03-28T14:18:20.999Z</time></trkpt><trkpt lat="36.852163771999315" lon="15.079081301498052"><ele>26.0</ele><time>2026-03-28T14:18:21.999Z</time></trkpt><trkpt lat="36.8522064797719" lon="15.078950006515027"><ele>27.5</ele><time>2026-03-28T14:18:22.999Z</time></trkpt><trkpt lat="36.852221868618344" lon="15.078804572793015"><ele>29.0</ele><time>2026-03-28T14:18:23.999Z</time></trkpt><trkpt lat="36.852257529055095" lon="15.078661123471631"><ele>30.5</ele><time>2026-03-28T14:18:24.999Z</time></trkpt><trkpt lat="36.85227425693552" lon="15.078518458858868"><ele>32.0</ele><time>2026-03-28T14:18:25.999Z</time></trkpt><trkpt lat="36.852279193507556" lon="15.078363335209042"><ele>32.0</ele><time>2026-03-28T14:18:26.999Z</time></trkpt><trkpt lat="36.852291658673984" lon="15.078213766449144"><ele>32.0</ele><time>2026-03-28T14:18:27.999Z</time></trkpt><trkpt lat="36.8523026124785" lon="15.078077166124507"><ele>32.0</ele><time>2026-03-28T14:18:28.999Z</time></trkpt><trkpt lat="36.85231037743516" lon="15.077963253009791"><ele>32.0</ele><time>2026-03-28T14:18:29.999Z</time></trkpt><trkpt lat="36.85231789827347" lon="15.077865838744117"><ele>32.0</ele><time>2026-03-28T14:18:30.999Z</time></trkpt><trkpt lat="36.85232547404412" lon="15.077769282014604"><ele>31.999999999999996</ele><time>2026-03-28T14:18:31.999Z</time></trkpt><trkpt lat="36.852344555873394" lon="15.077681968575291"><ele>32.0</ele><time>2026-03-28T14:18:32.999Z</time></trkpt><trkpt lat="36.852338001813614" lon="15.077598750363274"><ele>32.0</ele><time>2026-03-28T14:18:33.999Z</time></trkpt><trkpt lat="36.85234494873303" lon="15.077510866190025"><ele>32.0</ele><time>2026-03-28T14:18:34.999Z</time></trkpt><trkpt lat="36.85235321791346" lon="15.077417741047178"><ele>31.999999999999996</ele><time>2026-03-28T14:18:35.999Z</time></trkpt><trkpt lat="36.852359738073595" lon="15.077318141489888"><ele>32.0</ele><time>2026-03-28T14:18:36.999Z</time></trkpt><trkpt lat="36.8523659924485" lon="15.077201448071403"><ele>31.25</ele><time>2026-03-28T14:18:37.999Z</time></trkpt><trkpt lat="36.85238905122966" lon="15.077070429997105"><ele>30.5</ele><time>2026-03-28T14:18:38.999Z</time></trkpt><trkpt lat="36.85240925907657" lon="15.076929981994391"><ele>29.75</ele><time>2026-03-28T14:18:39.999Z</time></trkpt><trkpt lat="36.85243013906277" lon="15.07676447251244"><ele>29.0</ele><time>2026-03-28T14:18:40.999Z</time></trkpt><trkpt lat="36.85244785153508" lon="15.07655781620676"><ele>28.666666666666664</ele><time>2026-03-28T14:18:41.999Z</time></trkpt><trkpt lat="36.852444297240105" lon="15.076295468582419"><ele>28.333333333333336</ele><time>2026-03-28T14:18:42.999Z</time></trkpt><trkpt lat="36.85235144180271" lon="15.076083325584879"><ele>28.0</ele><time>2026-03-28T14:18:43.999Z</time></trkpt><trkpt lat="36.852300969247906" lon="15.075906281217183"><ele>28.0</ele><time>2026-03-28T14:18:44.999Z</time></trkpt><trkpt lat="36.852277359960716" lon="15.075780759523287"><ele>28.0</ele><time>2026-03-28T14:18:45.999Z</time></trkpt><trkpt lat="36.852482201013586" lon="15.075567202475133"><ele>28.0</ele><time>2026-03-28T14:18:46.999Z</time></trkpt><trkpt lat="36.85248791720543" lon="15.07544797106098"><ele>27.4</ele><time>2026-03-28T14:18:47.999Z</time></trkpt><trkpt lat="36.8524961037133" lon="15.075341913224994"><ele>26.799999999999997</ele><time>2026-03-28T14:18:48.999Z</time></trkpt><trkpt lat="36.85250146821323" lon="15.075220313623074"><ele>26.2</ele><time>2026-03-28T14:18:49.999Z</time></trkpt><trkpt lat="36.85249610863718" lon="15.075099661302149"><ele>25.6</ele><time>2026-03-28T14:18:50.999Z</time></trkpt><trkpt lat="36.85248212220175" lon="15.07496706610377"><ele>25.0</ele><time>2026-03-28T14:18:51.999Z</time></trkpt><trkpt lat="36.85246968517359" lon="15.074836038299098"><ele>24.000000000000004</ele><time>2026-03-28T14:18:52.999Z</time></trkpt><trkpt lat="36.85247135367129" lon="15.074709282926984"><ele>23.0</ele><time>2026-03-28T14:18:53.999Z</time></trkpt><trkpt lat="36.852468777738835" lon="15.074589253358518"><ele>22.0</ele><time>2026-03-28T14:18:54.999Z</time></trkpt><trkpt lat="36.85245451579374" lon="15.074489580368898"><ele>21.0</ele><time>2026-03-28T14:18:55.999Z</time></trkpt><trkpt lat="36.85245346009874" lon="15.074369011748924"><ele>20.0</ele><time>2026-03-28T14:18:57.999Z</time></trkpt><trkpt lat="36.85250704816208" lon="15.07431359591419"><ele>19.0</ele><time>2026-03-28T14:18:59.999Z</time></trkpt><trkpt lat="36.85259238462853" lon="15.07430689347659"><ele>21.0</ele><time>2026-03-28T14:19:01.999Z</time></trkpt><trkpt lat="36.85265515865067" lon="15.074326973135328"><ele>23.0</ele><time>2026-03-28T14:19:02.999Z</time></trkpt><trkpt lat="36.85273328132209" lon="15.074336149525642"><ele>25.0</ele><time>2026-03-28T14:19:03.999Z</time></trkpt><trkpt lat="36.85280507756968" lon="15.074335590661526"><ele>27.0</ele><time>2026-03-28T14:19:04.999Z</time></trkpt><trkpt lat="36.85287803564632" lon="15.074333661406367"><ele>29.000000000000004</ele><time>2026-03-28T14:19:05.999Z</time></trkpt><trkpt lat="36.85294846462255" lon="15.07433850028896"><ele>31.0</ele><time>2026-03-28T14:19:06.999Z</time></trkpt><trkpt lat="36.85306305899131" lon="15.0742990808782"><ele>31.000000000000004</ele><time>2026-03-28T14:19:07.999Z</time></trkpt><trkpt lat="36.85309236999549" lon="15.074176264986194"><ele>31.0</ele><time>2026-03-28T14:19:08.999Z</time></trkpt><trkpt lat="36.8531267444552" lon="15.074091041630503"><ele>31.0</ele><time>2026-03-28T14:19:09.999Z</time></trkpt><trkpt lat="36.85316625832429" lon="15.073996161007758"><ele>31.0</ele><time>2026-03-28T14:19:10.999Z</time></trkpt><trkpt lat="36.85320331305754" lon="15.073899749989101"><ele>31.000000000000004</ele><time>2026-03-28T14:19:11.999Z</time></trkpt><trkpt lat="36.853233789900926" lon="15.073799550028982"><ele>31.0</ele><time>2026-03-28T14:19:12.999Z</time></trkpt><trkpt lat="36.85324012234198" lon="15.073692149741435"><ele>30.6</ele><time>2026-03-28T14:19:13.999Z</time></trkpt><trkpt lat="36.85326078107209" lon="15.073574271991442"><ele>30.200000000000003</ele><time>2026-03-28T14:19:14.999Z</time></trkpt><trkpt lat="36.853283786475494" lon="15.07346106488597"><ele>29.799999999999997</ele><time>2026-03-28T14:19:15.998Z</time></trkpt><trkpt lat="36.8532982984355" lon="15.073371322318382"><ele>29.4</ele><time>2026-03-28T14:19:16.998Z</time></trkpt><trkpt lat="36.853296737500614" lon="15.073291829282194"><ele>29.0</ele><time>2026-03-28T14:19:17.998Z</time></trkpt><trkpt lat="36.85330519045295" lon="15.073134873164433"><ele>28.333333333333332</ele><time>2026-03-28T14:19:19.998Z</time></trkpt><trkpt lat="36.853333773156734" lon="15.073045692265003"><ele>27.666666666666664</ele><time>2026-03-28T14:19:20.998Z</time></trkpt><trkpt lat="36.85335691555505" lon="15.072971984091778"><ele>27.0</ele><time>2026-03-28T14:19:21.998Z</time></trkpt><trkpt lat="36.85341168464728" lon="15.072874782636024"><ele>26.333333333333336</ele><time>2026-03-28T14:19:23.998Z</time></trkpt><trkpt lat="36.85347691027466" lon="15.072839604314659"><ele>25.666666666666668</ele><time>2026-03-28T14:19:24.998Z</time></trkpt><trkpt lat="36.85354648636294" lon="15.072775843589259"><ele>25.0</ele><time>2026-03-28T14:19:25.998Z</time></trkpt><trkpt lat="36.853594474772684" lon="15.07269060552175"><ele>26.333333333333336</ele><time>2026-03-28T14:19:26.998Z</time></trkpt><trkpt lat="36.85363825261472" lon="15.072583264412893"><ele>27.666666666666668</ele><time>2026-03-28T14:19:27.998Z</time></trkpt><trkpt lat="36.85367669325106" lon="15.072497946397958"><ele>29.0</ele><time>2026-03-28T14:19:28.998Z</time></trkpt><trkpt lat="36.853708882951764" lon="15.07241402312853"><ele>30.333333333333336</ele><time>2026-03-28T14:19:29.998Z</time></trkpt><trkpt lat="36.85368060185769" lon="15.07228740061802"><ele>31.666666666666668</ele><time>2026-03-28T14:19:31.998Z</time></trkpt><trkpt lat="36.853618180084915" lon="15.072257438797244"><ele>33.0</ele><time>2026-03-28T14:19:32.998Z</time></trkpt><trkpt lat="36.85354189658921" lon="15.07222453356909"><ele>33.166666666666664</ele><time>2026-03-28T14:19:34Z</time></trkpt><trkpt lat="36.85348619351671" lon="15.072156474082417"><ele>33.333333333333336</ele><time>2026-03-28T14:19:35Z</time></trkpt><trkpt lat="36.853436002981155" lon="15.072069895199718"><ele>33.5</ele><time>2026-03-28T14:19:36Z</time></trkpt><trkpt lat="36.85339070253457" lon="15.07199523263461"><ele>33.66666666666667</ele><time>2026-03-28T14:19:37Z</time></trkpt><trkpt lat="36.85335602981023" lon="15.07187456217303"><ele>33.833333333333336</ele><time>2026-03-28T14:19:39Z</time></trkpt><trkpt lat="36.8534103327538" lon="15.071821855194907"><ele>34.0</ele><time>2026-03-28T14:19:41Z</time></trkpt><trkpt lat="36.85350213922397" lon="15.071786335913668"><ele>34.0</ele><time>2026-03-28T14:19:43Z</time></trkpt><trkpt lat="36.85354645010921" lon="15.071658307003148"><ele>34.0</ele><time>2026-03-28T14:19:45Z</time></trkpt><trkpt lat="36.853513721617176" lon="15.071568771778315"><ele>34.0</ele><time>2026-03-28T14:19:48Z</time></trkpt><trkpt lat="36.853433871630436" lon="15.071542548388189"><ele>34.0</ele><time>2026-03-28T14:19:50Z</time></trkpt><trkpt lat="36.85335941221525" lon="15.071534289468424"><ele>34.0</ele><time>2026-03-28T14:19:53Z</time></trkpt><trkpt lat="36.85328522720756" lon="15.071520285440915"><ele>34.0</ele><time>2026-03-28T14:19:58Z</time></trkpt><trkpt lat="36.853193730210926" lon="15.071502060872097"><ele>33.333333333333336</ele><time>2026-03-28T14:20:02Z</time></trkpt><trkpt lat="36.85311253939929" lon="15.071492225560915"><ele>32.66666666666667</ele><time>2026-03-28T14:20:04Z</time></trkpt><trkpt lat="36.85302090403786" lon="15.071476110352885"><ele>32.0</ele><time>2026-03-28T14:20:06Z</time></trkpt><trkpt lat="36.852919169163364" lon="15.071474607163095"><ele>31.333333333333336</ele><time>2026-03-28T14:20:08Z</time></trkpt><trkpt lat="36.852841365523474" lon="15.071480983105731"><ele>30.666666666666668</ele><time>2026-03-28T14:20:09Z</time></trkpt><trkpt lat="36.85276160361112" lon="15.071494517245627"><ele>30.0</ele><time>2026-03-28T14:20:10Z</time></trkpt><trkpt lat="36.85268210254364" lon="15.071509243985112"><ele>28.833333333333332</ele><time>2026-03-28T14:20:11Z</time></trkpt><trkpt lat="36.85261145126638" lon="15.071519949434444"><ele>27.666666666666668</ele><time>2026-03-28T14:20:12Z</time></trkpt><trkpt lat="36.85252300775411" lon="15.071537199185341"><ele>26.5</ele><time>2026-03-28T14:20:13Z</time></trkpt><trkpt lat="36.85244507084534" lon="15.071502171267912"><ele>25.333333333333336</ele><time>2026-03-28T14:20:14Z</time></trkpt><trkpt lat="36.85236305924489" lon="15.071446838397092"><ele>24.166666666666668</ele><time>2026-03-28T14:20:15Z</time></trkpt><trkpt lat="36.852261668070824" lon="15.071389757011708"><ele>23.0</ele><time>2026-03-28T14:20:16Z</time></trkpt><trkpt lat="36.85216725881789" lon="15.071327865784385"><ele>23.0</ele><time>2026-03-28T14:20:17Z</time></trkpt><trkpt lat="36.85207181384165" lon="15.071267530297185"><ele>23.0</ele><time>2026-03-28T14:20:18Z</time></trkpt><trkpt lat="36.851976787297914" lon="15.07121443418747"><ele>23.0</ele><time>2026-03-28T14:20:18.999Z</time></trkpt><trkpt lat="36.85189420028343" lon="15.071184074832225"><ele>23.0</ele><time>2026-03-28T14:20:19.999Z</time></trkpt><trkpt lat="36.851797532938456" lon="15.071181190598338"><ele>23.0</ele><time>2026-03-28T14:20:21.999Z</time></trkpt><trkpt lat="36.851807846596024" lon="15.071073424502403"><ele>23.0</ele><time>2026-03-28T14:20:24.999Z</time></trkpt><trkpt lat="36.851899152309024" lon="15.07099688908145"><ele>23.0</ele><time>2026-03-28T14:20:26.999Z</time></trkpt><trkpt lat="36.8519993766184" lon="15.07090589619295"><ele>23.0</ele><time>2026-03-28T14:20:28.999Z</time></trkpt><trkpt lat="36.85204913085773" lon="15.070854925830213"><ele>23.0</ele><time>2026-03-28T14:20:29.999Z</time></trkpt><trkpt lat="36.85207645569106" lon="15.07077562689552"><ele>23.0</ele><time>2026-03-28T14:20:30.999Z</time></trkpt><trkpt lat="36.852087699243526" lon="15.070683504646352"><ele>23.0</ele><time>2026-03-28T14:20:31.999Z</time></trkpt><trkpt lat="36.85210772264307" lon="15.070588716243531"><ele>24.0</ele><time>2026-03-28T14:20:32.999Z</time></trkpt><trkpt lat="36.85211419924274" lon="15.0704646420239"><ele>25.0</ele><time>2026-03-28T14:20:33.999Z</time></trkpt><trkpt lat="36.85208177028982" lon="15.070332569665883"><ele>25.999999999999996</ele><time>2026-03-28T14:20:34.999Z</time></trkpt><trkpt lat="36.852038997150956" lon="15.070203369231852"><ele>27.0</ele><time>2026-03-28T14:20:35.999Z</time></trkpt><trkpt lat="36.85200248489099" lon="15.070073051957017"><ele>28.0</ele><time>2026-03-28T14:20:36.999Z</time></trkpt><trkpt lat="36.85198195861924" lon="15.069940641851732"><ele>28.799999999999997</ele><time>2026-03-28T14:20:37.999Z</time></trkpt><trkpt lat="36.851957397470024" lon="15.06980458650626"><ele>29.599999999999998</ele><time>2026-03-28T14:20:38.999Z</time></trkpt><trkpt lat="36.85193034393003" lon="15.069661429029944"><ele>30.400000000000002</ele><time>2026-03-28T14:20:39.999Z</time></trkpt><trkpt lat="36.85190275264992" lon="15.069521270663158"><ele>31.200000000000003</ele><time>2026-03-28T14:20:40.999Z</time></trkpt><trkpt lat="36.851868043535696" lon="15.069398982675411"><ele>32.0</ele><time>2026-03-28T14:20:41.999Z</time></trkpt><trkpt lat="36.8518287929724" lon="15.069296722705364"><ele>32.0</ele><time>2026-03-28T14:20:42.999Z</time></trkpt><trkpt lat="36.85179545936627" lon="15.069186120227165"><ele>32.0</ele><time>2026-03-28T14:20:43.999Z</time></trkpt><trkpt lat="36.851778988564256" lon="15.0690559157019"><ele>32.0</ele><time>2026-03-28T14:20:44.999Z</time></trkpt><trkpt lat="36.851788393444856" lon="15.068926998605239"><ele>32.0</ele><time>2026-03-28T14:20:45.999Z</time></trkpt><trkpt lat="36.851829593123085" lon="15.068802557473715"><ele>32.0</ele><time>2026-03-28T14:20:46.999Z</time></trkpt><trkpt lat="36.85184264438395" lon="15.0686945428922"><ele>32.2</ele><time>2026-03-28T14:20:47.999Z</time></trkpt><trkpt lat="36.851859838533635" lon="15.068589360975977"><ele>32.400000000000006</ele><time>2026-03-28T14:20:48.999Z</time></trkpt><trkpt lat="36.85189005969626" lon="15.068466564465108"><ele>32.599999999999994</ele><time>2026-03-28T14:20:49.999Z</time></trkpt><trkpt lat="36.851932466681234" lon="15.068334576078943"><ele>32.8</ele><time>2026-03-28T14:20:50.999Z</time></trkpt><trkpt lat="36.85196792090552" lon="15.06818092650192"><ele>33.0</ele><time>2026-03-28T14:20:51.999Z</time></trkpt><trkpt lat="36.85202622876046" lon="15.068039083507125"><ele>31.799999999999997</ele><time>2026-03-28T14:20:52.999Z</time></trkpt><trkpt lat="36.8520883833132" lon="15.067922210286266"><ele>30.599999999999998</ele><time>2026-03-28T14:20:53.999Z</time></trkpt><trkpt lat="36.8521416237635" lon="15.06782894225752"><ele>29.400000000000002</ele><time>2026-03-28T14:20:54.999Z</time></trkpt><trkpt lat="36.85214872483322" lon="15.067737893513243"><ele>28.200000000000003</ele><time>2026-03-28T14:20:55.999Z</time></trkpt><trkpt lat="36.85210793235733" lon="15.06763698930984"><ele>27.0</ele><time>2026-03-28T14:20:56.999Z</time></trkpt><trkpt lat="36.85204485277669" lon="15.06752179189519"><ele>27.0</ele><time>2026-03-28T14:20:57.999Z</time></trkpt><trkpt lat="36.851995443846604" lon="15.067396338880611"><ele>27.000000000000004</ele><time>2026-03-28T14:20:58.999Z</time></trkpt><trkpt lat="36.851950332421175" lon="15.067269185617121"><ele>27.000000000000004</ele><time>2026-03-28T14:20:59.999Z</time></trkpt><trkpt lat="36.8519107258676" lon="15.067144952107064"><ele>27.0</ele><time>2026-03-28T14:21:00.999Z</time></trkpt><trkpt lat="36.85188317860125" lon="15.067007380809509"><ele>27.0</ele><time>2026-03-28T14:21:01.999Z</time></trkpt><trkpt lat="36.851850179678294" lon="15.066878025121525"><ele>27.0</ele><time>2026-03-28T14:21:02.999Z</time></trkpt><trkpt lat="36.85185370133922" lon="15.066742093284782"><ele>27.0</ele><time>2026-03-28T14:21:03.999Z</time></trkpt><trkpt lat="36.851835060284536" lon="15.06660140650136"><ele>27.0</ele><time>2026-03-28T14:21:04.999Z</time></trkpt><trkpt lat="36.85183539433974" lon="15.066452736148186"><ele>27.0</ele><time>2026-03-28T14:21:05.999Z</time></trkpt><trkpt lat="36.85182306821866" lon="15.066292228696186"><ele>27.0</ele><time>2026-03-28T14:21:06.999Z</time></trkpt><trkpt lat="36.85182118801771" lon="15.06612657957973"><ele>27.0</ele><time>2026-03-28T14:21:07.999Z</time></trkpt><trkpt lat="36.85180222764061" lon="15.065951962785554"><ele>27.0</ele><time>2026-03-28T14:21:08.999Z</time></trkpt><trkpt lat="36.85179756370651" lon="15.065773873010562"><ele>27.0</ele><time>2026-03-28T14:21:09.999Z</time></trkpt><trkpt lat="36.85179178195065" lon="15.065599276721272"><ele>26.25</ele><time>2026-03-28T14:21:10.999Z</time></trkpt><trkpt lat="36.85177550011007" lon="15.06541495321373"><ele>25.5</ele><time>2026-03-28T14:21:11.999Z</time></trkpt><trkpt lat="36.851766899405554" lon="15.065231695695372"><ele>24.75</ele><time>2026-03-28T14:21:12.999Z</time></trkpt><trkpt lat="36.85175396724912" lon="15.06505641815599"><ele>24.0</ele><time>2026-03-28T14:21:13.999Z</time></trkpt><trkpt lat="36.85174078586495" lon="15.064870539013123"><ele>24.0</ele><time>2026-03-28T14:21:14.999Z</time></trkpt><trkpt lat="36.851735987659374" lon="15.064688996183312"><ele>24.0</ele><time>2026-03-28T14:21:15.999Z</time></trkpt><trkpt lat="36.85177128972131" lon="15.064527875479172"><ele>24.0</ele><time>2026-03-28T14:21:16.999Z</time></trkpt><trkpt lat="36.851789058747855" lon="15.064383567800729"><ele>24.0</ele><time>2026-03-28T14:21:17.999Z</time></trkpt><trkpt lat="36.85180255897847" lon="15.064273928218132"><ele>24.0</ele><time>2026-03-28T14:21:18.999Z</time></trkpt><trkpt lat="36.85176229072713" lon="15.064105531789998"><ele>24.0</ele><time>2026-03-28T14:21:20.999Z</time></trkpt><trkpt lat="36.85182300574296" lon="15.064035227335498"><ele>24.0</ele><time>2026-03-28T14:21:21.999Z</time></trkpt><trkpt lat="36.85191235449829" lon="15.06396456829614"><ele>24.0</ele><time>2026-03-28T14:21:22.999Z</time></trkpt><trkpt lat="36.852003676221656" lon="15.063864320032664"><ele>25.0</ele><time>2026-03-28T14:21:23.999Z</time></trkpt><trkpt lat="36.85205719694713" lon="15.063732732817"><ele>26.0</ele><time>2026-03-28T14:21:24.998Z</time></trkpt><trkpt lat="36.85209655632408" lon="15.063593107543305"><ele>27.0</ele><time>2026-03-28T14:21:25.998Z</time></trkpt><trkpt lat="36.85212935527895" lon="15.06344932324947"><ele>28.0</ele><time>2026-03-28T14:21:26.998Z</time></trkpt><trkpt lat="36.85215331791035" lon="15.063292942019835"><ele>28.0</ele><time>2026-03-28T14:21:27.998Z</time></trkpt><trkpt lat="36.852179471486046" lon="15.063132972280465"><ele>28.0</ele><time>2026-03-28T14:21:28.998Z</time></trkpt><trkpt lat="36.852207962560286" lon="15.06297870731207"><ele>28.0</ele><time>2026-03-28T14:21:29.998Z</time></trkpt><trkpt lat="36.852247164192576" lon="15.062823214755607"><ele>28.0</ele><time>2026-03-28T14:21:30.998Z</time></trkpt><trkpt lat="36.85228697950855" lon="15.062667526901054"><ele>28.0</ele><time>2026-03-28T14:21:31.998Z</time></trkpt><trkpt lat="36.8523161186471" lon="15.062505260948013"><ele>28.0</ele><time>2026-03-28T14:21:32.998Z</time></trkpt><trkpt lat="36.85232871548063" lon="15.062342962502374"><ele>28.0</ele><time>2026-03-28T14:21:33.998Z</time></trkpt><trkpt lat="36.852335637386346" lon="15.062185455040497"><ele>28.0</ele><time>2026-03-28T14:21:34.998Z</time></trkpt><trkpt lat="36.85235389198287" lon="15.062041102202064"><ele>28.4</ele><time>2026-03-28T14:21:35.998Z</time></trkpt><trkpt lat="36.85238315709092" lon="15.061906040400897"><ele>28.799999999999997</ele><time>2026-03-28T14:21:36.998Z</time></trkpt><trkpt lat="36.852403227376946" lon="15.061784286263421"><ele>29.2</ele><time>2026-03-28T14:21:37.998Z</time></trkpt><trkpt lat="36.85241613720318" lon="15.061677817299625"><ele>29.6</ele><time>2026-03-28T14:21:38.998Z</time></trkpt><trkpt lat="36.85242614290931" lon="15.061597351169485"><ele>30.0</ele><time>2026-03-28T14:21:40Z</time></trkpt><trkpt lat="36.85250361712311" lon="15.061469833213058"><ele>30.0</ele><time>2026-03-28T14:21:42Z</time></trkpt><trkpt lat="36.852555985726944" lon="15.061406292081193"><ele>30.0</ele><time>2026-03-28T14:21:43Z</time></trkpt><trkpt lat="36.852606138186005" lon="15.061334761700916"><ele>30.0</ele><time>2026-03-28T14:21:44Z</time></trkpt><trkpt lat="36.852664736192374" lon="15.061269913412055"><ele>30.0</ele><time>2026-03-28T14:21:45Z</time></trkpt><trkpt lat="36.852738847300685" lon="15.061224214177656"><ele>30.0</ele><time>2026-03-28T14:21:46Z</time></trkpt><trkpt lat="36.8527928683343" lon="15.061175548776617"><ele>30.0</ele><time>2026-03-28T14:21:47Z</time></trkpt><trkpt lat="36.852836900849276" lon="15.061110979413161"><ele>30.0</ele><time>2026-03-28T14:21:48Z</time></trkpt><trkpt lat="36.85284854573337" lon="15.06097359906742"><ele>30.6</ele><time>2026-03-28T14:21:50Z</time></trkpt><trkpt lat="36.85284566090383" lon="15.060863807037002"><ele>31.2</ele><time>2026-03-28T14:21:52Z</time></trkpt><trkpt lat="36.85287405730213" lon="15.060737410738446"><ele>31.799999999999997</ele><time>2026-03-28T14:21:54Z</time></trkpt><trkpt lat="36.85289792771893" lon="15.060584510730912"><ele>32.4</ele><time>2026-03-28T14:21:56Z</time></trkpt><trkpt lat="36.85291448020756" lon="15.060504689651962"><ele>33.0</ele><time>2026-03-28T14:21:57Z</time></trkpt><trkpt lat="36.8529234265743" lon="15.060420108189572"><ele>33.333333333333336</ele><time>2026-03-28T14:21:58Z</time></trkpt><trkpt lat="36.85293018642192" lon="15.060333887228284"><ele>33.666666666666664</ele><time>2026-03-28T14:21:59Z</time></trkpt><trkpt lat="36.85294060687602" lon="15.060250493528153"><ele>34.0</ele><time>2026-03-28T14:22:00Z</time></trkpt><trkpt lat="36.85295294100015" lon="15.060134758561013"><ele>34.33333333333333</ele><time>2026-03-28T14:22:02Z</time></trkpt><trkpt lat="36.852953933020565" lon="15.060016049570123"><ele>34.666666666666664</ele><time>2026-03-28T14:22:04Z</time></trkpt><trkpt lat="36.852968174095594" lon="15.059890777582469"><ele>35.0</ele><time>2026-03-28T14:22:06Z</time></trkpt><trkpt lat="36.852967289935386" lon="15.059775877096564"><ele>35.0</ele><time>2026-03-28T14:22:08Z</time></trkpt><trkpt lat="36.852972064047556" lon="15.05961771381438"><ele>35.0</ele><time>2026-03-28T14:22:10Z</time></trkpt><trkpt lat="36.85297373669511" lon="15.05952569318412"><ele>35.0</ele><time>2026-03-28T14:22:11Z</time></trkpt><trkpt lat="36.85296663472493" lon="15.05943100745994"><ele>35.0</ele><time>2026-03-28T14:22:12Z</time></trkpt><trkpt lat="36.85295916271016" lon="15.059337849670683"><ele>35.0</ele><time>2026-03-28T14:22:13Z</time></trkpt><trkpt lat="36.8529621981838" lon="15.059249907221982"><ele>35.0</ele><time>2026-03-28T14:22:14Z</time></trkpt><trkpt lat="36.85296512425384" lon="15.059156439738745"><ele>35.8</ele><time>2026-03-28T14:22:15Z</time></trkpt><trkpt lat="36.8529673064717" lon="15.059050429177772"><ele>36.6</ele><time>2026-03-28T14:22:16Z</time></trkpt><trkpt lat="36.85296781506222" lon="15.058927998726638"><ele>37.4</ele><time>2026-03-28T14:22:17Z</time></trkpt><trkpt lat="36.852963789604175" lon="15.058803321352093"><ele>38.2</ele><time>2026-03-28T14:22:18Z</time></trkpt><trkpt lat="36.852955130150775" lon="15.058668940037721"><ele>39.0</ele><time>2026-03-28T14:22:19Z</time></trkpt><trkpt lat="36.85294704220383" lon="15.058530550315552"><ele>39.0</ele><time>2026-03-28T14:22:20Z</time></trkpt><trkpt lat="36.85293967240871" lon="15.058390986793249"><ele>39.0</ele><time>2026-03-28T14:22:21Z</time></trkpt><trkpt lat="36.85292852428692" lon="15.058252749240571"><ele>39.0</ele><time>2026-03-28T14:22:22Z</time></trkpt><trkpt lat="36.85291993781547" lon="15.058102742908256"><ele>39.0</ele><time>2026-03-28T14:22:23Z</time></trkpt><trkpt lat="36.85291278267526" lon="15.05794255475963"><ele>39.2</ele><time>2026-03-28T14:22:24Z</time></trkpt><trkpt lat="36.85290234132232" lon="15.057788947369199"><ele>39.4</ele><time>2026-03-28T14:22:25Z</time></trkpt><trkpt lat="36.85288868601915" lon="15.05765712733261"><ele>39.6</ele><time>2026-03-28T14:22:25.999Z</time></trkpt><trkpt lat="36.8528741859494" lon="15.057535666084522"><ele>39.8</ele><time>2026-03-28T14:22:26.999Z</time></trkpt><trkpt lat="36.85285346078896" lon="15.057395134767185"><ele>40.0</ele><time>2026-03-28T14:22:27.999Z</time></trkpt><trkpt lat="36.852827101429384" lon="15.057251275835599"><ele>39.2</ele><time>2026-03-28T14:22:28.999Z</time></trkpt><trkpt lat="36.85279873542119" lon="15.057118406299477"><ele>38.4</ele><time>2026-03-28T14:22:29.999Z</time></trkpt><trkpt lat="36.852775092228256" lon="15.056996685224213"><ele>37.6</ele><time>2026-03-28T14:22:30.999Z</time></trkpt><trkpt lat="36.852753685123155" lon="15.0568864356136"><ele>36.8</ele><time>2026-03-28T14:22:31.999Z</time></trkpt><trkpt lat="36.852744705391316" lon="15.056788530286836"><ele>36.0</ele><time>2026-03-28T14:22:32.999Z</time></trkpt><trkpt lat="36.85274020795521" lon="15.056652564635113"><ele>36.0</ele><time>2026-03-28T14:22:34.999Z</time></trkpt><trkpt lat="36.852793862891794" lon="15.056579650730853"><ele>36.0</ele><time>2026-03-28T14:22:37.999Z</time></trkpt><trkpt lat="36.85287160642942" lon="15.056555908147162"><ele>36.0</ele><time>2026-03-28T14:22:39.999Z</time></trkpt><trkpt lat="36.85294222504522" lon="15.056532742554369"><ele>36.0</ele><time>2026-03-28T14:22:40.999Z</time></trkpt><trkpt lat="36.85301585038315" lon="15.056515769601017"><ele>36.0</ele><time>2026-03-28T14:22:41.999Z</time></trkpt><trkpt lat="36.85310197958689" lon="15.056489253123543"><ele>36.0</ele><time>2026-03-28T14:22:43.018Z</time></trkpt><trkpt lat="36.853185974929126" lon="15.056459746545174"><ele>36.0</ele><time>2026-03-28T14:22:44.024Z</time></trkpt><trkpt lat="36.85328852025196" lon="15.056415452324968"><ele>36.0</ele><time>2026-03-28T14:22:44.999Z</time></trkpt><trkpt lat="36.85338478177477" lon="15.056522741932236"><ele>36.0</ele><time>2026-03-28T14:22:45.999Z</time></trkpt><trkpt lat="36.85344791370457" lon="15.056561110726523"><ele>36.0</ele><time>2026-03-28T14:22:46.999Z</time></trkpt><trkpt lat="36.853530659855444" lon="15.056603017203543"><ele>36.0</ele><time>2026-03-28T14:22:48.999Z</time></trkpt><trkpt lat="36.85359076025273" lon="15.056533511325602"><ele>37.166666666666664</ele><time>2026-03-28T14:22:50.999Z</time></trkpt><trkpt lat="36.853612906055695" lon="15.056436075717395"><ele>38.333333333333336</ele><time>2026-03-28T14:22:53.999Z</time></trkpt><trkpt lat="36.85364350585292" lon="15.056319423143712"><ele>39.5</ele><time>2026-03-28T14:22:55.999Z</time></trkpt><trkpt lat="36.853681940596466" lon="15.056184270538125"><ele>40.66666666666667</ele><time>2026-03-28T14:22:57.999Z</time></trkpt><trkpt lat="36.85370113116673" lon="15.05610724434832"><ele>41.833333333333336</ele><time>2026-03-28T14:22:58.999Z</time></trkpt><trkpt lat="36.853723703624404" lon="15.056027541864601"><ele>43.0</ele><time>2026-03-28T14:22:59.999Z</time></trkpt><trkpt lat="36.85374421562175" lon="15.055943045310801"><ele>43.00000000000001</ele><time>2026-03-28T14:23:00.999Z</time></trkpt><trkpt lat="36.85377291771173" lon="15.055855537621843"><ele>43.0</ele><time>2026-03-28T14:23:01.999Z</time></trkpt><trkpt lat="36.853800229252755" lon="15.055777678635005"><ele>43.0</ele><time>2026-03-28T14:23:02.999Z</time></trkpt><trkpt lat="36.85382754441136" lon="15.055680384210744"><ele>43.0</ele><time>2026-03-28T14:23:03.999Z</time></trkpt><trkpt lat="36.85382885667784" lon="15.055587071959017"><ele>43.0</ele><time>2026-03-28T14:23:04.999Z</time></trkpt><trkpt lat="36.85383253454126" lon="15.055500530047215"><ele>43.00000000000001</ele><time>2026-03-28T14:23:05.999Z</time></trkpt><trkpt lat="36.853844560702385" lon="15.055409934996565"><ele>43.0</ele><time>2026-03-28T14:23:06.999Z</time></trkpt><trkpt lat="36.85385925293433" lon="15.055328412451356"><ele>43.8</ele><time>2026-03-28T14:23:07.999Z</time></trkpt><trkpt lat="36.853878766800015" lon="15.055246531623041"><ele>44.599999999999994</ele><time>2026-03-28T14:23:08.999Z</time></trkpt><trkpt lat="36.85392757450453" lon="15.055108473886277"><ele>45.400000000000006</ele><time>2026-03-28T14:23:10.999Z</time></trkpt><trkpt lat="36.85403637094341" lon="15.055045490888535"><ele>46.2</ele><time>2026-03-28T14:23:12.999Z</time></trkpt><trkpt lat="36.85415679463865" lon="15.055003727447604"><ele>47.0</ele><time>2026-03-28T14:23:14.999Z</time></trkpt><trkpt lat="36.854219925500416" lon="15.054970582123406"><ele>49.400000000000006</ele><time>2026-03-28T14:23:15.999Z</time></trkpt><trkpt lat="36.85429084102723" lon="15.054930893198971"><ele>51.800000000000004</ele><time>2026-03-28T14:23:16.999Z</time></trkpt><trkpt lat="36.85435464429904" lon="15.054876279555131"><ele>54.2</ele><time>2026-03-28T14:23:17.999Z</time></trkpt><trkpt lat="36.854433997061115" lon="15.054784821266342"><ele>56.6</ele><time>2026-03-28T14:23:19.999Z</time></trkpt><trkpt lat="36.85447590468751" lon="15.054700166140933"><ele>59.0</ele><time>2026-03-28T14:23:21.999Z</time></trkpt><trkpt lat="36.854391511948116" lon="15.054605074789114"><ele>59.00000000000001</ele><time>2026-03-28T14:23:23.999Z</time></trkpt><trkpt lat="36.854325218452146" lon="15.05457539422656"><ele>59.0</ele><time>2026-03-28T14:23:24.999Z</time></trkpt><trkpt lat="36.854267557588685" lon="15.054526115489663"><ele>59.0</ele><time>2026-03-28T14:23:25.999Z</time></trkpt><trkpt lat="36.8542200174363" lon="15.054447032324788"><ele>59.0</ele><time>2026-03-28T14:23:26.999Z</time></trkpt><trkpt lat="36.854179228675214" lon="15.054352304407539"><ele>59.00000000000001</ele><time>2026-03-28T14:23:27.999Z</time></trkpt><trkpt lat="36.85413887264053" lon="15.054266073847083"><ele>59.0</ele><time>2026-03-28T14:23:28.999Z</time></trkpt><trkpt lat="36.854096152182294" lon="15.05416211714416"><ele>58.6</ele><time>2026-03-28T14:23:29.999Z</time></trkpt><trkpt lat="36.854062679313095" lon="15.054054043855379"><ele>58.2</ele><time>2026-03-28T14:23:30.999Z</time></trkpt><trkpt lat="36.85403580181142" lon="15.053937795987151"><ele>57.800000000000004</ele><time>2026-03-28T14:23:31.998Z</time></trkpt><trkpt lat="36.85400867869171" lon="15.053814196334114"><ele>57.400000000000006</ele><time>2026-03-28T14:23:32.998Z</time></trkpt><trkpt lat="36.8539921560476" lon="15.053700145891494"><ele>57.0</ele><time>2026-03-28T14:23:33.998Z</time></trkpt><trkpt lat="36.853977930440834" lon="15.053585624086583"><ele>57.0</ele><time>2026-03-28T14:23:34.998Z</time></trkpt><trkpt lat="36.85397490768375" lon="15.053482809532616"><ele>56.99999999999999</ele><time>2026-03-28T14:23:35.998Z</time></trkpt><trkpt lat="36.853984657564844" lon="15.0533853184592"><ele>57.0</ele><time>2026-03-28T14:23:36.998Z</time></trkpt><trkpt lat="36.85402287949037" lon="15.05330304880686"><ele>57.0</ele><time>2026-03-28T14:23:37.998Z</time></trkpt><trkpt lat="36.854073821069505" lon="15.053246940565188"><ele>56.99999999999999</ele><time>2026-03-28T14:23:38.998Z</time></trkpt><trkpt lat="36.85413825670268" lon="15.053223641015146"><ele>57.0</ele><time>2026-03-28T14:23:39.998Z</time></trkpt><trkpt lat="36.854203967762025" lon="15.053212142987977"><ele>57.0</ele><time>2026-03-28T14:23:40.998Z</time></trkpt><trkpt lat="36.854279098412256" lon="15.053127827296436"><ele>56.8</ele><time>2026-03-28T14:23:42.998Z</time></trkpt><trkpt lat="36.85428902190145" lon="15.053038558581889"><ele>56.6</ele><time>2026-03-28T14:23:43.998Z</time></trkpt><trkpt lat="36.85430214785908" lon="15.052910365343342"><ele>56.39999999999999</ele><time>2026-03-28T14:23:44.998Z</time></trkpt><trkpt lat="36.85433195482844" lon="15.052795077868412"><ele>56.199999999999996</ele><time>2026-03-28T14:23:46Z</time></trkpt><trkpt lat="36.8543519588941" lon="15.05268640056367"><ele>56.0</ele><time>2026-03-28T14:23:47Z</time></trkpt><trkpt lat="36.854371562785424" lon="15.052575321912014"><ele>56.00000000000001</ele><time>2026-03-28T14:23:48Z</time></trkpt><trkpt lat="36.85439154416172" lon="15.052467766430476"><ele>56.0</ele><time>2026-03-28T14:23:49Z</time></trkpt><trkpt lat="36.85440761495798" lon="15.052380290250984"><ele>56.0</ele><time>2026-03-28T14:23:50Z</time></trkpt><trkpt lat="36.85442790119289" lon="15.052253840343536"><ele>56.0</ele><time>2026-03-28T14:23:52Z</time></trkpt><trkpt lat="36.85447505256672" lon="15.052194264906152"><ele>56.00000000000001</ele><time>2026-03-28T14:23:54Z</time></trkpt><trkpt lat="36.85454564494432" lon="15.05218308603857"><ele>56.0</ele><time>2026-03-28T14:23:56Z</time></trkpt><trkpt lat="36.854595244223034" lon="15.052130775648283"><ele>54.833333333333336</ele><time>2026-03-28T14:23:59Z</time></trkpt><trkpt lat="36.85450674007377" lon="15.052119349880378"><ele>53.66666666666667</ele><time>2026-03-28T14:24:05Z</time></trkpt><trkpt lat="36.854427146465454" lon="15.052076744338548"><ele>52.5</ele><time>2026-03-28T14:24:08Z</time></trkpt><trkpt lat="36.85435199420395" lon="15.052025813672437"><ele>51.33333333333333</ele><time>2026-03-28T14:24:11Z</time></trkpt><trkpt lat="36.85426197314745" lon="15.051980330421427"><ele>50.166666666666664</ele><time>2026-03-28T14:24:14Z</time></trkpt><trkpt lat="36.854181979991935" lon="15.051934864950475"><ele>49.0</ele><time>2026-03-28T14:24:16Z</time></trkpt><trkpt lat="36.85407706959335" lon="15.05188472383679"><ele>48.666666666666664</ele><time>2026-03-28T14:24:18Z</time></trkpt><trkpt lat="36.853980261842295" lon="15.051838343066539"><ele>48.33333333333333</ele><time>2026-03-28T14:24:20Z</time></trkpt><trkpt lat="36.853916224541386" lon="15.051806817197432"><ele>48.0</ele><time>2026-03-28T14:24:21Z</time></trkpt><trkpt lat="36.85385148940753" lon="15.051779065548274"><ele>47.666666666666664</ele><time>2026-03-28T14:24:22Z</time></trkpt><trkpt lat="36.8538072950236" lon="15.051717859094756"><ele>47.33333333333333</ele><time>2026-03-28T14:24:23Z</time></trkpt><trkpt lat="36.853732559815576" lon="15.051676936592193"><ele>47.0</ele><time>2026-03-28T14:24:24Z</time></trkpt><trkpt lat="36.853660624669445" lon="15.051638938871855"><ele>46.5</ele><time>2026-03-28T14:24:25Z</time></trkpt><trkpt lat="36.85359285908727" lon="15.051606196981014"><ele>46.0</ele><time>2026-03-28T14:24:26Z</time></trkpt><trkpt lat="36.85350543998577" lon="15.051554988683446"><ele>45.5</ele><time>2026-03-28T14:24:28Z</time></trkpt><trkpt lat="36.85345155042986" lon="15.051502647161401"><ele>45.0</ele><time>2026-03-28T14:24:31Z</time></trkpt><trkpt lat="36.853399260516504" lon="15.051455824182527"><ele>44.5</ele><time>2026-03-28T14:24:33.999Z</time></trkpt><trkpt lat="36.85337605874581" lon="15.051369374413232"><ele>44.0</ele><time>2026-03-28T14:24:37.999Z</time></trkpt><trkpt lat="36.85325287685096" lon="15.051476211943356"><ele>43.33333333333333</ele><time>2026-03-28T14:24:44.999Z</time></trkpt><trkpt lat="36.85318951454483" lon="15.051549580418204"><ele>42.666666666666664</ele><time>2026-03-28T14:24:47.999Z</time></trkpt><trkpt lat="36.85312286692958" lon="15.05159516402378"><ele>42.0</ele><time>2026-03-28T14:24:50.999Z</time></trkpt><trkpt lat="36.85304415241179" lon="15.051533081256768"><ele>41.333333333333336</ele><time>2026-03-28T14:24:53.999Z</time></trkpt><trkpt lat="36.852998640275004" lon="15.051441818279859"><ele>40.66666666666667</ele><time>2026-03-28T14:24:55.999Z</time></trkpt><trkpt lat="36.85294938401674" lon="15.051337537698489"><ele>40.0</ele><time>2026-03-28T14:24:57.999Z</time></trkpt><trkpt lat="36.85288990147711" lon="15.051256656443051"><ele>40.0</ele><time>2026-03-28T14:24:59.999Z</time></trkpt><trkpt lat="36.85279422260483" lon="15.051150299304306"><ele>40.0</ele><time>2026-03-28T14:25:01.999Z</time></trkpt><trkpt lat="36.85271252424543" lon="15.051030890062844"><ele>40.0</ele><time>2026-03-28T14:25:02.999Z</time></trkpt><trkpt lat="36.852618438888776" lon="15.05087296525612"><ele>40.0</ele><time>2026-03-28T14:25:03.999Z</time></trkpt><trkpt lat="36.852519262814226" lon="15.05074023636319"><ele>42.25</ele><time>2026-03-28T14:25:04.999Z</time></trkpt><trkpt lat="36.85239784145513" lon="15.050635500700647"><ele>44.5</ele><time>2026-03-28T14:25:05.999Z</time></trkpt><trkpt lat="36.85226769760772" lon="15.050549544015311"><ele>46.75</ele><time>2026-03-28T14:25:06.999Z</time></trkpt><trkpt lat="36.85214816096244" lon="15.0504445169832"><ele>49.0</ele><time>2026-03-28T14:25:07.999Z</time></trkpt><trkpt lat="36.85204505660788" lon="15.050310983980756"><ele>49.0</ele><time>2026-03-28T14:25:08.999Z</time></trkpt><trkpt lat="36.851945139124645" lon="15.05019435891863"><ele>49.0</ele><time>2026-03-28T14:25:09.999Z</time></trkpt><trkpt lat="36.85183857210429" lon="15.05009172646683"><ele>49.0</ele><time>2026-03-28T14:25:10.999Z</time></trkpt><trkpt lat="36.851715554281355" lon="15.049975567824514"><ele>49.0</ele><time>2026-03-28T14:25:11.999Z</time></trkpt><trkpt lat="36.85160978002754" lon="15.049878316455548"><ele>52.400000000000006</ele><time>2026-03-28T14:25:12.999Z</time></trkpt><trkpt lat="36.851499109028836" lon="15.049801902126786"><ele>55.8</ele><time>2026-03-28T14:25:13.999Z</time></trkpt><trkpt lat="36.851399730927476" lon="15.049734036867555"><ele>59.199999999999996</ele><time>2026-03-28T14:25:14.999Z</time></trkpt><trkpt lat="36.851326449487736" lon="15.049670573054279"><ele>62.599999999999994</ele><time>2026-03-28T14:25:15.999Z</time></trkpt><trkpt lat="36.85129704240691" lon="15.049528402274355"><ele>66.0</ele><time>2026-03-28T14:25:17.999Z</time></trkpt><trkpt lat="36.85128163627299" lon="15.049433946526"><ele>66.0</ele><time>2026-03-28T14:25:18.999Z</time></trkpt><trkpt lat="36.851252751955705" lon="15.049329554566222"><ele>66.0</ele><time>2026-03-28T14:25:19.999Z</time></trkpt><trkpt lat="36.85121551043496" lon="15.049252754689386"><ele>66.0</ele><time>2026-03-28T14:25:20.999Z</time></trkpt><trkpt lat="36.8511960842147" lon="15.049102225006177"><ele>66.0</ele><time>2026-03-28T14:25:22.999Z</time></trkpt><trkpt lat="36.85124467963519" lon="15.049024780386878"><ele>66.0</ele><time>2026-03-28T14:25:23.999Z</time></trkpt><trkpt lat="36.85129645524942" lon="15.048950761980098"><ele>66.0</ele><time>2026-03-28T14:25:24.999Z</time></trkpt><trkpt lat="36.85135341954679" lon="15.048790853296818"><ele>67.16666666666667</ele><time>2026-03-28T14:25:26.999Z</time></trkpt><trkpt lat="36.85139708887851" lon="15.048706683579656"><ele>68.33333333333333</ele><time>2026-03-28T14:25:27.999Z</time></trkpt><trkpt lat="36.851455226930085" lon="15.0485591905456"><ele>69.5</ele><time>2026-03-28T14:25:29.999Z</time></trkpt><trkpt lat="36.85149123305783" lon="15.048480712505818"><ele>70.66666666666666</ele><time>2026-03-28T14:25:30.999Z</time></trkpt><trkpt lat="36.85153884418722" lon="15.048426504302439"><ele>71.83333333333333</ele><time>2026-03-28T14:25:31.999Z</time></trkpt><trkpt lat="36.85157354966503" lon="15.048330872224449"><ele>73.0</ele><time>2026-03-28T14:25:32.999Z</time></trkpt><trkpt lat="36.85162170961763" lon="15.048245125571816"><ele>73.16666666666666</ele><time>2026-03-28T14:25:33.999Z</time></trkpt><trkpt lat="36.851658655269745" lon="15.04817299714555"><ele>73.33333333333333</ele><time>2026-03-28T14:25:34.999Z</time></trkpt><trkpt lat="36.851697137570866" lon="15.048080198986609"><ele>73.5</ele><time>2026-03-28T14:25:35.999Z</time></trkpt><trkpt lat="36.85173536244852" lon="15.04801117390377"><ele>73.66666666666667</ele><time>2026-03-28T14:25:36.999Z</time></trkpt><trkpt lat="36.85175404641054" lon="15.047932582501675"><ele>73.83333333333334</ele><time>2026-03-28T14:25:37.999Z</time></trkpt><trkpt lat="36.85177534964029" lon="15.047845317005416"><ele>74.0</ele><time>2026-03-28T14:25:38.998Z</time></trkpt><trkpt lat="36.8518084869647" lon="15.0476945133556"><ele>74.16666666666667</ele><time>2026-03-28T14:25:40.998Z</time></trkpt><trkpt lat="36.85182779132228" lon="15.047591847742453"><ele>74.33333333333334</ele><time>2026-03-28T14:25:41.998Z</time></trkpt><trkpt lat="36.85184058992442" lon="15.047509792808535"><ele>74.5</ele><time>2026-03-28T14:25:42.998Z</time></trkpt><trkpt lat="36.851866200512376" lon="15.047429468045522"><ele>74.66666666666667</ele><time>2026-03-28T14:25:44.998Z</time></trkpt><trkpt lat="36.851889143840296" lon="15.047316448451623"><ele>74.83333333333333</ele><time>2026-03-28T14:26:29Z</time></trkpt><trkpt lat="36.851922625256975" lon="15.04724037432196"><ele>75.0</ele><time>2026-03-28T14:26:30Z</time></trkpt><trkpt lat="36.85197350989551" lon="15.047154307502874"><ele>76.2</ele><time>2026-03-28T14:26:31Z</time></trkpt><trkpt lat="36.85204000497962" lon="15.047050679301407"><ele>77.4</ele><time>2026-03-28T14:26:32Z</time></trkpt><trkpt lat="36.85211795686611" lon="15.046921585025897"><ele>78.6</ele><time>2026-03-28T14:26:33Z</time></trkpt><trkpt lat="36.852190042996384" lon="15.046809502023791"><ele>79.8</ele><time>2026-03-28T14:26:34Z</time></trkpt><trkpt lat="36.85224358592879" lon="15.046705809023129"><ele>81.0</ele><time>2026-03-28T14:26:35Z</time></trkpt><trkpt lat="36.85228058841884" lon="15.046611441722124"><ele>82.6</ele><time>2026-03-28T14:26:35.999Z</time></trkpt><trkpt lat="36.85231744451855" lon="15.046542969182696"><ele>84.19999999999999</ele><time>2026-03-28T14:26:36.999Z</time></trkpt><trkpt lat="36.852387087617295" lon="15.046457245557848"><ele>85.80000000000001</ele><time>2026-03-28T14:26:38.999Z</time></trkpt><trkpt lat="36.8524567415441" lon="15.046336672658024"><ele>87.4</ele><time>2026-03-28T14:26:40.999Z</time></trkpt><trkpt lat="36.852494932005335" lon="15.046236871285135"><ele>89.0</ele><time>2026-03-28T14:26:42.999Z</time></trkpt><trkpt lat="36.85251771794085" lon="15.046131756427037"><ele>89.0</ele><time>2026-03-28T14:26:44.999Z</time></trkpt><trkpt lat="36.85254798856717" lon="15.045983835091178"><ele>89.0</ele><time>2026-03-28T14:26:46.999Z</time></trkpt><trkpt lat="36.852556664921956" lon="15.045865831580395"><ele>89.0</ele><time>2026-03-28T14:26:48.999Z</time></trkpt><trkpt lat="36.852549334907515" lon="15.04575996692637"><ele>89.0</ele><time>2026-03-28T14:26:50.999Z</time></trkpt><trkpt lat="36.85255964238874" lon="15.045672351647957"><ele>89.0</ele><time>2026-03-28T14:26:53.999Z</time></trkpt><trkpt lat="36.852593148301594" lon="15.0455873109431"><ele>89.0</ele><time>2026-03-28T14:26:55.999Z</time></trkpt><trkpt lat="36.85261726954183" lon="15.045490039228428"><ele>90.0</ele><time>2026-03-28T14:26:57.999Z</time></trkpt><trkpt lat="36.85266689405153" lon="15.045350489272982"><ele>91.0</ele><time>2026-03-28T14:26:59.999Z</time></trkpt><trkpt lat="36.852723111585135" lon="15.045191796325657"><ele>92.0</ele><time>2026-03-28T14:27:01.999Z</time></trkpt><trkpt lat="36.85276400161493" lon="15.04509806533385"><ele>93.0</ele><time>2026-03-28T14:27:02.999Z</time></trkpt><trkpt lat="36.85280147583609" lon="15.044997124900751"><ele>94.0</ele><time>2026-03-28T14:27:03.999Z</time></trkpt><trkpt lat="36.852855847821246" lon="15.044887882451532"><ele>94.0</ele><time>2026-03-28T14:27:04.999Z</time></trkpt><trkpt lat="36.85290125940034" lon="15.044788431465758"><ele>94.0</ele><time>2026-03-28T14:27:05.999Z</time></trkpt><trkpt lat="36.85294780285216" lon="15.044713012770881"><ele>94.0</ele><time>2026-03-28T14:27:06.999Z</time></trkpt><trkpt lat="36.85299567522152" lon="15.044649908945647"><ele>94.0</ele><time>2026-03-28T14:27:07.999Z</time></trkpt><trkpt lat="36.853074506919924" lon="15.044548455073429"><ele>94.0</ele><time>2026-03-28T14:27:09.999Z</time></trkpt><trkpt lat="36.85312903932289" lon="15.044479517900829"><ele>94.0</ele><time>2026-03-28T14:27:11.999Z</time></trkpt><trkpt lat="36.85317586973021" lon="15.044424958790135"><ele>94.0</ele><time>2026-03-28T14:27:24.999Z</time></trkpt><trkpt lat="36.853268706746476" lon="15.044339188194837"><ele>94.0</ele><time>2026-03-28T14:27:37.999Z</time></trkpt><trkpt lat="36.8533594358588" lon="15.044250749603297"><ele>94.0</ele><time>2026-03-28T14:27:38.999Z</time></trkpt><trkpt lat="36.85344741650839" lon="15.044146957301713"><ele>94.0</ele><time>2026-03-28T14:27:39.999Z</time></trkpt><trkpt lat="36.85352567514835" lon="15.044031277651735"><ele>94.80000000000001</ele><time>2026-03-28T14:27:40.999Z</time></trkpt><trkpt lat="36.8535888020661" lon="15.043914004330073"><ele>95.60000000000001</ele><time>2026-03-28T14:27:41.999Z</time></trkpt><trkpt lat="36.853621394482225" lon="15.04379541094738"><ele>96.4</ele><time>2026-03-28T14:27:42.999Z</time></trkpt><trkpt lat="36.85364077864706" lon="15.043662169734736"><ele>97.2</ele><time>2026-03-28T14:27:43.998Z</time></trkpt><trkpt lat="36.85364153540088" lon="15.043526055912638"><ele>98.0</ele><time>2026-03-28T14:27:44.998Z</time></trkpt><trkpt lat="36.853643925898965" lon="15.04338913470835"><ele>98.66666666666666</ele><time>2026-03-28T14:27:45.998Z</time></trkpt><trkpt lat="36.853653981143445" lon="15.043254187902308"><ele>99.33333333333333</ele><time>2026-03-28T14:27:46.998Z</time></trkpt><trkpt lat="36.853672594840546" lon="15.043152558635196"><ele>100.0</ele><time>2026-03-28T14:27:47.998Z</time></trkpt><trkpt lat="36.8536866945233" lon="15.043066528943708"><ele>100.66666666666666</ele><time>2026-03-28T14:27:48.998Z</time></trkpt><trkpt lat="36.85370546007748" lon="15.042985414289209"><ele>101.33333333333333</ele><time>2026-03-28T14:27:49.998Z</time></trkpt><trkpt lat="36.85373466682804" lon="15.042904562868033"><ele>102.0</ele><time>2026-03-28T14:27:50.998Z</time></trkpt><trkpt lat="36.85376429009469" lon="15.042806094051553"><ele>102.0</ele><time>2026-03-28T14:27:51.998Z</time></trkpt><trkpt lat="36.85381003496003" lon="15.042706948282072"><ele>102.0</ele><time>2026-03-28T14:27:52.998Z</time></trkpt><trkpt lat="36.85386880306969" lon="15.042592436204666"><ele>102.0</ele><time>2026-03-28T14:27:53.998Z</time></trkpt><trkpt lat="36.85393953352577" lon="15.042458549472517"><ele>102.0</ele><time>2026-03-28T14:27:54.998Z</time></trkpt><trkpt lat="36.85400559990331" lon="15.042316688010263"><ele>102.6</ele><time>2026-03-28T14:27:55.998Z</time></trkpt><trkpt lat="36.85408149668674" lon="15.042188946609887"><ele>103.19999999999999</ele><time>2026-03-28T14:27:56.998Z</time></trkpt><trkpt lat="36.854131763361686" lon="15.04208348986829"><ele>103.8</ele><time>2026-03-28T14:27:58Z</time></trkpt><trkpt lat="36.85416490696977" lon="15.041987473433952"><ele>104.4</ele><time>2026-03-28T14:27:59Z</time></trkpt><trkpt lat="36.85422415902821" lon="15.041842334982755"><ele>105.0</ele><time>2026-03-28T14:28:01Z</time></trkpt><trkpt lat="36.8542747938441" lon="15.041748033175214"><ele>105.2</ele><time>2026-03-28T14:28:02Z</time></trkpt><trkpt lat="36.85434443674445" lon="15.041661237312672"><ele>105.4</ele><time>2026-03-28T14:28:03Z</time></trkpt><trkpt lat="36.85442044377034" lon="15.041591311232475"><ele>105.6</ele><time>2026-03-28T14:28:04Z</time></trkpt><trkpt lat="36.854483578883475" lon="15.041524506366061"><ele>105.8</ele><time>2026-03-28T14:28:05Z</time></trkpt><trkpt lat="36.85454398379151" lon="15.0414301787713"><ele>106.0</ele><time>2026-03-28T14:28:06Z</time></trkpt><trkpt lat="36.85460044418595" lon="15.04133474271819"><ele>106.0</ele><time>2026-03-28T14:28:07Z</time></trkpt><trkpt lat="36.85464398826654" lon="15.041266812253792"><ele>106.0</ele><time>2026-03-28T14:28:08Z</time></trkpt><trkpt lat="36.8547326125706" lon="15.04114833014663"><ele>106.0</ele><time>2026-03-28T14:28:10Z</time></trkpt><trkpt lat="36.85483174585178" lon="15.04103773420577"><ele>106.0</ele><time>2026-03-28T14:28:12Z</time></trkpt><trkpt lat="36.85488119301005" lon="15.040969155692943"><ele>106.0</ele><time>2026-03-28T14:28:13Z</time></trkpt><trkpt lat="36.85494838839315" lon="15.04085139927074"><ele>105.0</ele><time>2026-03-28T14:28:15Z</time></trkpt><trkpt lat="36.854989362163074" lon="15.040782524698326"><ele>104.0</ele><time>2026-03-28T14:28:17Z</time></trkpt><trkpt lat="36.85487701072015" lon="15.040730630657393"><ele>103.0</ele><time>2026-03-28T14:28:22Z</time></trkpt><trkpt lat="36.85478990079397" lon="15.04065938734119"><ele>102.0</ele><time>2026-03-28T14:28:23Z</time></trkpt><trkpt lat="36.85469509797344" lon="15.0405771748261"><ele>101.0</ele><time>2026-03-28T14:28:24Z</time></trkpt><trkpt lat="36.85461285727208" lon="15.04051984072759"><ele>100.99999999999999</ele><time>2026-03-28T14:28:25Z</time></trkpt><trkpt lat="36.85453840448186" lon="15.040468772857668"><ele>101.0</ele><time>2026-03-28T14:28:26Z</time></trkpt><trkpt lat="36.85447198613384" lon="15.040416934203474"><ele>101.0</ele><time>2026-03-28T14:28:27Z</time></trkpt><trkpt lat="36.854412677667774" lon="15.040369288876711"><ele>101.0</ele><time>2026-03-28T14:28:28Z</time></trkpt><trkpt lat="36.85435852492314" lon="15.040324438472569"><ele>100.99999999999999</ele><time>2026-03-28T14:28:29Z</time></trkpt><trkpt lat="36.854242388498484" lon="15.040292456009785"><ele>101.0</ele><time>2026-03-28T14:28:31Z</time></trkpt><trkpt lat="36.85412862151348" lon="15.040303500310884"><ele>98.33333333333333</ele><time>2026-03-28T14:28:33Z</time></trkpt><trkpt lat="36.854057045457715" lon="15.040319294328672"><ele>95.66666666666666</ele><time>2026-03-28T14:28:34Z</time></trkpt><trkpt lat="36.85396562873576" lon="15.040360368376115"><ele>93.0</ele><time>2026-03-28T14:28:35Z</time></trkpt><trkpt lat="36.8538805486445" lon="15.040394398990884"><ele>90.33333333333333</ele><time>2026-03-28T14:28:36Z</time></trkpt><trkpt lat="36.853793685913956" lon="15.040440381708233"><ele>87.66666666666666</ele><time>2026-03-28T14:28:37Z</time></trkpt><trkpt lat="36.85371922828421" lon="15.040497363204802"><ele>85.0</ele><time>2026-03-28T14:28:38Z</time></trkpt><trkpt lat="36.85363701991757" lon="15.040566036638259"><ele>85.0</ele><time>2026-03-28T14:28:39Z</time></trkpt><trkpt lat="36.85356037501999" lon="15.040645093760324"><ele>85.0</ele><time>2026-03-28T14:28:40Z</time></trkpt><trkpt lat="36.85349171003099" lon="15.040712571684152"><ele>85.0</ele><time>2026-03-28T14:28:41Z</time></trkpt><trkpt lat="36.8534150925987" lon="15.040836943156393"><ele>85.0</ele><time>2026-03-28T14:28:42.999Z</time></trkpt><trkpt lat="36.85338369687441" lon="15.040930882636731"><ele>85.0</ele><time>2026-03-28T14:28:43.999Z</time></trkpt><trkpt lat="36.853353971295505" lon="15.041002834863622"><ele>84.8</ele><time>2026-03-28T14:28:44.999Z</time></trkpt><trkpt lat="36.85328105874533" lon="15.041062550761652"><ele>84.6</ele><time>2026-03-28T14:28:46.999Z</time></trkpt><trkpt lat="36.85317159677153" lon="15.041079028432831"><ele>84.4</ele><time>2026-03-28T14:28:48.999Z</time></trkpt><trkpt lat="36.85308263264871" lon="15.041201614978386"><ele>84.2</ele><time>2026-03-28T14:28:50.999Z</time></trkpt><trkpt lat="36.853032276061974" lon="15.041293335003223"><ele>84.0</ele><time>2026-03-28T14:28:51.999Z</time></trkpt><trkpt lat="36.85297620510156" lon="15.041394484223856"><ele>84.0</ele><time>2026-03-28T14:28:52.999Z</time></trkpt><trkpt lat="36.852909806837815" lon="15.04148832670441"><ele>84.0</ele><time>2026-03-28T14:28:53.999Z</time></trkpt><trkpt lat="36.85284348612843" lon="15.04157870274955"><ele>84.0</ele><time>2026-03-28T14:28:54.999Z</time></trkpt><trkpt lat="36.85278317006401" lon="15.041658500997157"><ele>84.0</ele><time>2026-03-28T14:28:55.999Z</time></trkpt><trkpt lat="36.852717021738066" lon="15.041748643007574"><ele>84.0</ele><time>2026-03-28T14:28:56.999Z</time></trkpt><trkpt lat="36.85265746874904" lon="15.04180912630265"><ele>81.33333333333333</ele><time>2026-03-28T14:28:57.999Z</time></trkpt><trkpt lat="36.85259440485736" lon="15.041848458623337"><ele>78.66666666666667</ele><time>2026-03-28T14:28:58.999Z</time></trkpt><trkpt lat="36.85246769691205" lon="15.041836191258474"><ele>76.0</ele><time>2026-03-28T14:29:00.999Z</time></trkpt><trkpt lat="36.85240404382962" lon="15.041792117109997"><ele>73.33333333333334</ele><time>2026-03-28T14:29:01.999Z</time></trkpt><trkpt lat="36.85233620778804" lon="15.041728775936551"><ele>70.66666666666667</ele><time>2026-03-28T14:29:02.999Z</time></trkpt><trkpt lat="36.852257984753074" lon="15.041668951160931"><ele>68.0</ele><time>2026-03-28T14:29:03.999Z</time></trkpt><trkpt lat="36.852176567405245" lon="15.041619560881355"><ele>67.5</ele><time>2026-03-28T14:29:04.999Z</time></trkpt><trkpt lat="36.85210329161838" lon="15.041576903768808"><ele>67.0</ele><time>2026-03-28T14:29:05.999Z</time></trkpt><trkpt lat="36.85203250701855" lon="15.041535350923711"><ele>66.5</ele><time>2026-03-28T14:29:06.999Z</time></trkpt><trkpt lat="36.851959478549325" lon="15.041489133320185"><ele>66.0</ele><time>2026-03-28T14:29:07.999Z</time></trkpt><trkpt lat="36.85187544288575" lon="15.041433689549438"><ele>65.5</ele><time>2026-03-28T14:29:08.999Z</time></trkpt><trkpt lat="36.85179704726363" lon="15.041362958409634"><ele>65.0</ele><time>2026-03-28T14:29:09.999Z</time></trkpt><trkpt lat="36.85173281275629" lon="15.041293297298031"><ele>62.66666666666667</ele><time>2026-03-28T14:29:10.999Z</time></trkpt><trkpt lat="36.85166416536658" lon="15.041210067490605"><ele>60.333333333333336</ele><time>2026-03-28T14:29:11.999Z</time></trkpt><trkpt lat="36.85160389299853" lon="15.041128484590377"><ele>58.0</ele><time>2026-03-28T14:29:12.999Z</time></trkpt><trkpt lat="36.85153815795514" lon="15.041043106942558"><ele>55.66666666666667</ele><time>2026-03-28T14:29:13.999Z</time></trkpt><trkpt lat="36.85147753024479" lon="15.040972272282268"><ele>53.333333333333336</ele><time>2026-03-28T14:29:14.999Z</time></trkpt><trkpt lat="36.8514194335909" lon="15.040895010124155"><ele>51.0</ele><time>2026-03-28T14:29:15.999Z</time></trkpt><trkpt lat="36.85137015483078" lon="15.040817530731347"><ele>50.166666666666664</ele><time>2026-03-28T14:29:16.999Z</time></trkpt><trkpt lat="36.85133721662056" lon="15.040729733811247"><ele>49.333333333333336</ele><time>2026-03-28T14:29:17.999Z</time></trkpt><trkpt lat="36.85130320925794" lon="15.040647020078788"><ele>48.5</ele><time>2026-03-28T14:29:18.999Z</time></trkpt><trkpt lat="36.85127302856446" lon="15.040569026506208"><ele>47.66666666666667</ele><time>2026-03-28T14:29:19.999Z</time></trkpt><trkpt lat="36.85124495959387" lon="15.040495545832886"><ele>46.833333333333336</ele><time>2026-03-28T14:29:20.999Z</time></trkpt><trkpt lat="36.85121673466832" lon="15.040343209456077"><ele>46.0</ele><time>2026-03-28T14:29:22.999Z</time></trkpt><trkpt lat="36.851166083783916" lon="15.040251659161786"><ele>46.0</ele><time>2026-03-28T14:29:23.999Z</time></trkpt><trkpt lat="36.85108002136734" lon="15.040151136867097"><ele>46.0</ele><time>2026-03-28T14:29:24.999Z</time></trkpt><trkpt lat="36.85098843338094" lon="15.040030634087461"><ele>46.0</ele><time>2026-03-28T14:29:25.999Z</time></trkpt><trkpt lat="36.85088885495238" lon="15.039896631741804"><ele>46.0</ele><time>2026-03-28T14:29:26.999Z</time></trkpt><trkpt lat="36.85077355673131" lon="15.039745105364855"><ele>44.333333333333336</ele><time>2026-03-28T14:29:27.999Z</time></trkpt><trkpt lat="36.8506424918755" lon="15.039562871158015"><ele>42.666666666666664</ele><time>2026-03-28T14:29:28.999Z</time></trkpt><trkpt lat="36.85052826955844" lon="15.039401278570072"><ele>41.0</ele><time>2026-03-28T14:29:29.999Z</time></trkpt><trkpt lat="36.85043610706051" lon="15.039253633635099"><ele>40.75</ele><time>2026-03-28T14:29:30.999Z</time></trkpt><trkpt lat="36.85033699582197" lon="15.039124414028832"><ele>40.5</ele><time>2026-03-28T14:29:31.999Z</time></trkpt><trkpt lat="36.85024252224639" lon="15.039014299960291"><ele>40.25</ele><time>2026-03-28T14:29:32.999Z</time></trkpt><trkpt lat="36.850164959045095" lon="15.03890944776411"><ele>40.0</ele><time>2026-03-28T14:29:33.999Z</time></trkpt><trkpt lat="36.85010994347657" lon="15.038824198041594"><ele>40.0</ele><time>2026-03-28T14:29:34.999Z</time></trkpt><trkpt lat="36.85005740870239" lon="15.038762519940711"><ele>40.0</ele><time>2026-03-28T14:29:35.999Z</time></trkpt><trkpt lat="36.8499906041158" lon="15.038688358844775"><ele>40.0</ele><time>2026-03-28T14:29:36.999Z</time></trkpt><trkpt lat="36.8499291697469" lon="15.038615887955636"><ele>40.0</ele><time>2026-03-28T14:29:37.999Z</time></trkpt><trkpt lat="36.849883507357674" lon="15.038555216937764"><ele>40.0</ele><time>2026-03-28T14:29:38.999Z</time></trkpt><trkpt lat="36.84986398167245" lon="15.038480275058781"><ele>40.0</ele><time>2026-03-28T14:29:39.999Z</time></trkpt><trkpt lat="36.849862521527875" lon="15.038396512615611"><ele>40.0</ele><time>2026-03-28T14:29:40.999Z</time></trkpt><trkpt lat="36.849864653667375" lon="15.03829850050149"><ele>41.0</ele><time>2026-03-28T14:29:41.999Z</time></trkpt><trkpt lat="36.84985556239597" lon="15.038194976465727"><ele>42.0</ele><time>2026-03-28T14:29:42.999Z</time></trkpt><trkpt lat="36.849848885860105" lon="15.038088560476032"><ele>43.0</ele><time>2026-03-28T14:29:43.999Z</time></trkpt><trkpt lat="36.8498419319775" lon="15.038000931244524"><ele>44.0</ele><time>2026-03-28T14:29:44.999Z</time></trkpt><trkpt lat="36.849836849360216" lon="15.037920463991677"><ele>45.0</ele><time>2026-03-28T14:29:45.999Z</time></trkpt><trkpt lat="36.849833131489355" lon="15.037833737675223"><ele>46.0</ele><time>2026-03-28T14:29:46.999Z</time></trkpt><trkpt lat="36.84983125888688" lon="15.037750979818146"><ele>47.0</ele><time>2026-03-28T14:29:47.999Z</time></trkpt><trkpt lat="36.84982212537552" lon="15.03764525440437"><ele>47.0</ele><time>2026-03-28T14:29:49.999Z</time></trkpt><trkpt lat="36.84984532031471" lon="15.037552958760408"><ele>47.0</ele><time>2026-03-28T14:29:51.998Z</time></trkpt><trkpt lat="36.84982668221979" lon="15.037449758307725"><ele>47.0</ele><time>2026-03-28T14:29:53.998Z</time></trkpt><trkpt lat="36.8498282336632" lon="15.037307241069545"><ele>47.0</ele><time>2026-03-28T14:29:55.998Z</time></trkpt><trkpt lat="36.849788029498235" lon="15.03717805525966"><ele>47.0</ele><time>2026-03-28T14:29:57.998Z</time></trkpt><trkpt lat="36.84966373564414" lon="15.037232193048943"><ele>47.0</ele><time>2026-03-28T14:29:59.998Z</time></trkpt><trkpt lat="36.84962979261099" lon="15.037372482734872"><ele>47.0</ele><time>2026-03-28T14:30:01.998Z</time></trkpt><trkpt lat="36.84962042667374" lon="15.037455670079323"><ele>47.0</ele><time>2026-03-28T14:30:02.998Z</time></trkpt><trkpt lat="36.84959421798919" lon="15.037530245847503"><ele>47.0</ele><time>2026-03-28T14:30:04Z</time></trkpt><trkpt lat="36.849567443021805" lon="15.037607843834646"><ele>47.0</ele><time>2026-03-28T14:30:05Z</time></trkpt><trkpt lat="36.849530547790245" lon="15.037685427992798"><ele>47.0</ele><time>2026-03-28T14:30:06Z</time></trkpt><trkpt lat="36.849511195704" lon="15.03777265480644"><ele>47.0</ele><time>2026-03-28T14:30:07Z</time></trkpt><trkpt lat="36.849468124917934" lon="15.037858093379114"><ele>47.0</ele><time>2026-03-28T14:30:08Z</time></trkpt><trkpt lat="36.84942959487334" lon="15.03793410306511"><ele>47.0</ele><time>2026-03-28T14:30:09Z</time></trkpt><trkpt lat="36.84934716523403" lon="15.038016084086918"><ele>47.0</ele><time>2026-03-28T14:30:11Z</time></trkpt><trkpt lat="36.84926209574661" lon="15.037942338148941"><ele>47.0</ele><time>2026-03-28T14:30:13Z</time></trkpt><trkpt lat="36.84929313549688" lon="15.03777951253547"><ele>47.0</ele><time>2026-03-28T14:30:15Z</time></trkpt><trkpt lat="36.849296670273084" lon="15.03764093588842"><ele>47.0</ele><time>2026-03-28T14:30:16Z</time></trkpt><trkpt lat="36.849271586879986" lon="15.037458307125933"><ele>47.0</ele><time>2026-03-28T14:30:17Z</time></trkpt><trkpt lat="36.84924467968298" lon="15.037249312071292"><ele>47.0</ele><time>2026-03-28T14:30:18Z</time></trkpt><trkpt lat="36.84926098559986" lon="15.037048890166151"><ele>54.0</ele><time>2026-03-28T14:30:19Z</time></trkpt><trkpt lat="36.84926347024823" lon="15.036873305833304"><ele>61.0</ele><time>2026-03-28T14:30:20Z</time></trkpt><trkpt lat="36.84925257805949" lon="15.036708372042694"><ele>68.0</ele><time>2026-03-28T14:30:21Z</time></trkpt><trkpt lat="36.849235684853795" lon="15.036568297362173"><ele>75.0</ele><time>2026-03-28T14:30:22Z</time></trkpt><trkpt lat="36.84920237600103" lon="15.036429244000344"><ele>75.0</ele><time>2026-03-28T14:30:23Z</time></trkpt><trkpt lat="36.84917530867906" lon="15.036286121129454"><ele>75.0</ele><time>2026-03-28T14:30:24Z</time></trkpt><trkpt lat="36.84911406630167" lon="15.036179811223748"><ele>75.0</ele><time>2026-03-28T14:30:25Z</time></trkpt><trkpt lat="36.84909231310923" lon="15.036075625613643"><ele>75.0</ele><time>2026-03-28T14:30:27Z</time></trkpt><trkpt lat="36.84907273090143" lon="15.035940824446905"><ele>75.0</ele><time>2026-03-28T14:30:29Z</time></trkpt><trkpt lat="36.84910420263511" lon="15.035846326155415"><ele>74.66666666666667</ele><time>2026-03-28T14:30:30Z</time></trkpt><trkpt lat="36.84915794668694" lon="15.03574309293317"><ele>74.33333333333333</ele><time>2026-03-28T14:30:31Z</time></trkpt><trkpt lat="36.849205503115456" lon="15.035643974166437"><ele>74.0</ele><time>2026-03-28T14:30:32Z</time></trkpt><trkpt lat="36.84923735478697" lon="15.035560746596772"><ele>73.66666666666666</ele><time>2026-03-28T14:30:33Z</time></trkpt><trkpt lat="36.84924866715083" lon="15.035478501736659"><ele>73.33333333333333</ele><time>2026-03-28T14:30:34Z</time></trkpt><trkpt lat="36.849231078108005" lon="15.035401636726258"><ele>73.0</ele><time>2026-03-28T14:30:35Z</time></trkpt><trkpt lat="36.84913832700079" lon="15.035355157112596"><ele>73.0</ele><time>2026-03-28T14:30:37Z</time></trkpt><trkpt lat="36.84907278866525" lon="15.03543573549514"><ele>73.0</ele><time>2026-03-28T14:30:39Z</time></trkpt><trkpt lat="36.84900027283012" lon="15.035566315613607"><ele>73.0</ele><time>2026-03-28T14:30:41Z</time></trkpt><trkpt lat="36.84892111448442" lon="15.035663154571559"><ele>73.0</ele><time>2026-03-28T14:30:42Z</time></trkpt><trkpt lat="36.84882889399796" lon="15.03575483134382"><ele>73.0</ele><time>2026-03-28T14:30:43Z</time></trkpt><trkpt lat="36.84872515309046" lon="15.03585743818816"><ele>73.66666666666666</ele><time>2026-03-28T14:30:44Z</time></trkpt><trkpt lat="36.84859106082644" lon="15.035981525629113"><ele>74.33333333333333</ele><time>2026-03-28T14:30:45Z</time></trkpt><trkpt lat="36.848447387499235" lon="15.036154681896875"><ele>75.0</ele><time>2026-03-28T14:30:46Z</time></trkpt><trkpt lat="36.848305348788536" lon="15.036331318427585"><ele>74.0</ele><time>2026-03-28T14:30:47Z</time></trkpt><trkpt lat="36.84817772958638" lon="15.036484288319873"><ele>73.0</ele><time>2026-03-28T14:30:48Z</time></trkpt><trkpt lat="36.8480718890575" lon="15.036633187264103"><ele>72.0</ele><time>2026-03-28T14:30:49Z</time></trkpt><trkpt lat="36.84800284160825" lon="15.036767447203818"><ele>72.0</ele><time>2026-03-28T14:30:50Z</time></trkpt><trkpt lat="36.84791362072919" lon="15.036841072277205"><ele>72.0</ele><time>2026-03-28T14:30:50.999Z</time></trkpt><trkpt lat="36.847832831560375" lon="15.036881626142018"><ele>72.0</ele><time>2026-03-28T14:30:51.999Z</time></trkpt><trkpt lat="36.84775069616116" lon="15.036911589622306"><ele>72.0</ele><time>2026-03-28T14:30:52.999Z</time></trkpt><trkpt lat="36.847658121328095" lon="15.036910657742348"><ele>72.0</ele><time>2026-03-28T14:30:53.999Z</time></trkpt><trkpt lat="36.84756631663895" lon="15.036865006472711"><ele>68.4</ele><time>2026-03-28T14:30:54.999Z</time></trkpt><trkpt lat="36.84746919610151" lon="15.036823929858265"><ele>64.80000000000001</ele><time>2026-03-28T14:30:55.999Z</time></trkpt><trkpt lat="36.84736201269218" lon="15.036777565241477"><ele>61.2</ele><time>2026-03-28T14:30:56.999Z</time></trkpt><trkpt lat="36.847249252382476" lon="15.036736549669014"><ele>57.6</ele><time>2026-03-28T14:30:57.999Z</time></trkpt><trkpt lat="36.847144317363245" lon="15.036703547529095"><ele>54.0</ele><time>2026-03-28T14:30:58.999Z</time></trkpt><trkpt lat="36.84705742896051" lon="15.036676182401177"><ele>54.0</ele><time>2026-03-28T14:30:59.999Z</time></trkpt><trkpt lat="36.84699302334363" lon="15.036655898093043"><ele>54.00000000000001</ele><time>2026-03-28T14:31:00.999Z</time></trkpt><trkpt lat="36.84690361872571" lon="15.036587969239191"><ele>54.00000000000001</ele><time>2026-03-28T14:31:02.999Z</time></trkpt><trkpt lat="36.8468977641066" lon="15.03646249818854"><ele>54.0</ele><time>2026-03-28T14:31:04.999Z</time></trkpt><trkpt lat="36.84692835205452" lon="15.036324569176859"><ele>54.0</ele><time>2026-03-28T14:31:06.999Z</time></trkpt><trkpt lat="36.846901291792044" lon="15.036244162565204"><ele>53.0</ele><time>2026-03-28T14:31:07.999Z</time></trkpt><trkpt lat="36.84684157768035" lon="15.036204803540379"><ele>52.0</ele><time>2026-03-28T14:31:08.999Z</time></trkpt><trkpt lat="36.846778137024494" lon="15.0361519173892"><ele>51.0</ele><time>2026-03-28T14:31:10.999Z</time></trkpt><trkpt lat="36.84682446509432" lon="15.036082059556302"><ele>50.0</ele><time>2026-03-28T14:31:11.999Z</time></trkpt><trkpt lat="36.84683055931026" lon="15.03598609928854"><ele>49.0</ele><time>2026-03-28T14:31:14.999Z</time></trkpt><trkpt lat="36.84683486421223" lon="15.03590193658827"><ele>48.0</ele><time>2026-03-28T14:31:59.998Z</time></trkpt><trkpt lat="36.84682568420784" lon="15.03578657926924"><ele>47.599999999999994</ele><time>2026-03-28T14:32:01.998Z</time></trkpt><trkpt lat="36.84683812118014" lon="15.03566727410033"><ele>47.199999999999996</ele><time>2026-03-28T14:32:11Z</time></trkpt><trkpt lat="36.84684410507957" lon="15.035570590215572"><ele>46.8</ele><time>2026-03-28T14:32:12Z</time></trkpt><trkpt lat="36.84684802209957" lon="15.035433316096247"><ele>46.4</ele><time>2026-03-28T14:32:13Z</time></trkpt><trkpt lat="36.84685452019063" lon="15.035302055979725"><ele>46.0</ele><time>2026-03-28T14:32:14Z</time></trkpt><trkpt lat="36.846868801255674" lon="15.035173899182713"><ele>46.0</ele><time>2026-03-28T14:32:15Z</time></trkpt><trkpt lat="36.8468901429563" lon="15.035066203893376"><ele>46.0</ele><time>2026-03-28T14:32:16Z</time></trkpt><trkpt lat="36.846925458026064" lon="15.034950842314572"><ele>46.0</ele><time>2026-03-28T14:32:17Z</time></trkpt><trkpt lat="36.846969082381726" lon="15.034811065505579"><ele>46.0</ele><time>2026-03-28T14:32:18Z</time></trkpt><trkpt lat="36.84700602274967" lon="15.034680001928699"><ele>46.0</ele><time>2026-03-28T14:32:19Z</time></trkpt><trkpt lat="36.847045242081556" lon="15.034547058317022"><ele>46.5</ele><time>2026-03-28T14:32:20Z</time></trkpt><trkpt lat="36.847080572724984" lon="15.034413058153088"><ele>47.0</ele><time>2026-03-28T14:32:21Z</time></trkpt><trkpt lat="36.84712000796059" lon="15.034277638379203"><ele>47.5</ele><time>2026-03-28T14:32:22Z</time></trkpt><trkpt lat="36.847173197157986" lon="15.034105955162469"><ele>48.0</ele><time>2026-03-28T14:32:23Z</time></trkpt><trkpt lat="36.84722822976578" lon="15.033885503731524"><ele>49.33333333333333</ele><time>2026-03-28T14:32:24Z</time></trkpt><trkpt lat="36.84728458351378" lon="15.033623287047268"><ele>50.666666666666664</ele><time>2026-03-28T14:32:25Z</time></trkpt><trkpt lat="36.84734247891694" lon="15.03335434686906"><ele>52.0</ele><time>2026-03-28T14:32:26Z</time></trkpt><trkpt lat="36.84741058368227" lon="15.033093422525784"><ele>53.666666666666664</ele><time>2026-03-28T14:32:27Z</time></trkpt><trkpt lat="36.84746242976285" lon="15.032838942315284"><ele>55.33333333333333</ele><time>2026-03-28T14:32:28Z</time></trkpt><trkpt lat="36.84752015217193" lon="15.032591926520967"><ele>57.0</ele><time>2026-03-28T14:32:29Z</time></trkpt><trkpt lat="36.84755430200513" lon="15.032350367906373"><ele>57.66666666666667</ele><time>2026-03-28T14:32:30Z</time></trkpt><trkpt lat="36.84758943622611" lon="15.032112050453545"><ele>58.333333333333336</ele><time>2026-03-28T14:32:31Z</time></trkpt><trkpt lat="36.84761611519396" lon="15.031896504324378"><ele>59.0</ele><time>2026-03-28T14:32:32Z</time></trkpt><trkpt lat="36.847633712971515" lon="15.031719912295971"><ele>60.25</ele><time>2026-03-28T14:32:33Z</time></trkpt><trkpt lat="36.84764165725504" lon="15.031542282931639"><ele>61.5</ele><time>2026-03-28T14:32:34Z</time></trkpt><trkpt lat="36.847639938336464" lon="15.031359123324476"><ele>62.75</ele><time>2026-03-28T14:32:35Z</time></trkpt><trkpt lat="36.84763318689262" lon="15.031176635853054"><ele>64.0</ele><time>2026-03-28T14:32:36Z</time></trkpt><trkpt lat="36.847631282478496" lon="15.030999591544232"><ele>64.0</ele><time>2026-03-28T14:32:37Z</time></trkpt><trkpt lat="36.8476318720471" lon="15.03081424463955"><ele>64.0</ele><time>2026-03-28T14:32:38Z</time></trkpt><trkpt lat="36.847638131836455" lon="15.030638409697971"><ele>64.0</ele><time>2026-03-28T14:32:39Z</time></trkpt><trkpt lat="36.847648015926204" lon="15.030477722460871"><ele>64.0</ele><time>2026-03-28T14:32:40Z</time></trkpt><trkpt lat="36.84767949033513" lon="15.030302724623333"><ele>62.666666666666664</ele><time>2026-03-28T14:32:41Z</time></trkpt><trkpt lat="36.84772306111988" lon="15.03012496525421"><ele>61.33333333333333</ele><time>2026-03-28T14:32:42Z</time></trkpt><trkpt lat="36.84777098055559" lon="15.02994177199168"><ele>60.0</ele><time>2026-03-28T14:32:43Z</time></trkpt><trkpt lat="36.84781675341714" lon="15.029752289957935"><ele>59.0</ele><time>2026-03-28T14:32:44Z</time></trkpt><trkpt lat="36.847860344400736" lon="15.029558432145981"><ele>58.0</ele><time>2026-03-28T14:32:45Z</time></trkpt><trkpt lat="36.84790544408694" lon="15.029355742360398"><ele>57.0</ele><time>2026-03-28T14:32:46Z</time></trkpt><trkpt lat="36.847939525544625" lon="15.029148347367094"><ele>57.0</ele><time>2026-03-28T14:32:47Z</time></trkpt><trkpt lat="36.847952616398764" lon="15.028938639482927"><ele>57.0</ele><time>2026-03-28T14:32:48Z</time></trkpt><trkpt lat="36.84796433613791" lon="15.028731666041503"><ele>57.0</ele><time>2026-03-28T14:32:49Z</time></trkpt><trkpt lat="36.84797350253107" lon="15.028525141417528"><ele>57.0</ele><time>2026-03-28T14:32:50Z</time></trkpt><trkpt lat="36.84796742447152" lon="15.028321469460048"><ele>57.0</ele><time>2026-03-28T14:32:51Z</time></trkpt><trkpt lat="36.84795813978519" lon="15.028109415974022"><ele>57.0</ele><time>2026-03-28T14:32:52Z</time></trkpt><trkpt lat="36.8479506583649" lon="15.027896732999405"><ele>57.0</ele><time>2026-03-28T14:32:53Z</time></trkpt><trkpt lat="36.8479401776684" lon="15.027689201088888"><ele>57.0</ele><time>2026-03-28T14:32:54Z</time></trkpt><trkpt lat="36.84792963822182" lon="15.027480600287294"><ele>57.0</ele><time>2026-03-28T14:32:55Z</time></trkpt><trkpt lat="36.847928332553955" lon="15.02727747834255"><ele>57.33333333333333</ele><time>2026-03-28T14:32:56Z</time></trkpt><trkpt lat="36.8479365391407" lon="15.02707288755831"><ele>57.666666666666664</ele><time>2026-03-28T14:32:57Z</time></trkpt><trkpt lat="36.84795373111131" lon="15.026867338018697"><ele>58.0</ele><time>2026-03-28T14:32:58Z</time></trkpt><trkpt lat="36.84798938127248" lon="15.026656503700506"><ele>59.0</ele><time>2026-03-28T14:32:59Z</time></trkpt><trkpt lat="36.84803073994745" lon="15.026431098553447"><ele>60.0</ele><time>2026-03-28T14:33:00Z</time></trkpt><trkpt lat="36.848077238533875" lon="15.026203160730994"><ele>61.0</ele><time>2026-03-28T14:33:00.999Z</time></trkpt><trkpt lat="36.84811885563023" lon="15.025962136553249"><ele>62.0</ele><time>2026-03-28T14:33:01.999Z</time></trkpt><trkpt lat="36.848155133640745" lon="15.025737445583603"><ele>63.0</ele><time>2026-03-28T14:33:02.999Z</time></trkpt><trkpt lat="36.84818462729193" lon="15.025509148553077"><ele>64.0</ele><time>2026-03-28T14:33:03.999Z</time></trkpt><trkpt lat="36.84820148118469" lon="15.025275929525671"><ele>64.0</ele><time>2026-03-28T14:33:04.999Z</time></trkpt><trkpt lat="36.8482029596152" lon="15.02504741069374"><ele>64.0</ele><time>2026-03-28T14:33:05.999Z</time></trkpt><trkpt lat="36.84819699167555" lon="15.024851147466514"><ele>64.0</ele><time>2026-03-28T14:33:06.999Z</time></trkpt><trkpt lat="36.848187964614965" lon="15.024688175990107"><ele>64.4</ele><time>2026-03-28T14:33:07.999Z</time></trkpt><trkpt lat="36.84819064470862" lon="15.024564080558028"><ele>64.80000000000001</ele><time>2026-03-28T14:33:08.999Z</time></trkpt><trkpt lat="36.8482008891128" lon="15.024465705090151"><ele>65.19999999999999</ele><time>2026-03-28T14:33:09.999Z</time></trkpt><trkpt lat="36.84824045402505" lon="15.02434763266139"><ele>65.6</ele><time>2026-03-28T14:33:11.999Z</time></trkpt><trkpt lat="36.848336877355365" lon="15.024327242769848"><ele>66.0</ele><time>2026-03-28T14:33:14.999Z</time></trkpt><trkpt lat="36.84842312543195" lon="15.024356122077817"><ele>67.39999999999999</ele><time>2026-03-28T14:33:16.999Z</time></trkpt><trkpt lat="36.84853668464876" lon="15.024375533513288"><ele>68.8</ele><time>2026-03-28T14:33:18.999Z</time></trkpt><trkpt lat="36.84860069865161" lon="15.024385407408838"><ele>70.19999999999999</ele><time>2026-03-28T14:33:19.999Z</time></trkpt><trkpt lat="36.84866390385719" lon="15.024399925567282"><ele>71.6</ele><time>2026-03-28T14:33:20.999Z</time></trkpt><trkpt lat="36.84878283503942" lon="15.024416721756115"><ele>73.0</ele><time>2026-03-28T14:33:21.999Z</time></trkpt><trkpt lat="36.84889737560526" lon="15.024437570130441"><ele>73.0</ele><time>2026-03-28T14:33:22.999Z</time></trkpt><trkpt lat="36.84900131194014" lon="15.024453056461198"><ele>73.0</ele><time>2026-03-28T14:33:23.999Z</time></trkpt><trkpt lat="36.849098642570596" lon="15.02446805752861"><ele>73.0</ele><time>2026-03-28T14:33:24.999Z</time></trkpt><trkpt lat="36.84917986976621" lon="15.024485216710273"><ele>73.0</ele><time>2026-03-28T14:33:25.999Z</time></trkpt><trkpt lat="36.84925335898631" lon="15.024501491333117"><ele>73.0</ele><time>2026-03-28T14:33:26.999Z</time></trkpt><trkpt lat="36.84932182595382" lon="15.024512786080496"><ele>73.0</ele><time>2026-03-28T14:33:27.999Z</time></trkpt><trkpt lat="36.84943486839151" lon="15.024551310630565"><ele>75.0</ele><time>2026-03-28T14:33:29.999Z</time></trkpt><trkpt lat="36.84950205516462" lon="15.024577990966593"><ele>77.0</ele><time>2026-03-28T14:33:30.999Z</time></trkpt><trkpt lat="36.84957580528509" lon="15.024641114281446"><ele>79.0</ele><time>2026-03-28T14:33:31.999Z</time></trkpt><trkpt lat="36.84967160059991" lon="15.024747089273754"><ele>81.0</ele><time>2026-03-28T14:33:32.999Z</time></trkpt><trkpt lat="36.8497653127761" lon="15.024848725456105"><ele>83.0</ele><time>2026-03-28T14:33:33.999Z</time></trkpt><trkpt lat="36.84985568512034" lon="15.0249468126645"><ele>82.75</ele><time>2026-03-28T14:33:34.999Z</time></trkpt><trkpt lat="36.849951202887766" lon="15.025059752228145"><ele>82.5</ele><time>2026-03-28T14:33:35.999Z</time></trkpt><trkpt lat="36.850056443831846" lon="15.025174131530079"><ele>82.25</ele><time>2026-03-28T14:33:36.999Z</time></trkpt><trkpt lat="36.85016271075558" lon="15.02529003375396"><ele>82.0</ele><time>2026-03-28T14:33:37.999Z</time></trkpt><trkpt lat="36.85027139993989" lon="15.025410529194971"><ele>84.6</ele><time>2026-03-28T14:33:38.999Z</time></trkpt><trkpt lat="36.85037197825931" lon="15.025515042011213"><ele>87.19999999999999</ele><time>2026-03-28T14:33:39.999Z</time></trkpt><trkpt lat="36.850455335508215" lon="15.025604002824513"><ele>89.8</ele><time>2026-03-28T14:33:40.999Z</time></trkpt><trkpt lat="36.85052918953274" lon="15.025685113032374"><ele>92.4</ele><time>2026-03-28T14:33:41.999Z</time></trkpt><trkpt lat="36.85059963230809" lon="15.02572803017134"><ele>95.0</ele><time>2026-03-28T14:33:42.999Z</time></trkpt><trkpt lat="36.85066967710499" lon="15.025700714446346"><ele>95.0</ele><time>2026-03-28T14:33:43.999Z</time></trkpt><trkpt lat="36.85070299819929" lon="15.025539498987248"><ele>95.0</ele><time>2026-03-28T14:33:45.999Z</time></trkpt><trkpt lat="36.850671444860005" lon="15.025429591686907"><ele>95.0</ele><time>2026-03-28T14:33:46.999Z</time></trkpt><trkpt lat="36.85062465150729" lon="15.02530165810389"><ele>95.0</ele><time>2026-03-28T14:33:47.999Z</time></trkpt><trkpt lat="36.85059581402171" lon="15.025174518824928"><ele>95.0</ele><time>2026-03-28T14:33:48.999Z</time></trkpt><trkpt lat="36.85057948440423" lon="15.025066215874244"><ele>95.0</ele><time>2026-03-28T14:33:49.999Z</time></trkpt><trkpt lat="36.85058583845891" lon="15.02497465734321"><ele>95.0</ele><time>2026-03-28T14:33:50.999Z</time></trkpt><trkpt lat="36.85067697389592" lon="15.02492274879083"><ele>95.0</ele><time>2026-03-28T14:33:52.999Z</time></trkpt><trkpt lat="36.85070235352499" lon="15.02505254252046"><ele>95.0</ele><time>2026-03-28T14:33:54.999Z</time></trkpt><trkpt lat="36.85073190773354" lon="15.025171573285515"><ele>95.0</ele><time>2026-03-28T14:33:55.999Z</time></trkpt><trkpt lat="36.85074996117466" lon="15.025278075421205"><ele>95.0</ele><time>2026-03-28T14:33:56.999Z</time></trkpt><trkpt lat="36.85078708405806" lon="15.025347080279515"><ele>95.0</ele><time>2026-03-28T14:33:57.999Z</time></trkpt><trkpt lat="36.850831121979105" lon="15.025404079854907"><ele>95.0</ele><time>2026-03-28T14:33:58.999Z</time></trkpt><trkpt lat="36.850914547236634" lon="15.02538260187579"><ele>95.0</ele><time>2026-03-28T14:33:59.999Z</time></trkpt><trkpt lat="36.85094094465385" lon="15.025269273426861"><ele>95.0</ele><time>2026-03-28T14:34:00.999Z</time></trkpt><trkpt lat="36.85094965349486" lon="15.025144238106995"><ele>95.0</ele><time>2026-03-28T14:34:01.999Z</time></trkpt><trkpt lat="36.850960727974524" lon="15.025019727070106"><ele>97.66666666666667</ele><time>2026-03-28T14:34:02.999Z</time></trkpt><trkpt lat="36.850985128262906" lon="15.02490612466654"><ele>100.33333333333334</ele><time>2026-03-28T14:34:03.999Z</time></trkpt><trkpt lat="36.851021767293105" lon="15.02480757156009"><ele>103.0</ele><time>2026-03-28T14:34:04.999Z</time></trkpt><trkpt lat="36.851079232551484" lon="15.024746584682227"><ele>105.66666666666667</ele><time>2026-03-28T14:34:05.999Z</time></trkpt><trkpt lat="36.851156144219566" lon="15.024740519703515"><ele>108.33333333333333</ele><time>2026-03-28T14:34:06.998Z</time></trkpt><trkpt lat="36.85123611241093" lon="15.02478270792885"><ele>111.0</ele><time>2026-03-28T14:34:07.998Z</time></trkpt><trkpt lat="36.85129123520922" lon="15.024857106898466"><ele>111.0</ele><time>2026-03-28T14:34:08.998Z</time></trkpt><trkpt lat="36.85130588985403" lon="15.024964302634778"><ele>111.0</ele><time>2026-03-28T14:34:09.998Z</time></trkpt><trkpt lat="36.85131982443774" lon="15.025076888101124"><ele>111.0</ele><time>2026-03-28T14:34:10.998Z</time></trkpt><trkpt lat="36.851343914085405" lon="15.025207954295883"><ele>111.0</ele><time>2026-03-28T14:34:11.998Z</time></trkpt><trkpt lat="36.85137191859937" lon="15.025355206624354"><ele>111.0</ele><time>2026-03-28T14:34:12.998Z</time></trkpt><trkpt lat="36.85139767584347" lon="15.025501620868923"><ele>111.0</ele><time>2026-03-28T14:34:13.998Z</time></trkpt><trkpt lat="36.85142296556067" lon="15.025635474234038"><ele>111.0</ele><time>2026-03-28T14:34:14.998Z</time></trkpt><trkpt lat="36.85144514815605" lon="15.025762514341965"><ele>111.0</ele><time>2026-03-28T14:34:16Z</time></trkpt><trkpt lat="36.85146675726056" lon="15.025873988653776"><ele>111.0</ele><time>2026-03-28T14:34:17Z</time></trkpt><trkpt lat="36.85149462136027" lon="15.02596217683164"><ele>111.0</ele><time>2026-03-28T14:34:18Z</time></trkpt><trkpt lat="36.851593843331905" lon="15.02600525278582"><ele>111.0</ele><time>2026-03-28T14:34:20Z</time></trkpt><trkpt lat="36.85162730197103" lon="15.025923087880372"><ele>111.0</ele><time>2026-03-28T14:34:21Z</time></trkpt><trkpt lat="36.85164743849396" lon="15.025802819412368"><ele>111.0</ele><time>2026-03-28T14:34:22Z</time></trkpt><trkpt lat="36.85166886749382" lon="15.025641199165756"><ele>111.0</ele><time>2026-03-28T14:34:23Z</time></trkpt><trkpt lat="36.85170465944718" lon="15.025468905025557"><ele>111.0</ele><time>2026-03-28T14:34:24Z</time></trkpt><trkpt lat="36.85174170052203" lon="15.025309061792383"><ele>111.0</ele><time>2026-03-28T14:34:25Z</time></trkpt><trkpt lat="36.85177497074718" lon="15.02514231415167"><ele>111.0</ele><time>2026-03-28T14:34:26Z</time></trkpt><trkpt lat="36.85181071573984" lon="15.024985602029457"><ele>111.0</ele><time>2026-03-28T14:34:27Z</time></trkpt><trkpt lat="36.85184635668825" lon="15.024850619457606"><ele>111.0</ele><time>2026-03-28T14:34:28Z</time></trkpt><trkpt lat="36.85188024779086" lon="15.024735884465695"><ele>113.16666666666667</ele><time>2026-03-28T14:34:29Z</time></trkpt><trkpt lat="36.85191628695346" lon="15.024639484812752"><ele>115.33333333333334</ele><time>2026-03-28T14:34:30Z</time></trkpt><trkpt lat="36.851960690720325" lon="15.024554439084621"><ele>117.5</ele><time>2026-03-28T14:34:31Z</time></trkpt><trkpt lat="36.852020381393956" lon="15.024472168076455"><ele>119.66666666666667</ele><time>2026-03-28T14:34:32Z</time></trkpt><trkpt lat="36.8520882351023" lon="15.02440028131885"><ele>121.83333333333334</ele><time>2026-03-28T14:34:33Z</time></trkpt><trkpt lat="36.852162047304" lon="15.024332720566846"><ele>124.0</ele><time>2026-03-28T14:34:34Z</time></trkpt><trkpt lat="36.85224912261147" lon="15.02426640544177"><ele>124.0</ele><time>2026-03-28T14:34:35Z</time></trkpt><trkpt lat="36.852374950432406" lon="15.024211332463516"><ele>124.0</ele><time>2026-03-28T14:34:36Z</time></trkpt><trkpt lat="36.85252630841073" lon="15.02418188351704"><ele>124.0</ele><time>2026-03-28T14:34:37Z</time></trkpt><trkpt lat="36.85267022578654" lon="15.024164367828623"><ele>124.0</ele><time>2026-03-28T14:34:38Z</time></trkpt><trkpt lat="36.85278291855299" lon="15.024146831061753"><ele>124.6</ele><time>2026-03-28T14:34:39Z</time></trkpt><trkpt lat="36.85286171668049" lon="15.024129652437233"><ele>125.2</ele><time>2026-03-28T14:34:40Z</time></trkpt><trkpt lat="36.85294222548085" lon="15.024113947622618"><ele>125.79999999999998</ele><time>2026-03-28T14:34:41Z</time></trkpt><trkpt lat="36.85302728478543" lon="15.024089546876896"><ele>126.39999999999999</ele><time>2026-03-28T14:34:42Z</time></trkpt><trkpt lat="36.853126107142224" lon="15.02404940846262"><ele>127.0</ele><time>2026-03-28T14:34:43Z</time></trkpt><trkpt lat="36.85321523628754" lon="15.023982215923104"><ele>127.0</ele><time>2026-03-28T14:34:44Z</time></trkpt><trkpt lat="36.853302296676404" lon="15.023887631149806"><ele>127.0</ele><time>2026-03-28T14:34:45Z</time></trkpt><trkpt lat="36.85341906836836" lon="15.02381027226483"><ele>127.0</ele><time>2026-03-28T14:34:46Z</time></trkpt><trkpt lat="36.85355469573899" lon="15.02371222780133"><ele>127.0</ele><time>2026-03-28T14:34:47Z</time></trkpt><trkpt lat="36.853704411018036" lon="15.023632039764705"><ele>122.66666666666667</ele><time>2026-03-28T14:34:48Z</time></trkpt><trkpt lat="36.85384892387773" lon="15.023540026163637"><ele>118.33333333333334</ele><time>2026-03-28T14:34:49Z</time></trkpt><trkpt lat="36.85398981231247" lon="15.02344882460818"><ele>114.0</ele><time>2026-03-28T14:34:50Z</time></trkpt><trkpt lat="36.85411994499183" lon="15.023393435370483"><ele>114.0</ele><time>2026-03-28T14:34:51Z</time></trkpt><trkpt lat="36.85425847833266" lon="15.023380874864822"><ele>114.0</ele><time>2026-03-28T14:34:52Z</time></trkpt><trkpt lat="36.85440428326732" lon="15.02340249121443"><ele>114.0</ele><time>2026-03-28T14:34:53Z</time></trkpt><trkpt lat="36.85456147027863" lon="15.023415048118713"><ele>114.0</ele><time>2026-03-28T14:34:54Z</time></trkpt><trkpt lat="36.854726237210585" lon="15.023434831001712"><ele>113.0</ele><time>2026-03-28T14:34:55Z</time></trkpt><trkpt lat="36.8548914427634" lon="15.023476592872449"><ele>112.0</ele><time>2026-03-28T14:34:56Z</time></trkpt><trkpt lat="36.855059501249286" lon="15.02351591136211"><ele>111.0</ele><time>2026-03-28T14:34:57Z</time></trkpt><trkpt lat="36.85523345283673" lon="15.02352349473473"><ele>113.33333333333334</ele><time>2026-03-28T14:34:58Z</time></trkpt><trkpt lat="36.85541200832817" lon="15.023517306278846"><ele>115.66666666666667</ele><time>2026-03-28T14:34:59Z</time></trkpt><trkpt lat="36.85558398130354" lon="15.023503831939486"><ele>118.0</ele><time>2026-03-28T14:35:00Z</time></trkpt><trkpt lat="36.85575734547959" lon="15.023500731743292"><ele>118.0</ele><time>2026-03-28T14:35:01Z</time></trkpt><trkpt lat="36.85592673785546" lon="15.02353199104201"><ele>118.0</ele><time>2026-03-28T14:35:02Z</time></trkpt><trkpt lat="36.85611629631877" lon="15.023585817771803"><ele>118.0</ele><time>2026-03-28T14:35:03Z</time></trkpt><trkpt lat="36.85630232688181" lon="15.023642729698981"><ele>121.0</ele><time>2026-03-28T14:35:04Z</time></trkpt><trkpt lat="36.85649524671579" lon="15.023700562168804"><ele>124.0</ele><time>2026-03-28T14:35:04.999Z</time></trkpt><trkpt lat="36.856683765890295" lon="15.02375339652734"><ele>127.0</ele><time>2026-03-28T14:35:05.999Z</time></trkpt><trkpt lat="36.85687466531566" lon="15.023799829331361"><ele>130.0</ele><time>2026-03-28T14:35:06.999Z</time></trkpt><trkpt lat="36.85705277968367" lon="15.023857009282361"><ele>133.0</ele><time>2026-03-28T14:35:07.999Z</time></trkpt><trkpt lat="36.857214340078656" lon="15.023906720445533"><ele>136.0</ele><time>2026-03-28T14:35:08.999Z</time></trkpt><trkpt lat="36.85736774605828" lon="15.023956074299157"><ele>136.0</ele><time>2026-03-28T14:35:09.999Z</time></trkpt><trkpt lat="36.85750021395351" lon="15.024004037449625"><ele>136.0</ele><time>2026-03-28T14:35:10.999Z</time></trkpt><trkpt lat="36.85762412704463" lon="15.024048310634715"><ele>136.0</ele><time>2026-03-28T14:35:11.999Z</time></trkpt><trkpt lat="36.857756163057246" lon="15.024083698170221"><ele>136.0</ele><time>2026-03-28T14:35:12.999Z</time></trkpt><trkpt lat="36.85790768289189" lon="15.024071189286651"><ele>138.0</ele><time>2026-03-28T14:35:13.999Z</time></trkpt><trkpt lat="36.85806993599348" lon="15.024034632275066"><ele>140.0</ele><time>2026-03-28T14:35:14.999Z</time></trkpt><trkpt lat="36.85822748794224" lon="15.024017086231886"><ele>142.0</ele><time>2026-03-28T14:35:15.999Z</time></trkpt><trkpt lat="36.85836828074083" lon="15.024013871269858"><ele>141.0</ele><time>2026-03-28T14:35:16.999Z</time></trkpt><trkpt lat="36.85850074181857" lon="15.0239830129701"><ele>140.0</ele><time>2026-03-28T14:35:17.999Z</time></trkpt><trkpt lat="36.85863373787617" lon="15.023922840477608"><ele>139.0</ele><time>2026-03-28T14:35:18.999Z</time></trkpt><trkpt lat="36.85876767546563" lon="15.02384533126108"><ele>138.0</ele><time>2026-03-28T14:35:19.999Z</time></trkpt><trkpt lat="36.85889035831184" lon="15.023772959011552"><ele>138.0</ele><time>2026-03-28T14:35:20.999Z</time></trkpt><trkpt lat="36.85900835691865" lon="15.023712257896262"><ele>138.0</ele><time>2026-03-28T14:35:21.999Z</time></trkpt><trkpt lat="36.85912616611194" lon="15.023669806044122"><ele>138.0</ele><time>2026-03-28T14:35:22.999Z</time></trkpt><trkpt lat="36.85924556850006" lon="15.023646160770815"><ele>138.0</ele><time>2026-03-28T14:35:23.999Z</time></trkpt><trkpt lat="36.85937040764185" lon="15.023653948982595"><ele>139.5</ele><time>2026-03-28T14:35:24.999Z</time></trkpt><trkpt lat="36.859492493338244" lon="15.02370375589315"><ele>141.0</ele><time>2026-03-28T14:35:25.999Z</time></trkpt><trkpt lat="36.8596189755546" lon="15.02376773394471"><ele>142.5</ele><time>2026-03-28T14:35:26.999Z</time></trkpt><trkpt lat="36.859755897061824" lon="15.02382625075579"><ele>144.0</ele><time>2026-03-28T14:35:27.999Z</time></trkpt><trkpt lat="36.85989660784355" lon="15.023880534843506"><ele>144.0</ele><time>2026-03-28T14:35:28.999Z</time></trkpt><trkpt lat="36.860030843122914" lon="15.023930390572856"><ele>144.0</ele><time>2026-03-28T14:35:29.999Z</time></trkpt><trkpt lat="36.86015762928669" lon="15.023967729738594"><ele>144.0</ele><time>2026-03-28T14:35:30.999Z</time></trkpt><trkpt lat="36.86027431137802" lon="15.023986907379602"><ele>144.0</ele><time>2026-03-28T14:35:31.999Z</time></trkpt><trkpt lat="36.86038880223416" lon="15.02399019431648"><ele>143.0</ele><time>2026-03-28T14:35:32.999Z</time></trkpt><trkpt lat="36.860505911466625" lon="15.02398242954674"><ele>142.0</ele><time>2026-03-28T14:35:33.999Z</time></trkpt><trkpt lat="36.86063262740851" lon="15.023967076561464"><ele>141.0</ele><time>2026-03-28T14:35:34.999Z</time></trkpt><trkpt lat="36.86075390534634" lon="15.02395618138088"><ele>140.0</ele><time>2026-03-28T14:35:35.999Z</time></trkpt><trkpt lat="36.86087005341355" lon="15.023961086315405"><ele>137.0</ele><time>2026-03-28T14:35:36.999Z</time></trkpt><trkpt lat="36.860989584279395" lon="15.023993354913149"><ele>134.0</ele><time>2026-03-28T14:35:37.999Z</time></trkpt><trkpt lat="36.86109953195525" lon="15.024035221156408"><ele>131.0</ele><time>2026-03-28T14:35:38.999Z</time></trkpt><trkpt lat="36.861211935727596" lon="15.02408515741203"><ele>128.0</ele><time>2026-03-28T14:35:39.999Z</time></trkpt><trkpt lat="36.86134022460947" lon="15.024146662689446"><ele>128.0</ele><time>2026-03-28T14:35:40.999Z</time></trkpt><trkpt lat="36.861481662012224" lon="15.02421466132728"><ele>128.0</ele><time>2026-03-28T14:35:41.999Z</time></trkpt><trkpt lat="36.86161836311032" lon="15.024282956037053"><ele>128.0</ele><time>2026-03-28T14:35:42.999Z</time></trkpt><trkpt lat="36.86175847357635" lon="15.02433711418696"><ele>128.0</ele><time>2026-03-28T14:35:43.999Z</time></trkpt><trkpt lat="36.861889279532406" lon="15.024393492493688"><ele>127.25</ele><time>2026-03-28T14:35:44.999Z</time></trkpt><trkpt lat="36.8620223139551" lon="15.02441713380524"><ele>126.5</ele><time>2026-03-28T14:35:45.999Z</time></trkpt><trkpt lat="36.86214733345744" lon="15.02441527681978"><ele>125.75</ele><time>2026-03-28T14:35:46.999Z</time></trkpt><trkpt lat="36.86226984269973" lon="15.024401327484115"><ele>125.0</ele><time>2026-03-28T14:35:47.999Z</time></trkpt><trkpt lat="36.862386694755806" lon="15.024385714046973"><ele>124.99999999999999</ele><time>2026-03-28T14:35:48.999Z</time></trkpt><trkpt lat="36.86249044231018" lon="15.024365533252162"><ele>125.0</ele><time>2026-03-28T14:35:49.999Z</time></trkpt><trkpt lat="36.86257233539382" lon="15.024346978201923"><ele>125.0</ele><time>2026-03-28T14:35:50.999Z</time></trkpt><trkpt lat="36.86264114160374" lon="15.024336842186248"><ele>125.0</ele><time>2026-03-28T14:35:51.999Z</time></trkpt><trkpt lat="36.86271761467841" lon="15.024336927632426"><ele>124.99999999999999</ele><time>2026-03-28T14:35:54.999Z</time></trkpt><trkpt lat="36.862784820635135" lon="15.024292209433074"><ele>125.0</ele><time>2026-03-28T14:36:02.999Z</time></trkpt><trkpt lat="36.86289357032669" lon="15.024374039078785"><ele>125.5</ele><time>2026-03-28T14:36:03.999Z</time></trkpt><trkpt lat="36.86298778946992" lon="15.024402226383827"><ele>126.0</ele><time>2026-03-28T14:36:04.999Z</time></trkpt><trkpt lat="36.863112808061146" lon="15.024441369280325"><ele>126.5</ele><time>2026-03-28T14:36:05.999Z</time></trkpt><trkpt lat="36.863290350508876" lon="15.024476543510556"><ele>127.0</ele><time>2026-03-28T14:36:06.999Z</time></trkpt><trkpt lat="36.86347668966905" lon="15.02447670057866"><ele>129.0</ele><time>2026-03-28T14:36:07.999Z</time></trkpt><trkpt lat="36.86365883198703" lon="15.02444063695622"><ele>131.0</ele><time>2026-03-28T14:36:08.999Z</time></trkpt><trkpt lat="36.86385546291408" lon="15.024401014396704"><ele>133.0</ele><time>2026-03-28T14:36:09.998Z</time></trkpt><trkpt lat="36.86401562947783" lon="15.024364231773665"><ele>133.0</ele><time>2026-03-28T14:36:10.998Z</time></trkpt><trkpt lat="36.86413671188731" lon="15.024333929610856"><ele>133.0</ele><time>2026-03-28T14:36:11.998Z</time></trkpt><trkpt lat="36.86449438673183" lon="15.024237826956856"><ele>133.0</ele><time>2026-03-28T14:36:12.998Z</time></trkpt><trkpt lat="36.86469848387679" lon="15.024182314195563"><ele>133.0</ele><time>2026-03-28T14:36:13.998Z</time></trkpt><trkpt lat="36.86488523155306" lon="15.024134288281621"><ele>133.0</ele><time>2026-03-28T14:36:14.998Z</time></trkpt><trkpt lat="36.86505762288271" lon="15.024094874105598"><ele>136.0</ele><time>2026-03-28T14:36:15.998Z</time></trkpt><trkpt lat="36.86521171517757" lon="15.024058596045352"><ele>139.0</ele><time>2026-03-28T14:36:16.998Z</time></trkpt><trkpt lat="36.86535689553099" lon="15.024032970217146"><ele>142.0</ele><time>2026-03-28T14:36:17.998Z</time></trkpt><trkpt lat="36.86549829474378" lon="15.024019081808511"><ele>145.0</ele><time>2026-03-28T14:36:18.998Z</time></trkpt><trkpt lat="36.86563799871814" lon="15.024054886176923"><ele>145.0</ele><time>2026-03-28T14:36:19.998Z</time></trkpt><trkpt lat="36.865765315923085" lon="15.024087000805615"><ele>145.0</ele><time>2026-03-28T14:36:20.998Z</time></trkpt><trkpt lat="36.865886068515856" lon="15.02411673754518"><ele>145.0</ele><time>2026-03-28T14:36:22Z</time></trkpt><trkpt lat="36.865987186509244" lon="15.02418552705692"><ele>145.0</ele><time>2026-03-28T14:36:23Z</time></trkpt><trkpt lat="36.86608058655348" lon="15.0242460522068"><ele>144.2</ele><time>2026-03-28T14:36:24Z</time></trkpt><trkpt lat="36.86617028487096" lon="15.024302399990972"><ele>143.4</ele><time>2026-03-28T14:36:25Z</time></trkpt><trkpt lat="36.866258289254525" lon="15.024347998717555"><ele>142.6</ele><time>2026-03-28T14:36:26Z</time></trkpt><trkpt lat="36.86633804902467" lon="15.024410987049068"><ele>141.8</ele><time>2026-03-28T14:36:27Z</time></trkpt><trkpt lat="36.86646073791112" lon="15.024369493620883"><ele>141.0</ele><time>2026-03-28T14:36:28Z</time></trkpt><trkpt lat="36.86657039517014" lon="15.024363819226501"><ele>141.0</ele><time>2026-03-28T14:36:29Z</time></trkpt><trkpt lat="36.866671882151806" lon="15.024351453380202"><ele>141.0</ele><time>2026-03-28T14:36:30Z</time></trkpt><trkpt lat="36.86677867052352" lon="15.024346009135218"><ele>141.0</ele><time>2026-03-28T14:36:31Z</time></trkpt><trkpt lat="36.86689978843018" lon="15.024348908057915"><ele>141.0</ele><time>2026-03-28T14:36:32Z</time></trkpt><trkpt lat="36.86702680483358" lon="15.024341638520225"><ele>139.75</ele><time>2026-03-28T14:36:33Z</time></trkpt><trkpt lat="36.86715923588446" lon="15.02431023600225"><ele>138.5</ele><time>2026-03-28T14:36:34Z</time></trkpt><trkpt lat="36.86730759237854" lon="15.024275739690994"><ele>137.25</ele><time>2026-03-28T14:36:35Z</time></trkpt><trkpt lat="36.86745444192992" lon="15.02423939423021"><ele>136.0</ele><time>2026-03-28T14:36:36Z</time></trkpt><trkpt lat="36.86761803614405" lon="15.02420786702435"><ele>136.33333333333334</ele><time>2026-03-28T14:36:37Z</time></trkpt><trkpt lat="36.86777240777188" lon="15.024172730557838"><ele>136.66666666666666</ele><time>2026-03-28T14:36:38Z</time></trkpt><trkpt lat="36.86792673098099" lon="15.024147758232731"><ele>137.0</ele><time>2026-03-28T14:36:39Z</time></trkpt><trkpt lat="36.86809659103509" lon="15.024103076857983"><ele>137.0</ele><time>2026-03-28T14:36:40Z</time></trkpt><trkpt lat="36.86826729016595" lon="15.024059152135912"><ele>137.0</ele><time>2026-03-28T14:36:41Z</time></trkpt><trkpt lat="36.868433348344645" lon="15.024016438622596"><ele>137.0</ele><time>2026-03-28T14:36:42Z</time></trkpt><trkpt lat="36.86858604745523" lon="15.02398137063868"><ele>135.0</ele><time>2026-03-28T14:36:43Z</time></trkpt><trkpt lat="36.868729736395935" lon="15.02394834786831"><ele>133.0</ele><time>2026-03-28T14:36:44Z</time></trkpt><trkpt lat="36.86887041676655" lon="15.02395524719834"><ele>131.0</ele><time>2026-03-28T14:36:45Z</time></trkpt><trkpt lat="36.86899518955879" lon="15.023977534781626"><ele>129.0</ele><time>2026-03-28T14:36:46Z</time></trkpt><trkpt lat="36.86910984603433" lon="15.024032028437299"><ele>129.0</ele><time>2026-03-28T14:36:47Z</time></trkpt><trkpt lat="36.86920773123534" lon="15.024079775200295"><ele>129.0</ele><time>2026-03-28T14:36:48Z</time></trkpt><trkpt lat="36.86927747905355" lon="15.024145589138838"><ele>129.0</ele><time>2026-03-28T14:36:49Z</time></trkpt><trkpt lat="36.86933480772769" lon="15.024227584734769"><ele>129.0</ele><time>2026-03-28T14:36:51Z</time></trkpt><trkpt lat="36.869452673596314" lon="15.024054601887634"><ele>130.0</ele><time>2026-03-28T14:36:54Z</time></trkpt><trkpt lat="36.86954724361586" lon="15.023945352323501"><ele>131.0</ele><time>2026-03-28T14:36:56Z</time></trkpt><trkpt lat="36.86963716818092" lon="15.023923860327233"><ele>132.0</ele><time>2026-03-28T14:36:57Z</time></trkpt><trkpt lat="36.869740878114925" lon="15.0239508462853"><ele>133.0</ele><time>2026-03-28T14:36:58Z</time></trkpt><trkpt lat="36.86983053262838" lon="15.023969492051638"><ele>134.0</ele><time>2026-03-28T14:36:59Z</time></trkpt><trkpt lat="36.86991288954402" lon="15.023917903443458"><ele>134.0</ele><time>2026-03-28T14:37:00Z</time></trkpt><trkpt lat="36.869968567064305" lon="15.023812678747714"><ele>134.0</ele><time>2026-03-28T14:37:01Z</time></trkpt><trkpt lat="36.870045636098865" lon="15.023686599920563"><ele>134.0</ele><time>2026-03-28T14:37:02Z</time></trkpt><trkpt lat="36.87011829795849" lon="15.023548131079853"><ele>134.0</ele><time>2026-03-28T14:37:03Z</time></trkpt><trkpt lat="36.8701855886819" lon="15.02341989783206"><ele>136.25</ele><time>2026-03-28T14:37:04Z</time></trkpt><trkpt lat="36.870235322976036" lon="15.023287566598201"><ele>138.5</ele><time>2026-03-28T14:37:05Z</time></trkpt><trkpt lat="36.87030713687275" lon="15.023170928337015"><ele>140.75</ele><time>2026-03-28T14:37:06Z</time></trkpt><trkpt lat="36.870364601424406" lon="15.023044290693015"><ele>143.0</ele><time>2026-03-28T14:37:07Z</time></trkpt><trkpt lat="36.87043740861179" lon="15.022915479820048"><ele>143.0</ele><time>2026-03-28T14:37:08Z</time></trkpt><trkpt lat="36.870507571431" lon="15.022777309484454"><ele>143.0</ele><time>2026-03-28T14:37:09Z</time></trkpt><trkpt lat="36.87058330032846" lon="15.02264006881888"><ele>143.0</ele><time>2026-03-28T14:37:09.999Z</time></trkpt><trkpt lat="36.87066066052855" lon="15.022494578845007"><ele>143.0</ele><time>2026-03-28T14:37:10.999Z</time></trkpt><trkpt lat="36.87073767269257" lon="15.022345195001298"><ele>142.75</ele><time>2026-03-28T14:37:11.999Z</time></trkpt><trkpt lat="36.87082361349693" lon="15.022197652936464"><ele>142.5</ele><time>2026-03-28T14:37:12.999Z</time></trkpt><trkpt lat="36.8709058925815" lon="15.022048999074661"><ele>142.25</ele><time>2026-03-28T14:37:13.999Z</time></trkpt><trkpt lat="36.870987424419376" lon="15.021898951910229"><ele>142.0</ele><time>2026-03-28T14:37:14.999Z</time></trkpt><trkpt lat="36.87106240623485" lon="15.021764231264086"><ele>145.0</ele><time>2026-03-28T14:37:15.999Z</time></trkpt><trkpt lat="36.871124940315" lon="15.02164290220589"><ele>148.0</ele><time>2026-03-28T14:37:16.999Z</time></trkpt><trkpt lat="36.87116592197431" lon="15.02151815554118"><ele>151.0</ele><time>2026-03-28T14:37:17.999Z</time></trkpt><trkpt lat="36.87117736979074" lon="15.021378968603658"><ele>154.0</ele><time>2026-03-28T14:37:18.999Z</time></trkpt><trkpt lat="36.87117998398694" lon="15.021242587084345"><ele>157.0</ele><time>2026-03-28T14:37:19.999Z</time></trkpt><trkpt lat="36.87119020274241" lon="15.021142186964642"><ele>157.0</ele><time>2026-03-28T14:37:20.999Z</time></trkpt><trkpt lat="36.87127729348757" lon="15.021050150565237"><ele>157.0</ele><time>2026-03-28T14:37:22.999Z</time></trkpt><trkpt lat="36.87136763903134" lon="15.02107058284934"><ele>157.0</ele><time>2026-03-28T14:37:23.999Z</time></trkpt><trkpt lat="36.87147051212243" lon="15.021048578499018"><ele>157.0</ele><time>2026-03-28T14:37:24.999Z</time></trkpt><trkpt lat="36.87159606658672" lon="15.021030926193225"><ele>157.0</ele><time>2026-03-28T14:37:25.999Z</time></trkpt><trkpt lat="36.87174118629331" lon="15.021005160865041"><ele>156.5</ele><time>2026-03-28T14:37:26.999Z</time></trkpt><trkpt lat="36.87188367685816" lon="15.020989915605476"><ele>156.0</ele><time>2026-03-28T14:37:27.999Z</time></trkpt><trkpt lat="36.872007419829984" lon="15.02096153598601"><ele>155.5</ele><time>2026-03-28T14:37:28.999Z</time></trkpt><trkpt lat="36.8721174154121" lon="15.020915564678905"><ele>155.0</ele><time>2026-03-28T14:37:29.999Z</time></trkpt><trkpt lat="36.87222070380309" lon="15.02083858754228"><ele>155.5</ele><time>2026-03-28T14:37:30.999Z</time></trkpt><trkpt lat="36.87234719205015" lon="15.020783836032662"><ele>156.0</ele><time>2026-03-28T14:37:31.999Z</time></trkpt><trkpt lat="36.87247197566068" lon="15.020746587203734"><ele>156.5</ele><time>2026-03-28T14:37:32.999Z</time></trkpt><trkpt lat="36.87261232728287" lon="15.020754586580884"><ele>157.0</ele><time>2026-03-28T14:37:33.999Z</time></trkpt><trkpt lat="36.8727501798945" lon="15.02073205063517"><ele>157.0</ele><time>2026-03-28T14:37:34.999Z</time></trkpt><trkpt lat="36.87289504516529" lon="15.020721783177436"><ele>157.0</ele><time>2026-03-28T14:37:35.999Z</time></trkpt><trkpt lat="36.87304340760314" lon="15.020714909095604"><ele>157.0</ele><time>2026-03-28T14:37:36.999Z</time></trkpt><trkpt lat="36.87319978199906" lon="15.020686096474511"><ele>157.0</ele><time>2026-03-28T14:37:37.999Z</time></trkpt><trkpt lat="36.873348104609896" lon="15.020641748123644"><ele>157.0</ele><time>2026-03-28T14:37:38.999Z</time></trkpt><trkpt lat="36.873483789103155" lon="15.020581765133771"><ele>157.0</ele><time>2026-03-28T14:37:39.999Z</time></trkpt><trkpt lat="36.873613501079056" lon="15.020514815352676"><ele>157.0</ele><time>2026-03-28T14:37:40.999Z</time></trkpt><trkpt lat="36.8737339720518" lon="15.02044039358213"><ele>155.25</ele><time>2026-03-28T14:37:41.999Z</time></trkpt><trkpt lat="36.873846627360344" lon="15.020368213585261"><ele>153.5</ele><time>2026-03-28T14:37:42.999Z</time></trkpt><trkpt lat="36.87395489997657" lon="15.02029015411698"><ele>151.75</ele><time>2026-03-28T14:37:43.999Z</time></trkpt><trkpt lat="36.87406975909255" lon="15.0202021603355"><ele>150.0</ele><time>2026-03-28T14:37:44.999Z</time></trkpt><trkpt lat="36.874194358272256" lon="15.02013657577014"><ele>150.5</ele><time>2026-03-28T14:37:45.999Z</time></trkpt><trkpt lat="36.874312435143615" lon="15.02006281728243"><ele>151.0</ele><time>2026-03-28T14:37:46.999Z</time></trkpt><trkpt lat="36.874425715754995" lon="15.020002192487324"><ele>151.5</ele><time>2026-03-28T14:37:47.999Z</time></trkpt><trkpt lat="36.874529524514315" lon="15.019968181143916"><ele>152.0</ele><time>2026-03-28T14:37:48.999Z</time></trkpt><trkpt lat="36.87462810969378" lon="15.019950004914442"><ele>152.0</ele><time>2026-03-28T14:37:49.999Z</time></trkpt><trkpt lat="36.87474096422311" lon="15.019933926008967"><ele>152.0</ele><time>2026-03-28T14:37:50.999Z</time></trkpt><trkpt lat="36.874863617261326" lon="15.019941322762522"><ele>152.0</ele><time>2026-03-28T14:37:51.999Z</time></trkpt><trkpt lat="36.87498085862955" lon="15.019942070618077"><ele>152.0</ele><time>2026-03-28T14:37:52.999Z</time></trkpt><trkpt lat="36.875111162926245" lon="15.019945712889179"><ele>152.25</ele><time>2026-03-28T14:37:53.999Z</time></trkpt><trkpt lat="36.87524103140403" lon="15.019946979896615"><ele>152.5</ele><time>2026-03-28T14:37:54.999Z</time></trkpt><trkpt lat="36.87538085969546" lon="15.019952056071826"><ele>152.75</ele><time>2026-03-28T14:37:55.999Z</time></trkpt><trkpt lat="36.875511902150855" lon="15.019963520906686"><ele>153.0</ele><time>2026-03-28T14:37:56.999Z</time></trkpt><trkpt lat="36.87563969222015" lon="15.01996687812657"><ele>153.0</ele><time>2026-03-28T14:37:57.999Z</time></trkpt><trkpt lat="36.87575549385992" lon="15.019964825768367"><ele>153.0</ele><time>2026-03-28T14:37:58.999Z</time></trkpt><trkpt lat="36.87585621341517" lon="15.019953933317401"><ele>153.0</ele><time>2026-03-28T14:37:59.999Z</time></trkpt><trkpt lat="36.87594257356108" lon="15.019964858562851"><ele>153.0</ele><time>2026-03-28T14:38:00.999Z</time></trkpt><trkpt lat="36.87602942811044" lon="15.01998083162484"><ele>153.0</ele><time>2026-03-28T14:38:01.999Z</time></trkpt><trkpt lat="36.87612020980497" lon="15.019994592262089"><ele>151.5</ele><time>2026-03-28T14:38:02.999Z</time></trkpt><trkpt lat="36.87620689565093" lon="15.02003427363535"><ele>150.0</ele><time>2026-03-28T14:38:03.999Z</time></trkpt><trkpt lat="36.87627723981179" lon="15.020099840066221"><ele>148.5</ele><time>2026-03-28T14:38:04.999Z</time></trkpt><trkpt lat="36.87634655101727" lon="15.020130879072488"><ele>147.0</ele><time>2026-03-28T14:38:05.999Z</time></trkpt><trkpt lat="36.8764229590313" lon="15.020174623404673"><ele>145.5</ele><time>2026-03-28T14:38:06.999Z</time></trkpt><trkpt lat="36.87652749131888" lon="15.020196997932741"><ele>144.0</ele><time>2026-03-28T14:38:07.999Z</time></trkpt><trkpt lat="36.8766613225524" lon="15.020232016680385"><ele>142.25</ele><time>2026-03-28T14:38:08.999Z</time></trkpt><trkpt lat="36.87678500624512" lon="15.02025474571449"><ele>140.5</ele><time>2026-03-28T14:38:09.999Z</time></trkpt><trkpt lat="36.876904526583715" lon="15.0202754375407"><ele>138.75</ele><time>2026-03-28T14:38:10.999Z</time></trkpt><trkpt lat="36.87702125072412" lon="15.020280293156757"><ele>137.0</ele><time>2026-03-28T14:38:11.999Z</time></trkpt><trkpt lat="36.87713706101548" lon="15.02031134189022"><ele>137.0</ele><time>2026-03-28T14:38:12.999Z</time></trkpt><trkpt lat="36.87724785159088" lon="15.020320317867297"><ele>137.0</ele><time>2026-03-28T14:38:13.998Z</time></trkpt><trkpt lat="36.87736891919645" lon="15.020327345303935"><ele>137.0</ele><time>2026-03-28T14:38:14.998Z</time></trkpt><trkpt lat="36.877460451704536" lon="15.02035340035804"><ele>137.0</ele><time>2026-03-28T14:38:15.998Z</time></trkpt><trkpt lat="36.877567593464605" lon="15.020381718473795"><ele>137.0</ele><time>2026-03-28T14:38:16.998Z</time></trkpt><trkpt lat="36.877669991251366" lon="15.020411025025025"><ele>136.66666666666666</ele><time>2026-03-28T14:38:17.998Z</time></trkpt><trkpt lat="36.87776325845742" lon="15.020433233409918"><ele>136.33333333333331</ele><time>2026-03-28T14:38:18.998Z</time></trkpt><trkpt lat="36.87784659269193" lon="15.020448123487075"><ele>136.0</ele><time>2026-03-28T14:38:19.998Z</time></trkpt><trkpt lat="36.87792876394727" lon="15.020459647455622"><ele>135.66666666666666</ele><time>2026-03-28T14:38:20.998Z</time></trkpt><trkpt lat="36.87800207645784" lon="15.020501485571968"><ele>135.33333333333334</ele><time>2026-03-28T14:38:21.998Z</time></trkpt><trkpt lat="36.8780769393649" lon="15.020524149512687"><ele>135.0</ele><time>2026-03-28T14:38:22.998Z</time></trkpt><trkpt lat="36.878147998007194" lon="15.020546552435436"><ele>135.0</ele><time>2026-03-28T14:38:23.998Z</time></trkpt><trkpt lat="36.87821229675855" lon="15.02056714898704"><ele>135.0</ele><time>2026-03-28T14:38:24.998Z</time></trkpt><trkpt lat="36.87827408762535" lon="15.020586942190652"><ele>135.0</ele><time>2026-03-28T14:38:25.998Z</time></trkpt><trkpt lat="36.878391375383515" lon="15.020628771738492"><ele>135.0</ele><time>2026-03-28T14:38:28Z</time></trkpt><trkpt lat="36.87845663055557" lon="15.020651940926884"><ele>135.0</ele><time>2026-03-28T14:38:29Z</time></trkpt><trkpt lat="36.87855708180646" lon="15.02068908026768"><ele>135.0</ele><time>2026-03-28T14:38:31Z</time></trkpt><trkpt lat="36.87864540403569" lon="15.02072891047707"><ele>135.0</ele><time>2026-03-28T14:38:34Z</time></trkpt><trkpt lat="36.87871245523807" lon="15.020772796984069"><ele>135.0</ele><time>2026-03-28T14:38:36Z</time></trkpt><trkpt lat="36.878794289270324" lon="15.020812266111383"><ele>135.0</ele><time>2026-03-28T14:38:39Z</time></trkpt><trkpt lat="36.878881938981515" lon="15.020892694151788"><ele>135.0</ele><time>2026-03-28T14:38:41Z</time></trkpt><trkpt lat="36.87899278968891" lon="15.020924663155348"><ele>135.0</ele><time>2026-03-28T14:38:43Z</time></trkpt><trkpt lat="36.87903797309266" lon="15.020986837154975"><ele>135.0</ele><time>2026-03-28T14:38:44Z</time></trkpt><trkpt lat="36.87909440209836" lon="15.021064555168552"><ele>135.0</ele><time>2026-03-28T14:38:45Z</time></trkpt><trkpt lat="36.87917203545186" lon="15.021138727302528"><ele>135.0</ele><time>2026-03-28T14:38:46Z</time></trkpt><trkpt lat="36.87927456994611" lon="15.021226299555957"><ele>135.0</ele><time>2026-03-28T14:38:47Z</time></trkpt><trkpt lat="36.87933238660713" lon="15.02127888544504"><ele>135.0</ele><time>2026-03-28T14:38:48Z</time></trkpt><trkpt lat="36.87943055605877" lon="15.021344938417096"><ele>135.33333333333334</ele><time>2026-03-28T14:38:50Z</time></trkpt><trkpt lat="36.879498683920495" lon="15.021427053193944"><ele>135.66666666666666</ele><time>2026-03-28T14:38:52Z</time></trkpt><trkpt lat="36.879542767378105" lon="15.021490860196"><ele>136.0</ele><time>2026-03-28T14:38:53Z</time></trkpt><trkpt lat="36.87960931282244" lon="15.021530268536669"><ele>136.33333333333331</ele><time>2026-03-28T14:38:54Z</time></trkpt><trkpt lat="36.879683379109636" lon="15.021577685347884"><ele>136.66666666666666</ele><time>2026-03-28T14:38:55Z</time></trkpt><trkpt lat="36.87975017602005" lon="15.021627333257205"><ele>137.0</ele><time>2026-03-28T14:38:56Z</time></trkpt><trkpt lat="36.879826340532134" lon="15.021685012061461"><ele>137.2</ele><time>2026-03-28T14:38:57Z</time></trkpt><trkpt lat="36.879901366622" lon="15.021738534153991"><ele>137.39999999999998</ele><time>2026-03-28T14:38:58Z</time></trkpt><trkpt lat="36.879977261691316" lon="15.021792371579188"><ele>137.60000000000002</ele><time>2026-03-28T14:38:59Z</time></trkpt><trkpt lat="36.880045482307466" lon="15.021847978226306"><ele>137.8</ele><time>2026-03-28T14:39:00Z</time></trkpt><trkpt lat="36.88012895208595" lon="15.021912734742603"><ele>138.0</ele><time>2026-03-28T14:39:01Z</time></trkpt><trkpt lat="36.88021734695231" lon="15.021981028559654"><ele>138.33333333333334</ele><time>2026-03-28T14:39:02Z</time></trkpt><trkpt lat="36.88030635891842" lon="15.022048970461817"><ele>138.66666666666666</ele><time>2026-03-28T14:39:03Z</time></trkpt><trkpt lat="36.88038907731542" lon="15.022101118557746"><ele>139.0</ele><time>2026-03-28T14:39:04Z</time></trkpt><trkpt lat="36.880461510815245" lon="15.022166605458839"><ele>139.33333333333331</ele><time>2026-03-28T14:39:05Z</time></trkpt><trkpt lat="36.88052529210429" lon="15.02222111249643"><ele>139.66666666666666</ele><time>2026-03-28T14:39:06Z</time></trkpt><trkpt lat="36.88058276326838" lon="15.022261397591945"><ele>140.0</ele><time>2026-03-28T14:39:07Z</time></trkpt><trkpt lat="36.88064704834878" lon="15.022301810976016"><ele>140.0</ele><time>2026-03-28T14:39:08Z</time></trkpt><trkpt lat="36.880703402604254" lon="15.022353071518113"><ele>140.0</ele><time>2026-03-28T14:39:09Z</time></trkpt><trkpt lat="36.88077986587799" lon="15.022397653249188"><ele>140.0</ele><time>2026-03-28T14:39:10Z</time></trkpt><trkpt lat="36.88085126555755" lon="15.022453468231657"><ele>140.0</ele><time>2026-03-28T14:39:11Z</time></trkpt><trkpt lat="36.880927902544336" lon="15.022521806911826"><ele>140.0</ele><time>2026-03-28T14:39:12Z</time></trkpt><trkpt lat="36.880994756476696" lon="15.022593649213567"><ele>140.0</ele><time>2026-03-28T14:39:13Z</time></trkpt><trkpt lat="36.88105564517742" lon="15.02265804139259"><ele>140.33333333333331</ele><time>2026-03-28T14:39:14Z</time></trkpt><trkpt lat="36.881119566241324" lon="15.022736266850245"><ele>140.66666666666666</ele><time>2026-03-28T14:39:14.999Z</time></trkpt><trkpt lat="36.88117894886847" lon="15.022799944177999"><ele>141.0</ele><time>2026-03-28T14:39:15.999Z</time></trkpt><trkpt lat="36.88124662799338" lon="15.022876108479794"><ele>141.33333333333334</ele><time>2026-03-28T14:39:16.999Z</time></trkpt><trkpt lat="36.8813167722705" lon="15.022933532424576"><ele>141.66666666666669</ele><time>2026-03-28T14:39:17.999Z</time></trkpt><trkpt lat="36.8813783982924" lon="15.022987050591114"><ele>142.0</ele><time>2026-03-28T14:39:18.999Z</time></trkpt><trkpt lat="36.88143393939126" lon="15.023050502825228"><ele>142.0</ele><time>2026-03-28T14:39:19.999Z</time></trkpt><trkpt lat="36.88149373373572" lon="15.023118902175094"><ele>142.0</ele><time>2026-03-28T14:39:20.999Z</time></trkpt><trkpt lat="36.88155283260138" lon="15.023185889145857"><ele>142.0</ele><time>2026-03-28T14:39:21.999Z</time></trkpt><trkpt lat="36.881630075781544" lon="15.023276838975542"><ele>142.0</ele><time>2026-03-28T14:39:22.999Z</time></trkpt><trkpt lat="36.881724136647634" lon="15.023380086843195"><ele>142.0</ele><time>2026-03-28T14:39:23.999Z</time></trkpt><trkpt lat="36.88182811818922" lon="15.023485728914649"><ele>143.75</ele><time>2026-03-28T14:39:24.999Z</time></trkpt><trkpt lat="36.88192229045976" lon="15.023581426995039"><ele>145.5</ele><time>2026-03-28T14:39:25.999Z</time></trkpt><trkpt lat="36.88202519560961" lon="15.023659244531316"><ele>147.25</ele><time>2026-03-28T14:39:26.999Z</time></trkpt><trkpt lat="36.882158151889044" lon="15.023711102798574"><ele>149.0</ele><time>2026-03-28T14:39:27.999Z</time></trkpt><trkpt lat="36.88233116950577" lon="15.023756892402563"><ele>149.0</ele><time>2026-03-28T14:39:28.999Z</time></trkpt><trkpt lat="36.882489324754786" lon="15.023798626672757"><ele>149.0</ele><time>2026-03-28T14:39:29.999Z</time></trkpt><trkpt lat="36.882638678152055" lon="15.023810728484982"><ele>149.0</ele><time>2026-03-28T14:39:30.999Z</time></trkpt><trkpt lat="36.88277528532686" lon="15.023774735762803"><ele>152.0</ele><time>2026-03-28T14:39:31.999Z</time></trkpt><trkpt lat="36.882951480874986" lon="15.023738712226802"><ele>155.0</ele><time>2026-03-28T14:39:32.999Z</time></trkpt><trkpt lat="36.883139877213495" lon="15.023705668415111"><ele>158.0</ele><time>2026-03-28T14:39:33.999Z</time></trkpt><trkpt lat="36.883282860467034" lon="15.02364532831642"><ele>158.0</ele><time>2026-03-28T14:39:34.999Z</time></trkpt><trkpt lat="36.88340875754842" lon="15.023583689499894"><ele>158.0</ele><time>2026-03-28T14:39:35.999Z</time></trkpt><trkpt lat="36.88351082143741" lon="15.023587428164449"><ele>158.0</ele><time>2026-03-28T14:39:36.999Z</time></trkpt><trkpt lat="36.88361053699515" lon="15.023600195691891"><ele>158.0</ele><time>2026-03-28T14:39:37.999Z</time></trkpt><trkpt lat="36.88371074165951" lon="15.023645451912575"><ele>158.0</ele><time>2026-03-28T14:39:38.999Z</time></trkpt><trkpt lat="36.88381009166061" lon="15.023699584371517"><ele>160.25</ele><time>2026-03-28T14:39:39.999Z</time></trkpt><trkpt lat="36.883917516834124" lon="15.023797600347315"><ele>162.5</ele><time>2026-03-28T14:39:40.999Z</time></trkpt><trkpt lat="36.88402114664317" lon="15.023882209750285"><ele>164.75</ele><time>2026-03-28T14:39:41.999Z</time></trkpt><trkpt lat="36.88413005115083" lon="15.023964588776408"><ele>167.0</ele><time>2026-03-28T14:39:42.999Z</time></trkpt><trkpt lat="36.88423122828314" lon="15.02404041814932"><ele>169.16666666666666</ele><time>2026-03-28T14:39:43.999Z</time></trkpt><trkpt lat="36.88431860967937" lon="15.024100943596011"><ele>171.33333333333331</ele><time>2026-03-28T14:39:44.999Z</time></trkpt><trkpt lat="36.88440355418095" lon="15.02413322260828"><ele>173.5</ele><time>2026-03-28T14:39:45.999Z</time></trkpt><trkpt lat="36.88448865451641" lon="15.024146974983026"><ele>175.66666666666666</ele><time>2026-03-28T14:39:46.999Z</time></trkpt><trkpt lat="36.88457207605408" lon="15.024151099217526"><ele>177.83333333333334</ele><time>2026-03-28T14:39:47.999Z</time></trkpt><trkpt lat="36.88464591693838" lon="15.024152833540391"><ele>180.0</ele><time>2026-03-28T14:39:48.999Z</time></trkpt><trkpt lat="36.88475909688332" lon="15.024157589390056"><ele>180.0</ele><time>2026-03-28T14:39:50.999Z</time></trkpt><trkpt lat="36.88483656375687" lon="15.024171245458746"><ele>180.0</ele><time>2026-03-28T14:39:52.999Z</time></trkpt><trkpt lat="36.88489037789476" lon="15.024039003907639"><ele>180.0</ele><time>2026-03-28T14:41:33.999Z</time></trkpt><trkpt lat="36.8849391551635" lon="15.023866406318326"><ele>180.0</ele><time>2026-03-28T14:41:35.999Z</time></trkpt><trkpt lat="36.88503190053048" lon="15.023781519357206"><ele>180.0</ele><time>2026-03-28T14:41:36.999Z</time></trkpt><trkpt lat="36.88507554963438" lon="15.023689798535832"><ele>180.0</ele><time>2026-03-28T14:41:37.999Z</time></trkpt><trkpt lat="36.885090112042484" lon="15.023607098452421"><ele>180.0</ele><time>2026-03-28T14:41:38.999Z</time></trkpt><trkpt lat="36.8850853077159" lon="15.02350843039459"><ele>180.0</ele><time>2026-03-28T14:41:39.999Z</time></trkpt><trkpt lat="36.885066667651934" lon="15.023418905727722"><ele>180.0</ele><time>2026-03-28T14:41:40.999Z</time></trkpt><trkpt lat="36.885066652384594" lon="15.023324060648758"><ele>180.0</ele><time>2026-03-28T14:41:41.999Z</time></trkpt><trkpt lat="36.88505910200127" lon="15.023211300883611"><ele>179.0</ele><time>2026-03-28T14:41:42.999Z</time></trkpt><trkpt lat="36.88505457744907" lon="15.023078370002233"><ele>178.0</ele><time>2026-03-28T14:41:43.999Z</time></trkpt><trkpt lat="36.88507338102372" lon="15.022959393719722"><ele>177.0</ele><time>2026-03-28T14:41:44.999Z</time></trkpt><trkpt lat="36.88510335219102" lon="15.022831182044552"><ele>176.0</ele><time>2026-03-28T14:41:45.999Z</time></trkpt><trkpt lat="36.88515959191299" lon="15.022691962135557"><ele>175.0</ele><time>2026-03-28T14:41:46.999Z</time></trkpt><trkpt lat="36.88522196775883" lon="15.022553749890506"><ele>176.5</ele><time>2026-03-28T14:41:47.999Z</time></trkpt><trkpt lat="36.885287435642105" lon="15.022421597323925"><ele>178.0</ele><time>2026-03-28T14:41:48.999Z</time></trkpt><trkpt lat="36.88535133501778" lon="15.022290792180806"><ele>179.5</ele><time>2026-03-28T14:41:49.999Z</time></trkpt><trkpt lat="36.88541085954131" lon="15.022170311527262"><ele>181.0</ele><time>2026-03-28T14:41:50.999Z</time></trkpt><trkpt lat="36.88546918685456" lon="15.022062915033173"><ele>181.0</ele><time>2026-03-28T14:41:51.999Z</time></trkpt><trkpt lat="36.88551521173091" lon="15.021944224986022"><ele>181.0</ele><time>2026-03-28T14:41:52.999Z</time></trkpt><trkpt lat="36.88557513971839" lon="15.021829117837834"><ele>181.0</ele><time>2026-03-28T14:41:53.999Z</time></trkpt><trkpt lat="36.88562135561533" lon="15.02168751538852"><ele>181.0</ele><time>2026-03-28T14:41:54.999Z</time></trkpt><trkpt lat="36.885673185407015" lon="15.021546421557836"><ele>178.5</ele><time>2026-03-28T14:41:55.999Z</time></trkpt><trkpt lat="36.88573113179256" lon="15.021404104598197"><ele>176.0</ele><time>2026-03-28T14:41:56.999Z</time></trkpt><trkpt lat="36.88579773031106" lon="15.021257921270939"><ele>173.5</ele><time>2026-03-28T14:41:57.999Z</time></trkpt><trkpt lat="36.88587122624231" lon="15.021112594187239"><ele>171.0</ele><time>2026-03-28T14:41:58.999Z</time></trkpt><trkpt lat="36.88592556449385" lon="15.020986068870688"><ele>171.0</ele><time>2026-03-28T14:41:59.999Z</time></trkpt><trkpt lat="36.88596564168854" lon="15.020862212142017"><ele>171.0</ele><time>2026-03-28T14:42:00.999Z</time></trkpt><trkpt lat="36.88600087538389" lon="15.020744522313626"><ele>171.0</ele><time>2026-03-28T14:42:01.999Z</time></trkpt><trkpt lat="36.886026973192735" lon="15.020648106071578"><ele>171.0</ele><time>2026-03-28T14:42:02.999Z</time></trkpt><trkpt lat="36.88605443695446" lon="15.020575182253376"><ele>171.0</ele><time>2026-03-28T14:42:03.999Z</time></trkpt><trkpt lat="36.88614310599568" lon="15.020474450681045"><ele>171.0</ele><time>2026-03-28T14:42:05.999Z</time></trkpt><trkpt lat="36.886210515951745" lon="15.020427919978149"><ele>171.0</ele><time>2026-03-28T14:42:06.999Z</time></trkpt><trkpt lat="36.88627036285524" lon="15.020373673776213"><ele>171.0</ele><time>2026-03-28T14:42:07.999Z</time></trkpt><trkpt lat="36.886341757059306" lon="15.020361905953193"><ele>171.0</ele><time>2026-03-28T14:42:08.999Z</time></trkpt><trkpt lat="36.88641665305806" lon="15.020342633580059"><ele>171.0</ele><time>2026-03-28T14:42:09.999Z</time></trkpt><trkpt lat="36.88648688070207" lon="15.020287449813988"><ele>171.0</ele><time>2026-03-28T14:42:10.999Z</time></trkpt><trkpt lat="36.8865596299731" lon="15.020180498605923"><ele>171.0</ele><time>2026-03-28T14:42:12.999Z</time></trkpt><trkpt lat="36.886533768593075" lon="15.020077523748107"><ele>171.0</ele><time>2026-03-28T14:42:13.999Z</time></trkpt><trkpt lat="36.886510544176076" lon="15.01998419567866"><ele>171.0</ele><time>2026-03-28T14:42:14.999Z</time></trkpt><trkpt lat="36.88645862716655" lon="15.019894080409424"><ele>171.0</ele><time>2026-03-28T14:42:15.999Z</time></trkpt><trkpt lat="36.88638436048538" lon="15.01977873842765"><ele>171.0</ele><time>2026-03-28T14:42:16.999Z</time></trkpt><trkpt lat="36.88633211524353" lon="15.019660975139422"><ele>170.20000000000002</ele><time>2026-03-28T14:42:17.999Z</time></trkpt><trkpt lat="36.88627715354647" lon="15.019580857514704"><ele>169.4</ele><time>2026-03-28T14:42:18.999Z</time></trkpt><trkpt lat="36.88623348631377" lon="15.019519455423877"><ele>168.6</ele><time>2026-03-28T14:42:19.999Z</time></trkpt><trkpt lat="36.88620476605653" lon="15.01940102837072"><ele>167.8</ele><time>2026-03-28T14:42:21.999Z</time></trkpt><trkpt lat="36.8862894609737" lon="15.019245241332513"><ele>167.0</ele><time>2026-03-28T14:42:23.998Z</time></trkpt><trkpt lat="36.8863323662479" lon="15.019112738145962"><ele>165.0</ele><time>2026-03-28T14:42:24.998Z</time></trkpt><trkpt lat="36.88637777215981" lon="15.018979540739494"><ele>163.0</ele><time>2026-03-28T14:42:25.998Z</time></trkpt><trkpt lat="36.88643382540727" lon="15.018823633490594"><ele>161.0</ele><time>2026-03-28T14:42:26.998Z</time></trkpt><trkpt lat="36.88649495228205" lon="15.018671874200775"><ele>159.0</ele><time>2026-03-28T14:42:27.998Z</time></trkpt><trkpt lat="36.886566721427066" lon="15.018535638525975"><ele>159.0</ele><time>2026-03-28T14:42:28.998Z</time></trkpt><trkpt lat="36.88662849184405" lon="15.018402496384063"><ele>159.0</ele><time>2026-03-28T14:42:29.998Z</time></trkpt><trkpt lat="36.88670365712095" lon="15.01827653834446"><ele>159.0</ele><time>2026-03-28T14:42:30.998Z</time></trkpt><trkpt lat="36.886780870105866" lon="15.018128408783765"><ele>159.0</ele><time>2026-03-28T14:42:31.998Z</time></trkpt><trkpt lat="36.88687341996002" lon="15.017983724704077"><ele>159.0</ele><time>2026-03-28T14:42:32.998Z</time></trkpt><trkpt lat="36.88695795538132" lon="15.01785734401839"><ele>159.0</ele><time>2026-03-28T14:42:33.998Z</time></trkpt><trkpt lat="36.887040728997924" lon="15.017736684634006"><ele>159.0</ele><time>2026-03-28T14:42:34.998Z</time></trkpt><trkpt lat="36.88713962714474" lon="15.017626064462942"><ele>159.0</ele><time>2026-03-28T14:42:35.998Z</time></trkpt><trkpt lat="36.88725332251717" lon="15.017519258699133"><ele>159.0</ele><time>2026-03-28T14:42:36.998Z</time></trkpt><trkpt lat="36.887352164097116" lon="15.017403338754015"><ele>159.0</ele><time>2026-03-28T14:42:37.998Z</time></trkpt><trkpt lat="36.88743814390077" lon="15.017301712702993"><ele>159.0</ele><time>2026-03-28T14:42:38.998Z</time></trkpt><trkpt lat="36.887517874679965" lon="15.0172256063616"><ele>159.0</ele><time>2026-03-28T14:42:40Z</time></trkpt><trkpt lat="36.887575902721935" lon="15.017153641073126"><ele>159.0</ele><time>2026-03-28T14:42:41Z</time></trkpt><trkpt lat="36.88761573619281" lon="15.017080611089039"><ele>159.14285714285714</ele><time>2026-03-28T14:42:42Z</time></trkpt><trkpt lat="36.88765357596294" lon="15.017016478206655"><ele>159.2857142857143</ele><time>2026-03-28T14:42:43Z</time></trkpt><trkpt lat="36.88763232432209" lon="15.016919940875106"><ele>159.42857142857144</ele><time>2026-03-28T14:42:44Z</time></trkpt><trkpt lat="36.887610681546676" lon="15.016829253772126"><ele>159.57142857142856</ele><time>2026-03-28T14:42:45Z</time></trkpt><trkpt lat="36.887615318859034" lon="15.0167350200781"><ele>159.71428571428572</ele><time>2026-03-28T14:42:46Z</time></trkpt><trkpt lat="36.887604760338185" lon="15.01663951953565"><ele>159.85714285714286</ele><time>2026-03-28T14:42:47Z</time></trkpt><trkpt lat="36.887626901915866" lon="15.01655679594668"><ele>160.0</ele><time>2026-03-28T14:42:48Z</time></trkpt><trkpt lat="36.88764327009115" lon="15.016455973958694"><ele>160.83333333333334</ele><time>2026-03-28T14:42:50Z</time></trkpt><trkpt lat="36.88754404822432" lon="15.016469003670263"><ele>161.66666666666669</ele><time>2026-03-28T14:59:33Z</time></trkpt><trkpt lat="36.88744398562624" lon="15.016500023764234"><ele>162.5</ele><time>2026-03-28T14:59:35Z</time></trkpt><trkpt lat="36.8873638826036" lon="15.0165321053933"><ele>163.33333333333334</ele><time>2026-03-28T14:59:37Z</time></trkpt><trkpt lat="36.887296718777854" lon="15.016557267993973"><ele>164.16666666666666</ele><time>2026-03-28T14:59:39Z</time></trkpt><trkpt lat="36.88722538378912" lon="15.01659186235591"><ele>165.0</ele><time>2026-03-28T14:59:40Z</time></trkpt><trkpt lat="36.88711697044551" lon="15.016626960164672"><ele>165.0</ele><time>2026-03-28T14:59:41Z</time></trkpt><trkpt lat="36.887008014610714" lon="15.016638666894362"><ele>165.0</ele><time>2026-03-28T14:59:42Z</time></trkpt><trkpt lat="36.88690130857664" lon="15.016592357574979"><ele>165.0</ele><time>2026-03-28T14:59:43Z</time></trkpt><trkpt lat="36.886796306251746" lon="15.016535842916168"><ele>165.0</ele><time>2026-03-28T14:59:44Z</time></trkpt><trkpt lat="36.88670384192503" lon="15.016454303615793"><ele>166.2</ele><time>2026-03-28T14:59:45Z</time></trkpt><trkpt lat="36.88660574590083" lon="15.016365098592406"><ele>167.4</ele><time>2026-03-28T14:59:46Z</time></trkpt><trkpt lat="36.88650120251863" lon="15.016300208808264"><ele>168.60000000000002</ele><time>2026-03-28T14:59:47Z</time></trkpt><trkpt lat="36.886403238620936" lon="15.016251617930926"><ele>169.8</ele><time>2026-03-28T14:59:48Z</time></trkpt><trkpt lat="36.88631093511279" lon="15.016247261079602"><ele>171.0</ele><time>2026-03-28T14:59:49Z</time></trkpt><trkpt lat="36.88621255044658" lon="15.016260672800561"><ele>171.0</ele><time>2026-03-28T14:59:50Z</time></trkpt><trkpt lat="36.88611137104833" lon="15.016256516522834"><ele>171.0</ele><time>2026-03-28T14:59:51Z</time></trkpt><trkpt lat="36.88599499782481" lon="15.016245772695328"><ele>171.0</ele><time>2026-03-28T14:59:52Z</time></trkpt><trkpt lat="36.88587604912096" lon="15.01622952512574"><ele>171.0</ele><time>2026-03-28T14:59:53Z</time></trkpt><trkpt lat="36.88575528379541" lon="15.016208538367826"><ele>169.75</ele><time>2026-03-28T14:59:54Z</time></trkpt><trkpt lat="36.88562578862813" lon="15.016181719665187"><ele>168.5</ele><time>2026-03-28T14:59:55Z</time></trkpt><trkpt lat="36.885496800341436" lon="15.016151845820517"><ele>167.25</ele><time>2026-03-28T14:59:56Z</time></trkpt><trkpt lat="36.88536393852545" lon="15.016117741613733"><ele>166.0</ele><time>2026-03-28T14:59:57Z</time></trkpt><trkpt lat="36.885231577758084" lon="15.016074258281149"><ele>163.66666666666669</ele><time>2026-03-28T14:59:58Z</time></trkpt><trkpt lat="36.88509362301779" lon="15.016026127387299"><ele>161.33333333333334</ele><time>2026-03-28T14:59:59Z</time></trkpt><trkpt lat="36.88494395955544" lon="15.01597521432634"><ele>159.0</ele><time>2026-03-28T15:00:00Z</time></trkpt><trkpt lat="36.884788449781475" lon="15.015921257565871"><ele>159.0</ele><time>2026-03-28T15:00:01Z</time></trkpt><trkpt lat="36.88463476911502" lon="15.015863665537193"><ele>159.0</ele><time>2026-03-28T15:00:02Z</time></trkpt><trkpt lat="36.884480571146646" lon="15.015808236541417"><ele>159.0</ele><time>2026-03-28T15:00:03Z</time></trkpt><trkpt lat="36.88432601503722" lon="15.015753611121651"><ele>158.33333333333334</ele><time>2026-03-28T15:00:04Z</time></trkpt><trkpt lat="36.88416961480003" lon="15.015692312026086"><ele>157.66666666666669</ele><time>2026-03-28T15:00:05Z</time></trkpt><trkpt lat="36.88401169209012" lon="15.01562683104406"><ele>157.0</ele><time>2026-03-28T15:00:06Z</time></trkpt><trkpt lat="36.88385523813026" lon="15.015561798766745"><ele>157.0</ele><time>2026-03-28T15:00:07Z</time></trkpt><trkpt lat="36.88370151775056" lon="15.01549007577427"><ele>157.0</ele><time>2026-03-28T15:00:08Z</time></trkpt><trkpt lat="36.88354394803467" lon="15.015415204221124"><ele>157.0</ele><time>2026-03-28T15:00:09Z</time></trkpt><trkpt lat="36.883382822695864" lon="15.015342978169738"><ele>156.0</ele><time>2026-03-28T15:00:10Z</time></trkpt><trkpt lat="36.88322478487106" lon="15.01526823553483"><ele>155.0</ele><time>2026-03-28T15:00:11Z</time></trkpt><trkpt lat="36.88310057289874" lon="15.015201361518457"><ele>154.0</ele><time>2026-03-28T15:00:12Z</time></trkpt><trkpt lat="36.882987134467434" lon="15.015130445152701"><ele>153.0</ele><time>2026-03-28T15:00:12.999Z</time></trkpt><trkpt lat="36.88288402178472" lon="15.015029955380328"><ele>154.33333333333334</ele><time>2026-03-28T15:00:13.999Z</time></trkpt><trkpt lat="36.88275703214391" lon="15.014924985638157"><ele>155.66666666666669</ele><time>2026-03-28T15:00:14.999Z</time></trkpt><trkpt lat="36.882585927643476" lon="15.014871659282573"><ele>157.0</ele><time>2026-03-28T15:00:15.999Z</time></trkpt><trkpt lat="36.88240837774614" lon="15.01484216271316"><ele>157.66666666666669</ele><time>2026-03-28T15:00:16.999Z</time></trkpt><trkpt lat="36.882237884403374" lon="15.0147829771343"><ele>158.33333333333334</ele><time>2026-03-28T15:00:17.999Z</time></trkpt><trkpt lat="36.88207142429311" lon="15.014717738885754"><ele>159.0</ele><time>2026-03-28T15:00:18.999Z</time></trkpt><trkpt lat="36.881909968690415" lon="15.014647015109729"><ele>158.33333333333334</ele><time>2026-03-28T15:00:19.999Z</time></trkpt><trkpt lat="36.88174569461216" lon="15.014577107468712"><ele>157.66666666666669</ele><time>2026-03-28T15:00:20.999Z</time></trkpt><trkpt lat="36.88158186805739" lon="15.01451164559928"><ele>157.0</ele><time>2026-03-28T15:00:21.999Z</time></trkpt><trkpt lat="36.88141475901239" lon="15.01445079537285"><ele>157.0</ele><time>2026-03-28T15:00:22.999Z</time></trkpt><trkpt lat="36.881238725761825" lon="15.01439319148613"><ele>157.0</ele><time>2026-03-28T15:00:23.999Z</time></trkpt><trkpt lat="36.88106561681073" lon="15.014342246315117"><ele>157.0</ele><time>2026-03-28T15:00:24.999Z</time></trkpt><trkpt lat="36.880889644422155" lon="15.014301945461122"><ele>157.0</ele><time>2026-03-28T15:00:25.999Z</time></trkpt><trkpt lat="36.88071261128966" lon="15.014269202415386"><ele>157.0</ele><time>2026-03-28T15:00:26.999Z</time></trkpt><trkpt lat="36.8805383945321" lon="15.014222064394383"><ele>157.0</ele><time>2026-03-28T15:00:27.999Z</time></trkpt><trkpt lat="36.88036183564536" lon="15.014186517680768"><ele>157.0</ele><time>2026-03-28T15:00:28.999Z</time></trkpt><trkpt lat="36.88018535397996" lon="15.01415717741374"><ele>157.0</ele><time>2026-03-28T15:00:29.999Z</time></trkpt><trkpt lat="36.880013972576755" lon="15.014130098587453"><ele>157.0</ele><time>2026-03-28T15:00:30.999Z</time></trkpt><trkpt lat="36.87984404642935" lon="15.014103249708922"><ele>159.66666666666669</ele><time>2026-03-28T15:00:31.999Z</time></trkpt><trkpt lat="36.8796706470748" lon="15.014075852074185"><ele>162.33333333333334</ele><time>2026-03-28T15:00:32.999Z</time></trkpt><trkpt lat="36.87948429614259" lon="15.014066140748763"><ele>165.0</ele><time>2026-03-28T15:00:33.999Z</time></trkpt><trkpt lat="36.879298725611456" lon="15.014020617527255"><ele>166.0</ele><time>2026-03-28T15:00:34.999Z</time></trkpt><trkpt lat="36.87911504691288" lon="15.013942361896705"><ele>167.0</ele><time>2026-03-28T15:00:35.999Z</time></trkpt><trkpt lat="36.87892259247801" lon="15.01390525757772"><ele>168.0</ele><time>2026-03-28T15:00:36.999Z</time></trkpt><trkpt lat="36.87873501096919" lon="15.013834164710516"><ele>168.0</ele><time>2026-03-28T15:00:37.999Z</time></trkpt><trkpt lat="36.87854542153968" lon="15.013782358305637"><ele>168.0</ele><time>2026-03-28T15:00:38.999Z</time></trkpt><trkpt lat="36.87835702036908" lon="15.013731119797061"><ele>168.0</ele><time>2026-03-28T15:00:39.999Z</time></trkpt><trkpt lat="36.87816649754835" lon="15.013678727817132"><ele>169.66666666666666</ele><time>2026-03-28T15:00:40.999Z</time></trkpt><trkpt lat="36.87797780879024" lon="15.01364572786479"><ele>171.33333333333331</ele><time>2026-03-28T15:00:41.999Z</time></trkpt><trkpt lat="36.87779663670013" lon="15.01358975622119"><ele>173.0</ele><time>2026-03-28T15:00:42.999Z</time></trkpt><trkpt lat="36.87761964006895" lon="15.013531368819576"><ele>174.0</ele><time>2026-03-28T15:00:43.999Z</time></trkpt><trkpt lat="36.8774502702902" lon="15.013468127012304"><ele>175.0</ele><time>2026-03-28T15:00:44.999Z</time></trkpt><trkpt lat="36.87729208114986" lon="15.013405746732287"><ele>176.0</ele><time>2026-03-28T15:00:45.999Z</time></trkpt><trkpt lat="36.87715837079559" lon="15.013345869012955"><ele>177.60000000000002</ele><time>2026-03-28T15:00:46.999Z</time></trkpt><trkpt lat="36.877034772636904" lon="15.013296491566901"><ele>179.2</ele><time>2026-03-28T15:00:47.999Z</time></trkpt><trkpt lat="36.87692984674941" lon="15.013254909337482"><ele>180.8</ele><time>2026-03-28T15:00:48.999Z</time></trkpt><trkpt lat="36.876842026733016" lon="15.013213867153647"><ele>182.39999999999998</ele><time>2026-03-28T15:00:49.999Z</time></trkpt><trkpt lat="36.87677492429428" lon="15.013174533366941"><ele>184.0</ele><time>2026-03-28T15:00:50.999Z</time></trkpt><trkpt lat="36.87671231415898" lon="15.013118532777257"><ele>184.0</ele><time>2026-03-28T15:00:52.999Z</time></trkpt><trkpt lat="36.876635639459614" lon="15.013043077846634"><ele>184.0</ele><time>2026-03-28T15:01:00.999Z</time></trkpt><trkpt lat="36.87656889591996" lon="15.012998963873581"><ele>184.0</ele><time>2026-03-28T15:01:01.999Z</time></trkpt><trkpt lat="36.87649738518795" lon="15.012961460079833"><ele>184.0</ele><time>2026-03-28T15:01:02.999Z</time></trkpt><trkpt lat="36.87642014643016" lon="15.012951550782612"><ele>184.0</ele><time>2026-03-28T15:01:03.999Z</time></trkpt><trkpt lat="36.87633734594127" lon="15.012905233656753"><ele>184.0</ele><time>2026-03-28T15:01:04.999Z</time></trkpt><trkpt lat="36.87625308347209" lon="15.012881590461976"><ele>184.0</ele><time>2026-03-28T15:01:05.999Z</time></trkpt><trkpt lat="36.87618114525788" lon="15.01286292268295"><ele>184.0</ele><time>2026-03-28T15:01:06.999Z</time></trkpt><trkpt lat="36.87609069947147" lon="15.012840901722322"><ele>184.0</ele><time>2026-03-28T15:01:08.999Z</time></trkpt><trkpt lat="36.876196072179155" lon="15.012864306927113"><ele>184.0</ele><time>2026-03-28T15:01:18.998Z</time></trkpt><trkpt lat="36.87629980734587" lon="15.012906830367092"><ele>184.0</ele><time>2026-03-28T15:01:19.998Z</time></trkpt><trkpt lat="36.87640041125132" lon="15.012950562519586"><ele>184.0</ele><time>2026-03-28T15:01:20.998Z</time></trkpt><trkpt lat="36.8764910393117" lon="15.0129870102893"><ele>184.0</ele><time>2026-03-28T15:01:21.998Z</time></trkpt><trkpt lat="36.87657581416231" lon="15.01302843463577"><ele>184.0</ele><time>2026-03-28T15:01:22.998Z</time></trkpt><trkpt lat="36.87665625689986" lon="15.013089172483499"><ele>184.0</ele><time>2026-03-28T15:01:23.998Z</time></trkpt><trkpt lat="36.87672910702096" lon="15.013150898494345"><ele>184.0</ele><time>2026-03-28T15:01:24.998Z</time></trkpt><trkpt lat="36.876788520641746" lon="15.013193451687059"><ele>184.0</ele><time>2026-03-28T15:01:25.998Z</time></trkpt><trkpt lat="36.87686381011937" lon="15.013218239843745"><ele>184.2</ele><time>2026-03-28T15:01:27.998Z</time></trkpt><trkpt lat="36.87689783634389" lon="15.013105357641894"><ele>184.39999999999998</ele><time>2026-03-28T15:01:31.998Z</time></trkpt><trkpt lat="36.8769470251622" lon="15.013000636500903"><ele>184.6</ele><time>2026-03-28T15:01:34Z</time></trkpt><trkpt lat="36.876973857689684" lon="15.012902345021477"><ele>184.8</ele><time>2026-03-28T15:01:36Z</time></trkpt><trkpt lat="36.87696789609165" lon="15.012803132061544"><ele>185.0</ele><time>2026-03-28T15:01:38Z</time></trkpt><trkpt lat="36.876968365398795" lon="15.01268164471638"><ele>185.0</ele><time>2026-03-28T15:01:40Z</time></trkpt><trkpt lat="36.87695912507684" lon="15.01255839548958"><ele>185.0</ele><time>2026-03-28T15:01:42Z</time></trkpt><trkpt lat="36.87696356757273" lon="15.012465842766591"><ele>185.0</ele><time>2026-03-28T15:01:44Z</time></trkpt><trkpt lat="36.87699475212018" lon="15.012338124977992"><ele>185.0</ele><time>2026-03-28T15:02:08Z</time></trkpt><trkpt lat="36.87701686794854" lon="15.012226141935628"><ele>185.0</ele><time>2026-03-28T15:02:09Z</time></trkpt><trkpt lat="36.87704646593893" lon="15.012115297041662"><ele>184.33333333333331</ele><time>2026-03-28T15:02:10Z</time></trkpt><trkpt lat="36.87707932164573" lon="15.012022234660623"><ele>183.66666666666666</ele><time>2026-03-28T15:02:11Z</time></trkpt><trkpt lat="36.87712061147327" lon="15.011931986295547"><ele>183.0</ele><time>2026-03-28T15:02:12Z</time></trkpt><trkpt lat="36.87717899146393" lon="15.011846723971324"><ele>182.33333333333334</ele><time>2026-03-28T15:02:13Z</time></trkpt><trkpt lat="36.877238389251254" lon="15.011757040341072"><ele>181.66666666666669</ele><time>2026-03-28T15:02:14Z</time></trkpt><trkpt lat="36.87729629775354" lon="15.011672319942319"><ele>181.0</ele><time>2026-03-28T15:02:15Z</time></trkpt><trkpt lat="36.877355207701626" lon="15.011612195195426"><ele>181.16666666666669</ele><time>2026-03-28T15:02:16Z</time></trkpt><trkpt lat="36.87741277471622" lon="15.011573598954358"><ele>181.33333333333334</ele><time>2026-03-28T15:02:17Z</time></trkpt><trkpt lat="36.87749304513132" lon="15.011556326477233"><ele>181.5</ele><time>2026-03-28T15:02:18Z</time></trkpt><trkpt lat="36.877583075725106" lon="15.011528037244561"><ele>181.66666666666666</ele><time>2026-03-28T15:02:18.999Z</time></trkpt><trkpt lat="36.87767673430563" lon="15.011501622651812"><ele>181.83333333333331</ele><time>2026-03-28T15:02:19.999Z</time></trkpt><trkpt lat="36.8777744881973" lon="15.011481711003483"><ele>182.0</ele><time>2026-03-28T15:02:20.999Z</time></trkpt><trkpt lat="36.87787010559642" lon="15.011470678958172"><ele>182.0</ele><time>2026-03-28T15:02:21.999Z</time></trkpt><trkpt lat="36.87796760677058" lon="15.011443925185674"><ele>182.0</ele><time>2026-03-28T15:02:22.999Z</time></trkpt><trkpt lat="36.87805612923467" lon="15.01137965314293"><ele>182.0</ele><time>2026-03-28T15:02:23.999Z</time></trkpt><trkpt lat="36.87814238240501" lon="15.011309238569885"><ele>182.0</ele><time>2026-03-28T15:02:24.999Z</time></trkpt><trkpt lat="36.87823271788881" lon="15.011254782457181"><ele>182.0</ele><time>2026-03-28T15:02:25.999Z</time></trkpt><trkpt lat="36.878314867614286" lon="15.01117163507417"><ele>182.0</ele><time>2026-03-28T15:02:26.999Z</time></trkpt><trkpt lat="36.87837648993382" lon="15.011087458748412"><ele>182.0</ele><time>2026-03-28T15:02:27.999Z</time></trkpt><trkpt lat="36.87840360307555" lon="15.010971982948078"><ele>182.0</ele><time>2026-03-28T15:02:28.999Z</time></trkpt><trkpt lat="36.87842224690862" lon="15.010851964768245"><ele>182.0</ele><time>2026-03-28T15:02:29.999Z</time></trkpt><trkpt lat="36.87842419180816" lon="15.010714475867239"><ele>182.0</ele><time>2026-03-28T15:02:30.999Z</time></trkpt><trkpt lat="36.87842379217137" lon="15.010583848641568"><ele>182.2</ele><time>2026-03-28T15:02:31.999Z</time></trkpt><trkpt lat="36.87839416232742" lon="15.010460416530965"><ele>182.39999999999998</ele><time>2026-03-28T15:02:32.999Z</time></trkpt><trkpt lat="36.87836738040089" lon="15.010340539767776"><ele>182.60000000000002</ele><time>2026-03-28T15:02:33.999Z</time></trkpt><trkpt lat="36.87830830995932" lon="15.010218733106145"><ele>182.8</ele><time>2026-03-28T15:02:34.999Z</time></trkpt><trkpt lat="36.8782460363191" lon="15.010107384963682"><ele>183.0</ele><time>2026-03-28T15:02:35.999Z</time></trkpt><trkpt lat="36.878201787571484" lon="15.009992124121597"><ele>182.5</ele><time>2026-03-28T15:02:36.999Z</time></trkpt><trkpt lat="36.87812517103398" lon="15.00989625958055"><ele>182.0</ele><time>2026-03-28T15:02:37.999Z</time></trkpt><trkpt lat="36.87806718298682" lon="15.009816237683687"><ele>181.5</ele><time>2026-03-28T15:02:38.999Z</time></trkpt><trkpt lat="36.878022341805185" lon="15.00975118784003"><ele>181.0</ele><time>2026-03-28T15:02:39.999Z</time></trkpt><trkpt lat="36.87800246242046" lon="15.0096327074561"><ele>180.5</ele><time>2026-03-28T15:02:41.999Z</time></trkpt><trkpt lat="36.87798485097538" lon="15.009547025813426"><ele>180.0</ele><time>2026-03-28T15:02:42.999Z</time></trkpt><trkpt lat="36.87795443113659" lon="15.009446400533406"><ele>180.0</ele><time>2026-03-28T15:02:43.999Z</time></trkpt><trkpt lat="36.87788486486798" lon="15.009349493512968"><ele>180.0</ele><time>2026-03-28T15:02:44.999Z</time></trkpt><trkpt lat="36.87786504750784" lon="15.009246607222138"><ele>180.0</ele><time>2026-03-28T15:02:45.999Z</time></trkpt><trkpt lat="36.87785087643474" lon="15.009126018218522"><ele>180.0</ele><time>2026-03-28T15:02:47.999Z</time></trkpt><trkpt lat="36.87790435109808" lon="15.009062798906312"><ele>180.0</ele><time>2026-03-28T15:02:49.999Z</time></trkpt><trkpt lat="36.87802751563873" lon="15.009020261489917"><ele>177.66666666666666</ele><time>2026-03-28T15:02:51.999Z</time></trkpt><trkpt lat="36.87810261562292" lon="15.008987887114941"><ele>175.33333333333334</ele><time>2026-03-28T15:02:52.999Z</time></trkpt><trkpt lat="36.87817813205323" lon="15.008948642664302"><ele>173.0</ele><time>2026-03-28T15:02:53.999Z</time></trkpt><trkpt lat="36.878253900058176" lon="15.008906528590446"><ele>170.66666666666669</ele><time>2026-03-28T15:02:54.999Z</time></trkpt><trkpt lat="36.87832290844696" lon="15.008869933009754"><ele>168.33333333333334</ele><time>2026-03-28T15:02:55.999Z</time></trkpt><trkpt lat="36.87838724413982" lon="15.008839189368372"><ele>166.0</ele><time>2026-03-28T15:02:56.999Z</time></trkpt><trkpt lat="36.878455513588094" lon="15.008809562514037"><ele>166.0</ele><time>2026-03-28T15:02:57.999Z</time></trkpt><trkpt lat="36.87852399717791" lon="15.008784869502023"><ele>166.0</ele><time>2026-03-28T15:02:58.999Z</time></trkpt><trkpt lat="36.87858542108611" lon="15.008753840355167"><ele>166.0</ele><time>2026-03-28T15:02:59.999Z</time></trkpt><trkpt lat="36.878638414595414" lon="15.008698146794861"><ele>166.0</ele><time>2026-03-28T15:03:00.999Z</time></trkpt><trkpt lat="36.87868104435993" lon="15.008631583309048"><ele>166.0</ele><time>2026-03-28T15:03:01.999Z</time></trkpt><trkpt lat="36.878721062939675" lon="15.008551553842219"><ele>166.0</ele><time>2026-03-28T15:03:02.999Z</time></trkpt><trkpt lat="36.878768796137884" lon="15.00847838108849"><ele>166.0</ele><time>2026-03-28T15:03:03.999Z</time></trkpt><trkpt lat="36.87882782875767" lon="15.008417916838217"><ele>166.0</ele><time>2026-03-28T15:03:04.999Z</time></trkpt><trkpt lat="36.87889103943714" lon="15.008379261275508"><ele>166.0</ele><time>2026-03-28T15:03:05.999Z</time></trkpt><trkpt lat="36.87895677359531" lon="15.00835457280796"><ele>166.0</ele><time>2026-03-28T15:03:06.999Z</time></trkpt><trkpt lat="36.87903333117675" lon="15.008382939175496"><ele>166.0</ele><time>2026-03-28T15:03:07.999Z</time></trkpt><trkpt lat="36.87909712161119" lon="15.008367632077006"><ele>166.0</ele><time>2026-03-28T15:03:08.999Z</time></trkpt><trkpt lat="36.879167437249635" lon="15.00831571189587"><ele>166.0</ele><time>2026-03-28T15:03:09.999Z</time></trkpt><trkpt lat="36.87922359523788" lon="15.008257814554126"><ele>166.0</ele><time>2026-03-28T15:03:10.999Z</time></trkpt><trkpt lat="36.87927213334448" lon="15.00818048801467"><ele>163.83333333333334</ele><time>2026-03-28T15:03:11.999Z</time></trkpt><trkpt lat="36.87932181705309" lon="15.008112314153339"><ele>161.66666666666669</ele><time>2026-03-28T15:03:12.999Z</time></trkpt><trkpt lat="36.879375072039316" lon="15.00804433341551"><ele>159.5</ele><time>2026-03-28T15:03:13.999Z</time></trkpt><trkpt lat="36.87942662777284" lon="15.007972310018456"><ele>157.33333333333334</ele><time>2026-03-28T15:03:14.999Z</time></trkpt><trkpt lat="36.87948454630491" lon="15.007906236557305"><ele>155.16666666666666</ele><time>2026-03-28T15:03:15.999Z</time></trkpt><trkpt lat="36.87954041053115" lon="15.007845144969432"><ele>153.0</ele><time>2026-03-28T15:03:16.999Z</time></trkpt><trkpt lat="36.87959519351152" lon="15.007780342005889"><ele>153.0</ele><time>2026-03-28T15:03:17.999Z</time></trkpt><trkpt lat="36.8796501663849" lon="15.007711457554056"><ele>153.0</ele><time>2026-03-28T15:03:18.999Z</time></trkpt><trkpt lat="36.87969880709408" lon="15.007645756823472"><ele>153.0</ele><time>2026-03-28T15:03:19.999Z</time></trkpt><trkpt lat="36.8797562729524" lon="15.007601285552724"><ele>153.0</ele><time>2026-03-28T15:03:20.998Z</time></trkpt><trkpt lat="36.87980772284881" lon="15.007524328753043"><ele>153.0</ele><time>2026-03-28T15:03:22.998Z</time></trkpt><trkpt lat="36.87967864879494" lon="15.007428169769556"><ele>153.0</ele><time>2026-03-28T15:03:25.998Z</time></trkpt><trkpt lat="36.879601708791235" lon="15.007424495540011"><ele>151.0</ele><time>2026-03-28T15:03:26.998Z</time></trkpt><trkpt lat="36.87954427683198" lon="15.007361402280585"><ele>149.0</ele><time>2026-03-28T15:03:27.998Z</time></trkpt><trkpt lat="36.87947940908668" lon="15.007285444309487"><ele>147.0</ele><time>2026-03-28T15:03:28.998Z</time></trkpt><trkpt lat="36.87939581086484" lon="15.007219326882076"><ele>145.0</ele><time>2026-03-28T15:03:29.998Z</time></trkpt><trkpt lat="36.87928562233052" lon="15.00716997589125"><ele>143.0</ele><time>2026-03-28T15:03:30.998Z</time></trkpt><trkpt lat="36.879188736873076" lon="15.00711380287874"><ele>140.25</ele><time>2026-03-28T15:03:31.998Z</time></trkpt><trkpt lat="36.87907531215711" lon="15.007064445828586"><ele>137.5</ele><time>2026-03-28T15:03:32.998Z</time></trkpt><trkpt lat="36.87896891151548" lon="15.007015513812393"><ele>134.75</ele><time>2026-03-28T15:03:33.998Z</time></trkpt><trkpt lat="36.87887664847623" lon="15.00694772318718"><ele>132.0</ele><time>2026-03-28T15:03:34.998Z</time></trkpt><trkpt lat="36.87878723729378" lon="15.00686908207831"><ele>132.0</ele><time>2026-03-28T15:03:35.998Z</time></trkpt><trkpt lat="36.878703349320105" lon="15.006802625246644"><ele>132.0</ele><time>2026-03-28T15:03:36.998Z</time></trkpt><trkpt lat="36.87860934745805" lon="15.006739596968535"><ele>132.0</ele><time>2026-03-28T15:03:37.998Z</time></trkpt><trkpt lat="36.878495211223076" lon="15.006679754268802"><ele>132.0</ele><time>2026-03-28T15:03:38.998Z</time></trkpt><trkpt lat="36.87838978474051" lon="15.006626664703534"><ele>132.0</ele><time>2026-03-28T15:03:40Z</time></trkpt><trkpt lat="36.87828647011518" lon="15.006581915023512"><ele>130.2</ele><time>2026-03-28T15:03:41Z</time></trkpt><trkpt lat="36.87818934086816" lon="15.006547010130648"><ele>128.39999999999998</ele><time>2026-03-28T15:03:42Z</time></trkpt><trkpt lat="36.87809935200738" lon="15.00651790217703"><ele>126.60000000000001</ele><time>2026-03-28T15:03:43Z</time></trkpt><trkpt lat="36.87800660510058" lon="15.006480173060034"><ele>124.80000000000001</ele><time>2026-03-28T15:03:44Z</time></trkpt><trkpt lat="36.87792569781004" lon="15.006432871177998"><ele>123.0</ele><time>2026-03-28T15:03:45Z</time></trkpt><trkpt lat="36.877850555525356" lon="15.006394342949408"><ele>123.0</ele><time>2026-03-28T15:03:46Z</time></trkpt><trkpt lat="36.87777247602693" lon="15.006342787429926"><ele>123.0</ele><time>2026-03-28T15:03:47Z</time></trkpt><trkpt lat="36.87771858984894" lon="15.00629292252187"><ele>123.0</ele><time>2026-03-28T15:03:48Z</time></trkpt><trkpt lat="36.87764832114234" lon="15.006223916224117"><ele>123.0</ele><time>2026-03-28T15:03:49Z</time></trkpt><trkpt lat="36.87759078352515" lon="15.006171641462721"><ele>123.0</ele><time>2026-03-28T15:03:50Z</time></trkpt><trkpt lat="36.87751877377036" lon="15.006111259939813"><ele>123.0</ele><time>2026-03-28T15:03:51Z</time></trkpt><trkpt lat="36.87744686258162" lon="15.006059625796615"><ele>121.80000000000001</ele><time>2026-03-28T15:03:52Z</time></trkpt><trkpt lat="36.87735555981328" lon="15.006004493329602"><ele>120.60000000000001</ele><time>2026-03-28T15:03:53Z</time></trkpt><trkpt lat="36.877269552809764" lon="15.005957543872242"><ele>119.39999999999999</ele><time>2026-03-28T15:03:54Z</time></trkpt><trkpt lat="36.87717955615335" lon="15.005906359328756"><ele>118.19999999999999</ele><time>2026-03-28T15:03:55Z</time></trkpt><trkpt lat="36.87710934149991" lon="15.005856015470302"><ele>117.0</ele><time>2026-03-28T15:03:56Z</time></trkpt><trkpt lat="36.87703916164034" lon="15.005795538565502"><ele>117.0</ele><time>2026-03-28T15:03:57Z</time></trkpt><trkpt lat="36.87698005522313" lon="15.005734431561583"><ele>117.0</ele><time>2026-03-28T15:03:58Z</time></trkpt><trkpt lat="36.87692853895836" lon="15.00566928257904"><ele>117.0</ele><time>2026-03-28T15:03:59Z</time></trkpt><trkpt lat="36.87688152450283" lon="15.00561251284541"><ele>117.0</ele><time>2026-03-28T15:04:00Z</time></trkpt><trkpt lat="36.87679163590201" lon="15.005543417324716"><ele>117.0</ele><time>2026-03-28T15:04:02Z</time></trkpt><trkpt lat="36.8767855473112" lon="15.005443018427101"><ele>117.0</ele><time>2026-03-28T15:04:05Z</time></trkpt><trkpt lat="36.87683251155044" lon="15.005386094720148"><ele>117.0</ele><time>2026-03-28T15:04:08Z</time></trkpt><trkpt lat="36.87688176451209" lon="15.005289998245523"><ele>116.99999999999999</ele><time>2026-03-28T15:04:44.999Z</time></trkpt><trkpt lat="36.876941302910595" lon="15.005247700642027"><ele>116.99999999999999</ele><time>2026-03-28T15:04:45.999Z</time></trkpt><trkpt lat="36.877017234065505" lon="15.005192452720536"><ele>117.0</ele><time>2026-03-28T15:04:46.999Z</time></trkpt><trkpt lat="36.877128673732685" lon="15.005124881197679"><ele>117.0</ele><time>2026-03-28T15:04:47.999Z</time></trkpt><trkpt lat="36.8772598669786" lon="15.005096381906034"><ele>117.0</ele><time>2026-03-28T15:04:48.999Z</time></trkpt><trkpt lat="36.87737234101227" lon="15.005037951024253"><ele>117.0</ele><time>2026-03-28T15:04:49.999Z</time></trkpt><trkpt lat="36.877477477853766" lon="15.004981885518358"><ele>117.0</ele><time>2026-03-28T15:04:50.999Z</time></trkpt><trkpt lat="36.87758295811499" lon="15.004887197832359"><ele>117.0</ele><time>2026-03-28T15:04:51.999Z</time></trkpt><trkpt lat="36.877676926846235" lon="15.004783769636152"><ele>117.39999999999999</ele><time>2026-03-28T15:04:52.999Z</time></trkpt><trkpt lat="36.87776730405349" lon="15.00470543517744"><ele>117.79999999999998</ele><time>2026-03-28T15:04:53.999Z</time></trkpt><trkpt lat="36.87785797542706" lon="15.004637027444552"><ele>118.2</ele><time>2026-03-28T15:04:54.999Z</time></trkpt><trkpt lat="36.87795291983624" lon="15.004598684548819"><ele>118.6</ele><time>2026-03-28T15:04:55.999Z</time></trkpt><trkpt lat="36.878059522018" lon="15.004546902768892"><ele>119.0</ele><time>2026-03-28T15:04:56.999Z</time></trkpt><trkpt lat="36.87818401146429" lon="15.004483125146084"><ele>119.0</ele><time>2026-03-28T15:04:57.999Z</time></trkpt><trkpt lat="36.878306423305524" lon="15.004388134566902"><ele>119.0</ele><time>2026-03-28T15:04:58.999Z</time></trkpt><trkpt lat="36.87843121990286" lon="15.004315294650004"><ele>119.0</ele><time>2026-03-28T15:04:59.999Z</time></trkpt><trkpt lat="36.87855782067949" lon="15.00426926068403"><ele>119.0</ele><time>2026-03-28T15:05:00.999Z</time></trkpt><trkpt lat="36.87868559392559" lon="15.004254107831969"><ele>119.80000000000001</ele><time>2026-03-28T15:05:01.999Z</time></trkpt><trkpt lat="36.8788193393507" lon="15.004252438226784"><ele>120.60000000000001</ele><time>2026-03-28T15:05:02.999Z</time></trkpt><trkpt lat="36.878937996525686" lon="15.004242915777313"><ele>121.4</ele><time>2026-03-28T15:05:03.999Z</time></trkpt><trkpt lat="36.87901104751721" lon="15.004203454250597"><ele>122.2</ele><time>2026-03-28T15:05:04.999Z</time></trkpt><trkpt lat="36.87906646589683" lon="15.004136361387722"><ele>123.0</ele><time>2026-03-28T15:05:05.999Z</time></trkpt><trkpt lat="36.879125824731354" lon="15.004031394371875"><ele>123.0</ele><time>2026-03-28T15:05:06.999Z</time></trkpt><trkpt lat="36.87918540251894" lon="15.003903946369785"><ele>123.00000000000001</ele><time>2026-03-28T15:05:07.999Z</time></trkpt><trkpt lat="36.87924426714663" lon="15.003793682325986"><ele>123.00000000000001</ele><time>2026-03-28T15:05:08.999Z</time></trkpt><trkpt lat="36.879316919723536" lon="15.003715679527993"><ele>123.0</ele><time>2026-03-28T15:05:09.999Z</time></trkpt><trkpt lat="36.87940874611055" lon="15.003658483181887"><ele>123.0</ele><time>2026-03-28T15:05:10.999Z</time></trkpt><trkpt lat="36.879509954110986" lon="15.003625107802453"><ele>124.2</ele><time>2026-03-28T15:05:11.999Z</time></trkpt><trkpt lat="36.879603516210054" lon="15.003616989430826"><ele>125.4</ele><time>2026-03-28T15:05:12.999Z</time></trkpt><trkpt lat="36.879711867460465" lon="15.003575993574787"><ele>126.60000000000001</ele><time>2026-03-28T15:05:13.999Z</time></trkpt><trkpt lat="36.87982576069815" lon="15.003533534556858"><ele>127.80000000000001</ele><time>2026-03-28T15:05:14.999Z</time></trkpt><trkpt lat="36.87993970047096" lon="15.00350194516808"><ele>129.0</ele><time>2026-03-28T15:05:15.999Z</time></trkpt><trkpt lat="36.88002648107029" lon="15.0034727257196"><ele>129.66666666666666</ele><time>2026-03-28T15:05:16.999Z</time></trkpt><trkpt lat="36.880101695162466" lon="15.003461836542973"><ele>130.33333333333334</ele><time>2026-03-28T15:05:17.999Z</time></trkpt><trkpt lat="36.8801694902501" lon="15.003475428116435"><ele>131.0</ele><time>2026-03-28T15:05:18.999Z</time></trkpt><trkpt lat="36.880236952310675" lon="15.003511040559204"><ele>131.66666666666669</ele><time>2026-03-28T15:05:19.999Z</time></trkpt><trkpt lat="36.88033469768293" lon="15.003553295295541"><ele>132.33333333333334</ele><time>2026-03-28T15:05:20.999Z</time></trkpt><trkpt lat="36.880448295518306" lon="15.003593904055284"><ele>133.0</ele><time>2026-03-28T15:05:21.999Z</time></trkpt><trkpt lat="36.880564467201886" lon="15.003613772404579"><ele>133.0</ele><time>2026-03-28T15:05:22.999Z</time></trkpt><trkpt lat="36.88067441860874" lon="15.003627781942281"><ele>133.0</ele><time>2026-03-28T15:05:23.999Z</time></trkpt><trkpt lat="36.8807725401444" lon="15.003636895433893"><ele>133.0</ele><time>2026-03-28T15:05:24.999Z</time></trkpt><trkpt lat="36.8808580224212" lon="15.003628267912399"><ele>133.0</ele><time>2026-03-28T15:05:25.999Z</time></trkpt><trkpt lat="36.88094567450413" lon="15.00359888574332"><ele>133.0</ele><time>2026-03-28T15:05:26.999Z</time></trkpt><trkpt lat="36.88103696699031" lon="15.003555016907779"><ele>133.0</ele><time>2026-03-28T15:05:27.998Z</time></trkpt><trkpt lat="36.88113382542034" lon="15.003511653269143"><ele>133.0</ele><time>2026-03-28T15:05:28.998Z</time></trkpt><trkpt lat="36.88123421212481" lon="15.003472896272749"><ele>133.0</ele><time>2026-03-28T15:05:29.998Z</time></trkpt><trkpt lat="36.88132714247668" lon="15.003411526879306"><ele>133.0</ele><time>2026-03-28T15:05:30.998Z</time></trkpt><trkpt lat="36.8814102010095" lon="15.003346622913957"><ele>133.0</ele><time>2026-03-28T15:05:31.998Z</time></trkpt><trkpt lat="36.88149721331899" lon="15.003296813114368"><ele>134.5</ele><time>2026-03-28T15:05:32.998Z</time></trkpt><trkpt lat="36.88159487332482" lon="15.003264197835025"><ele>136.0</ele><time>2026-03-28T15:05:33.998Z</time></trkpt><trkpt lat="36.88169465109253" lon="15.00322694230277"><ele>137.5</ele><time>2026-03-28T15:05:34.998Z</time></trkpt><trkpt lat="36.88177159584498" lon="15.003167255955022"><ele>139.0</ele><time>2026-03-28T15:05:35.998Z</time></trkpt><trkpt lat="36.88183924140471" lon="15.003102999042937"><ele>140.5</ele><time>2026-03-28T15:05:36.998Z</time></trkpt><trkpt lat="36.88190286757486" lon="15.003078544759042"><ele>142.0</ele><time>2026-03-28T15:05:37.998Z</time></trkpt><trkpt lat="36.881974574337406" lon="15.003065465711563"><ele>142.0</ele><time>2026-03-28T15:05:38.998Z</time></trkpt><trkpt lat="36.88205240525142" lon="15.003086066210596"><ele>142.0</ele><time>2026-03-28T15:05:39.998Z</time></trkpt><trkpt lat="36.88213725201581" lon="15.003076433149584"><ele>142.0</ele><time>2026-03-28T15:05:40.998Z</time></trkpt><trkpt lat="36.88221936814117" lon="15.003051554372528"><ele>142.0</ele><time>2026-03-28T15:05:41.998Z</time></trkpt><trkpt lat="36.88229544721306" lon="15.00303512863844"><ele>142.0</ele><time>2026-03-28T15:05:42.998Z</time></trkpt><trkpt lat="36.882366693773186" lon="15.003037250759515"><ele>142.0</ele><time>2026-03-28T15:05:43.998Z</time></trkpt><trkpt lat="36.88241433376394" lon="15.003114148036309"><ele>142.0</ele><time>2026-03-28T15:05:47Z</time></trkpt><trkpt lat="36.88248432313538" lon="15.00316550587566"><ele>142.0</ele><time>2026-03-28T15:05:49Z</time></trkpt><trkpt lat="36.882588905637924" lon="15.003243544886145"><ele>142.0</ele><time>2026-03-28T15:05:51Z</time></trkpt><trkpt lat="36.882640096692164" lon="15.00330160445259"><ele>142.0</ele><time>2026-03-28T15:05:52Z</time></trkpt><trkpt lat="36.88270953902146" lon="15.003331685427103"><ele>142.0</ele><time>2026-03-28T15:05:53Z</time></trkpt><trkpt lat="36.88279051775234" lon="15.00331600230032"><ele>142.0</ele><time>2026-03-28T15:05:54Z</time></trkpt><trkpt lat="36.882885113600146" lon="15.003292754780098"><ele>143.16666666666669</ele><time>2026-03-28T15:05:55Z</time></trkpt><trkpt lat="36.88296651051495" lon="15.003282765982538"><ele>144.33333333333334</ele><time>2026-03-28T15:05:56Z</time></trkpt><trkpt lat="36.883055835929554" lon="15.003299324948497"><ele>145.5</ele><time>2026-03-28T15:05:57Z</time></trkpt><trkpt lat="36.88313876280217" lon="15.003330766464078"><ele>146.66666666666666</ele><time>2026-03-28T15:05:58Z</time></trkpt><trkpt lat="36.88323351034037" lon="15.00335934783079"><ele>147.83333333333331</ele><time>2026-03-28T15:05:59Z</time></trkpt><trkpt lat="36.88331121736738" lon="15.003413655880621"><ele>149.0</ele><time>2026-03-28T15:06:00Z</time></trkpt><trkpt lat="36.883373772484816" lon="15.00347337971297"><ele>152.33333333333331</ele><time>2026-03-28T15:06:01Z</time></trkpt><trkpt lat="36.88346496529935" lon="15.003541214786479"><ele>155.66666666666666</ele><time>2026-03-28T15:06:03Z</time></trkpt><trkpt lat="36.88353891335486" lon="15.003661725595649"><ele>159.0</ele><time>2026-03-28T15:06:05Z</time></trkpt><trkpt lat="36.8835663802392" lon="15.003733198557507"><ele>162.33333333333334</ele><time>2026-03-28T15:06:06Z</time></trkpt><trkpt lat="36.88360943970607" lon="15.003809259626948"><ele>165.66666666666669</ele><time>2026-03-28T15:06:07Z</time></trkpt><trkpt lat="36.883631343844975" lon="15.003896463309673"><ele>169.0</ele><time>2026-03-28T15:06:08Z</time></trkpt><trkpt lat="36.88369714099072" lon="15.003990200844145"><ele>169.0</ele><time>2026-03-28T15:06:10Z</time></trkpt><trkpt lat="36.88379609637474" lon="15.003925084556839"><ele>169.0</ele><time>2026-03-28T15:06:13Z</time></trkpt><trkpt lat="36.88382225977591" lon="15.003847728037496"><ele>169.0</ele><time>2026-03-28T15:06:15Z</time></trkpt><trkpt lat="36.88386318865998" lon="15.00375527659887"><ele>169.0</ele><time>2026-03-28T15:06:17Z</time></trkpt><trkpt lat="36.88389251171909" lon="15.003657370034531"><ele>169.0</ele><time>2026-03-28T15:06:19Z</time></trkpt><trkpt lat="36.88394981565043" lon="15.003561873307"><ele>169.0</ele><time>2026-03-28T15:06:21Z</time></trkpt><trkpt lat="36.88403881721145" lon="15.003461498937748"><ele>169.0</ele><time>2026-03-28T15:06:23Z</time></trkpt><trkpt lat="36.88417259789132" lon="15.003348154988009"><ele>169.0</ele><time>2026-03-28T15:06:24Z</time></trkpt><trkpt lat="36.88422284596555" lon="15.003294166948532"><ele>169.0</ele><time>2026-03-28T15:06:25Z</time></trkpt><trkpt lat="36.88427686236761" lon="15.003244554742098"><ele>169.0</ele><time>2026-03-28T15:06:26Z</time></trkpt><trkpt lat="36.88434101084227" lon="15.003242681095111"><ele>169.0</ele><time>2026-03-28T15:06:27Z</time></trkpt><trkpt lat="36.88441168745283" lon="15.003217812242427"><ele>169.0</ele><time>2026-03-28T15:06:28Z</time></trkpt><trkpt lat="36.88447923469442" lon="15.003197924732527"><ele>171.16666666666669</ele><time>2026-03-28T15:06:29Z</time></trkpt><trkpt lat="36.884605292960536" lon="15.003218566637095"><ele>173.33333333333334</ele><time>2026-03-28T15:06:30.999Z</time></trkpt><trkpt lat="36.88467342728472" lon="15.003241646936097"><ele>175.5</ele><time>2026-03-28T15:06:31.999Z</time></trkpt><trkpt lat="36.884745932793784" lon="15.003257711279621"><ele>177.66666666666666</ele><time>2026-03-28T15:06:32.999Z</time></trkpt><trkpt lat="36.88481819275279" lon="15.003260039211495"><ele>179.83333333333331</ele><time>2026-03-28T15:06:33.999Z</time></trkpt><trkpt lat="36.884882946765686" lon="15.0032857083225"><ele>182.0</ele><time>2026-03-28T15:06:34.999Z</time></trkpt><trkpt lat="36.884943682584726" lon="15.003340840427505"><ele>182.5</ele><time>2026-03-28T15:06:35.999Z</time></trkpt><trkpt lat="36.885041419420155" lon="15.00334364322839"><ele>183.0</ele><time>2026-03-28T15:06:37.999Z</time></trkpt><trkpt lat="36.885117185561384" lon="15.003340061803527"><ele>183.5</ele><time>2026-03-28T15:06:39.999Z</time></trkpt><trkpt lat="36.885158116189515" lon="15.003224704744296"><ele>184.0</ele><time>2026-03-28T15:09:22.999Z</time></trkpt><trkpt lat="36.885207644677784" lon="15.00315310392569"><ele>184.5</ele><time>2026-03-28T15:09:29.999Z</time></trkpt><trkpt lat="36.88525641641229" lon="15.003053204258944"><ele>185.0</ele><time>2026-03-28T15:09:31.999Z</time></trkpt><trkpt lat="36.885318333675436" lon="15.002983296478023"><ele>188.6</ele><time>2026-03-28T15:09:33.999Z</time></trkpt><trkpt lat="36.88537344526503" lon="15.00294028070087"><ele>192.2</ele><time>2026-03-28T15:11:59.998Z</time></trkpt><trkpt lat="36.885486833069386" lon="15.002883611423366"><ele>195.8</ele><time>2026-03-28T15:12:01.998Z</time></trkpt><trkpt lat="36.88555955119016" lon="15.002791578028548"><ele>199.4</ele><time>2026-03-28T15:12:04Z</time></trkpt><trkpt lat="36.88545517427213" lon="15.002663014337651"><ele>203.0</ele><time>2026-03-28T15:12:07Z</time></trkpt><trkpt lat="36.88533602077293" lon="15.002541773457306"><ele>200.0</ele><time>2026-03-28T15:12:09Z</time></trkpt><trkpt lat="36.88525296723849" lon="15.002447327136"><ele>197.0</ele><time>2026-03-28T15:12:10Z</time></trkpt><trkpt lat="36.88516664032462" lon="15.00235158884598"><ele>194.0</ele><time>2026-03-28T15:12:11Z</time></trkpt><trkpt lat="36.88505871247226" lon="15.002278017041824"><ele>191.0</ele><time>2026-03-28T15:12:12Z</time></trkpt><trkpt lat="36.88497984181928" lon="15.002189744462143"><ele>191.0</ele><time>2026-03-28T15:12:13Z</time></trkpt><trkpt lat="36.88491243778059" lon="15.002130614591419"><ele>191.0</ele><time>2026-03-28T15:12:14Z</time></trkpt><trkpt lat="36.8848548581981" lon="15.002093934606574"><ele>191.0</ele><time>2026-03-28T15:12:15Z</time></trkpt><trkpt lat="36.88482619695564" lon="15.001985608894064"><ele>191.0</ele><time>2026-03-28T15:12:17Z</time></trkpt><trkpt lat="36.88484815605192" lon="15.001904662268052"><ele>191.0</ele><time>2026-03-28T15:12:19Z</time></trkpt><trkpt lat="36.88490172846165" lon="15.001811840181219"><ele>191.0</ele><time>2026-03-28T15:12:22Z</time></trkpt><trkpt lat="36.88496255075271" lon="15.001726508032586"><ele>192.8</ele><time>2026-03-28T15:12:24Z</time></trkpt><trkpt lat="36.88500031216497" lon="15.001644506814504"><ele>194.60000000000002</ele><time>2026-03-28T15:12:25Z</time></trkpt><trkpt lat="36.88507093447753" lon="15.001555351985667"><ele>196.4</ele><time>2026-03-28T15:12:26Z</time></trkpt><trkpt lat="36.88515345406113" lon="15.001457506171315"><ele>198.2</ele><time>2026-03-28T15:12:27Z</time></trkpt><trkpt lat="36.88525089212328" lon="15.001336814063793"><ele>200.0</ele><time>2026-03-28T15:12:28Z</time></trkpt><trkpt lat="36.88533580390285" lon="15.001240935943837"><ele>202.33333333333334</ele><time>2026-03-28T15:12:29Z</time></trkpt><trkpt lat="36.88539801515096" lon="15.001163127520105"><ele>204.66666666666669</ele><time>2026-03-28T15:12:30Z</time></trkpt><trkpt lat="36.88545425522669" lon="15.001072568691145"><ele>207.0</ele><time>2026-03-28T15:12:31Z</time></trkpt><trkpt lat="36.88548821127429" lon="15.000993617447362"><ele>209.33333333333331</ele><time>2026-03-28T15:12:32Z</time></trkpt><trkpt lat="36.88554591491256" lon="15.00093538780465"><ele>211.66666666666666</ele><time>2026-03-28T15:12:33Z</time></trkpt><trkpt lat="36.88559503302454" lon="15.000821616220684"><ele>214.0</ele><time>2026-03-28T15:12:35Z</time></trkpt><trkpt lat="36.88558610731963" lon="15.000731673157514"><ele>214.00000000000003</ele><time>2026-03-28T15:12:36Z</time></trkpt><trkpt lat="36.88554884194554" lon="15.000638313987293"><ele>214.0</ele><time>2026-03-28T15:12:37Z</time></trkpt><trkpt lat="36.88552559673457" lon="15.000553480531044"><ele>214.0</ele><time>2026-03-28T15:12:38Z</time></trkpt><trkpt lat="36.88552701121341" lon="15.000454030047946"><ele>214.0</ele><time>2026-03-28T15:12:40Z</time></trkpt><trkpt lat="36.88555109974208" lon="15.000371303826801"><ele>214.0</ele><time>2026-03-28T15:12:42Z</time></trkpt><trkpt lat="36.88561191271141" lon="15.000331629438712"><ele>214.00000000000003</ele><time>2026-03-28T15:12:43Z</time></trkpt><trkpt lat="36.88567804411387" lon="15.00031140999269"><ele>214.0</ele><time>2026-03-28T15:12:44Z</time></trkpt><trkpt lat="36.88574803363107" lon="15.000301098170214"><ele>214.0</ele><time>2026-03-28T15:12:45Z</time></trkpt><trkpt lat="36.88583488003125" lon="15.00033193243417"><ele>213.99999999999997</ele><time>2026-03-28T15:12:47Z</time></trkpt><trkpt lat="36.885917526178446" lon="15.00042160324981"><ele>213.99999999999997</ele><time>2026-03-28T15:12:49Z</time></trkpt><trkpt lat="36.885960540741635" lon="15.000485463485855"><ele>214.0</ele><time>2026-03-28T15:12:50Z</time></trkpt><trkpt lat="36.886027209297716" lon="15.000582695504393"><ele>214.0</ele><time>2026-03-28T15:12:51.999Z</time></trkpt><trkpt lat="36.88606160655816" lon="15.000682514781438"><ele>216.2</ele><time>2026-03-28T15:12:53.999Z</time></trkpt><trkpt lat="36.88609711995614" lon="15.00080883780283"><ele>218.39999999999998</ele><time>2026-03-28T15:12:55.999Z</time></trkpt><trkpt lat="36.88608703022509" lon="15.00094212361162"><ele>220.6</ele><time>2026-03-28T15:12:57.999Z</time></trkpt><trkpt lat="36.886056038033956" lon="15.00104747712854"><ele>222.8</ele><time>2026-03-28T15:12:59.999Z</time></trkpt><trkpt lat="36.8859847125814" lon="15.001153216060809"><ele>225.0</ele><time>2026-03-28T15:13:01.999Z</time></trkpt><trkpt lat="36.88594898850503" lon="15.00122111773878"><ele>223.66666666666666</ele><time>2026-03-28T15:13:02.999Z</time></trkpt><trkpt lat="36.88589686908863" lon="15.00136229286789"><ele>222.33333333333331</ele><time>2026-03-28T15:13:04.999Z</time></trkpt><trkpt lat="36.88587161842861" lon="15.001443403321609"><ele>221.0</ele><time>2026-03-28T15:13:05.999Z</time></trkpt><trkpt lat="36.885842117286835" lon="15.001519838572229"><ele>219.66666666666666</ele><time>2026-03-28T15:13:06.999Z</time></trkpt><trkpt lat="36.88581435123561" lon="15.001596346110677"><ele>218.33333333333331</ele><time>2026-03-28T15:13:07.999Z</time></trkpt><trkpt lat="36.88578792123781" lon="15.001709532360657"><ele>217.0</ele><time>2026-03-28T15:13:09.999Z</time></trkpt><trkpt lat="36.885837385514435" lon="15.001797039381884"><ele>221.2</ele><time>2026-03-28T15:13:11.999Z</time></trkpt><trkpt lat="36.885929589782535" lon="15.001822930068291"><ele>225.39999999999998</ele><time>2026-03-28T15:13:13.999Z</time></trkpt><trkpt lat="36.885998115232695" lon="15.001848472380608"><ele>229.60000000000002</ele><time>2026-03-28T15:13:15.999Z</time></trkpt><trkpt lat="36.88608675871402" lon="15.00190325018345"><ele>233.8</ele><time>2026-03-28T15:13:17.999Z</time></trkpt><trkpt lat="36.88614977526588" lon="15.00192515577125"><ele>238.0</ele><time>2026-03-28T15:13:18.999Z</time></trkpt><trkpt lat="36.88626812645482" lon="15.001957866524855"><ele>238.0</ele><time>2026-03-28T15:13:19.999Z</time></trkpt><trkpt lat="36.886403504516615" lon="15.001993953791144"><ele>238.0</ele><time>2026-03-28T15:13:20.999Z</time></trkpt><trkpt lat="36.88654340121979" lon="15.002044304944878"><ele>238.0</ele><time>2026-03-28T15:13:21.999Z</time></trkpt><trkpt lat="36.88666946545348" lon="15.002092198113509"><ele>238.0</ele><time>2026-03-28T15:13:22.999Z</time></trkpt><trkpt lat="36.88677003690252" lon="15.002131248109368"><ele>239.49999999999997</ele><time>2026-03-28T15:13:23.999Z</time></trkpt><trkpt lat="36.88684328475513" lon="15.002167184712885"><ele>241.0</ele><time>2026-03-28T15:13:24.999Z</time></trkpt><trkpt lat="36.886898316082" lon="15.00223334801547"><ele>242.5</ele><time>2026-03-28T15:13:25.999Z</time></trkpt><trkpt lat="36.886968437271385" lon="15.002301621484275"><ele>244.0</ele><time>2026-03-28T15:13:27.999Z</time></trkpt><trkpt lat="36.887013318735065" lon="15.002380144473868"><ele>245.49999999999997</ele><time>2026-03-28T15:13:29.999Z</time></trkpt><trkpt lat="36.887065683673804" lon="15.00243942413611"><ele>247.0</ele><time>2026-03-28T15:13:31.999Z</time></trkpt><trkpt lat="36.88711208216603" lon="15.002503425270636"><ele>247.0</ele><time>2026-03-28T15:13:50.999Z</time></trkpt><trkpt lat="36.88720196134051" lon="15.002428155451877"><ele>247.0</ele><time>2026-03-28T15:13:51.999Z</time></trkpt><trkpt lat="36.8872263151932" lon="15.002271009562694"><ele>247.0</ele><time>2026-03-28T15:13:53.999Z</time></trkpt><trkpt lat="36.887238569724964" lon="15.002188350870655"><ele>247.0</ele><time>2026-03-28T15:13:54.999Z</time></trkpt><trkpt lat="36.88730053114358" lon="15.00217280413534"><ele>247.0</ele><time>2026-03-28T15:13:55.998Z</time></trkpt><trkpt lat="36.8873352832907" lon="15.002076614570969"><ele>246.99999999999997</ele><time>2026-03-28T15:13:57.998Z</time></trkpt><trkpt lat="36.8873920539541" lon="15.001949191009668"><ele>247.0</ele><time>2026-03-28T15:13:59.998Z</time></trkpt><trkpt lat="36.88740359123303" lon="15.001870371952794"><ele>247.0</ele><time>2026-03-28T15:14:00.998Z</time></trkpt><trkpt lat="36.8873875088393" lon="15.001741765035453"><ele>247.0</ele><time>2026-03-28T15:14:02.998Z</time></trkpt><trkpt lat="36.88740683891604" lon="15.001657300469384"><ele>246.99999999999997</ele><time>2026-03-28T15:14:05.998Z</time></trkpt><trkpt lat="36.88746170545916" lon="15.001581202468017"><ele>247.0</ele><time>2026-03-28T15:21:14Z</time></trkpt><trkpt lat="36.88749491319195" lon="15.001512030365886"><ele>246.66666666666666</ele><time>2026-03-28T15:21:48.999Z</time></trkpt><trkpt lat="36.887538800421076" lon="15.001447466109905"><ele>246.33333333333331</ele><time>2026-03-28T15:21:49.999Z</time></trkpt><trkpt lat="36.88759739097453" lon="15.00136728476732"><ele>246.0</ele><time>2026-03-28T15:21:50.999Z</time></trkpt><trkpt lat="36.88767541396388" lon="15.001291902158584"><ele>245.66666666666669</ele><time>2026-03-28T15:21:51.999Z</time></trkpt><trkpt lat="36.887738533837705" lon="15.001222507374372"><ele>245.33333333333334</ele><time>2026-03-28T15:21:52.999Z</time></trkpt><trkpt lat="36.88782722380838" lon="15.00116217454267"><ele>245.0</ele><time>2026-03-28T15:21:54.999Z</time></trkpt><trkpt lat="36.88792155952517" lon="15.00108230460791"><ele>245.0</ele><time>2026-03-28T15:21:57.999Z</time></trkpt><trkpt lat="36.88805500414652" lon="15.001028476146718"><ele>245.0</ele><time>2026-03-28T15:21:59.999Z</time></trkpt><trkpt lat="36.8881334651189" lon="15.000986616001834"><ele>245.0</ele><time>2026-03-28T15:22:00.999Z</time></trkpt><trkpt lat="36.88822964081552" lon="15.000915063748485"><ele>245.0</ele><time>2026-03-28T15:22:01.999Z</time></trkpt><trkpt lat="36.88832275401176" lon="15.000842672030236"><ele>245.0</ele><time>2026-03-28T15:22:02.999Z</time></trkpt><trkpt lat="36.88840975416379" lon="15.000797624600546"><ele>245.8</ele><time>2026-03-28T15:22:03.999Z</time></trkpt><trkpt lat="36.88847261068853" lon="15.000733808064316"><ele>246.6</ele><time>2026-03-28T15:22:04.999Z</time></trkpt><trkpt lat="36.88854810695603" lon="15.000695706228518"><ele>247.39999999999998</ele><time>2026-03-28T15:22:05.999Z</time></trkpt><trkpt lat="36.88861311537388" lon="15.000652827106343"><ele>248.2</ele><time>2026-03-28T15:22:06.999Z</time></trkpt><trkpt lat="36.888728668688984" lon="15.000576377762089"><ele>249.0</ele><time>2026-03-28T15:22:08.999Z</time></trkpt><trkpt lat="36.88881253724121" lon="15.000531157434812"><ele>249.0</ele><time>2026-03-28T15:22:09.999Z</time></trkpt><trkpt lat="36.888906486154085" lon="15.000475732364608"><ele>249.0</ele><time>2026-03-28T15:22:10.999Z</time></trkpt><trkpt lat="36.88899467761421" lon="15.000421976494467"><ele>249.0</ele><time>2026-03-28T15:22:11.999Z</time></trkpt><trkpt lat="36.8890663436806" lon="15.00037434781445"><ele>249.0</ele><time>2026-03-28T15:22:12.999Z</time></trkpt><trkpt lat="36.88913728890532" lon="15.000336016975849"><ele>249.0</ele><time>2026-03-28T15:22:13.999Z</time></trkpt><trkpt lat="36.88920831975504" lon="15.000301540559978"><ele>249.0</ele><time>2026-03-28T15:22:14.999Z</time></trkpt><trkpt lat="36.88927353786347" lon="15.000271269524413"><ele>250.66666666666666</ele><time>2026-03-28T15:22:15.999Z</time></trkpt><trkpt lat="36.88934045747373" lon="15.000229311422038"><ele>252.33333333333331</ele><time>2026-03-28T15:22:16.999Z</time></trkpt><trkpt lat="36.88943265616906" lon="15.000170251875613"><ele>254.0</ele><time>2026-03-28T15:22:18.999Z</time></trkpt><trkpt lat="36.88949982192684" lon="15.000107746048329"><ele>255.66666666666666</ele><time>2026-03-28T15:22:22.999Z</time></trkpt><trkpt lat="36.88957068865493" lon="15.000073483369375"><ele>257.3333333333333</ele><time>2026-03-28T15:22:25.998Z</time></trkpt><trkpt lat="36.88963546609242" lon="15.00002673665672"><ele>259.0</ele><time>2026-03-28T15:22:27.998Z</time></trkpt><trkpt lat="36.889705886964336" lon="14.999973512488577"><ele>259.0</ele><time>2026-03-28T15:22:29.998Z</time></trkpt><trkpt lat="36.88982016175502" lon="14.999903974484958"><ele>259.0</ele><time>2026-03-28T15:22:31.998Z</time></trkpt><trkpt lat="36.889891765065684" lon="14.999847989907558"><ele>259.0</ele><time>2026-03-28T15:22:32.998Z</time></trkpt><trkpt lat="36.889959448818864" lon="14.999788499453611"><ele>259.0</ele><time>2026-03-28T15:22:34Z</time></trkpt><trkpt lat="36.89003809205688" lon="14.999787691836563"><ele>259.0</ele><time>2026-03-28T15:22:35Z</time></trkpt><trkpt lat="36.89009349151215" lon="14.999729891279202"><ele>259.0</ele><time>2026-03-28T15:22:36Z</time></trkpt><trkpt lat="36.89013254868834" lon="14.999662226213127"><ele>256.75</ele><time>2026-03-28T15:22:37Z</time></trkpt><trkpt lat="36.89018675579627" lon="14.99954072321013"><ele>254.5</ele><time>2026-03-28T15:22:38Z</time></trkpt><trkpt lat="36.890257824729304" lon="14.999429817264398"><ele>252.25</ele><time>2026-03-28T15:22:39Z</time></trkpt><trkpt lat="36.89033014289052" lon="14.999283746815856"><ele>250.0</ele><time>2026-03-28T15:22:40Z</time></trkpt><trkpt lat="36.890407198084866" lon="14.99912450677031"><ele>249.5</ele><time>2026-03-28T15:22:41Z</time></trkpt><trkpt lat="36.89047698976882" lon="14.99898027727812"><ele>249.0</ele><time>2026-03-28T15:22:42Z</time></trkpt><trkpt lat="36.890528283978405" lon="14.9988398851494"><ele>248.5</ele><time>2026-03-28T15:22:43Z</time></trkpt><trkpt lat="36.89059400868957" lon="14.998713656833331"><ele>248.0</ele><time>2026-03-28T15:22:44Z</time></trkpt><trkpt lat="36.89067585541001" lon="14.998571910328335"><ele>248.00000000000003</ele><time>2026-03-28T15:22:45Z</time></trkpt><trkpt lat="36.890748260088905" lon="14.998447948574782"><ele>248.0</ele><time>2026-03-28T15:22:46Z</time></trkpt><trkpt lat="36.89079664443446" lon="14.998369185444474"><ele>248.0</ele><time>2026-03-28T15:22:47Z</time></trkpt><trkpt lat="36.89084308651458" lon="14.99830296536876"><ele>248.0</ele><time>2026-03-28T15:22:48Z</time></trkpt><trkpt lat="36.8908840909105" lon="14.998227030165994"><ele>248.00000000000003</ele><time>2026-03-28T15:22:49Z</time></trkpt><trkpt lat="36.89093466983401" lon="14.998152694332804"><ele>248.0</ele><time>2026-03-28T15:22:50Z</time></trkpt><trkpt lat="36.890993037612795" lon="14.998094167332644"><ele>247.71428571428572</ele><time>2026-03-28T15:22:51Z</time></trkpt><trkpt lat="36.89105464838955" lon="14.99802484473516"><ele>247.42857142857144</ele><time>2026-03-28T15:22:52Z</time></trkpt><trkpt lat="36.89109816680716" lon="14.997963355379008"><ele>247.14285714285717</ele><time>2026-03-28T15:22:53Z</time></trkpt><trkpt lat="36.89113006206398" lon="14.997882800972235"><ele>246.8571428571429</ele><time>2026-03-28T15:22:54Z</time></trkpt><trkpt lat="36.89114388153669" lon="14.997788445078443"><ele>246.57142857142858</ele><time>2026-03-28T15:22:55Z</time></trkpt><trkpt lat="36.89114809717254" lon="14.997692800048409"><ele>246.28571428571433</ele><time>2026-03-28T15:22:56Z</time></trkpt><trkpt lat="36.8911491406972" lon="14.997602600272488"><ele>246.00000000000003</ele><time>2026-03-28T15:22:57Z</time></trkpt><trkpt lat="36.89116085949367" lon="14.997489299394712"><ele>246.00000000000003</ele><time>2026-03-28T15:22:59Z</time></trkpt><trkpt lat="36.891097379655896" lon="14.997480265518382"><ele>246.0</ele><time>2026-03-28T15:23:04Z</time></trkpt><trkpt lat="36.891047430975625" lon="14.997529040559606"><ele>246.00000000000003</ele><time>2026-03-28T15:23:10Z</time></trkpt><trkpt lat="36.890968008992544" lon="14.997594093165318"><ele>246.00000000000003</ele><time>2026-03-28T15:23:14Z</time></trkpt><trkpt lat="36.89091427733313" lon="14.997659111816876"><ele>246.0</ele><time>2026-03-28T15:23:15Z</time></trkpt><trkpt lat="36.89087261746487" lon="14.997722811863902"><ele>246.00000000000003</ele><time>2026-03-28T15:23:16Z</time></trkpt><trkpt lat="36.89080622874134" lon="14.997751059993899"><ele>246.00000000000003</ele><time>2026-03-28T15:23:17Z</time></trkpt><trkpt lat="36.89078409129714" lon="14.997836081444131"><ele>245.66666666666666</ele><time>2026-03-28T15:23:18Z</time></trkpt><trkpt lat="36.89072267385067" lon="14.997879457268674"><ele>245.33333333333331</ele><time>2026-03-28T15:23:18.999Z</time></trkpt><trkpt lat="36.89065378375325" lon="14.99792761755361"><ele>245.0</ele><time>2026-03-28T15:23:19.999Z</time></trkpt><trkpt lat="36.89059540549374" lon="14.99798677515682"><ele>244.66666666666666</ele><time>2026-03-28T15:23:20.999Z</time></trkpt><trkpt lat="36.89053359247901" lon="14.998040366492816"><ele>244.33333333333331</ele><time>2026-03-28T15:23:21.999Z</time></trkpt><trkpt lat="36.89046811832561" lon="14.998057084575612"><ele>244.0</ele><time>2026-03-28T15:23:22.999Z</time></trkpt><trkpt lat="36.89034056751744" lon="14.998082702679625"><ele>243.99999999999997</ele><time>2026-03-28T15:23:24.999Z</time></trkpt><trkpt lat="36.890280825755646" lon="14.998114453973445"><ele>244.0</ele><time>2026-03-28T15:23:25.999Z</time></trkpt><trkpt lat="36.89021234763328" lon="14.99813764528509"><ele>244.0</ele><time>2026-03-28T15:23:26.999Z</time></trkpt><trkpt lat="36.8901484549771" lon="14.998167761074837"><ele>244.0</ele><time>2026-03-28T15:23:27.999Z</time></trkpt><trkpt lat="36.89003444208522" lon="14.998235604245798"><ele>243.99999999999997</ele><time>2026-03-28T15:23:29.999Z</time></trkpt><trkpt lat="36.88996882237952" lon="14.998266339330256"><ele>244.0</ele><time>2026-03-28T15:23:30.999Z</time></trkpt><trkpt lat="36.889907490879615" lon="14.998292925076393"><ele>244.33333333333331</ele><time>2026-03-28T15:23:31.999Z</time></trkpt><trkpt lat="36.889838556617185" lon="14.998335504497252"><ele>244.66666666666666</ele><time>2026-03-28T15:23:32.999Z</time></trkpt><trkpt lat="36.88977161877832" lon="14.998375521183185"><ele>245.0</ele><time>2026-03-28T15:23:33.999Z</time></trkpt><trkpt lat="36.88971227767358" lon="14.998428092806424"><ele>245.33333333333331</ele><time>2026-03-28T15:23:34.999Z</time></trkpt><trkpt lat="36.88959791018686" lon="14.998439329948189"><ele>245.66666666666666</ele><time>2026-03-28T15:23:36.999Z</time></trkpt><trkpt lat="36.889501312051436" lon="14.998459426439211"><ele>246.0</ele><time>2026-03-28T15:23:38.999Z</time></trkpt><trkpt lat="36.88944034542869" lon="14.998491375401551"><ele>246.0</ele><time>2026-03-28T15:23:39.999Z</time></trkpt><trkpt lat="36.889357017824715" lon="14.998507066021503"><ele>246.0</ele><time>2026-03-28T15:23:40.999Z</time></trkpt><trkpt lat="36.88926758320968" lon="14.998573876454238"><ele>246.0</ele><time>2026-03-28T15:23:41.999Z</time></trkpt><trkpt lat="36.88919616432366" lon="14.998600908715893"><ele>246.0</ele><time>2026-03-28T15:23:42.999Z</time></trkpt><trkpt lat="36.88913402579715" lon="14.998623148577343"><ele>246.0</ele><time>2026-03-28T15:23:43.999Z</time></trkpt><trkpt lat="36.889044353102534" lon="14.998644664931627"><ele>246.0</ele><time>2026-03-28T15:23:45.999Z</time></trkpt><trkpt lat="36.88899706553313" lon="14.998708007335667"><ele>241.8</ele><time>2026-03-28T15:23:47.999Z</time></trkpt><trkpt lat="36.889000227290175" lon="14.998840161432495"><ele>237.60000000000002</ele><time>2026-03-28T15:23:49.999Z</time></trkpt><trkpt lat="36.88892750842741" lon="14.998913572732775"><ele>233.4</ele><time>2026-03-28T15:23:51.999Z</time></trkpt><trkpt lat="36.88880495249791" lon="14.998892477048885"><ele>229.2</ele><time>2026-03-28T15:23:53.999Z</time></trkpt><trkpt lat="36.88869055163115" lon="14.998920644220966"><ele>225.0</ele><time>2026-03-28T15:23:55.999Z</time></trkpt><trkpt lat="36.88859173776257" lon="14.998982849986763"><ele>225.0</ele><time>2026-03-28T15:23:57.999Z</time></trkpt><trkpt lat="36.88850535145349" lon="14.999051429897243"><ele>225.0</ele><time>2026-03-28T15:23:59.999Z</time></trkpt><trkpt lat="36.88841663849073" lon="14.99911750589622"><ele>225.0</ele><time>2026-03-28T15:24:01.999Z</time></trkpt><trkpt lat="36.88831384046199" lon="14.999078713572192"><ele>225.0</ele><time>2026-03-28T15:24:03.999Z</time></trkpt><trkpt lat="36.88820861969609" lon="14.999016261885993"><ele>225.0</ele><time>2026-03-28T15:24:05.999Z</time></trkpt><trkpt lat="36.88815201721929" lon="14.998972693639145"><ele>221.5</ele><time>2026-03-28T15:24:06.999Z</time></trkpt><trkpt lat="36.88804297925565" lon="14.998928954204578"><ele>218.0</ele><time>2026-03-28T15:24:08.999Z</time></trkpt><trkpt lat="36.88795241442709" lon="14.998887209791903"><ele>214.5</ele><time>2026-03-28T15:24:10.999Z</time></trkpt><trkpt lat="36.88798022471124" lon="14.998790090794058"><ele>211.0</ele><time>2026-03-28T15:24:13.999Z</time></trkpt><trkpt lat="36.88804729945336" lon="14.998759659419093"><ele>207.5</ele><time>2026-03-28T15:24:15.999Z</time></trkpt><trkpt lat="36.88804903381371" lon="14.998659805579354"><ele>204.0</ele><time>2026-03-28T15:24:18.999Z</time></trkpt><trkpt lat="36.88796629867003" lon="14.998638185318049"><ele>204.0</ele><time>2026-03-28T15:24:21.999Z</time></trkpt><trkpt lat="36.887852003070776" lon="14.998567695341213"><ele>204.0</ele><time>2026-03-28T15:24:23.998Z</time></trkpt><trkpt lat="36.88777451940663" lon="14.998521480169256"><ele>204.0</ele><time>2026-03-28T15:24:24.998Z</time></trkpt><trkpt lat="36.887698497442514" lon="14.998484439662793"><ele>204.0</ele><time>2026-03-28T15:24:25.998Z</time></trkpt><trkpt lat="36.8876277136718" lon="14.998426985936613"><ele>204.0</ele><time>2026-03-28T15:24:26.998Z</time></trkpt><trkpt lat="36.88752875667492" lon="14.998315963911182"><ele>199.2</ele><time>2026-03-28T15:24:27.998Z</time></trkpt><trkpt lat="36.887444406875645" lon="14.998211426540072"><ele>194.39999999999998</ele><time>2026-03-28T15:24:28.998Z</time></trkpt><trkpt lat="36.88738004610943" lon="14.99807924674313"><ele>189.6</ele><time>2026-03-28T15:24:30.998Z</time></trkpt><trkpt lat="36.88732940028887" lon="14.998031515620966"><ele>184.8</ele><time>2026-03-28T15:24:31.998Z</time></trkpt><trkpt lat="36.8872009522848" lon="14.9979760925458"><ele>180.0</ele><time>2026-03-28T15:24:33.998Z</time></trkpt><trkpt lat="36.887129999354464" lon="14.997956373649489"><ele>180.0</ele><time>2026-03-28T15:24:34.998Z</time></trkpt><trkpt lat="36.88704079916084" lon="14.997933287222207"><ele>180.0</ele><time>2026-03-28T15:24:35.998Z</time></trkpt><trkpt lat="36.886952372841094" lon="14.99792832540029"><ele>180.0</ele><time>2026-03-28T15:24:36.998Z</time></trkpt><trkpt lat="36.88687992239294" lon="14.997927816273572"><ele>180.0</ele><time>2026-03-28T15:24:37.998Z</time></trkpt><trkpt lat="36.88680300260671" lon="14.997950169364236"><ele>180.0</ele><time>2026-03-28T15:24:38.998Z</time></trkpt><trkpt lat="36.88672546458747" lon="14.997997312544994"><ele>180.0</ele><time>2026-03-28T15:24:40Z</time></trkpt><trkpt lat="36.88666654178561" lon="14.998043047439024"><ele>179.33333333333334</ele><time>2026-03-28T15:24:41Z</time></trkpt><trkpt lat="36.886554467717396" lon="14.998091548634418"><ele>178.66666666666666</ele><time>2026-03-28T15:24:43Z</time></trkpt><trkpt lat="36.88650255609937" lon="14.998141664522565"><ele>178.0</ele><time>2026-03-28T15:24:44Z</time></trkpt><trkpt lat="36.88644979044278" lon="14.998197836438314"><ele>177.33333333333331</ele><time>2026-03-28T15:24:45Z</time></trkpt><trkpt lat="36.886392736969974" lon="14.998240356914135"><ele>176.66666666666666</ele><time>2026-03-28T15:24:46Z</time></trkpt><trkpt lat="36.88630877812796" lon="14.998233121846058"><ele>176.0</ele><time>2026-03-28T15:24:48Z</time></trkpt><trkpt lat="36.88624678674369" lon="14.998174612243753"><ele>176.0</ele><time>2026-03-28T15:24:51Z</time></trkpt><trkpt lat="36.88613401113558" lon="14.998117686602795"><ele>176.0</ele><time>2026-03-28T15:24:53Z</time></trkpt><trkpt lat="36.88605421497317" lon="14.998085046810097"><ele>176.0</ele><time>2026-03-28T15:24:54Z</time></trkpt><trkpt lat="36.88596598327849" lon="14.998031859337587"><ele>176.0</ele><time>2026-03-28T15:24:55Z</time></trkpt><trkpt lat="36.88586396855557" lon="14.99796266961247"><ele>176.0</ele><time>2026-03-28T15:24:56Z</time></trkpt><trkpt lat="36.88575634076071" lon="14.997898786441198"><ele>175.4</ele><time>2026-03-28T15:24:57Z</time></trkpt><trkpt lat="36.88566088180613" lon="14.99783931791984"><ele>174.8</ele><time>2026-03-28T15:24:58Z</time></trkpt><trkpt lat="36.88556961279279" lon="14.997753403630128"><ele>174.20000000000002</ele><time>2026-03-28T15:24:59Z</time></trkpt><trkpt lat="36.88547968324566" lon="14.997656509779205"><ele>173.60000000000002</ele><time>2026-03-28T15:25:00Z</time></trkpt><trkpt lat="36.88540990002801" lon="14.997564864118251"><ele>173.0</ele><time>2026-03-28T15:25:01Z</time></trkpt><trkpt lat="36.88537431590735" lon="14.997463043749457"><ele>170.66666666666666</ele><time>2026-03-28T15:25:02Z</time></trkpt><trkpt lat="36.885372912979406" lon="14.997353411214238"><ele>168.33333333333331</ele><time>2026-03-28T15:25:03Z</time></trkpt><trkpt lat="36.88539225439283" lon="14.997241955075625"><ele>166.0</ele><time>2026-03-28T15:25:04Z</time></trkpt><trkpt lat="36.88541610566351" lon="14.997153788340752"><ele>163.66666666666666</ele><time>2026-03-28T15:25:05Z</time></trkpt><trkpt lat="36.885419875015835" lon="14.9970635088211"><ele>161.33333333333334</ele><time>2026-03-28T15:25:06Z</time></trkpt><trkpt lat="36.88533159971215" lon="14.996966438366663"><ele>159.0</ele><time>2026-03-28T15:25:08Z</time></trkpt><trkpt lat="36.88524781052212" lon="14.996974449012281"><ele>159.0</ele><time>2026-03-28T15:25:09Z</time></trkpt><trkpt lat="36.8851581098186" lon="14.996996812928414"><ele>159.0</ele><time>2026-03-28T15:25:10Z</time></trkpt><trkpt lat="36.88506034474164" lon="14.99700586013412"><ele>159.0</ele><time>2026-03-28T15:25:11Z</time></trkpt><trkpt lat="36.884973646706236" lon="14.996988987839535"><ele>159.0</ele><time>2026-03-28T15:25:11.999Z</time></trkpt><trkpt lat="36.884894983324344" lon="14.996963501368809"><ele>159.0</ele><time>2026-03-28T15:25:12.999Z</time></trkpt><trkpt lat="36.8848356931968" lon="14.99692176202245"><ele>159.0</ele><time>2026-03-28T15:25:13.999Z</time></trkpt><trkpt lat="36.88476805840712" lon="14.996859577254911"><ele>160.0</ele><time>2026-03-28T15:25:14.999Z</time></trkpt><trkpt lat="36.8847059177203" lon="14.996803303579464"><ele>161.0</ele><time>2026-03-28T15:25:15.999Z</time></trkpt><trkpt lat="36.884641860508225" lon="14.99677501067283"><ele>162.0</ele><time>2026-03-28T15:25:16.999Z</time></trkpt><trkpt lat="36.88457037341735" lon="14.996753938269837"><ele>163.0</ele><time>2026-03-28T15:25:17.999Z</time></trkpt><trkpt lat="36.88449757683501" lon="14.996712948408122"><ele>164.0</ele><time>2026-03-28T15:25:18.999Z</time></trkpt><trkpt lat="36.88442663352644" lon="14.996660707918881"><ele>165.0</ele><time>2026-03-28T15:25:19.999Z</time></trkpt><trkpt lat="36.88435225537479" lon="14.99660171660642"><ele>162.5</ele><time>2026-03-28T15:25:20.999Z</time></trkpt><trkpt lat="36.88427749279401" lon="14.996535320224348"><ele>160.0</ele><time>2026-03-28T15:25:21.999Z</time></trkpt><trkpt lat="36.88421244488888" lon="14.99645670119127"><ele>157.5</ele><time>2026-03-28T15:25:22.999Z</time></trkpt><trkpt lat="36.88415904076074" lon="14.99638340848012"><ele>155.0</ele><time>2026-03-28T15:25:23.999Z</time></trkpt><trkpt lat="36.88410423745878" lon="14.996330401583215"><ele>152.5</ele><time>2026-03-28T15:25:24.999Z</time></trkpt><trkpt lat="36.884043122754846" lon="14.996286526898164"><ele>150.0</ele><time>2026-03-28T15:25:25.999Z</time></trkpt><trkpt lat="36.883985337799174" lon="14.996244651448189"><ele>150.0</ele><time>2026-03-28T15:25:26.999Z</time></trkpt><trkpt lat="36.883884589934425" lon="14.99615141217923"><ele>150.0</ele><time>2026-03-28T15:25:28.999Z</time></trkpt><trkpt lat="36.883825932528644" lon="14.996068030191312"><ele>150.0</ele><time>2026-03-28T15:25:30.999Z</time></trkpt><trkpt lat="36.883827839712424" lon="14.995964560698098"><ele>150.0</ele><time>2026-03-28T15:25:32.999Z</time></trkpt><trkpt lat="36.88383356769573" lon="14.995883934887425"><ele>150.0</ele><time>2026-03-28T15:25:33.999Z</time></trkpt><trkpt lat="36.88382829081144" lon="14.995739131359018"><ele>147.6</ele><time>2026-03-28T15:25:34.999Z</time></trkpt><trkpt lat="36.883819395207524" lon="14.995612499714724"><ele>145.2</ele><time>2026-03-28T15:25:35.999Z</time></trkpt><trkpt lat="36.88381592596278" lon="14.99550317791971"><ele>142.8</ele><time>2026-03-28T15:25:36.999Z</time></trkpt><trkpt lat="36.88380421139835" lon="14.995422740111431"><ele>140.4</ele><time>2026-03-28T15:25:37.999Z</time></trkpt><trkpt lat="36.88378253592152" lon="14.99526816640573"><ele>138.0</ele><time>2026-03-28T15:25:39.999Z</time></trkpt><trkpt lat="36.883787132860995" lon="14.995176021971012"><ele>138.0</ele><time>2026-03-28T15:25:40.999Z</time></trkpt><trkpt lat="36.88378841022517" lon="14.995079532022654"><ele>138.0</ele><time>2026-03-28T15:25:41.999Z</time></trkpt><trkpt lat="36.883790916050685" lon="14.994985754512072"><ele>138.0</ele><time>2026-03-28T15:25:42.999Z</time></trkpt><trkpt lat="36.88380102208078" lon="14.994890388502753"><ele>138.0</ele><time>2026-03-28T15:25:43.999Z</time></trkpt><trkpt lat="36.883800603920406" lon="14.994808928189203"><ele>138.0</ele><time>2026-03-28T15:25:44.999Z</time></trkpt><trkpt lat="36.88379574830522" lon="14.994724226824344"><ele>138.0</ele><time>2026-03-28T15:25:45.999Z</time></trkpt><trkpt lat="36.883788436083414" lon="14.994625135869684"><ele>138.0</ele><time>2026-03-28T15:25:46.999Z</time></trkpt><trkpt lat="36.88379065973767" lon="14.994534601725983"><ele>135.4</ele><time>2026-03-28T15:25:47.999Z</time></trkpt><trkpt lat="36.88378503143916" lon="14.994418334103816"><ele>132.8</ele><time>2026-03-28T15:25:49.999Z</time></trkpt><trkpt lat="36.8837015114615" lon="14.994378496280799"><ele>130.2</ele><time>2026-03-28T15:25:51.999Z</time></trkpt><trkpt lat="36.88358851200637" lon="14.994375274410443"><ele>127.6</ele><time>2026-03-28T15:25:53.999Z</time></trkpt><trkpt lat="36.88348546101577" lon="14.994331144135296"><ele>125.0</ele><time>2026-03-28T15:25:55.999Z</time></trkpt><trkpt lat="36.883457000158856" lon="14.994257100181764"><ele>123.75</ele><time>2026-03-28T15:25:57.999Z</time></trkpt><trkpt lat="36.88346176143652" lon="14.994166333515377"><ele>122.5</ele><time>2026-03-28T15:25:59.999Z</time></trkpt><trkpt lat="36.88349226011751" lon="14.994036795620818"><ele>121.25</ele><time>2026-03-28T15:26:00.999Z</time></trkpt><trkpt lat="36.88353866572827" lon="14.993879969339531"><ele>120.0</ele><time>2026-03-28T15:26:01.999Z</time></trkpt><trkpt lat="36.883582825153596" lon="14.993709022210805"><ele>120.0</ele><time>2026-03-28T15:26:02.999Z</time></trkpt><trkpt lat="36.883621218649914" lon="14.993515340605848"><ele>120.0</ele><time>2026-03-28T15:26:03.999Z</time></trkpt><trkpt lat="36.88366451806426" lon="14.993291589455705"><ele>120.0</ele><time>2026-03-28T15:26:04.999Z</time></trkpt><trkpt lat="36.88371001058208" lon="14.9930690256332"><ele>121.4</ele><time>2026-03-28T15:26:05.999Z</time></trkpt><trkpt lat="36.88374573769271" lon="14.992880945398504"><ele>122.8</ele><time>2026-03-28T15:26:06.999Z</time></trkpt><trkpt lat="36.88376831503173" lon="14.99276321171401"><ele>124.19999999999999</ele><time>2026-03-28T15:26:07.999Z</time></trkpt><trkpt lat="36.88376119705496" lon="14.992670120838087"><ele>125.6</ele><time>2026-03-28T15:26:09.999Z</time></trkpt><trkpt lat="36.883835442854235" lon="14.992712629560868"><ele>127.0</ele><time>2026-03-28T15:26:15.999Z</time></trkpt><trkpt lat="36.88391145088236" lon="14.992739058116875"><ele>127.00000000000001</ele><time>2026-03-28T15:48:41.999Z</time></trkpt><trkpt lat="36.88402952272649" lon="14.99276220504369"><ele>127.0</ele><time>2026-03-28T15:48:43.999Z</time></trkpt><trkpt lat="36.88410954610679" lon="14.992784451382663"><ele>127.0</ele><time>2026-03-28T15:48:44.999Z</time></trkpt><trkpt lat="36.88419103104142" lon="14.992801143016653"><ele>127.0</ele><time>2026-03-28T15:48:45.999Z</time></trkpt><trkpt lat="36.88426156087698" lon="14.992838679262837"><ele>127.00000000000001</ele><time>2026-03-28T15:48:46.999Z</time></trkpt><trkpt lat="36.884334171894324" lon="14.992827307977144"><ele>127.0</ele><time>2026-03-28T15:48:47.999Z</time></trkpt><trkpt lat="36.884455758906036" lon="14.992832096852304"><ele>128.0</ele><time>2026-03-28T15:48:49.999Z</time></trkpt><trkpt lat="36.88452278764164" lon="14.992838264743872"><ele>129.0</ele><time>2026-03-28T15:48:50.999Z</time></trkpt><trkpt lat="36.88459634191833" lon="14.99284817743318"><ele>130.0</ele><time>2026-03-28T15:48:51.999Z</time></trkpt><trkpt lat="36.88467200135074" lon="14.992855225314099"><ele>131.0</ele><time>2026-03-28T15:48:52.999Z</time></trkpt><trkpt lat="36.88474106330854" lon="14.992859547433236"><ele>132.0</ele><time>2026-03-28T15:48:53.999Z</time></trkpt><trkpt lat="36.884847167672234" lon="14.992871932034616"><ele>133.0</ele><time>2026-03-28T15:48:55.999Z</time></trkpt><trkpt lat="36.88496147317584" lon="14.99286914745697"><ele>133.0</ele><time>2026-03-28T15:48:57.999Z</time></trkpt><trkpt lat="36.885082084370644" lon="14.992841755337516"><ele>133.0</ele><time>2026-03-28T15:48:59.999Z</time></trkpt><trkpt lat="36.88518047790624" lon="14.992790732275198"><ele>133.0</ele><time>2026-03-28T15:49:01.999Z</time></trkpt><trkpt lat="36.88525874277636" lon="14.992786425314621"><ele>133.0</ele><time>2026-03-28T15:49:03.999Z</time></trkpt><trkpt lat="36.88534536291413" lon="14.99283095547246"><ele>133.0</ele><time>2026-03-28T15:49:05.999Z</time></trkpt><trkpt lat="36.885456958095695" lon="14.992842792445666"><ele>134.8</ele><time>2026-03-28T15:49:07.999Z</time></trkpt><trkpt lat="36.88556876977859" lon="14.992857439986588"><ele>136.60000000000002</ele><time>2026-03-28T15:49:09.999Z</time></trkpt><trkpt lat="36.88565908180081" lon="14.992849145539006"><ele>138.39999999999998</ele><time>2026-03-28T15:49:11.999Z</time></trkpt><trkpt lat="36.885721888072254" lon="14.992836639585326"><ele>140.2</ele><time>2026-03-28T15:49:12.999Z</time></trkpt><trkpt lat="36.8858489383755" lon="14.992824810258803"><ele>142.0</ele><time>2026-03-28T15:49:14.999Z</time></trkpt><trkpt lat="36.885960611659726" lon="14.992837421358905"><ele>144.0</ele><time>2026-03-28T15:49:16.999Z</time></trkpt><trkpt lat="36.88605684520982" lon="14.992848200767972"><ele>146.0</ele><time>2026-03-28T15:49:18.999Z</time></trkpt><trkpt lat="36.88613903105293" lon="14.992857050816928"><ele>148.0</ele><time>2026-03-28T15:49:20.999Z</time></trkpt><trkpt lat="36.886218075305095" lon="14.99286583654047"><ele>150.0</ele><time>2026-03-28T15:49:22.999Z</time></trkpt><trkpt lat="36.88630361037014" lon="14.992875343716811"><ele>152.0</ele><time>2026-03-28T15:49:24.999Z</time></trkpt><trkpt lat="36.886387068646926" lon="14.99288387175628"><ele>154.0</ele><time>2026-03-28T15:49:27.999Z</time></trkpt><trkpt lat="36.88645714067852" lon="14.992871849122485"><ele>154.0</ele><time>2026-03-28T15:49:42.998Z</time></trkpt><trkpt lat="36.886529976233184" lon="14.99285855828116"><ele>154.0</ele><time>2026-03-28T15:49:47.998Z</time></trkpt><trkpt lat="36.88661630152336" lon="14.992860069526039"><ele>154.0</ele><time>2026-03-28T15:54:54.999Z</time></trkpt><trkpt lat="36.88663538159147" lon="14.992963969402055"><ele>154.0</ele><time>2026-03-28T15:55:00.999Z</time></trkpt><trkpt lat="36.88661050480241" lon="14.993054007448587"><ele>154.0</ele><time>2026-03-28T15:55:01.999Z</time></trkpt><trkpt lat="36.886568860977" lon="14.993176707885278"><ele>154.0</ele><time>2026-03-28T15:55:02.999Z</time></trkpt><trkpt lat="36.886527945407785" lon="14.9933284264914"><ele>154.0</ele><time>2026-03-28T15:55:03.999Z</time></trkpt><trkpt lat="36.886476744238536" lon="14.993432856635083"><ele>154.0</ele><time>2026-03-28T15:55:04.999Z</time></trkpt><trkpt lat="36.88648163894711" lon="14.99352078066323"><ele>154.0</ele><time>2026-03-28T15:55:05.999Z</time></trkpt><trkpt lat="36.8865171616491" lon="14.993638524079195"><ele>154.0</ele><time>2026-03-28T15:55:07.999Z</time></trkpt><trkpt lat="36.886614493432305" lon="14.993707871070576"><ele>154.0</ele><time>2026-03-28T15:55:09.999Z</time></trkpt><trkpt lat="36.88667703414931" lon="14.993682638207428"><ele>154.0</ele><time>2026-03-28T15:55:10.999Z</time></trkpt><trkpt lat="36.8867456953105" lon="14.99362727896474"><ele>156.16666666666669</ele><time>2026-03-28T15:55:11.999Z</time></trkpt><trkpt lat="36.88682228835045" lon="14.993594476477547"><ele>158.33333333333334</ele><time>2026-03-28T15:55:12.999Z</time></trkpt><trkpt lat="36.886898489986095" lon="14.993585763659304"><ele>160.5</ele><time>2026-03-28T15:55:13.999Z</time></trkpt><trkpt lat="36.88696862692461" lon="14.993591197718477"><ele>162.66666666666666</ele><time>2026-03-28T15:55:14.999Z</time></trkpt><trkpt lat="36.88704298568166" lon="14.993606874730618"><ele>164.83333333333331</ele><time>2026-03-28T15:55:15.999Z</time></trkpt><trkpt lat="36.88711016978589" lon="14.993647824762874"><ele>167.0</ele><time>2026-03-28T15:55:16.999Z</time></trkpt><trkpt lat="36.88718015149017" lon="14.993691371966467"><ele>167.0</ele><time>2026-03-28T15:55:17.999Z</time></trkpt><trkpt lat="36.887282782516955" lon="14.993741855472827"><ele>167.0</ele><time>2026-03-28T15:55:18.999Z</time></trkpt><trkpt lat="36.887359405963885" lon="14.993775698513186"><ele>167.0</ele><time>2026-03-28T15:55:19.999Z</time></trkpt><trkpt lat="36.88742701520501" lon="14.993822809910027"><ele>167.0</ele><time>2026-03-28T15:55:20.999Z</time></trkpt><trkpt lat="36.887488120375345" lon="14.993866681094223"><ele>167.0</ele><time>2026-03-28T15:55:21.999Z</time></trkpt><trkpt lat="36.88755309035389" lon="14.993902878246802"><ele>167.0</ele><time>2026-03-28T15:55:22.999Z</time></trkpt><trkpt lat="36.88761320609883" lon="14.99393855174543"><ele>168.2</ele><time>2026-03-28T15:55:23.999Z</time></trkpt><trkpt lat="36.88774895308301" lon="14.99392781518718"><ele>169.39999999999998</ele><time>2026-03-28T15:55:25.999Z</time></trkpt><trkpt lat="36.88781379840306" lon="14.99392134926032"><ele>170.60000000000002</ele><time>2026-03-28T15:55:26.999Z</time></trkpt><trkpt lat="36.88789894919676" lon="14.993932839691283"><ele>171.8</ele><time>2026-03-28T15:55:29.999Z</time></trkpt><trkpt lat="36.88798919520285" lon="14.993913542854775"><ele>173.0</ele><time>2026-03-28T15:55:32.999Z</time></trkpt><trkpt lat="36.88805919802005" lon="14.993958167029579"><ele>173.0</ele><time>2026-03-28T15:55:35.999Z</time></trkpt><trkpt lat="36.88812918081795" lon="14.994011114778894"><ele>173.0</ele><time>2026-03-28T15:55:38.999Z</time></trkpt><trkpt lat="36.88819447695738" lon="14.994052436263898"><ele>173.0</ele><time>2026-03-28T15:55:41.999Z</time></trkpt><trkpt lat="36.88823819328748" lon="14.993987626431428"><ele>173.0</ele><time>2026-03-28T15:55:50.999Z</time></trkpt><trkpt lat="36.88816951354937" lon="14.993996447099796"><ele>173.0</ele><time>2026-03-28T15:55:54.998Z</time></trkpt><trkpt lat="36.88821525741048" lon="14.994087630983758"><ele>173.0</ele><time>2026-03-28T15:55:58.998Z</time></trkpt><trkpt lat="36.88829110556404" lon="14.994033083695278"><ele>173.0</ele><time>2026-03-28T15:56:01.998Z</time></trkpt><trkpt lat="36.88835967726027" lon="14.993877979951952"><ele>173.0</ele><time>2026-03-28T15:56:03.998Z</time></trkpt><trkpt lat="36.88841992218538" lon="14.99378589823612"><ele>173.0</ele><time>2026-03-28T15:56:04.998Z</time></trkpt><trkpt lat="36.888482983352034" lon="14.993705355852798"><ele>173.0</ele><time>2026-03-28T15:56:05.998Z</time></trkpt><trkpt lat="36.888607588685396" lon="14.99366495803192"><ele>175.4</ele><time>2026-03-28T15:56:07.998Z</time></trkpt><trkpt lat="36.88870057696626" lon="14.993678646722017"><ele>177.8</ele><time>2026-03-28T15:56:08.998Z</time></trkpt><trkpt lat="36.888785052472215" lon="14.993687694280423"><ele>180.2</ele><time>2026-03-28T15:56:10Z</time></trkpt><trkpt lat="36.888848452668654" lon="14.99369250859734"><ele>182.6</ele><time>2026-03-28T15:56:11Z</time></trkpt><trkpt lat="36.8889886501709" lon="14.993649686455282"><ele>185.0</ele><time>2026-03-28T15:56:13Z</time></trkpt><trkpt lat="36.8890524986524" lon="14.993632233036186"><ele>185.0</ele><time>2026-03-28T15:56:14Z</time></trkpt><trkpt lat="36.88913649987128" lon="14.993602599646897"><ele>185.0</ele><time>2026-03-28T15:56:16Z</time></trkpt><trkpt lat="36.889110727567974" lon="14.993525704522568"><ele>185.0</ele><time>2026-03-28T15:56:19Z</time></trkpt><trkpt lat="36.88898947794789" lon="14.993460725119848"><ele>185.0</ele><time>2026-03-28T15:56:21Z</time></trkpt><trkpt lat="36.888916109254986" lon="14.993424589643963"><ele>185.0</ele><time>2026-03-28T15:56:22Z</time></trkpt><trkpt lat="36.8888514642297" lon="14.993391029087936"><ele>185.0</ele><time>2026-03-28T15:56:23Z</time></trkpt><trkpt lat="36.88876833171055" lon="14.9933485309193"><ele>186.8</ele><time>2026-03-28T15:56:25Z</time></trkpt><trkpt lat="36.88873370166132" lon="14.9932757063526"><ele>188.6</ele><time>2026-03-28T15:56:37Z</time></trkpt><trkpt lat="36.888746789538494" lon="14.99316393619211"><ele>190.39999999999998</ele><time>2026-03-28T15:56:40Z</time></trkpt><trkpt lat="36.888852185795415" lon="14.993190498659594"><ele>192.2</ele><time>2026-03-28T15:56:44Z</time></trkpt><trkpt lat="36.88895364871244" lon="14.993207610153059"><ele>194.0</ele><time>2026-03-28T15:56:46Z</time></trkpt><trkpt lat="36.88910360669651" lon="14.993243839493893"><ele>194.0</ele><time>2026-03-28T16:03:12Z</time></trkpt><trkpt lat="36.889217353871366" lon="14.993263151422275"><ele>194.0</ele><time>2026-03-28T16:03:13Z</time></trkpt><trkpt lat="36.889327066534086" lon="14.993285133046085"><ele>194.0</ele><time>2026-03-28T16:03:14Z</time></trkpt><trkpt lat="36.88941050184353" lon="14.993348784722164"><ele>194.0</ele><time>2026-03-28T16:03:15Z</time></trkpt><trkpt lat="36.88947498325873" lon="14.993367625363847"><ele>194.0</ele><time>2026-03-28T16:03:15.999Z</time></trkpt><trkpt lat="36.889598323299694" lon="14.993403663712174"><ele>195.00000000000003</ele><time>2026-03-28T16:03:17.999Z</time></trkpt><trkpt lat="36.88966430077811" lon="14.99342177265598"><ele>196.0</ele><time>2026-03-28T16:03:18.999Z</time></trkpt><trkpt lat="36.889740458685566" lon="14.9934426984344"><ele>197.0</ele><time>2026-03-28T16:03:19.999Z</time></trkpt><trkpt lat="36.88983006086623" lon="14.993466469271747"><ele>198.0</ele><time>2026-03-28T16:03:20.999Z</time></trkpt><trkpt lat="36.88991542109932" lon="14.993468469942336"><ele>199.00000000000003</ele><time>2026-03-28T16:03:21.999Z</time></trkpt><trkpt lat="36.889999953574396" lon="14.993491482933317"><ele>200.0</ele><time>2026-03-28T16:03:22.999Z</time></trkpt><trkpt lat="36.890084624519275" lon="14.993509718980622"><ele>203.33333333333334</ele><time>2026-03-28T16:03:23.999Z</time></trkpt><trkpt lat="36.890166858589424" lon="14.993524989108941"><ele>206.66666666666669</ele><time>2026-03-28T16:03:24.999Z</time></trkpt><trkpt lat="36.8902571452106" lon="14.993536188887095"><ele>210.0</ele><time>2026-03-28T16:03:25.999Z</time></trkpt><trkpt lat="36.89033103323329" lon="14.993566896953018"><ele>213.33333333333331</ele><time>2026-03-28T16:03:26.999Z</time></trkpt><trkpt lat="36.89040925989767" lon="14.99358031384497"><ele>216.66666666666666</ele><time>2026-03-28T16:03:27.999Z</time></trkpt><trkpt lat="36.89047800463766" lon="14.99357182448929"><ele>220.0</ele><time>2026-03-28T16:03:28.999Z</time></trkpt><trkpt lat="36.8905519048653" lon="14.993592549247486"><ele>219.99999999999997</ele><time>2026-03-28T16:03:29.999Z</time></trkpt><trkpt lat="36.8906427687773" lon="14.993573113684903"><ele>220.0</ele><time>2026-03-28T16:03:31.999Z</time></trkpt><trkpt lat="36.89062580734188" lon="14.993459682715127"><ele>220.0</ele><time>2026-03-28T16:03:33.999Z</time></trkpt><trkpt lat="36.89063187382345" lon="14.993367461861302"><ele>220.0</ele><time>2026-03-28T16:03:34.999Z</time></trkpt><trkpt lat="36.89062158221097" lon="14.993252742286911"><ele>219.99999999999997</ele><time>2026-03-28T16:03:35.999Z</time></trkpt><trkpt lat="36.890620671428046" lon="14.993158344882625"><ele>220.0</ele><time>2026-03-28T16:03:36.999Z</time></trkpt><trkpt lat="36.89064396173374" lon="14.993061286230521"><ele>220.0</ele><time>2026-03-28T16:03:38.999Z</time></trkpt><trkpt lat="36.89072681116908" lon="14.993119267914967"><ele>220.0</ele><time>2026-03-28T16:03:41.999Z</time></trkpt><trkpt lat="36.89076169309459" lon="14.99327630195849"><ele>220.0</ele><time>2026-03-28T16:03:43.999Z</time></trkpt><trkpt lat="36.89080688324211" lon="14.993377958036552"><ele>220.0</ele><time>2026-03-28T16:03:44.999Z</time></trkpt><trkpt lat="36.89087256144992" lon="14.99353293329018"><ele>226.2</ele><time>2026-03-28T16:03:45.999Z</time></trkpt><trkpt lat="36.89094078349934" lon="14.993683801329514"><ele>232.4</ele><time>2026-03-28T16:03:46.999Z</time></trkpt><trkpt lat="36.89101441890636" lon="14.993791285367152"><ele>238.60000000000002</ele><time>2026-03-28T16:03:47.999Z</time></trkpt><trkpt lat="36.89106970159708" lon="14.993878947279832"><ele>244.8</ele><time>2026-03-28T16:03:48.999Z</time></trkpt><trkpt lat="36.89111947294117" lon="14.993928161253747"><ele>251.0</ele><time>2026-03-28T16:03:49.999Z</time></trkpt><trkpt lat="36.89117907377973" lon="14.99398452894424"><ele>251.0</ele><time>2026-03-28T16:03:50.999Z</time></trkpt><trkpt lat="36.89122159110123" lon="14.994074539739374"><ele>251.00000000000003</ele><time>2026-03-28T16:03:51.999Z</time></trkpt><trkpt lat="36.89125415546192" lon="14.994193501967418"><ele>251.00000000000003</ele><time>2026-03-28T16:03:52.999Z</time></trkpt><trkpt lat="36.89128813890265" lon="14.994325186798527"><ele>251.0</ele><time>2026-03-28T16:03:53.999Z</time></trkpt><trkpt lat="36.891333617272885" lon="14.994482579896241"><ele>251.0</ele><time>2026-03-28T16:03:54.999Z</time></trkpt><trkpt lat="36.891396243886426" lon="14.994638647299997"><ele>250.0</ele><time>2026-03-28T16:03:55.999Z</time></trkpt><trkpt lat="36.89144664779164" lon="14.99476270106637"><ele>249.0</ele><time>2026-03-28T16:03:56.999Z</time></trkpt><trkpt lat="36.891503850415674" lon="14.994869226767799"><ele>248.0</ele><time>2026-03-28T16:03:57.999Z</time></trkpt><trkpt lat="36.89158214463235" lon="14.994981612380599"><ele>247.0</ele><time>2026-03-28T16:03:58.999Z</time></trkpt><trkpt lat="36.89168251177866" lon="14.995082136165712"><ele>247.8</ele><time>2026-03-28T16:03:59.999Z</time></trkpt><trkpt lat="36.89177451162533" lon="14.995190276737315"><ele>248.6</ele><time>2026-03-28T16:04:00.999Z</time></trkpt><trkpt lat="36.891835071954006" lon="14.99530286084152"><ele>249.40000000000003</ele><time>2026-03-28T16:04:01.999Z</time></trkpt><trkpt lat="36.89189230384335" lon="14.995391051004455"><ele>250.20000000000002</ele><time>2026-03-28T16:04:02.999Z</time></trkpt><trkpt lat="36.89195222536886" lon="14.995468851185475"><ele>251.0</ele><time>2026-03-28T16:04:03.999Z</time></trkpt><trkpt lat="36.891979203225105" lon="14.995545331242045"><ele>251.0</ele><time>2026-03-28T16:04:04.999Z</time></trkpt><trkpt lat="36.89200386105848" lon="14.995642689578668"><ele>251.00000000000003</ele><time>2026-03-28T16:04:06.999Z</time></trkpt><trkpt lat="36.89207726824252" lon="14.995701409331813"><ele>251.00000000000003</ele><time>2026-03-28T16:04:10.999Z</time></trkpt><trkpt lat="36.89216902654955" lon="14.99575703971294"><ele>251.0</ele><time>2026-03-28T16:04:29.998Z</time></trkpt><trkpt lat="36.8922580325958" lon="14.995777681854713"><ele>251.0</ele><time>2026-03-28T16:04:30.998Z</time></trkpt><trkpt lat="36.89237774320711" lon="14.995805696531443"><ele>250.83333333333334</ele><time>2026-03-28T16:04:31.998Z</time></trkpt><trkpt lat="36.892485086893686" lon="14.995849456632921"><ele>250.66666666666669</ele><time>2026-03-28T16:04:32.998Z</time></trkpt><trkpt lat="36.89257490620774" lon="14.995848300228017"><ele>250.5</ele><time>2026-03-28T16:04:34Z</time></trkpt><trkpt lat="36.89264331320838" lon="14.995874177737162"><ele>250.33333333333331</ele><time>2026-03-28T16:04:35Z</time></trkpt><trkpt lat="36.89270850806582" lon="14.99586580208719"><ele>250.16666666666666</ele><time>2026-03-28T16:04:36Z</time></trkpt><trkpt lat="36.892814765954625" lon="14.995857407094377"><ele>250.0</ele><time>2026-03-28T16:04:38Z</time></trkpt><trkpt lat="36.89286173927748" lon="14.995910421766805"><ele>250.0</ele><time>2026-03-28T16:04:41Z</time></trkpt><trkpt lat="36.892766970282345" lon="14.996031649632764"><ele>250.0</ele><time>2026-03-28T16:04:44Z</time></trkpt><trkpt lat="36.892729920602854" lon="14.996119049106657"><ele>250.0</ele><time>2026-03-28T16:04:45Z</time></trkpt><trkpt lat="36.89267390878267" lon="14.996210578265574"><ele>250.0</ele><time>2026-03-28T16:04:46Z</time></trkpt><trkpt lat="36.89260611473883" lon="14.99627728730393"><ele>250.0</ele><time>2026-03-28T16:04:47Z</time></trkpt><trkpt lat="36.89253721722715" lon="14.996327686177077"><ele>249.4</ele><time>2026-03-28T16:04:48Z</time></trkpt><trkpt lat="36.89248512581746" lon="14.996426887407804"><ele>248.8</ele><time>2026-03-28T16:04:50Z</time></trkpt><trkpt lat="36.89251773294274" lon="14.996572380319702"><ele>248.2</ele><time>2026-03-28T16:04:52Z</time></trkpt><trkpt lat="36.89256659626637" lon="14.996641723960575"><ele>247.6</ele><time>2026-03-28T16:04:53Z</time></trkpt><trkpt lat="36.89265967533924" lon="14.996767500824193"><ele>247.0</ele><time>2026-03-28T16:04:55Z</time></trkpt><trkpt lat="36.89270023154052" lon="14.996850726725288"><ele>249.0</ele><time>2026-03-28T16:04:56Z</time></trkpt><trkpt lat="36.89276908524067" lon="14.99698087734172"><ele>251.0</ele><time>2026-03-28T16:04:57Z</time></trkpt><trkpt lat="36.89288472978318" lon="14.997150642837964"><ele>253.0</ele><time>2026-03-28T16:04:58Z</time></trkpt><trkpt lat="36.89301094313235" lon="14.997355983865964"><ele>253.0</ele><time>2026-03-28T16:04:59Z</time></trkpt><trkpt lat="36.89313391231243" lon="14.997563705518342"><ele>253.0</ele><time>2026-03-28T16:05:00Z</time></trkpt><trkpt lat="36.89323442283309" lon="14.997753940795013"><ele>253.0</ele><time>2026-03-28T16:05:01Z</time></trkpt><trkpt lat="36.893341909533" lon="14.997943400894243"><ele>254.0</ele><time>2026-03-28T16:05:02Z</time></trkpt><trkpt lat="36.893425782012635" lon="14.99810199333901"><ele>255.0</ele><time>2026-03-28T16:05:03Z</time></trkpt><trkpt lat="36.893494525178994" lon="14.998258198131635"><ele>256.0</ele><time>2026-03-28T16:05:04Z</time></trkpt><trkpt lat="36.89355176939079" lon="14.998377540662906"><ele>257.0</ele><time>2026-03-28T16:05:05Z</time></trkpt><trkpt lat="36.89361120661967" lon="14.998475616653396"><ele>257.0</ele><time>2026-03-28T16:05:06Z</time></trkpt><trkpt lat="36.89367801638385" lon="14.998549393506002"><ele>257.0</ele><time>2026-03-28T16:05:07Z</time></trkpt><trkpt lat="36.8937782335763" lon="14.99860598270011"><ele>257.0</ele><time>2026-03-28T16:05:08Z</time></trkpt><trkpt lat="36.89390326009586" lon="14.998709295761067"><ele>257.0</ele><time>2026-03-28T16:05:09Z</time></trkpt><trkpt lat="36.89403853887601" lon="14.9988624317695"><ele>257.0</ele><time>2026-03-28T16:05:10Z</time></trkpt><trkpt lat="36.89419948821781" lon="14.99902148108758"><ele>257.0</ele><time>2026-03-28T16:05:11Z</time></trkpt><trkpt lat="36.89436239215625" lon="14.999196571212224"><ele>257.0</ele><time>2026-03-28T16:05:12Z</time></trkpt><trkpt lat="36.89450567263963" lon="14.999347102049343"><ele>257.5</ele><time>2026-03-28T16:05:13Z</time></trkpt><trkpt lat="36.894629178872925" lon="14.999478787964355"><ele>258.0</ele><time>2026-03-28T16:05:14Z</time></trkpt><trkpt lat="36.89473587700252" lon="14.99958171602989"><ele>258.5</ele><time>2026-03-28T16:05:15Z</time></trkpt><trkpt lat="36.89483897579009" lon="14.999694570869774"><ele>259.0</ele><time>2026-03-28T16:05:16Z</time></trkpt><trkpt lat="36.89490213620203" lon="14.999782083443407"><ele>259.0</ele><time>2026-03-28T16:05:17Z</time></trkpt><trkpt lat="36.89496075622073" lon="14.999859140190932"><ele>259.0</ele><time>2026-03-28T16:05:18Z</time></trkpt><trkpt lat="36.89502420607183" lon="15.000027572531144"><ele>259.0</ele><time>2026-03-28T16:05:19.999Z</time></trkpt><trkpt lat="36.89506182690862" lon="15.000148454752889"><ele>259.0</ele><time>2026-03-28T16:05:20.999Z</time></trkpt><trkpt lat="36.89511013367282" lon="15.000252092215863"><ele>259.0</ele><time>2026-03-28T16:05:21.999Z</time></trkpt><trkpt lat="36.895157487914915" lon="15.000358992987106"><ele>260.25</ele><time>2026-03-28T16:05:22.999Z</time></trkpt><trkpt lat="36.89519181503213" lon="15.000480813454423"><ele>261.5</ele><time>2026-03-28T16:05:23.999Z</time></trkpt><trkpt lat="36.89520325880699" lon="15.000634890815013"><ele>262.75</ele><time>2026-03-28T16:05:24.999Z</time></trkpt><trkpt lat="36.895206147920526" lon="15.000811241520152"><ele>264.0</ele><time>2026-03-28T16:05:25.999Z</time></trkpt><trkpt lat="36.89520318936085" lon="15.000996334925206"><ele>264.0</ele><time>2026-03-28T16:05:26.999Z</time></trkpt><trkpt lat="36.89520345045935" lon="15.001125332652236"><ele>264.0</ele><time>2026-03-28T16:05:27.999Z</time></trkpt><trkpt lat="36.895218131022276" lon="15.00123625624253"><ele>264.0</ele><time>2026-03-28T16:05:28.999Z</time></trkpt><trkpt lat="36.89525733640974" lon="15.001365991176728"><ele>264.0</ele><time>2026-03-28T16:05:29.999Z</time></trkpt><trkpt lat="36.895293886103495" lon="15.00150173018613"><ele>264.0</ele><time>2026-03-28T16:05:30.999Z</time></trkpt><trkpt lat="36.89532026538434" lon="15.001599824511763"><ele>263.4</ele><time>2026-03-28T16:05:31.999Z</time></trkpt><trkpt lat="36.89536412512547" lon="15.00170207149745"><ele>262.79999999999995</ele><time>2026-03-28T16:05:43.999Z</time></trkpt><trkpt lat="36.8954092828526" lon="15.001802760398139"><ele>262.20000000000005</ele><time>2026-03-28T16:05:44.999Z</time></trkpt><trkpt lat="36.89544889940198" lon="15.001944763297717"><ele>261.6</ele><time>2026-03-28T16:05:45.999Z</time></trkpt><trkpt lat="36.89550400889083" lon="15.002041881081796"><ele>261.0</ele><time>2026-03-28T16:05:46.999Z</time></trkpt><trkpt lat="36.895552262152115" lon="15.00211184826766"><ele>261.0</ele><time>2026-03-28T16:05:47.999Z</time></trkpt><trkpt lat="36.89563510398508" lon="15.002182999134003"><ele>261.0</ele><time>2026-03-28T16:06:50Z</time></trkpt><trkpt lat="36.89568901596039" lon="15.002276398661074"><ele>261.0</ele><time>2026-03-28T16:06:52Z</time></trkpt><trkpt lat="36.895777928928084" lon="15.002334127451016"><ele>261.0</ele><time>2026-03-28T16:08:06.999Z</time></trkpt><trkpt lat="36.89585132927634" lon="15.00239516431507"><ele>261.0</ele><time>2026-03-28T16:08:08.999Z</time></trkpt><trkpt lat="36.89590261359598" lon="15.002479739965647"><ele>261.42857142857144</ele><time>2026-03-28T16:08:12.999Z</time></trkpt><trkpt lat="36.895954233063854" lon="15.002532464176891"><ele>261.85714285714283</ele><time>2026-03-28T16:08:14.999Z</time></trkpt><trkpt lat="36.89600531850116" lon="15.00258706477936"><ele>262.2857142857143</ele><time>2026-03-28T16:08:16.999Z</time></trkpt><trkpt lat="36.896077345451424" lon="15.002657944296605"><ele>262.7142857142857</ele><time>2026-03-28T16:08:19.999Z</time></trkpt><trkpt lat="36.89613248235538" lon="15.002727935064295"><ele>263.14285714285717</ele><time>2026-03-28T16:08:22.999Z</time></trkpt><trkpt lat="36.896182909638874" lon="15.00279126428209"><ele>263.57142857142856</ele><time>2026-03-28T16:08:25.999Z</time></trkpt><trkpt lat="36.89623202952831" lon="15.002850986969408"><ele>264.0</ele><time>2026-03-28T16:08:27.998Z</time></trkpt><trkpt lat="36.896317602495856" lon="15.002970696960787"><ele>264.0</ele><time>2026-03-28T16:08:29.998Z</time></trkpt><trkpt lat="36.89636729945211" lon="15.003022961527472"><ele>264.0</ele><time>2026-03-28T16:08:30.998Z</time></trkpt><trkpt lat="36.89644099330479" lon="15.003078865877525"><ele>264.0</ele><time>2026-03-28T16:08:32.998Z</time></trkpt><trkpt lat="36.89651281251882" lon="15.003157509013196"><ele>264.0</ele><time>2026-03-28T16:08:34.998Z</time></trkpt><trkpt lat="36.896580175861175" lon="15.003224087448148"><ele>264.0</ele><time>2026-03-28T16:08:36.998Z</time></trkpt><trkpt lat="36.89666769631647" lon="15.003283243798846"><ele>264.0</ele><time>2026-03-28T16:08:38.998Z</time></trkpt><trkpt lat="36.89675922715058" lon="15.00332876122663"><ele>260.8</ele><time>2026-03-28T16:08:40.998Z</time></trkpt><trkpt lat="36.89685039983629" lon="15.003428177623475"><ele>257.59999999999997</ele><time>2026-03-28T16:08:42.998Z</time></trkpt><trkpt lat="36.896918920283305" lon="15.003441514977567"><ele>254.4</ele><time>2026-03-28T16:08:43.998Z</time></trkpt><trkpt lat="36.89699739703243" lon="15.003552435597626"><ele>251.2</ele><time>2026-03-28T16:08:46Z</time></trkpt><trkpt lat="36.89707862378414" lon="15.003659960223075"><ele>248.0</ele><time>2026-03-28T16:08:48Z</time></trkpt><trkpt lat="36.897135151225655" lon="15.003705607988756"><ele>248.00000000000003</ele><time>2026-03-28T16:08:49Z</time></trkpt><trkpt lat="36.897164296529326" lon="15.003786369572552"><ele>248.0</ele><time>2026-03-28T16:08:50Z</time></trkpt><trkpt lat="36.897245910785706" lon="15.003871708405107"><ele>248.0</ele><time>2026-03-28T16:08:52Z</time></trkpt><trkpt lat="36.89729590530126" lon="15.003928818128337"><ele>248.0</ele><time>2026-03-28T16:08:54Z</time></trkpt><trkpt lat="36.89734864370267" lon="15.003994803941548"><ele>248.00000000000003</ele><time>2026-03-28T16:08:57Z</time></trkpt><trkpt lat="36.89741667215399" lon="15.004079922097688"><ele>248.0</ele><time>2026-03-28T16:08:59Z</time></trkpt><trkpt lat="36.89749876578529" lon="15.00417355639632"><ele>245.50000000000003</ele><time>2026-03-28T16:09:01Z</time></trkpt><trkpt lat="36.897533224870784" lon="15.004282160042798"><ele>243.0</ele><time>2026-03-28T16:09:03Z</time></trkpt><trkpt lat="36.89758101890592" lon="15.004362025060715"><ele>240.5</ele><time>2026-03-28T16:09:05Z</time></trkpt><trkpt lat="36.897616330598495" lon="15.004431605169266"><ele>238.0</ele><time>2026-03-28T16:09:07Z</time></trkpt><trkpt lat="36.89765599359125" lon="15.004508164057643"><ele>235.50000000000003</ele><time>2026-03-28T16:09:09Z</time></trkpt><trkpt lat="36.897686544963406" lon="15.004591247231264"><ele>233.0</ele><time>2026-03-28T16:09:11Z</time></trkpt><trkpt lat="36.89772333240286" lon="15.004664195730745"><ele>233.00000000000003</ele><time>2026-03-28T16:09:13Z</time></trkpt><trkpt lat="36.89777666646181" lon="15.004743598930425"><ele>233.0</ele><time>2026-03-28T16:09:15Z</time></trkpt><trkpt lat="36.89784627771916" lon="15.00484840977096"><ele>233.0</ele><time>2026-03-28T16:09:18Z</time></trkpt><trkpt lat="36.89790461468793" lon="15.00491414947962"><ele>233.0</ele><time>2026-03-28T16:09:20Z</time></trkpt><trkpt lat="36.89793216611637" lon="15.004985119925209"><ele>233.00000000000003</ele><time>2026-03-28T16:09:22Z</time></trkpt><trkpt lat="36.89795598798394" lon="15.00507244129008"><ele>233.0</ele><time>2026-03-28T16:09:24Z</time></trkpt><trkpt lat="36.89796985542521" lon="15.005196098719438"><ele>232.60000000000002</ele><time>2026-03-28T16:09:26Z</time></trkpt><trkpt lat="36.89796705822177" lon="15.005355747367375"><ele>232.20000000000002</ele><time>2026-03-28T16:09:28Z</time></trkpt><trkpt lat="36.897977599128815" lon="15.00549596796435"><ele>231.8</ele><time>2026-03-28T16:09:30Z</time></trkpt><trkpt lat="36.897983623137314" lon="15.005606112837773"><ele>231.4</ele><time>2026-03-28T16:09:32Z</time></trkpt><trkpt lat="36.89801503744814" lon="15.00570457606872"><ele>231.0</ele><time>2026-03-28T16:09:33.999Z</time></trkpt><trkpt lat="36.89801710543734" lon="15.005822691196835"><ele>230.83333333333334</ele><time>2026-03-28T16:09:35.999Z</time></trkpt><trkpt lat="36.898039067318074" lon="15.005934122415624"><ele>230.66666666666669</ele><time>2026-03-28T16:09:37.999Z</time></trkpt><trkpt lat="36.89806738812969" lon="15.006040022068536"><ele>230.5</ele><time>2026-03-28T16:09:39.999Z</time></trkpt><trkpt lat="36.89809852215096" lon="15.006140784583774"><ele>230.33333333333334</ele><time>2026-03-28T16:09:41.999Z</time></trkpt><trkpt lat="36.89813185235082" lon="15.006245132169099"><ele>230.16666666666669</ele><time>2026-03-28T16:09:44.999Z</time></trkpt><trkpt lat="36.89815761733382" lon="15.006320990205367"><ele>230.0</ele><time>2026-03-28T16:09:47.999Z</time></trkpt><trkpt lat="36.898184256443216" lon="15.006394909605724"><ele>230.00000000000003</ele><time>2026-03-28T16:09:50.999Z</time></trkpt><trkpt lat="36.89822889334382" lon="15.00647304024882"><ele>230.0</ele><time>2026-03-28T16:09:54.999Z</time></trkpt><trkpt lat="36.89829676433157" lon="15.006580580148684"><ele>230.0</ele><time>2026-03-28T16:10:05.999Z</time></trkpt><trkpt lat="36.89833986282543" lon="15.006670656702406"><ele>230.0</ele><time>2026-03-28T16:10:07.999Z</time></trkpt><trkpt lat="36.89839102095252" lon="15.006733094368908"><ele>230.00000000000003</ele><time>2026-03-28T16:20:24.999Z</time></trkpt><trkpt lat="36.898436308802395" lon="15.006824365274648"><ele>230.0</ele><time>2026-03-28T16:20:26.999Z</time></trkpt><trkpt lat="36.8984871994535" lon="15.006905508321706"><ele>231.16666666666669</ele><time>2026-03-28T16:20:27.999Z</time></trkpt><trkpt lat="36.89853240090575" lon="15.006987336144917"><ele>232.33333333333334</ele><time>2026-03-28T16:20:28.999Z</time></trkpt><trkpt lat="36.89857675922106" lon="15.007052183043703"><ele>233.5</ele><time>2026-03-28T16:20:29.999Z</time></trkpt><trkpt lat="36.89858647755284" lon="15.007135012755743"><ele>234.66666666666669</ele><time>2026-03-28T16:20:30.999Z</time></trkpt><trkpt lat="36.8986286044655" lon="15.007208734885229"><ele>235.83333333333334</ele><time>2026-03-28T16:20:31.999Z</time></trkpt><trkpt lat="36.89867383257313" lon="15.007285397382406"><ele>237.0</ele><time>2026-03-28T16:20:32.999Z</time></trkpt><trkpt lat="36.898764021529104" lon="15.00740621943035"><ele>236.99999999999997</ele><time>2026-03-28T16:20:34.999Z</time></trkpt><trkpt lat="36.89883774941594" lon="15.007436084693008"><ele>237.0</ele><time>2026-03-28T16:20:35.999Z</time></trkpt><trkpt lat="36.89889274022973" lon="15.007488057723071"><ele>236.99999999999997</ele><time>2026-03-28T16:20:36.999Z</time></trkpt><trkpt lat="36.89895506501837" lon="15.00754313232054"><ele>236.99999999999997</ele><time>2026-03-28T16:20:37.999Z</time></trkpt><trkpt lat="36.89901194456497" lon="15.007577836070602"><ele>237.0</ele><time>2026-03-28T16:20:38.999Z</time></trkpt><trkpt lat="36.89907704837293" lon="15.007611549973237"><ele>236.99999999999997</ele><time>2026-03-28T16:20:39.999Z</time></trkpt><trkpt lat="36.89913965600817" lon="15.007643150937431"><ele>236.99999999999997</ele><time>2026-03-28T16:20:40.999Z</time></trkpt><trkpt lat="36.89921546366475" lon="15.007676866515736"><ele>236.83333333333334</ele><time>2026-03-28T16:20:42.999Z</time></trkpt><trkpt lat="36.899275116804276" lon="15.00771083661364"><ele>236.66666666666669</ele><time>2026-03-28T16:20:46.999Z</time></trkpt><trkpt lat="36.89933574474545" lon="15.007751893646875"><ele>236.5</ele><time>2026-03-28T16:20:51.999Z</time></trkpt><trkpt lat="36.89941217866389" lon="15.007832303239669"><ele>236.33333333333334</ele><time>2026-03-28T16:20:55.999Z</time></trkpt><trkpt lat="36.89949218894474" lon="15.0079107419877"><ele>236.16666666666669</ele><time>2026-03-28T16:20:57.999Z</time></trkpt><trkpt lat="36.89953769111686" lon="15.008001538517755"><ele>236.0</ele><time>2026-03-28T16:20:59.999Z</time></trkpt><trkpt lat="36.899578215080275" lon="15.008089189850699"><ele>236.00000000000003</ele><time>2026-03-28T16:21:01.999Z</time></trkpt><trkpt lat="36.89962548042924" lon="15.008170964223966"><ele>236.0</ele><time>2026-03-28T16:21:03.999Z</time></trkpt><trkpt lat="36.89966016403681" lon="15.00826327125122"><ele>236.0</ele><time>2026-03-28T16:21:05.999Z</time></trkpt><trkpt lat="36.89969489693176" lon="15.00836459937744"><ele>236.0</ele><time>2026-03-28T16:21:07.999Z</time></trkpt><trkpt lat="36.899716577250594" lon="15.008472781945173"><ele>236.00000000000003</ele><time>2026-03-28T16:21:09.998Z</time></trkpt><trkpt lat="36.8997365263391" lon="15.00856026557916"><ele>236.0</ele><time>2026-03-28T16:21:11.998Z</time></trkpt><trkpt lat="36.89974567632689" lon="15.008642960571374"><ele>235.33333333333334</ele><time>2026-03-28T16:21:13.998Z</time></trkpt><trkpt lat="36.89976727532419" lon="15.00871894204413"><ele>234.66666666666669</ele><time>2026-03-28T16:21:15.998Z</time></trkpt><trkpt lat="36.89978987228203" lon="15.008827544188504"><ele>234.0</ele><time>2026-03-28T16:21:18.998Z</time></trkpt><trkpt lat="36.899820442388005" lon="15.008935474928428"><ele>233.33333333333331</ele><time>2026-03-28T16:21:21Z</time></trkpt><trkpt lat="36.89984888683784" lon="15.009030044655248"><ele>232.66666666666666</ele><time>2026-03-28T16:21:23Z</time></trkpt><trkpt lat="36.89987999233691" lon="15.009115645899396"><ele>232.0</ele><time>2026-03-28T16:21:25Z</time></trkpt><trkpt lat="36.899915493660565" lon="15.009238276487718"><ele>231.6</ele><time>2026-03-28T16:21:27Z</time></trkpt><trkpt lat="36.899946110054714" lon="15.009311442853436"><ele>231.2</ele><time>2026-03-28T16:21:28Z</time></trkpt><trkpt lat="36.899975134279146" lon="15.009389833170786"><ele>230.8</ele><time>2026-03-28T16:21:29Z</time></trkpt><trkpt lat="36.90001154688491" lon="15.00952626285747"><ele>230.4</ele><time>2026-03-28T16:21:31Z</time></trkpt><trkpt lat="36.90005965360733" lon="15.00965743006496"><ele>230.0</ele><time>2026-03-28T16:21:33Z</time></trkpt><trkpt lat="36.900114494060595" lon="15.009782495790686"><ele>230.0</ele><time>2026-03-28T16:21:35Z</time></trkpt><trkpt lat="36.90016332457622" lon="15.009860588862939"><ele>230.0</ele><time>2026-03-28T16:21:37Z</time></trkpt><trkpt lat="36.90020211621737" lon="15.009948043306336"><ele>230.0</ele><time>2026-03-28T16:21:40Z</time></trkpt><trkpt lat="36.90020333561181" lon="15.0100922656527"><ele>230.0</ele><time>2026-03-28T16:21:43Z</time></trkpt><trkpt lat="36.90021207960836" lon="15.010217154281243"><ele>230.0</ele><time>2026-03-28T16:21:45Z</time></trkpt><trkpt lat="36.90024603298061" lon="15.010364019756533"><ele>229.83333333333334</ele><time>2026-03-28T16:21:47Z</time></trkpt><trkpt lat="36.900256198357994" lon="15.010447354740622"><ele>229.66666666666669</ele><time>2026-03-28T16:21:48Z</time></trkpt><trkpt lat="36.90026272905678" lon="15.01052646308535"><ele>229.5</ele><time>2026-03-28T16:21:49Z</time></trkpt><trkpt lat="36.90028830056326" lon="15.01059945024787"><ele>229.33333333333331</ele><time>2026-03-28T16:21:50Z</time></trkpt><trkpt lat="36.90033445209124" lon="15.010740046282365"><ele>229.16666666666666</ele><time>2026-03-28T16:21:52Z</time></trkpt><trkpt lat="36.9003431027815" lon="15.010883489510444"><ele>229.0</ele><time>2026-03-28T16:21:54Z</time></trkpt><trkpt lat="36.90036838577305" lon="15.011009650191003"><ele>229.0</ele><time>2026-03-28T16:21:56Z</time></trkpt><trkpt lat="36.90037405606424" lon="15.011136114509394"><ele>228.99999999999997</ele><time>2026-03-28T16:21:58Z</time></trkpt><trkpt lat="36.90039243376317" lon="15.011244452764045"><ele>228.99999999999997</ele><time>2026-03-28T16:22:00Z</time></trkpt><trkpt lat="36.90043810193537" lon="15.011335989701463"><ele>229.0</ele><time>2026-03-28T16:22:02Z</time></trkpt><trkpt lat="36.90046621509368" lon="15.011447349196322"><ele>229.0</ele><time>2026-03-28T16:22:04Z</time></trkpt><trkpt lat="36.90050047803375" lon="15.011562698507982"><ele>228.79999999999998</ele><time>2026-03-28T16:22:06Z</time></trkpt><trkpt lat="36.90051390976252" lon="15.011664401728162"><ele>228.59999999999997</ele><time>2026-03-28T16:22:07.999Z</time></trkpt><trkpt lat="36.900508116344334" lon="15.011772417279017"><ele>228.4</ele><time>2026-03-28T16:22:09.999Z</time></trkpt><trkpt lat="36.90049757754002" lon="15.01191974875188"><ele>228.2</ele><time>2026-03-28T16:22:11.999Z</time></trkpt><trkpt lat="36.90051824800738" lon="15.012059434885073"><ele>228.0</ele><time>2026-03-28T16:22:13.999Z</time></trkpt><trkpt lat="36.90054068614786" lon="15.01218630213682"><ele>228.0</ele><time>2026-03-28T16:22:15.999Z</time></trkpt><trkpt lat="36.90056213588092" lon="15.012309242678965"><ele>228.0</ele><time>2026-03-28T16:22:17.999Z</time></trkpt><trkpt lat="36.90058583532039" lon="15.01242195208298"><ele>228.0</ele><time>2026-03-28T16:22:20.999Z</time></trkpt><trkpt lat="36.90061333096143" lon="15.012518245581889"><ele>228.0</ele><time>2026-03-28T16:22:23.999Z</time></trkpt><trkpt lat="36.90063797671236" lon="15.01260193847321"><ele>228.0</ele><time>2026-03-28T16:22:25.999Z</time></trkpt><trkpt lat="36.900671308755115" lon="15.012691503946293"><ele>228.0</ele><time>2026-03-28T16:22:27.999Z</time></trkpt><trkpt lat="36.90070846136441" lon="15.012759828923341"><ele>228.33333333333334</ele><time>2026-03-28T16:22:29.999Z</time></trkpt><trkpt lat="36.900761246769314" lon="15.012871195889856"><ele>228.66666666666669</ele><time>2026-03-28T16:22:32.999Z</time></trkpt><trkpt lat="36.90079053460926" lon="15.01295265995929"><ele>229.0</ele><time>2026-03-28T16:22:34.999Z</time></trkpt><trkpt lat="36.900817069916954" lon="15.013052602897353"><ele>229.33333333333334</ele><time>2026-03-28T16:36:12Z</time></trkpt><trkpt lat="36.900874488577585" lon="15.01318653133991"><ele>229.66666666666669</ele><time>2026-03-28T16:36:14Z</time></trkpt><trkpt lat="36.90090642678526" lon="15.01325676859602"><ele>230.0</ele><time>2026-03-28T16:36:15Z</time></trkpt><trkpt lat="36.90093789777084" lon="15.013325122281822"><ele>232.00000000000003</ele><time>2026-03-28T16:36:16Z</time></trkpt><trkpt lat="36.90094338073697" lon="15.013425023225082"><ele>234.0</ele><time>2026-03-28T16:36:17Z</time></trkpt><trkpt lat="36.9009799864095" lon="15.013500810881444"><ele>236.0</ele><time>2026-03-28T16:36:18Z</time></trkpt><trkpt lat="36.90102230111131" lon="15.013582363080074"><ele>238.0</ele><time>2026-03-28T16:36:19Z</time></trkpt><trkpt lat="36.901069806710034" lon="15.013671162410994"><ele>240.00000000000003</ele><time>2026-03-28T16:36:20Z</time></trkpt><trkpt lat="36.90112122858286" lon="15.013766602128715"><ele>242.0</ele><time>2026-03-28T16:36:21Z</time></trkpt><trkpt lat="36.90117743100351" lon="15.013870502401314"><ele>242.0</ele><time>2026-03-28T16:36:22Z</time></trkpt><trkpt lat="36.901238474221266" lon="15.013983351774643"><ele>242.0</ele><time>2026-03-28T16:36:23Z</time></trkpt><trkpt lat="36.90129974763279" lon="15.014098971847428"><ele>242.0</ele><time>2026-03-28T16:36:24Z</time></trkpt><trkpt lat="36.90136199529223" lon="15.014218373292776"><ele>242.0</ele><time>2026-03-28T16:36:25Z</time></trkpt><trkpt lat="36.90143051330951" lon="15.014352382014206"><ele>240.25</ele><time>2026-03-28T16:36:26Z</time></trkpt><trkpt lat="36.90149976365918" lon="15.014488877636056"><ele>238.5</ele><time>2026-03-28T16:36:27Z</time></trkpt><trkpt lat="36.901569312470535" lon="15.014634658737453"><ele>236.75</ele><time>2026-03-28T16:36:28Z</time></trkpt><trkpt lat="36.90163689259259" lon="15.01478648994406"><ele>235.0</ele><time>2026-03-28T16:36:29Z</time></trkpt><trkpt lat="36.90171891389447" lon="15.014945818510705"><ele>235.5</ele><time>2026-03-28T16:36:30Z</time></trkpt><trkpt lat="36.90179048208014" lon="15.015076160070102"><ele>236.0</ele><time>2026-03-28T16:36:31Z</time></trkpt><trkpt lat="36.90185529974088" lon="15.01519420763555"><ele>236.5</ele><time>2026-03-28T16:36:32Z</time></trkpt><trkpt lat="36.90191860394027" lon="15.015311463653545"><ele>237.0</ele><time>2026-03-28T16:36:33Z</time></trkpt><trkpt lat="36.90198222106968" lon="15.01543233380119"><ele>237.0</ele><time>2026-03-28T16:36:34Z</time></trkpt><trkpt lat="36.90204144038661" lon="15.015544848006982"><ele>237.0</ele><time>2026-03-28T16:36:35Z</time></trkpt><trkpt lat="36.9020918626212" lon="15.015640648269512"><ele>237.0</ele><time>2026-03-28T16:36:36Z</time></trkpt><trkpt lat="36.902138830186786" lon="15.015730635760997"><ele>237.0</ele><time>2026-03-28T16:36:37Z</time></trkpt><trkpt lat="36.9021858912857" lon="15.015810034979447"><ele>237.0</ele><time>2026-03-28T16:36:38Z</time></trkpt><trkpt lat="36.90223983604137" lon="15.015867044891644"><ele>237.0</ele><time>2026-03-28T16:36:39Z</time></trkpt><trkpt lat="36.90228547871883" lon="15.015925293137464"><ele>235.28571428571425</ele><time>2026-03-28T16:36:40Z</time></trkpt><trkpt lat="36.90234784865721" lon="15.015970401340848"><ele>233.57142857142856</ele><time>2026-03-28T16:36:41Z</time></trkpt><trkpt lat="36.90241165563647" lon="15.015997749906262"><ele>231.85714285714286</ele><time>2026-03-28T16:36:42Z</time></trkpt><trkpt lat="36.90247622887716" lon="15.016035857708511"><ele>230.14285714285714</ele><time>2026-03-28T16:36:43Z</time></trkpt><trkpt lat="36.90254111916436" lon="15.016061154368282"><ele>228.42857142857144</ele><time>2026-03-28T16:36:44Z</time></trkpt><trkpt lat="36.902618823979246" lon="15.016058656214563"><ele>226.71428571428575</ele><time>2026-03-28T16:36:45Z</time></trkpt><trkpt lat="36.90270907641214" lon="15.016059689287593"><ele>225.00000000000003</ele><time>2026-03-28T16:36:46Z</time></trkpt><trkpt lat="36.90280242438595" lon="15.016071659030624"><ele>225.0</ele><time>2026-03-28T16:36:47Z</time></trkpt><trkpt lat="36.90287765080064" lon="15.016086621587476"><ele>225.0</ele><time>2026-03-28T16:36:48Z</time></trkpt><trkpt lat="36.90293692868106" lon="15.016153614789284"><ele>225.0</ele><time>2026-03-28T16:36:49Z</time></trkpt><trkpt lat="36.90300015200875" lon="15.016201695341461"><ele>225.0</ele><time>2026-03-28T16:36:49.999Z</time></trkpt><trkpt lat="36.9030601809671" lon="15.016260506979927"><ele>225.0</ele><time>2026-03-28T16:36:50.999Z</time></trkpt><trkpt lat="36.90312114974361" lon="15.01632820165512"><ele>225.0</ele><time>2026-03-28T16:36:51.999Z</time></trkpt><trkpt lat="36.903183824498555" lon="15.01640371438842"><ele>225.0</ele><time>2026-03-28T16:36:52.999Z</time></trkpt><trkpt lat="36.90324555969708" lon="15.01648225190409"><ele>225.0</ele><time>2026-03-28T16:36:53.999Z</time></trkpt><trkpt lat="36.90331455709916" lon="15.016571961536897"><ele>225.0</ele><time>2026-03-28T16:36:54.999Z</time></trkpt><trkpt lat="36.90340433130682" lon="15.016658296181726"><ele>225.0</ele><time>2026-03-28T16:36:55.999Z</time></trkpt><trkpt lat="36.903491943400766" lon="15.016769246811213"><ele>225.0</ele><time>2026-03-28T16:36:56.999Z</time></trkpt><trkpt lat="36.90358746173754" lon="15.016874975548825"><ele>224.16666666666666</ele><time>2026-03-28T16:36:57.999Z</time></trkpt><trkpt lat="36.903669159823636" lon="15.016965299967776"><ele>223.33333333333331</ele><time>2026-03-28T16:36:58.999Z</time></trkpt><trkpt lat="36.90374369516636" lon="15.017044843384703"><ele>222.5</ele><time>2026-03-28T16:36:59.999Z</time></trkpt><trkpt lat="36.90380018451025" lon="15.01711571959194"><ele>221.66666666666666</ele><time>2026-03-28T16:37:00.999Z</time></trkpt><trkpt lat="36.90385409879336" lon="15.017175551520403"><ele>220.83333333333331</ele><time>2026-03-28T16:37:01.999Z</time></trkpt><trkpt lat="36.90388721476762" lon="15.017277744071134"><ele>220.0</ele><time>2026-03-28T16:37:03.999Z</time></trkpt><trkpt lat="36.90380430935063" lon="15.017325561081728"><ele>220.0</ele><time>2026-03-28T16:37:05.999Z</time></trkpt><trkpt lat="36.90372361612514" lon="15.01734351027591"><ele>220.0</ele><time>2026-03-28T16:37:07.999Z</time></trkpt><trkpt lat="36.903602291699556" lon="15.017327332683163"><ele>220.0</ele><time>2026-03-28T16:37:09.999Z</time></trkpt><trkpt lat="36.903509170051876" lon="15.017328327836537"><ele>220.0</ele><time>2026-03-28T16:37:11.999Z</time></trkpt><trkpt lat="36.90341243174551" lon="15.017362627534059"><ele>220.0</ele><time>2026-03-28T16:37:13.999Z</time></trkpt><trkpt lat="36.903360968854194" lon="15.017491764518152"><ele>221.0</ele><time>2026-03-28T16:37:15.999Z</time></trkpt><trkpt lat="36.90342667590207" lon="15.017629264785391"><ele>222.0</ele><time>2026-03-28T16:37:17.999Z</time></trkpt><trkpt lat="36.903534439734905" lon="15.017632785634532"><ele>223.0</ele><time>2026-03-28T16:37:18.999Z</time></trkpt><trkpt lat="36.90365150605489" lon="15.017677553852556"><ele>224.0</ele><time>2026-03-28T16:37:19.999Z</time></trkpt><trkpt lat="36.90377973921317" lon="15.01770310370013"><ele>224.0</ele><time>2026-03-28T16:37:20.999Z</time></trkpt><trkpt lat="36.90385661906429" lon="15.017727484721778"><ele>223.99999999999997</ele><time>2026-03-28T16:37:21.999Z</time></trkpt><trkpt lat="36.90391505391093" lon="15.017780416264557"><ele>223.99999999999997</ele><time>2026-03-28T16:37:22.999Z</time></trkpt><trkpt lat="36.90394764015438" lon="15.01789613163868"><ele>224.0</ele><time>2026-03-28T16:37:23.999Z</time></trkpt><trkpt lat="36.90403897164064" lon="15.017988401570069"><ele>224.0</ele><time>2026-03-28T16:37:24.999Z</time></trkpt><trkpt lat="36.90415410683027" lon="15.018069679965215"><ele>225.25</ele><time>2026-03-28T16:37:25.999Z</time></trkpt><trkpt lat="36.90430313988187" lon="15.018159306157084"><ele>226.5</ele><time>2026-03-28T16:37:26.999Z</time></trkpt><trkpt lat="36.90440017573695" lon="15.018282916857412"><ele>227.75</ele><time>2026-03-28T16:37:27.999Z</time></trkpt><trkpt lat="36.904446537686226" lon="15.018405270055737"><ele>229.0</ele><time>2026-03-28T16:37:28.999Z</time></trkpt><trkpt lat="36.904477614692404" lon="15.018553259521092"><ele>230.79999999999998</ele><time>2026-03-28T16:37:29.999Z</time></trkpt><trkpt lat="36.9045068348942" lon="15.018701912235665"><ele>232.59999999999997</ele><time>2026-03-28T16:37:30.999Z</time></trkpt><trkpt lat="36.90451607712959" lon="15.018819005084064"><ele>234.4</ele><time>2026-03-28T16:37:31.999Z</time></trkpt><trkpt lat="36.904482475377264" lon="15.01890863455454"><ele>236.2</ele><time>2026-03-28T16:37:32.999Z</time></trkpt><trkpt lat="36.90444132184091" lon="15.01902466035293"><ele>238.0</ele><time>2026-03-28T16:37:33.999Z</time></trkpt><trkpt lat="36.90443829628863" lon="15.019168327267595"><ele>241.25</ele><time>2026-03-28T16:37:34.999Z</time></trkpt><trkpt lat="36.90445770871069" lon="15.019334763989573"><ele>244.5</ele><time>2026-03-28T16:37:35.999Z</time></trkpt><trkpt lat="36.90445588701944" lon="15.019513741767692"><ele>247.75</ele><time>2026-03-28T16:37:36.999Z</time></trkpt><trkpt lat="36.904446359425" lon="15.019679651239656"><ele>251.0</ele><time>2026-03-28T16:37:37.999Z</time></trkpt><trkpt lat="36.90443654790188" lon="15.019867234171869"><ele>251.4</ele><time>2026-03-28T16:37:38.999Z</time></trkpt><trkpt lat="36.90441606364162" lon="15.020008175837138"><ele>251.8</ele><time>2026-03-28T16:37:39.999Z</time></trkpt><trkpt lat="36.90437915927607" lon="15.020109084725023"><ele>252.20000000000002</ele><time>2026-03-28T16:37:40.999Z</time></trkpt><trkpt lat="36.90431303563668" lon="15.020197767359203"><ele>252.60000000000002</ele><time>2026-03-28T16:37:41.999Z</time></trkpt><trkpt lat="36.904216254205664" lon="15.020291157554585"><ele>253.0</ele><time>2026-03-28T16:37:42.999Z</time></trkpt><trkpt lat="36.90411001565303" lon="15.020405384024889"><ele>253.0</ele><time>2026-03-28T16:37:43.999Z</time></trkpt><trkpt lat="36.90403619157665" lon="15.020497753369082"><ele>253.0</ele><time>2026-03-28T16:37:44.999Z</time></trkpt><trkpt lat="36.90398642176239" lon="15.020584165969298"><ele>253.0</ele><time>2026-03-28T16:37:45.999Z</time></trkpt><trkpt lat="36.90393849559493" lon="15.020647566785605"><ele>253.0</ele><time>2026-03-28T16:37:47.999Z</time></trkpt><trkpt lat="36.903838493925285" lon="15.020785655592954"><ele>253.0</ele><time>2026-03-28T16:37:57.998Z</time></trkpt><trkpt lat="36.90377086139169" lon="15.020893920028925"><ele>257.5</ele><time>2026-03-28T16:37:58.998Z</time></trkpt><trkpt lat="36.90370729196179" lon="15.021024070677363"><ele>262.0</ele><time>2026-03-28T16:37:59.998Z</time></trkpt><trkpt lat="36.90365592021776" lon="15.021193889364508"><ele>266.5</ele><time>2026-03-28T16:38:00.998Z</time></trkpt><trkpt lat="36.90362462809324" lon="15.021364613380571"><ele>271.0</ele><time>2026-03-28T16:38:01.998Z</time></trkpt><trkpt lat="36.903619647161996" lon="15.021563911691214"><ele>275.0</ele><time>2026-03-28T16:38:02.998Z</time></trkpt><trkpt lat="36.90362446020222" lon="15.021782837427368"><ele>279.0</ele><time>2026-03-28T16:38:03.998Z</time></trkpt><trkpt lat="36.90363392890959" lon="15.021991235489159"><ele>283.0</ele><time>2026-03-28T16:38:04.998Z</time></trkpt><trkpt lat="36.903653130819045" lon="15.02217891539387"><ele>283.0</ele><time>2026-03-28T16:38:05.998Z</time></trkpt><trkpt lat="36.903697350264096" lon="15.022371796496769"><ele>283.0</ele><time>2026-03-28T16:38:06.998Z</time></trkpt><trkpt lat="36.90376607844108" lon="15.022543329419943"><ele>283.0</ele><time>2026-03-28T16:38:07.998Z</time></trkpt><trkpt lat="36.903838210759915" lon="15.022675356923838"><ele>283.0</ele><time>2026-03-28T16:38:09Z</time></trkpt><trkpt lat="36.90392308590887" lon="15.022767396105465"><ele>283.2</ele><time>2026-03-28T16:38:10Z</time></trkpt><trkpt lat="36.90400000055208" lon="15.022836107667066"><ele>283.4</ele><time>2026-03-28T16:38:11Z</time></trkpt><trkpt lat="36.904078785432944" lon="15.02291400396937"><ele>283.59999999999997</ele><time>2026-03-28T16:38:12Z</time></trkpt><trkpt lat="36.904178628191474" lon="15.023017498934998"><ele>283.8</ele><time>2026-03-28T16:38:13Z</time></trkpt><trkpt lat="36.90426993169937" lon="15.023115977052859"><ele>284.0</ele><time>2026-03-28T16:38:14Z</time></trkpt><trkpt lat="36.90436323357403" lon="15.02318125971739"><ele>285.0</ele><time>2026-03-28T16:38:15Z</time></trkpt><trkpt lat="36.90444853444627" lon="15.023257129857313"><ele>286.0</ele><time>2026-03-28T16:38:16Z</time></trkpt><trkpt lat="36.90451752591971" lon="15.02334352495179"><ele>287.0</ele><time>2026-03-28T16:38:17Z</time></trkpt><trkpt lat="36.90457396983713" lon="15.023423262328375"><ele>288.0</ele><time>2026-03-28T16:38:18Z</time></trkpt><trkpt lat="36.90460008023471" lon="15.023516037795071"><ele>289.0</ele><time>2026-03-28T16:38:19Z</time></trkpt><trkpt lat="36.904600835461295" lon="15.023625327716854"><ele>289.0</ele><time>2026-03-28T16:38:20Z</time></trkpt><trkpt lat="36.90460064249724" lon="15.023766219291701"><ele>289.0</ele><time>2026-03-28T16:38:21Z</time></trkpt><trkpt lat="36.904601208251854" lon="15.023913159590325"><ele>289.0</ele><time>2026-03-28T16:38:22Z</time></trkpt><trkpt lat="36.90461891891724" lon="15.024061243191086"><ele>289.0</ele><time>2026-03-28T16:38:23Z</time></trkpt><trkpt lat="36.90465477236463" lon="15.024190925533095"><ele>288.5</ele><time>2026-03-28T16:38:24Z</time></trkpt><trkpt lat="36.904715195910484" lon="15.024316248531179"><ele>288.0</ele><time>2026-03-28T16:38:25Z</time></trkpt><trkpt lat="36.9047996395504" lon="15.024412388489544"><ele>287.5</ele><time>2026-03-28T16:38:26Z</time></trkpt><trkpt lat="36.904924013255275" lon="15.024476131123127"><ele>287.0</ele><time>2026-03-28T16:38:27Z</time></trkpt><trkpt lat="36.90505305764602" lon="15.024551012630157"><ele>292.75</ele><time>2026-03-28T16:38:28Z</time></trkpt><trkpt lat="36.90516734891314" lon="15.024629213578988"><ele>298.5</ele><time>2026-03-28T16:38:29Z</time></trkpt><trkpt lat="36.905271836401724" lon="15.024725266427014"><ele>304.25</ele><time>2026-03-28T16:38:30Z</time></trkpt><trkpt lat="36.90534910643714" lon="15.024839460851895"><ele>310.0</ele><time>2026-03-28T16:38:31Z</time></trkpt><trkpt lat="36.90541274584717" lon="15.024957922380079"><ele>306.0</ele><time>2026-03-28T16:38:32Z</time></trkpt><trkpt lat="36.90548136955667" lon="15.025087556648653"><ele>302.0</ele><time>2026-03-28T16:38:33Z</time></trkpt><trkpt lat="36.90555325166835" lon="15.025204547595216"><ele>298.0</ele><time>2026-03-28T16:38:34Z</time></trkpt><trkpt lat="36.90563172962405" lon="15.025313731437075"><ele>294.0</ele><time>2026-03-28T16:38:35Z</time></trkpt><trkpt lat="36.905737151836675" lon="15.025394192252387"><ele>294.0</ele><time>2026-03-28T16:38:36Z</time></trkpt><trkpt lat="36.90583899278511" lon="15.025477013293784"><ele>294.0</ele><time>2026-03-28T16:38:37Z</time></trkpt><trkpt lat="36.905957199049176" lon="15.025543749057373"><ele>294.0</ele><time>2026-03-28T16:38:38Z</time></trkpt><trkpt lat="36.90609627038727" lon="15.02559139056922"><ele>294.0</ele><time>2026-03-28T16:38:39Z</time></trkpt><trkpt lat="36.906215128420364" lon="15.025620819215828"><ele>296.4</ele><time>2026-03-28T16:38:40Z</time></trkpt><trkpt lat="36.906322027957565" lon="15.025627228308922"><ele>298.79999999999995</ele><time>2026-03-28T16:38:41Z</time></trkpt><trkpt lat="36.906417330253646" lon="15.025626143269003"><ele>301.20000000000005</ele><time>2026-03-28T16:38:42Z</time></trkpt><trkpt lat="36.90649805390173" lon="15.025644130936657"><ele>303.6</ele><time>2026-03-28T16:38:43Z</time></trkpt><trkpt lat="36.906575012451036" lon="15.025696198145477"><ele>306.0</ele><time>2026-03-28T16:38:44Z</time></trkpt><trkpt lat="36.90663608080194" lon="15.025782113007379"><ele>304.40000000000003</ele><time>2026-03-28T16:38:45Z</time></trkpt><trkpt lat="36.90668354406736" lon="15.025908430208773"><ele>302.8</ele><time>2026-03-28T16:38:46Z</time></trkpt><trkpt lat="36.90673133145267" lon="15.026036536582854"><ele>301.20000000000005</ele><time>2026-03-28T16:38:47Z</time></trkpt><trkpt lat="36.90679350568999" lon="15.026134157059671"><ele>299.6</ele><time>2026-03-28T16:38:48Z</time></trkpt><trkpt lat="36.906875545121686" lon="15.026203521011738"><ele>298.0</ele><time>2026-03-28T16:38:49Z</time></trkpt><trkpt lat="36.906978834694215" lon="15.026250413923716"><ele>298.0</ele><time>2026-03-28T16:38:50Z</time></trkpt><trkpt lat="36.90710191425077" lon="15.026272336819575"><ele>298.0</ele><time>2026-03-28T16:38:51Z</time></trkpt><trkpt lat="36.90723989721725" lon="15.026291738452468"><ele>298.0</ele><time>2026-03-28T16:38:52Z</time></trkpt><trkpt lat="36.907367924790826" lon="15.026319284711159"><ele>298.0</ele><time>2026-03-28T16:38:53Z</time></trkpt><trkpt lat="36.90747849597968" lon="15.026348294393513"><ele>299.5</ele><time>2026-03-28T16:38:54Z</time></trkpt><trkpt lat="36.90758261717457" lon="15.02636424432815"><ele>301.0</ele><time>2026-03-28T16:38:55Z</time></trkpt><trkpt lat="36.90767440488332" lon="15.026357030666759"><ele>302.5</ele><time>2026-03-28T16:38:56Z</time></trkpt><trkpt lat="36.90775795114038" lon="15.026333900816615"><ele>304.0</ele><time>2026-03-28T16:38:56.999Z</time></trkpt><trkpt lat="36.907825877943424" lon="15.026309299058742"><ele>305.5</ele><time>2026-03-28T16:38:57.999Z</time></trkpt><trkpt lat="36.90790770438698" lon="15.026368746065941"><ele>307.0</ele><time>2026-03-28T16:38:59.999Z</time></trkpt><trkpt lat="36.90789358411919" lon="15.026481524110524"><ele>307.0</ele><time>2026-03-28T16:39:01.999Z</time></trkpt><trkpt lat="36.90788585337731" lon="15.026565237688846"><ele>307.0</ele><time>2026-03-28T16:39:04.999Z</time></trkpt><trkpt lat="36.90786415785195" lon="15.026691480645125"><ele>307.0</ele><time>2026-03-28T16:40:18Z</time></trkpt><trkpt lat="36.907897956339866" lon="15.026794043476174"><ele>307.0</ele><time>2026-03-28T16:40:19Z</time></trkpt><trkpt lat="36.907837303955226" lon="15.026842537248449"><ele>307.0</ele><time>2026-03-28T16:40:21Z</time></trkpt><trkpt lat="36.90783699323886" lon="15.026956616812166"><ele>307.0</ele><time>2026-03-28T16:42:31Z</time></trkpt><trkpt lat="36.907863239633045" lon="15.027042214066935"><ele>305.0</ele><time>2026-03-28T16:42:32Z</time></trkpt><trkpt lat="36.90787781588725" lon="15.027155414861541"><ele>303.0</ele><time>2026-03-28T16:42:34Z</time></trkpt><trkpt lat="36.907715312489835" lon="15.027331907829529"><ele>301.0</ele><time>2026-03-28T16:42:36Z</time></trkpt><trkpt lat="36.907679375763095" lon="15.02744791838151"><ele>299.0</ele><time>2026-03-28T16:42:38Z</time></trkpt><trkpt lat="36.90765833849309" lon="15.027534261041378"><ele>293.75</ele><time>2026-03-28T16:42:39Z</time></trkpt><trkpt lat="36.90741903463291" lon="15.027604373114173"><ele>288.5</ele><time>2026-03-28T16:42:40Z</time></trkpt><trkpt lat="36.907403056315125" lon="15.027684925677686"><ele>283.25</ele><time>2026-03-28T16:42:41Z</time></trkpt><trkpt lat="36.907383988691514" lon="15.02778026538766"><ele>278.0</ele><time>2026-03-28T16:42:42Z</time></trkpt><trkpt lat="36.90731084627455" lon="15.02787491240982"><ele>278.0</ele><time>2026-03-28T16:42:44Z</time></trkpt><trkpt lat="36.90756313468586" lon="15.028143629011996"><ele>278.0</ele><time>2026-03-28T16:42:45Z</time></trkpt><trkpt lat="36.907545474609485" lon="15.028250336559669"><ele>278.0</ele><time>2026-03-28T16:42:46Z</time></trkpt><trkpt lat="36.90753413469928" lon="15.028350094278236"><ele>278.8</ele><time>2026-03-28T16:42:47Z</time></trkpt><trkpt lat="36.90752852603953" lon="15.028487009725465"><ele>279.6</ele><time>2026-03-28T16:42:49Z</time></trkpt><trkpt lat="36.90757183870099" lon="15.028637000278794"><ele>280.4</ele><time>2026-03-28T16:42:51Z</time></trkpt><trkpt lat="36.907627858392715" lon="15.028751891941166"><ele>281.2</ele><time>2026-03-28T16:42:52Z</time></trkpt><trkpt lat="36.9076891389928" lon="15.02885269961196"><ele>282.0</ele><time>2026-03-28T16:42:54Z</time></trkpt><trkpt lat="36.90775405508334" lon="15.028962044053788"><ele>282.0</ele><time>2026-03-28T16:42:58Z</time></trkpt><trkpt lat="36.90784014486402" lon="15.028948065614227"><ele>282.0</ele><time>2026-03-28T16:43:01Z</time></trkpt><trkpt lat="36.907915385027394" lon="15.02889756320562"><ele>282.0</ele><time>2026-03-28T16:43:03Z</time></trkpt><trkpt lat="36.907990274689894" lon="15.028864730465552"><ele>282.0</ele><time>2026-03-28T16:43:04Z</time></trkpt><trkpt lat="36.90807808145122" lon="15.028853486582836"><ele>282.0</ele><time>2026-03-28T16:43:05Z</time></trkpt><trkpt lat="36.908169903192174" lon="15.028857432554855"><ele>282.0</ele><time>2026-03-28T16:43:05.999Z</time></trkpt><trkpt lat="36.90826877670999" lon="15.02885749048065"><ele>282.0</ele><time>2026-03-28T16:43:06.999Z</time></trkpt><trkpt lat="36.908361351346244" lon="15.028840034907338"><ele>282.0</ele><time>2026-03-28T16:43:07.999Z</time></trkpt><trkpt lat="36.90845241073645" lon="15.028790370884789"><ele>282.0</ele><time>2026-03-28T16:43:08.999Z</time></trkpt><trkpt lat="36.908545511691834" lon="15.028712569595166"><ele>282.0</ele><time>2026-03-28T16:43:09.999Z</time></trkpt><trkpt lat="36.908658399979764" lon="15.028629915367937"><ele>282.0</ele><time>2026-03-28T16:43:10.999Z</time></trkpt><trkpt lat="36.908773243557974" lon="15.028539984511822"><ele>281.0</ele><time>2026-03-28T16:43:11.999Z</time></trkpt><trkpt lat="36.9088742505552" lon="15.028442654636224"><ele>280.0</ele><time>2026-03-28T16:43:12.999Z</time></trkpt><trkpt lat="36.90897903544757" lon="15.028321779517366"><ele>279.0</ele><time>2026-03-28T16:43:13.999Z</time></trkpt><trkpt lat="36.90908486573023" lon="15.02821290497024"><ele>278.0</ele><time>2026-03-28T16:43:14.999Z</time></trkpt><trkpt lat="36.90918305718264" lon="15.028101627689045"><ele>280.8</ele><time>2026-03-28T16:43:15.999Z</time></trkpt><trkpt lat="36.90923513469387" lon="15.027949533124628"><ele>283.6</ele><time>2026-03-28T16:43:16.999Z</time></trkpt><trkpt lat="36.90932633924674" lon="15.027878979084871"><ele>286.4</ele><time>2026-03-28T16:43:17.999Z</time></trkpt><trkpt lat="36.90940594378541" lon="15.027806544702775"><ele>289.2</ele><time>2026-03-28T16:43:18.999Z</time></trkpt><trkpt lat="36.90949727706328" lon="15.027729579426289"><ele>292.0</ele><time>2026-03-28T16:43:19.999Z</time></trkpt><trkpt lat="36.909584310906936" lon="15.027665757884026"><ele>292.0</ele><time>2026-03-28T16:43:20.999Z</time></trkpt><trkpt lat="36.90966814281071" lon="15.027616511536712"><ele>292.0</ele><time>2026-03-28T16:43:21.999Z</time></trkpt><trkpt lat="36.90975279391962" lon="15.027633431015307"><ele>292.0</ele><time>2026-03-28T16:43:22.999Z</time></trkpt><trkpt lat="36.90983047988792" lon="15.02763818297525"><ele>292.0</ele><time>2026-03-28T16:43:23.999Z</time></trkpt><trkpt lat="36.90993136621279" lon="15.027634732221541"><ele>292.0</ele><time>2026-03-28T16:43:24.999Z</time></trkpt><trkpt lat="36.910050055128735" lon="15.027633609338135"><ele>291.0</ele><time>2026-03-28T16:43:25.999Z</time></trkpt><trkpt lat="36.91017270365839" lon="15.027624078823614"><ele>290.0</ele><time>2026-03-28T16:43:26.999Z</time></trkpt><trkpt lat="36.91028879750029" lon="15.027621150753259"><ele>289.0</ele><time>2026-03-28T16:43:27.999Z</time></trkpt><trkpt lat="36.91039306008141" lon="15.027612763365147"><ele>288.0</ele><time>2026-03-28T16:43:28.999Z</time></trkpt><trkpt lat="36.910478324913875" lon="15.027573631598612"><ele>287.0</ele><time>2026-03-28T16:43:29.999Z</time></trkpt><trkpt lat="36.91057148279924" lon="15.02754031030601"><ele>289.0</ele><time>2026-03-28T16:43:30.999Z</time></trkpt><trkpt lat="36.910688769341" lon="15.027447322174272"><ele>291.0</ele><time>2026-03-28T16:43:31.999Z</time></trkpt><trkpt lat="36.91080059812691" lon="15.027366981999068"><ele>293.0</ele><time>2026-03-28T16:43:32.999Z</time></trkpt><trkpt lat="36.91089159253447" lon="15.02728514727495"><ele>295.0</ele><time>2026-03-28T16:43:33.999Z</time></trkpt><trkpt lat="36.91095739558486" lon="15.027185710582026"><ele>295.0</ele><time>2026-03-28T16:43:34.999Z</time></trkpt><trkpt lat="36.911015482019074" lon="15.027083437877334"><ele>295.0</ele><time>2026-03-28T16:43:35.999Z</time></trkpt><trkpt lat="36.911098848595465" lon="15.027008370606385"><ele>295.0</ele><time>2026-03-28T16:43:36.999Z</time></trkpt><trkpt lat="36.91118130109944" lon="15.02693680273026"><ele>295.0</ele><time>2026-03-28T16:43:37.999Z</time></trkpt><trkpt lat="36.91125554886813" lon="15.026882837761066"><ele>295.0</ele><time>2026-03-28T16:43:38.999Z</time></trkpt><trkpt lat="36.9113390668824" lon="15.026847893726828"><ele>295.0</ele><time>2026-03-28T16:43:39.999Z</time></trkpt><trkpt lat="36.911438406807996" lon="15.026810203299538"><ele>295.0</ele><time>2026-03-28T16:43:40.999Z</time></trkpt><trkpt lat="36.911549230685985" lon="15.026774408494866"><ele>295.0</ele><time>2026-03-28T16:43:41.999Z</time></trkpt><trkpt lat="36.91167843051262" lon="15.02675288582583"><ele>295.0</ele><time>2026-03-28T16:43:42.999Z</time></trkpt><trkpt lat="36.91183389346262" lon="15.026739158776165"><ele>294.66666666666663</ele><time>2026-03-28T16:43:43.999Z</time></trkpt><trkpt lat="36.912004897236166" lon="15.026732471471805"><ele>294.3333333333333</ele><time>2026-03-28T16:43:44.999Z</time></trkpt><trkpt lat="36.9121797998954" lon="15.026716934605886"><ele>294.0</ele><time>2026-03-28T16:43:45.999Z</time></trkpt><trkpt lat="36.91233509213573" lon="15.026690837621292"><ele>294.0</ele><time>2026-03-28T16:43:46.999Z</time></trkpt><trkpt lat="36.912493909013804" lon="15.02665323495712"><ele>294.0</ele><time>2026-03-28T16:43:47.999Z</time></trkpt><trkpt lat="36.91266716208518" lon="15.026575586138037"><ele>294.0</ele><time>2026-03-28T16:43:48.999Z</time></trkpt><trkpt lat="36.912849553956605" lon="15.02647821769284"><ele>300.0</ele><time>2026-03-28T16:43:49.999Z</time></trkpt><trkpt lat="36.913027284180984" lon="15.026382924203949"><ele>306.0</ele><time>2026-03-28T16:43:50.999Z</time></trkpt><trkpt lat="36.91320918632966" lon="15.026307697688008"><ele>312.0</ele><time>2026-03-28T16:43:51.999Z</time></trkpt><trkpt lat="36.91336655100493" lon="15.026245116902407"><ele>310.5</ele><time>2026-03-28T16:43:52.999Z</time></trkpt><trkpt lat="36.9134984032808" lon="15.026186468338294"><ele>309.0</ele><time>2026-03-28T16:43:53.999Z</time></trkpt><trkpt lat="36.91361825200428" lon="15.026120463866784"><ele>307.5</ele><time>2026-03-28T16:43:54.999Z</time></trkpt><trkpt lat="36.913735293943475" lon="15.026067595088303"><ele>306.0</ele><time>2026-03-28T16:43:55.999Z</time></trkpt><trkpt lat="36.91383573748826" lon="15.026043644415259"><ele>306.0</ele><time>2026-03-28T16:43:56.999Z</time></trkpt><trkpt lat="36.91393267288385" lon="15.02601900718907"><ele>306.0</ele><time>2026-03-28T16:43:57.999Z</time></trkpt><trkpt lat="36.914018391220424" lon="15.026010376486754"><ele>306.0</ele><time>2026-03-28T16:43:58.999Z</time></trkpt><trkpt lat="36.914116403798246" lon="15.025987694462135"><ele>306.0</ele><time>2026-03-28T16:43:59.999Z</time></trkpt><trkpt lat="36.91422469567793" lon="15.025970311915378"><ele>306.0</ele><time>2026-03-28T16:44:00.999Z</time></trkpt><trkpt lat="36.91433070861421" lon="15.02595920543514"><ele>304.75</ele><time>2026-03-28T16:44:01.999Z</time></trkpt><trkpt lat="36.91442967504335" lon="15.025955483335588"><ele>303.5</ele><time>2026-03-28T16:44:02.999Z</time></trkpt><trkpt lat="36.91452945479068" lon="15.025945723028377"><ele>302.25</ele><time>2026-03-28T16:44:03.999Z</time></trkpt><trkpt lat="36.91465283516329" lon="15.02591794744448"><ele>301.0</ele><time>2026-03-28T16:44:04.999Z</time></trkpt><trkpt lat="36.91481201832219" lon="15.025878533381949"><ele>301.0</ele><time>2026-03-28T16:44:05.999Z</time></trkpt><trkpt lat="36.91498113061139" lon="15.025830740604087"><ele>301.0</ele><time>2026-03-28T16:44:06.999Z</time></trkpt><trkpt lat="36.915146350057434" lon="15.025784046369017"><ele>301.0</ele><time>2026-03-28T16:44:07.999Z</time></trkpt><trkpt lat="36.91529391698436" lon="15.02575580796442"><ele>304.0</ele><time>2026-03-28T16:44:08.998Z</time></trkpt><trkpt lat="36.91541213098374" lon="15.02573135199523"><ele>307.0</ele><time>2026-03-28T16:44:09.998Z</time></trkpt><trkpt lat="36.915494028188604" lon="15.025727411744034"><ele>310.0</ele><time>2026-03-28T16:44:10.998Z</time></trkpt><trkpt lat="36.915560526801116" lon="15.02571786635266"><ele>313.0</ele><time>2026-03-28T16:44:11.998Z</time></trkpt><trkpt lat="36.91566637823776" lon="15.025694926817335"><ele>316.0</ele><time>2026-03-28T16:44:13.998Z</time></trkpt><trkpt lat="36.91573340787838" lon="15.025700394604875"><ele>319.0</ele><time>2026-03-28T16:44:14.998Z</time></trkpt><trkpt lat="36.91581054781797" lon="15.025696248434244"><ele>319.0</ele><time>2026-03-28T16:44:15.998Z</time></trkpt><trkpt lat="36.91589954005965" lon="15.02569427351837"><ele>319.0</ele><time>2026-03-28T16:44:16.998Z</time></trkpt><trkpt lat="36.916013854662545" lon="15.025674497026559"><ele>319.0</ele><time>2026-03-28T16:44:18.998Z</time></trkpt><trkpt lat="36.916088097132054" lon="15.025694443769728"><ele>319.0</ele><time>2026-03-28T16:44:20.998Z</time></trkpt><trkpt lat="36.91618923414495" lon="15.02573260879743"><ele>319.0</ele><time>2026-03-28T16:44:30Z</time></trkpt><trkpt lat="36.916276183430895" lon="15.025769264800624"><ele>319.4</ele><time>2026-03-28T16:44:31Z</time></trkpt><trkpt lat="36.91639994007298" lon="15.025794002894083"><ele>319.79999999999995</ele><time>2026-03-28T16:44:32Z</time></trkpt><trkpt lat="36.91652795160749" lon="15.025810454017792"><ele>320.20000000000005</ele><time>2026-03-28T16:44:33Z</time></trkpt><trkpt lat="36.91662484755593" lon="15.025815184403616"><ele>320.6</ele><time>2026-03-28T16:44:34Z</time></trkpt><trkpt lat="36.91670030197561" lon="15.025845303362832"><ele>321.0</ele><time>2026-03-28T16:44:35Z</time></trkpt><trkpt lat="36.91677386399264" lon="15.025855793075305"><ele>318.0</ele><time>2026-03-28T16:44:36Z</time></trkpt><trkpt lat="36.91683718592292" lon="15.025875908397262"><ele>315.0</ele><time>2026-03-28T16:44:37Z</time></trkpt><trkpt lat="36.91690584481028" lon="15.025893222334727"><ele>312.0</ele><time>2026-03-28T16:44:38Z</time></trkpt><trkpt lat="36.91702537270176" lon="15.025901476073138"><ele>309.0</ele><time>2026-03-28T16:44:40Z</time></trkpt><trkpt lat="36.91712153204928" lon="15.02590481971465"><ele>306.0</ele><time>2026-03-28T16:44:42Z</time></trkpt><trkpt lat="36.917210566189446" lon="15.025904786302192"><ele>303.0</ele><time>2026-03-28T16:44:44Z</time></trkpt><trkpt lat="36.917291299106445" lon="15.025918969616294"><ele>303.0</ele><time>2026-03-28T16:44:46Z</time></trkpt><trkpt lat="36.917360902871465" lon="15.025942661528921"><ele>303.0</ele><time>2026-03-28T16:44:48Z</time></trkpt><trkpt lat="36.91744619443795" lon="15.025992446042972"><ele>303.0</ele><time>2026-03-28T16:44:50Z</time></trkpt><trkpt lat="36.91752034362639" lon="15.026019029301633"><ele>303.0</ele><time>2026-03-28T16:44:52Z</time></trkpt><trkpt lat="36.91759542021336" lon="15.026038237235442"><ele>303.0</ele><time>2026-03-28T16:44:54Z</time></trkpt><trkpt lat="36.9176889916625" lon="15.026067912416782"><ele>303.0</ele><time>2026-03-28T16:44:56Z</time></trkpt><trkpt lat="36.91779214135964" lon="15.026066981694093"><ele>302.6</ele><time>2026-03-28T16:44:58Z</time></trkpt><trkpt lat="36.917885557388345" lon="15.026087555434124"><ele>302.20000000000005</ele><time>2026-03-28T16:45:00Z</time></trkpt><trkpt lat="36.91796747033903" lon="15.026148150016995"><ele>301.8</ele><time>2026-03-28T16:45:02Z</time></trkpt><trkpt lat="36.91805970033364" lon="15.026160532054314"><ele>301.40000000000003</ele><time>2026-03-28T16:45:04Z</time></trkpt><trkpt lat="36.91817181611167" lon="15.026211641222055"><ele>301.0</ele><time>2026-03-28T16:45:06Z</time></trkpt><trkpt lat="36.91825346722093" lon="15.026226577739457"><ele>301.0</ele><time>2026-03-28T16:45:07Z</time></trkpt><trkpt lat="36.91834409187699" lon="15.026244966455987"><ele>301.0</ele><time>2026-03-28T16:45:08Z</time></trkpt><trkpt lat="36.91841524971841" lon="15.026252075589094"><ele>301.0</ele><time>2026-03-28T16:45:09Z</time></trkpt><trkpt lat="36.91849245026913" lon="15.02625328608282"><ele>301.0</ele><time>2026-03-28T16:45:10Z</time></trkpt><trkpt lat="36.918601322562346" lon="15.026232363417085"><ele>301.0</ele><time>2026-03-28T16:45:11Z</time></trkpt><trkpt lat="36.91871806740196" lon="15.026222187237655"><ele>300.40000000000003</ele><time>2026-03-28T16:45:11.999Z</time></trkpt><trkpt lat="36.91881842346688" lon="15.026218261787307"><ele>299.8</ele><time>2026-03-28T16:45:12.999Z</time></trkpt><trkpt lat="36.91891897929828" lon="15.026232283365358"><ele>299.20000000000005</ele><time>2026-03-28T16:45:13.999Z</time></trkpt><trkpt lat="36.91900230182125" lon="15.026243228142219"><ele>298.6</ele><time>2026-03-28T16:45:14.999Z</time></trkpt><trkpt lat="36.91910615457482" lon="15.026240358869845"><ele>298.0</ele><time>2026-03-28T16:45:16.999Z</time></trkpt><trkpt lat="36.919176272026995" lon="15.026207086473397"><ele>297.66666666666663</ele><time>2026-03-28T16:45:17.999Z</time></trkpt><trkpt lat="36.91926984218874" lon="15.026178865297876"><ele>297.3333333333333</ele><time>2026-03-28T16:45:18.999Z</time></trkpt><trkpt lat="36.919355741820326" lon="15.02615429232059"><ele>297.0</ele><time>2026-03-28T16:45:19.999Z</time></trkpt><trkpt lat="36.91943711434247" lon="15.026134878602194"><ele>296.6666666666667</ele><time>2026-03-28T16:45:20.999Z</time></trkpt><trkpt lat="36.919501765491354" lon="15.02611846480262"><ele>296.33333333333337</ele><time>2026-03-28T16:45:21.999Z</time></trkpt><trkpt lat="36.91958196681305" lon="15.02610125001062"><ele>296.0</ele><time>2026-03-28T16:45:22.999Z</time></trkpt><trkpt lat="36.91967586072433" lon="15.026087579732277"><ele>296.0</ele><time>2026-03-28T16:45:23.999Z</time></trkpt><trkpt lat="36.91976514755309" lon="15.02608199991168"><ele>296.0</ele><time>2026-03-28T16:45:24.999Z</time></trkpt><trkpt lat="36.919887089497756" lon="15.026085746998742"><ele>296.0</ele><time>2026-03-28T16:45:25.999Z</time></trkpt><trkpt lat="36.92001527116022" lon="15.026098439039917"><ele>296.0</ele><time>2026-03-28T16:45:26.999Z</time></trkpt><trkpt lat="36.92013921695415" lon="15.026093888470985"><ele>294.6</ele><time>2026-03-28T16:45:27.999Z</time></trkpt><trkpt lat="36.920228045117945" lon="15.026091333756582"><ele>293.20000000000005</ele><time>2026-03-28T16:45:28.999Z</time></trkpt><trkpt lat="36.92035292767621" lon="15.026102440887898"><ele>291.79999999999995</ele><time>2026-03-28T16:45:30.999Z</time></trkpt><trkpt lat="36.92044085426404" lon="15.026061610193373"><ele>290.4</ele><time>2026-03-28T16:45:31.999Z</time></trkpt><trkpt lat="36.92054379060175" lon="15.026018747867093"><ele>289.0</ele><time>2026-03-28T16:45:32.999Z</time></trkpt><trkpt lat="36.92061881624048" lon="15.025995216168193"><ele>289.0</ele><time>2026-03-28T16:45:33.999Z</time></trkpt><trkpt lat="36.92069768610947" lon="15.025986575178196"><ele>289.0</ele><time>2026-03-28T16:45:34.999Z</time></trkpt><trkpt lat="36.92076860151799" lon="15.025971458880596"><ele>289.0</ele><time>2026-03-28T16:45:35.999Z</time></trkpt><trkpt lat="36.92083736098906" lon="15.02596873430523"><ele>289.0</ele><time>2026-03-28T16:45:36.999Z</time></trkpt><trkpt lat="36.92094323013109" lon="15.025930672294718"><ele>289.0</ele><time>2026-03-28T16:45:38.999Z</time></trkpt><trkpt lat="36.9210350097976" lon="15.025897799892205"><ele>289.0</ele><time>2026-03-28T16:45:40.999Z</time></trkpt><trkpt lat="36.92113152511531" lon="15.02585174854008"><ele>289.0</ele><time>2026-03-28T16:45:42.999Z</time></trkpt><trkpt lat="36.92121440978547" lon="15.025793774822255"><ele>289.0</ele><time>2026-03-28T16:45:44.999Z</time></trkpt><trkpt lat="36.92128791858102" lon="15.025715436997022"><ele>289.0</ele><time>2026-03-28T16:45:46.999Z</time></trkpt><trkpt lat="36.92135582318404" lon="15.02564650304479"><ele>289.0</ele><time>2026-03-28T16:45:48.999Z</time></trkpt><trkpt lat="36.92144321493367" lon="15.02557982065216"><ele>289.0</ele><time>2026-03-28T16:45:50.999Z</time></trkpt><trkpt lat="36.9215327824156" lon="15.025494701843648"><ele>289.0</ele><time>2026-03-28T16:45:52.999Z</time></trkpt><trkpt lat="36.92158045934809" lon="15.02543811676025"><ele>289.0</ele><time>2026-03-28T16:45:53.999Z</time></trkpt><trkpt lat="36.92163937392438" lon="15.025386106656597"><ele>289.0</ele><time>2026-03-28T16:45:54.999Z</time></trkpt><trkpt lat="36.92169346697768" lon="15.025335046418512"><ele>289.0</ele><time>2026-03-28T16:45:55.999Z</time></trkpt><trkpt lat="36.921750062194775" lon="15.025268557089014"><ele>289.0</ele><time>2026-03-28T16:45:56.999Z</time></trkpt><trkpt lat="36.92179337666754" lon="15.025211141276596"><ele>289.0</ele><time>2026-03-28T16:45:57.999Z</time></trkpt><trkpt lat="36.921835032034046" lon="15.02514935170723"><ele>289.0</ele><time>2026-03-28T16:45:58.999Z</time></trkpt><trkpt lat="36.92191788988655" lon="15.025038994103413"><ele>290.0</ele><time>2026-03-28T16:46:00.999Z</time></trkpt><trkpt lat="36.92200501289804" lon="15.024963205608843"><ele>291.0</ele><time>2026-03-28T16:46:02.999Z</time></trkpt><trkpt lat="36.92214019992869" lon="15.024926453970357"><ele>292.0</ele><time>2026-03-28T16:46:04.999Z</time></trkpt><trkpt lat="36.92222235063433" lon="15.024893083936693"><ele>293.0</ele><time>2026-03-28T16:46:05.999Z</time></trkpt><trkpt lat="36.92230723555237" lon="15.024872086581642"><ele>294.0</ele><time>2026-03-28T16:46:06.999Z</time></trkpt><trkpt lat="36.92237796911124" lon="15.024853453223793"><ele>294.0</ele><time>2026-03-28T16:46:07.999Z</time></trkpt><trkpt lat="36.92248533655031" lon="15.024801887318183"><ele>294.0</ele><time>2026-03-28T16:46:08.999Z</time></trkpt><trkpt lat="36.92259752533898" lon="15.024750306361693"><ele>294.0</ele><time>2026-03-28T16:46:09.999Z</time></trkpt><trkpt lat="36.92267028347701" lon="15.024737461208272"><ele>294.0</ele><time>2026-03-28T16:46:10.999Z</time></trkpt><trkpt lat="36.922766820935855" lon="15.024769826711925"><ele>294.0</ele><time>2026-03-28T16:46:12.999Z</time></trkpt><trkpt lat="36.922846468885" lon="15.02476821449025"><ele>291.57142857142856</ele><time>2026-03-28T16:46:14.998Z</time></trkpt><trkpt lat="36.92291405797666" lon="15.024760686027369"><ele>289.1428571428571</ele><time>2026-03-28T16:46:16.998Z</time></trkpt><trkpt lat="36.922985556638814" lon="15.024782947298156"><ele>286.7142857142857</ele><time>2026-03-28T16:46:19.998Z</time></trkpt><trkpt lat="36.923056391976566" lon="15.024796907377533"><ele>284.2857142857143</ele><time>2026-03-28T16:46:21.998Z</time></trkpt><trkpt lat="36.9231435581431" lon="15.02477949159754"><ele>281.85714285714283</ele><time>2026-03-28T16:46:23.998Z</time></trkpt><trkpt lat="36.923187736128114" lon="15.024702628758654"><ele>279.42857142857144</ele><time>2026-03-28T16:46:25.998Z</time></trkpt><trkpt lat="36.92321653875561" lon="15.024629802697872"><ele>277.0</ele><time>2026-03-28T16:46:26.998Z</time></trkpt><trkpt lat="36.92325762174166" lon="15.024565171085536"><ele>277.0</ele><time>2026-03-28T16:46:27.998Z</time></trkpt><trkpt lat="36.9233403163865" lon="15.024526588198395"><ele>277.0</ele><time>2026-03-28T16:46:29.998Z</time></trkpt><trkpt lat="36.92346385240026" lon="15.024551496869362"><ele>277.0</ele><time>2026-03-28T16:46:31.998Z</time></trkpt><trkpt lat="36.923587037407735" lon="15.024527985381688"><ele>277.0</ele><time>2026-03-28T16:46:34Z</time></trkpt><trkpt lat="36.92364703628664" lon="15.024498818969034"><ele>277.0</ele><time>2026-03-28T16:46:35Z</time></trkpt><trkpt lat="36.92372863504092" lon="15.0244635258825"><ele>273.2</ele><time>2026-03-28T16:46:36Z</time></trkpt><trkpt lat="36.923825500749416" lon="15.02442894610431"><ele>269.4</ele><time>2026-03-28T16:46:37Z</time></trkpt><trkpt lat="36.92391576204469" lon="15.024390821387536"><ele>265.6</ele><time>2026-03-28T16:46:38Z</time></trkpt><trkpt lat="36.92398331085412" lon="15.024335328181095"><ele>261.8</ele><time>2026-03-28T16:46:39Z</time></trkpt><trkpt lat="36.924096415895754" lon="15.024290175647517"><ele>258.0</ele><time>2026-03-28T16:46:41Z</time></trkpt><trkpt lat="36.92420001650678" lon="15.024317937308368"><ele>255.66666666666666</ele><time>2026-03-28T16:46:43Z</time></trkpt><trkpt lat="36.92427318388596" lon="15.024319143701533"><ele>253.33333333333331</ele><time>2026-03-28T16:46:46Z</time></trkpt><trkpt lat="36.924346724827394" lon="15.024314464233417"><ele>251.0</ele><time>2026-03-28T16:46:50Z</time></trkpt><trkpt lat="36.924424754101445" lon="15.024327085292574"><ele>248.66666666666666</ele><time>2026-03-28T16:46:54Z</time></trkpt><trkpt lat="36.924495791291" lon="15.024329364613045"><ele>246.33333333333331</ele><time>2026-03-28T16:46:56Z</time></trkpt><trkpt lat="36.924562599775264" lon="15.024340903380883"><ele>244.0</ele><time>2026-03-28T16:46:57Z</time></trkpt><trkpt lat="36.92469004075824" lon="15.02438263282403"><ele>244.0</ele><time>2026-03-28T16:46:59Z</time></trkpt><trkpt lat="36.924761161672116" lon="15.024378941869871"><ele>243.99999999999997</ele><time>2026-03-28T16:47:00Z</time></trkpt><trkpt lat="36.92486979437032" lon="15.024391714883105"><ele>243.99999999999997</ele><time>2026-03-28T16:47:02Z</time></trkpt><trkpt lat="36.924990601912256" lon="15.024385994966877"><ele>244.0</ele><time>2026-03-28T16:47:04Z</time></trkpt><trkpt lat="36.92507195376334" lon="15.024378005314878"><ele>244.0</ele><time>2026-03-28T16:47:05Z</time></trkpt><trkpt lat="36.92519873668793" lon="15.024389385591967"><ele>241.6</ele><time>2026-03-28T16:47:07Z</time></trkpt><trkpt lat="36.92528486027214" lon="15.0244028845697"><ele>239.2</ele><time>2026-03-28T16:47:09Z</time></trkpt><trkpt lat="36.9253700060285" lon="15.02443190376833"><ele>236.79999999999998</ele><time>2026-03-28T16:47:11Z</time></trkpt><trkpt lat="36.925465424176544" lon="15.024436889302859"><ele>234.39999999999998</ele><time>2026-03-28T16:47:13Z</time></trkpt><trkpt lat="36.925574004610034" lon="15.02440043190844"><ele>232.0</ele><time>2026-03-28T16:47:15Z</time></trkpt><trkpt lat="36.9256907091403" lon="15.024374070888447"><ele>231.99999999999997</ele><time>2026-03-28T16:47:16.999Z</time></trkpt><trkpt lat="36.92578142970706" lon="15.024399991443435"><ele>232.0</ele><time>2026-03-28T16:47:18.999Z</time></trkpt><trkpt lat="36.92585514456329" lon="15.024370588841816"><ele>232.0</ele><time>2026-03-28T16:47:19.999Z</time></trkpt><trkpt lat="36.925936634420125" lon="15.024316169971675"><ele>232.0</ele><time>2026-03-28T16:47:20.999Z</time></trkpt><trkpt lat="36.926013381213934" lon="15.024276782547243"><ele>231.99999999999997</ele><time>2026-03-28T16:47:21.999Z</time></trkpt><trkpt lat="36.92608579474149" lon="15.024258085530944"><ele>232.0</ele><time>2026-03-28T16:47:23.999Z</time></trkpt><trkpt lat="36.9261670029088" lon="15.024297367198102"><ele>234.39999999999998</ele><time>2026-03-28T16:47:26.999Z</time></trkpt><trkpt lat="36.92624115361812" lon="15.024253129861645"><ele>236.79999999999998</ele><time>2026-03-28T16:47:27.999Z</time></trkpt><trkpt lat="36.92631261991903" lon="15.024221801756214"><ele>239.2</ele><time>2026-03-28T16:47:29.999Z</time></trkpt><trkpt lat="36.92638937399891" lon="15.024189095769154"><ele>241.6</ele><time>2026-03-28T16:57:18Z</time></trkpt><trkpt lat="36.92648778774812" lon="15.02412789507442"><ele>244.0</ele><time>2026-03-28T16:57:19Z</time></trkpt><trkpt lat="36.92659739192864" lon="15.024049530080479"><ele>244.0</ele><time>2026-03-28T16:57:20Z</time></trkpt><trkpt lat="36.92669644660693" lon="15.023992671823537"><ele>243.99999999999997</ele><time>2026-03-28T16:57:21Z</time></trkpt><trkpt lat="36.926786632084806" lon="15.02395023975787"><ele>243.99999999999997</ele><time>2026-03-28T16:57:22Z</time></trkpt><trkpt lat="36.926875033094724" lon="15.023904429703077"><ele>244.0</ele><time>2026-03-28T16:57:23Z</time></trkpt><trkpt lat="36.92695425455315" lon="15.023858941322242"><ele>244.0</ele><time>2026-03-28T16:57:24Z</time></trkpt><trkpt lat="36.927025951171274" lon="15.023819504964177"><ele>240.28571428571425</ele><time>2026-03-28T16:57:25Z</time></trkpt><trkpt lat="36.927086622535484" lon="15.023785483039312"><ele>236.57142857142856</ele><time>2026-03-28T16:57:26Z</time></trkpt><trkpt lat="36.92715021602259" lon="15.023755457044656"><ele>232.85714285714283</ele><time>2026-03-28T16:57:27Z</time></trkpt><trkpt lat="36.927215891385735" lon="15.023722884976467"><ele>229.1428571428571</ele><time>2026-03-28T16:57:28Z</time></trkpt><trkpt lat="36.927277411773" lon="15.023689096027333"><ele>225.42857142857144</ele><time>2026-03-28T16:57:29Z</time></trkpt><trkpt lat="36.927332897871345" lon="15.023646403374443"><ele>221.71428571428572</ele><time>2026-03-28T16:57:30Z</time></trkpt><trkpt lat="36.927387022826466" lon="15.023595431528676"><ele>218.0</ele><time>2026-03-28T16:57:31Z</time></trkpt><trkpt lat="36.92742955641312" lon="15.023530942414578"><ele>218.00000000000003</ele><time>2026-03-28T16:57:32Z</time></trkpt><trkpt lat="36.927475270148506" lon="15.023467816120094"><ele>218.0</ele><time>2026-03-28T16:57:33Z</time></trkpt><trkpt lat="36.92751983863325" lon="15.023408671512971"><ele>218.0</ele><time>2026-03-28T16:57:34Z</time></trkpt><trkpt lat="36.92755493859272" lon="15.023338696800526"><ele>218.0</ele><time>2026-03-28T16:57:35Z</time></trkpt><trkpt lat="36.92759186061086" lon="15.02317736695434"><ele>218.00000000000003</ele><time>2026-03-28T16:57:37Z</time></trkpt><trkpt lat="36.92758737415603" lon="15.023087610462746"><ele>218.0</ele><time>2026-03-28T16:57:38Z</time></trkpt><trkpt lat="36.92758893231781" lon="15.023004721094495"><ele>218.2</ele><time>2026-03-28T16:57:39Z</time></trkpt><trkpt lat="36.927590246658404" lon="15.022843474328926"><ele>218.4</ele><time>2026-03-28T16:57:41Z</time></trkpt><trkpt lat="36.92759042509054" lon="15.022727652772604"><ele>218.59999999999997</ele><time>2026-03-28T16:57:43Z</time></trkpt><trkpt lat="36.92762656264628" lon="15.022643831703927"><ele>218.79999999999998</ele><time>2026-03-28T16:57:45Z</time></trkpt><trkpt lat="36.927674161806266" lon="15.022564077521109"><ele>219.0</ele><time>2026-03-28T16:57:48Z</time></trkpt><trkpt lat="36.92774645105758" lon="15.022517891453834"><ele>219.0</ele><time>2026-03-28T16:57:49.999Z</time></trkpt><trkpt lat="36.92782363840111" lon="15.022505774091144"><ele>219.0</ele><time>2026-03-28T16:57:50.999Z</time></trkpt><trkpt lat="36.9279101369315" lon="15.022415940090752"><ele>219.0</ele><time>2026-03-28T16:57:52.999Z</time></trkpt><trkpt lat="36.92792160669536" lon="15.022319029258295"><ele>219.0</ele><time>2026-03-28T16:57:53.999Z</time></trkpt><trkpt lat="36.92790952899788" lon="15.022202460405804"><ele>219.0</ele><time>2026-03-28T16:57:54.999Z</time></trkpt><trkpt lat="36.92791781120891" lon="15.022110244117236"><ele>219.0</ele><time>2026-03-28T16:57:55.999Z</time></trkpt><trkpt lat="36.92796533024525" lon="15.022040211981057"><ele>220.39999999999998</ele><time>2026-03-28T16:57:56.999Z</time></trkpt><trkpt lat="36.9280351615434" lon="15.0220278909007"><ele>221.79999999999998</ele><time>2026-03-28T16:57:57.999Z</time></trkpt><trkpt lat="36.92811845541812" lon="15.022054497879914"><ele>223.20000000000002</ele><time>2026-03-28T16:57:58.999Z</time></trkpt><trkpt lat="36.92820419324137" lon="15.022108954264754"><ele>224.60000000000002</ele><time>2026-03-28T16:57:59.999Z</time></trkpt><trkpt lat="36.928303662470235" lon="15.02216303309482"><ele>226.0</ele><time>2026-03-28T16:58:00.999Z</time></trkpt><trkpt lat="36.928420313166825" lon="15.02222502513305"><ele>227.0</ele><time>2026-03-28T16:58:01.999Z</time></trkpt><trkpt lat="36.92855055930857" lon="15.022309711815229"><ele>228.0</ele><time>2026-03-28T16:58:02.999Z</time></trkpt><trkpt lat="36.92864897974565" lon="15.022402905083128"><ele>229.0</ele><time>2026-03-28T16:58:03.999Z</time></trkpt><trkpt lat="36.92874006831239" lon="15.022501596568945"><ele>230.0</ele><time>2026-03-28T16:58:04.999Z</time></trkpt><trkpt lat="36.92882619332107" lon="15.022585894232538"><ele>230.0</ele><time>2026-03-28T16:58:05.999Z</time></trkpt><trkpt lat="36.92890522486996" lon="15.022687546577144"><ele>230.0</ele><time>2026-03-28T16:58:06.999Z</time></trkpt><trkpt lat="36.92898095530055" lon="15.022775715655028"><ele>230.0</ele><time>2026-03-28T16:58:07.999Z</time></trkpt><trkpt lat="36.92906124602877" lon="15.022769728865152"><ele>230.0</ele><time>2026-03-28T16:58:09.999Z</time></trkpt><trkpt lat="36.929093414794615" lon="15.022612844101218"><ele>230.0</ele><time>2026-03-28T16:58:11.999Z</time></trkpt><trkpt lat="36.92908763302613" lon="15.02250046535749"><ele>232.0</ele><time>2026-03-28T16:58:12.999Z</time></trkpt><trkpt lat="36.929099538590606" lon="15.022388767407417"><ele>234.0</ele><time>2026-03-28T16:58:13.999Z</time></trkpt><trkpt lat="36.92911867356752" lon="15.022300626524256"><ele>236.0</ele><time>2026-03-28T16:58:14.999Z</time></trkpt><trkpt lat="36.92917685950691" lon="15.022236074581715"><ele>238.0</ele><time>2026-03-28T16:58:16.999Z</time></trkpt><trkpt lat="36.92922970929463" lon="15.022352787650863"><ele>240.0</ele><time>2026-03-28T16:58:18.999Z</time></trkpt><trkpt lat="36.92923077476552" lon="15.022482264692535"><ele>247.5</ele><time>2026-03-28T16:58:19.999Z</time></trkpt><trkpt lat="36.92923169565763" lon="15.022656075465918"><ele>255.0</ele><time>2026-03-28T16:58:20.999Z</time></trkpt><trkpt lat="36.929268821405735" lon="15.022793176252899"><ele>262.5</ele><time>2026-03-28T16:58:21.999Z</time></trkpt><trkpt lat="36.92935143400893" lon="15.022900177105884"><ele>270.0</ele><time>2026-03-28T16:58:22.999Z</time></trkpt><trkpt lat="36.9294630994992" lon="15.02300698253139"><ele>270.0</ele><time>2026-03-28T16:58:23.999Z</time></trkpt><trkpt lat="36.92960148379744" lon="15.023127180025035"><ele>270.0</ele><time>2026-03-28T16:58:24.999Z</time></trkpt><trkpt lat="36.929719367172176" lon="15.02326197233485"><ele>270.0</ele><time>2026-03-28T16:58:25.999Z</time></trkpt><trkpt lat="36.92981217799704" lon="15.023408659575644"><ele>267.0</ele><time>2026-03-28T16:58:26.999Z</time></trkpt><trkpt lat="36.92988869391079" lon="15.023563984649968"><ele>264.0</ele><time>2026-03-28T16:58:27.999Z</time></trkpt><trkpt lat="36.92994800654985" lon="15.023722641092462"><ele>261.0</ele><time>2026-03-28T16:58:28.999Z</time></trkpt><trkpt lat="36.929990091717634" lon="15.023865794035606"><ele>258.0</ele><time>2026-03-28T16:58:29.999Z</time></trkpt><trkpt lat="36.93003057132121" lon="15.023993045405208"><ele>261.25</ele><time>2026-03-28T16:58:30.999Z</time></trkpt><trkpt lat="36.93008708694627" lon="15.024103972408259"><ele>264.5</ele><time>2026-03-28T16:58:31.999Z</time></trkpt><trkpt lat="36.93016988440284" lon="15.02419156112766"><ele>267.75</ele><time>2026-03-28T16:58:32.999Z</time></trkpt><trkpt lat="36.930282015809034" lon="15.024252635993212"><ele>271.0</ele><time>2026-03-28T16:58:33.999Z</time></trkpt><trkpt lat="36.93042382667618" lon="15.024293970280956"><ele>271.0</ele><time>2026-03-28T16:58:34.999Z</time></trkpt><trkpt lat="36.930552611953445" lon="15.024315828941534"><ele>271.0</ele><time>2026-03-28T16:58:35.999Z</time></trkpt><trkpt lat="36.93065731992451" lon="15.02434944834462"><ele>271.0</ele><time>2026-03-28T16:58:36.999Z</time></trkpt><trkpt lat="36.93073737035963" lon="15.024409414150044"><ele>271.0</ele><time>2026-03-28T16:58:37.999Z</time></trkpt><trkpt lat="36.93080011479211" lon="15.024479267178535"><ele>271.0</ele><time>2026-03-28T16:58:38.999Z</time></trkpt><trkpt lat="36.93084696236279" lon="15.024564574603824"><ele>271.0</ele><time>2026-03-28T16:58:39.999Z</time></trkpt><trkpt lat="36.93085139573969" lon="15.02467942562145"><ele>271.0</ele><time>2026-03-28T16:58:40.999Z</time></trkpt><trkpt lat="36.93082124602163" lon="15.024800245567814"><ele>271.0</ele><time>2026-03-28T16:58:41.999Z</time></trkpt><trkpt lat="36.930755683584295" lon="15.024945191419393"><ele>271.0</ele><time>2026-03-28T16:58:42.999Z</time></trkpt><trkpt lat="36.93067849562754" lon="15.025100582667934"><ele>269.25</ele><time>2026-03-28T16:58:43.999Z</time></trkpt><trkpt lat="36.93062034035258" lon="15.025268833151946"><ele>267.5</ele><time>2026-03-28T16:58:44.999Z</time></trkpt><trkpt lat="36.93058495585012" lon="15.025433737500071"><ele>265.75</ele><time>2026-03-28T16:58:45.999Z</time></trkpt><trkpt lat="36.93056492964871" lon="15.025596672945996"><ele>264.0</ele><time>2026-03-28T16:58:46.999Z</time></trkpt><trkpt lat="36.93055840956932" lon="15.025786307560274"><ele>269.0</ele><time>2026-03-28T16:58:47.999Z</time></trkpt><trkpt lat="36.93055547420964" lon="15.025979097999407"><ele>274.0</ele><time>2026-03-28T16:58:48.999Z</time></trkpt><trkpt lat="36.93054980315146" lon="15.026176596583925"><ele>279.0</ele><time>2026-03-28T16:58:49.999Z</time></trkpt><trkpt lat="36.93056231892133" lon="15.026388694420708"><ele>279.0</ele><time>2026-03-28T16:58:50.999Z</time></trkpt><trkpt lat="36.930585404351284" lon="15.026583789381297"><ele>279.0</ele><time>2026-03-28T16:58:51.999Z</time></trkpt><trkpt lat="36.93060478912802" lon="15.026749896808095"><ele>279.0</ele><time>2026-03-28T16:58:52.999Z</time></trkpt><trkpt lat="36.93063193158858" lon="15.026916293018209"><ele>279.0</ele><time>2026-03-28T16:58:53.999Z</time></trkpt><trkpt lat="36.93068561602455" lon="15.027070010119823"><ele>279.2</ele><time>2026-03-28T16:58:54.999Z</time></trkpt><trkpt lat="36.93073359262896" lon="15.027207500347105"><ele>279.4</ele><time>2026-03-28T16:58:55.998Z</time></trkpt><trkpt lat="36.93073753052035" lon="15.027313266107212"><ele>279.6</ele><time>2026-03-28T16:58:56.998Z</time></trkpt><trkpt lat="36.93080308028433" lon="15.027480797507126"><ele>279.8</ele><time>2026-03-28T16:58:58.998Z</time></trkpt><trkpt lat="36.93087836730543" lon="15.027546276458922"><ele>280.0</ele><time>2026-03-28T16:58:59.998Z</time></trkpt><trkpt lat="36.93094584940044" lon="15.027587180756633"><ele>284.0</ele><time>2026-03-28T16:59:00.998Z</time></trkpt><trkpt lat="36.93105520463115" lon="15.02754289355463"><ele>288.0</ele><time>2026-03-28T16:59:02.998Z</time></trkpt><trkpt lat="36.93108423465767" lon="15.027446670991822"><ele>292.0</ele><time>2026-03-28T16:59:03.998Z</time></trkpt><trkpt lat="36.93107693726532" lon="15.02731667621582"><ele>296.0</ele><time>2026-03-28T16:59:04.998Z</time></trkpt><trkpt lat="36.931073852351105" lon="15.027151108421977"><ele>300.0</ele><time>2026-03-28T16:59:05.998Z</time></trkpt><trkpt lat="36.93108462743905" lon="15.026978885053401"><ele>302.5</ele><time>2026-03-28T16:59:06.998Z</time></trkpt><trkpt lat="36.931097477056944" lon="15.026822033010781"><ele>305.0</ele><time>2026-03-28T16:59:07.998Z</time></trkpt><trkpt lat="36.931115962226144" lon="15.02667735972714"><ele>307.5</ele><time>2026-03-28T16:59:09Z</time></trkpt><trkpt lat="36.93114822614525" lon="15.0265480205945"><ele>310.0</ele><time>2026-03-28T16:59:10Z</time></trkpt><trkpt lat="36.931180687253296" lon="15.026420006210763"><ele>310.0</ele><time>2026-03-28T16:59:11Z</time></trkpt><trkpt lat="36.93120714924011" lon="15.026293987604914"><ele>310.0</ele><time>2026-03-28T16:59:12Z</time></trkpt><trkpt lat="36.93122607885507" lon="15.026198616796147"><ele>310.0</ele><time>2026-03-28T16:59:13Z</time></trkpt><trkpt lat="36.93130380467088" lon="15.02613590037986"><ele>310.0</ele><time>2026-03-28T16:59:15Z</time></trkpt><trkpt lat="36.93134400690411" lon="15.02619782048947"><ele>310.0</ele><time>2026-03-28T16:59:16Z</time></trkpt><trkpt lat="36.93136369694006" lon="15.026286949764762"><ele>310.0</ele><time>2026-03-28T16:59:17Z</time></trkpt><trkpt lat="36.931362509764845" lon="15.026421101169722"><ele>310.0</ele><time>2026-03-28T16:59:18Z</time></trkpt><trkpt lat="36.931369885519715" lon="15.026568090980124"><ele>310.0</ele><time>2026-03-28T16:59:19Z</time></trkpt><trkpt lat="36.931419113701416" lon="15.026729656850142"><ele>310.0</ele><time>2026-03-28T16:59:20Z</time></trkpt><trkpt lat="36.93148620156813" lon="15.026847492053369"><ele>310.0</ele><time>2026-03-28T16:59:21Z</time></trkpt><trkpt lat="36.93155500378481" lon="15.026892229269354"><ele>310.0</ele><time>2026-03-28T16:59:22Z</time></trkpt><trkpt lat="36.93164424443306" lon="15.026792679690312"><ele>310.0</ele><time>2026-03-28T16:59:24Z</time></trkpt><trkpt lat="36.931641803124414" lon="15.026684524941652"><ele>310.0</ele><time>2026-03-28T16:59:25Z</time></trkpt><trkpt lat="36.931628320388626" lon="15.026543544346719"><ele>310.0</ele><time>2026-03-28T16:59:26Z</time></trkpt><trkpt lat="36.9316184674776" lon="15.026407025948158"><ele>310.0</ele><time>2026-03-28T16:59:27Z</time></trkpt><trkpt lat="36.931648769555196" lon="15.026270377553033"><ele>310.0</ele><time>2026-03-28T16:59:28Z</time></trkpt><trkpt lat="36.931699990233675" lon="15.026139245237964"><ele>314.8333333333333</ele><time>2026-03-28T16:59:29Z</time></trkpt><trkpt lat="36.93173965980898" lon="15.026051191790941"><ele>319.66666666666663</ele><time>2026-03-28T16:59:30Z</time></trkpt><trkpt lat="36.93184057167374" lon="15.026017402811126"><ele>324.5</ele><time>2026-03-28T16:59:32Z</time></trkpt><trkpt lat="36.93188421395721" lon="15.026083789761893"><ele>329.3333333333333</ele><time>2026-03-28T16:59:33Z</time></trkpt><trkpt lat="36.931907964899395" lon="15.026186660543097"><ele>334.1666666666667</ele><time>2026-03-28T16:59:34Z</time></trkpt><trkpt lat="36.93193803690624" lon="15.02631132770826"><ele>339.0</ele><time>2026-03-28T16:59:35Z</time></trkpt><trkpt lat="36.93199281971091" lon="15.02643688016643"><ele>339.0</ele><time>2026-03-28T16:59:36Z</time></trkpt><trkpt lat="36.932037305851715" lon="15.026520961839418"><ele>339.0</ele><time>2026-03-28T16:59:37Z</time></trkpt><trkpt lat="36.9321350373061" lon="15.026508464824765"><ele>339.0</ele><time>2026-03-28T16:59:39Z</time></trkpt><trkpt lat="36.932177702503715" lon="15.026412330751032"><ele>339.0</ele><time>2026-03-28T16:59:40Z</time></trkpt><trkpt lat="36.932208026080495" lon="15.026289334202875"><ele>339.0</ele><time>2026-03-28T16:59:41Z</time></trkpt><trkpt lat="36.932249988997086" lon="15.026189698649773"><ele>339.0</ele><time>2026-03-28T16:59:42Z</time></trkpt><trkpt lat="36.932305211608885" lon="15.026150308216375"><ele>339.0</ele><time>2026-03-28T16:59:43Z</time></trkpt><trkpt lat="36.932392133003084" lon="15.026198037551971"><ele>339.0</ele><time>2026-03-28T16:59:45Z</time></trkpt><trkpt lat="36.93241918158911" lon="15.026360180537552"><ele>339.0</ele><time>2026-03-28T16:59:47Z</time></trkpt><trkpt lat="36.932402254324636" lon="15.026475205698022"><ele>339.0</ele><time>2026-03-28T16:59:48Z</time></trkpt><trkpt lat="36.932404634134876" lon="15.026603806719834"><ele>337.79999999999995</ele><time>2026-03-28T16:59:49Z</time></trkpt><trkpt lat="36.93244386932754" lon="15.026700554458246"><ele>336.59999999999997</ele><time>2026-03-28T16:59:50Z</time></trkpt><trkpt lat="36.932514429770166" lon="15.026796295298151"><ele>335.4</ele><time>2026-03-28T16:59:51Z</time></trkpt><trkpt lat="36.93259090582578" lon="15.026887363322938"><ele>334.2</ele><time>2026-03-28T16:59:52Z</time></trkpt><trkpt lat="36.932667300249676" lon="15.026957405918715"><ele>333.0</ele><time>2026-03-28T16:59:53Z</time></trkpt><trkpt lat="36.932747551378085" lon="15.027009419286514"><ele>336.1666666666667</ele><time>2026-03-28T16:59:54Z</time></trkpt><trkpt lat="36.93282008737956" lon="15.02706030705551"><ele>339.3333333333333</ele><time>2026-03-28T16:59:55Z</time></trkpt><trkpt lat="36.93290580901279" lon="15.0271103122672"><ele>342.5</ele><time>2026-03-28T16:59:56Z</time></trkpt><trkpt lat="36.93298280195883" lon="15.0271328005879"><ele>345.66666666666663</ele><time>2026-03-28T16:59:57Z</time></trkpt><trkpt lat="36.93305122672577" lon="15.027146766686261"><ele>348.8333333333333</ele><time>2026-03-28T16:59:58Z</time></trkpt><trkpt lat="36.93311845350206" lon="15.027130506463386"><ele>352.0</ele><time>2026-03-28T16:59:58.999Z</time></trkpt><trkpt lat="36.9331803665391" lon="15.027092827948156"><ele>352.0</ele><time>2026-03-28T16:59:59.999Z</time></trkpt><trkpt lat="36.933235069697105" lon="15.027035707134736"><ele>352.0</ele><time>2026-03-28T17:00:00.999Z</time></trkpt><trkpt lat="36.933292317259195" lon="15.02696594215404"><ele>352.0</ele><time>2026-03-28T17:00:01.999Z</time></trkpt><trkpt lat="36.933354329572225" lon="15.026864929043853"><ele>352.0</ele><time>2026-03-28T17:00:02.999Z</time></trkpt><trkpt lat="36.93344254838562" lon="15.026752836133326"><ele>352.0</ele><time>2026-03-28T17:00:03.999Z</time></trkpt><trkpt lat="36.933514650309405" lon="15.026666344496702"><ele>357.0</ele><time>2026-03-28T17:00:04.999Z</time></trkpt><trkpt lat="36.933528789426276" lon="15.026579223008145"><ele>362.0</ele><time>2026-03-28T17:00:05.999Z</time></trkpt><trkpt lat="36.93349544156168" lon="15.0264866615238"><ele>367.0</ele><time>2026-03-28T17:00:06.999Z</time></trkpt><trkpt lat="36.933451568715824" lon="15.026363204984698"><ele>372.0</ele><time>2026-03-28T17:00:07.999Z</time></trkpt><trkpt lat="36.93336172337638" lon="15.026237656089968"><ele>377.0</ele><time>2026-03-28T17:00:08.999Z</time></trkpt><trkpt lat="36.93326051498836" lon="15.026111304934947"><ele>377.0</ele><time>2026-03-28T17:00:09.999Z</time></trkpt><trkpt lat="36.93313721515078" lon="15.025988486447352"><ele>377.0</ele><time>2026-03-28T17:00:10.999Z</time></trkpt><trkpt lat="36.93301832563069" lon="15.025866210016897"><ele>377.0</ele><time>2026-03-28T17:00:11.999Z</time></trkpt><trkpt lat="36.932955301842306" lon="15.025774128808886"><ele>377.0</ele><time>2026-03-28T17:00:12.999Z</time></trkpt><trkpt lat="36.93290694936509" lon="15.02569371338599"><ele>377.20000000000005</ele><time>2026-03-28T17:00:13.999Z</time></trkpt><trkpt lat="36.93285560659886" lon="15.02560300086491"><ele>377.4</ele><time>2026-03-28T17:00:14.999Z</time></trkpt><trkpt lat="36.932805027701924" lon="15.025505598340745"><ele>377.6</ele><time>2026-03-28T17:00:15.999Z</time></trkpt><trkpt lat="36.93273939189161" lon="15.025409575381373"><ele>377.79999999999995</ele><time>2026-03-28T17:00:16.999Z</time></trkpt><trkpt lat="36.93268715937257" lon="15.025303810988172"><ele>378.0</ele><time>2026-03-28T17:00:17.999Z</time></trkpt><trkpt lat="36.932659002940134" lon="15.02522601683715"><ele>378.0</ele><time>2026-03-28T17:00:18.999Z</time></trkpt><trkpt lat="36.932614340868774" lon="15.025105099921097"><ele>378.0</ele><time>2026-03-28T17:00:20.999Z</time></trkpt><trkpt lat="36.93262165030178" lon="15.024990097039266"><ele>378.0</ele><time>2026-03-28T17:00:22.999Z</time></trkpt><trkpt lat="36.93266802112863" lon="15.024872453152483"><ele>378.0</ele><time>2026-03-28T17:00:24.999Z</time></trkpt><trkpt lat="36.93276183837231" lon="15.024768815373736"><ele>378.0</ele><time>2026-03-28T17:00:26.999Z</time></trkpt><trkpt lat="36.93282160051135" lon="15.024713425776342"><ele>372.5</ele><time>2026-03-28T17:00:27.999Z</time></trkpt><trkpt lat="36.93290293487198" lon="15.024648308627816"><ele>367.0</ele><time>2026-03-28T17:00:28.999Z</time></trkpt><trkpt lat="36.93300557050149" lon="15.024562317302642"><ele>361.5</ele><time>2026-03-28T17:00:29.999Z</time></trkpt><trkpt lat="36.93311715757285" lon="15.024488139217224"><ele>356.0</ele><time>2026-03-28T17:00:30.999Z</time></trkpt><trkpt lat="36.93323264586681" lon="15.024447397701856"><ele>356.0</ele><time>2026-03-28T17:00:31.999Z</time></trkpt><trkpt lat="36.93337377313423" lon="15.024429613357379"><ele>356.0</ele><time>2026-03-28T17:00:32.999Z</time></trkpt><trkpt lat="36.93353725361915" lon="15.024410638777319"><ele>356.0</ele><time>2026-03-28T17:00:33.999Z</time></trkpt><trkpt lat="36.93369732402218" lon="15.024417454122432"><ele>360.0</ele><time>2026-03-28T17:00:34.999Z</time></trkpt><trkpt lat="36.93387587808982" lon="15.024455587727848"><ele>364.0</ele><time>2026-03-28T17:00:35.999Z</time></trkpt><trkpt lat="36.934026957106425" lon="15.024461543767794"><ele>368.0</ele><time>2026-03-28T17:00:36.999Z</time></trkpt><trkpt lat="36.93418945778577" lon="15.024469956022736"><ele>372.33333333333337</ele><time>2026-03-28T17:00:37.999Z</time></trkpt><trkpt lat="36.93434387605401" lon="15.02442820956835"><ele>376.6666666666667</ele><time>2026-03-28T17:00:38.999Z</time></trkpt><trkpt lat="36.93449681071276" lon="15.024381757991607"><ele>381.0</ele><time>2026-03-28T17:00:39.999Z</time></trkpt><trkpt lat="36.93466855125533" lon="15.024319260755703"><ele>381.0</ele><time>2026-03-28T17:00:40.999Z</time></trkpt><trkpt lat="36.934856459314055" lon="15.024225677395998"><ele>381.0</ele><time>2026-03-28T17:00:41.999Z</time></trkpt><trkpt lat="36.93503568377478" lon="15.024134786652997"><ele>381.0</ele><time>2026-03-28T17:00:42.999Z</time></trkpt><trkpt lat="36.935186632163195" lon="15.024066689525306"><ele>384.25</ele><time>2026-03-28T17:00:43.999Z</time></trkpt><trkpt lat="36.935313570416994" lon="15.023999522806111"><ele>387.5</ele><time>2026-03-28T17:00:44.999Z</time></trkpt><trkpt lat="36.935417658979155" lon="15.023935514508567"><ele>390.75</ele><time>2026-03-28T17:00:45.999Z</time></trkpt><trkpt lat="36.935510991949315" lon="15.023863343423953"><ele>394.0</ele><time>2026-03-28T17:00:46.999Z</time></trkpt><trkpt lat="36.93557705468342" lon="15.023786653239378"><ele>394.00000000000006</ele><time>2026-03-28T17:00:47.999Z</time></trkpt><trkpt lat="36.935636086338526" lon="15.023752563348392"><ele>394.0</ele><time>2026-03-28T17:00:48.999Z</time></trkpt><trkpt lat="36.9357110973899" lon="15.023720420940984"><ele>394.0</ele><time>2026-03-28T17:00:50.999Z</time></trkpt><trkpt lat="36.93579367113111" lon="15.023723881186804"><ele>394.0</ele><time>2026-03-28T17:00:53.999Z</time></trkpt><trkpt lat="36.93587453022486" lon="15.023726710876494"><ele>394.00000000000006</ele><time>2026-03-28T17:00:54.999Z</time></trkpt><trkpt lat="36.935964063083624" lon="15.023717140089621"><ele>394.0</ele><time>2026-03-28T17:00:55.999Z</time></trkpt><trkpt lat="36.9360612575625" lon="15.023742583984893"><ele>395.79999999999995</ele><time>2026-03-28T17:00:56.999Z</time></trkpt><trkpt lat="36.93616227743378" lon="15.023726867532972"><ele>397.59999999999997</ele><time>2026-03-28T17:00:57.999Z</time></trkpt><trkpt lat="36.93626036592417" lon="15.023718569302748"><ele>399.4</ele><time>2026-03-28T17:00:58.999Z</time></trkpt><trkpt lat="36.9363548785491" lon="15.02369442575676"><ele>401.2</ele><time>2026-03-28T17:00:59.999Z</time></trkpt><trkpt lat="36.936444242782414" lon="15.023656265914951"><ele>403.0</ele><time>2026-03-28T17:01:00.999Z</time></trkpt><trkpt lat="36.93653073022203" lon="15.023634853592348"><ele>403.00000000000006</ele><time>2026-03-28T17:01:01.999Z</time></trkpt><trkpt lat="36.93660803486635" lon="15.023625370795248"><ele>403.0</ele><time>2026-03-28T17:01:02.998Z</time></trkpt><trkpt lat="36.93669064449049" lon="15.02364764631701"><ele>403.0</ele><time>2026-03-28T17:01:04.998Z</time></trkpt><trkpt lat="36.93673963203206" lon="15.02375192593898"><ele>403.0</ele><time>2026-03-28T17:01:08.998Z</time></trkpt><trkpt lat="36.93677617358363" lon="15.023830528727595"><ele>403.00000000000006</ele><time>2026-03-28T17:01:10.998Z</time></trkpt><trkpt lat="36.9368203324829" lon="15.023908710745673"><ele>403.0</ele><time>2026-03-28T17:01:12.998Z</time></trkpt><trkpt lat="36.93686973746976" lon="15.024001419221362"><ele>403.59999999999997</ele><time>2026-03-28T17:01:15Z</time></trkpt><trkpt lat="36.936923719255134" lon="15.024096919997207"><ele>404.2</ele><time>2026-03-28T17:01:17Z</time></trkpt><trkpt lat="36.93699796434625" lon="15.024217279961"><ele>404.8</ele><time>2026-03-28T17:01:19Z</time></trkpt><trkpt lat="36.93703630406237" lon="15.024325918385593"><ele>405.4</ele><time>2026-03-28T17:01:21Z</time></trkpt><trkpt lat="36.93710098924485" lon="15.024380545796726"><ele>406.0</ele><time>2026-03-28T17:01:24Z</time></trkpt><trkpt lat="36.937162143537925" lon="15.02432704971017"><ele>406.00000000000006</ele><time>2026-03-28T17:01:27Z</time></trkpt><trkpt lat="36.937265853461284" lon="15.024263184754076"><ele>406.0</ele><time>2026-03-28T17:01:29Z</time></trkpt><trkpt lat="36.93736416403798" lon="15.02419618294826"><ele>406.0</ele><time>2026-03-28T17:01:31Z</time></trkpt><trkpt lat="36.93742176444811" lon="15.024162707499118"><ele>406.0</ele><time>2026-03-28T17:01:32Z</time></trkpt><trkpt lat="36.93749162775581" lon="15.024115516673481"><ele>406.00000000000006</ele><time>2026-03-28T17:01:33Z</time></trkpt><trkpt lat="36.93755459268043" lon="15.024076755880907"><ele>406.0</ele><time>2026-03-28T17:01:34Z</time></trkpt><trkpt lat="36.93761757517244" lon="15.024031543780223"><ele>407.5</ele><time>2026-03-28T17:01:35Z</time></trkpt><trkpt lat="36.93770762353985" lon="15.023958697411379"><ele>409.0</ele><time>2026-03-28T17:01:36Z</time></trkpt><trkpt lat="36.937830092479025" lon="15.023866001557996"><ele>410.5</ele><time>2026-03-28T17:01:37Z</time></trkpt><trkpt lat="36.937974149751284" lon="15.023760326602368"><ele>412.0</ele><time>2026-03-28T17:01:38Z</time></trkpt><trkpt lat="36.938138298720524" lon="15.023649868845762"><ele>412.0</ele><time>2026-03-28T17:01:39Z</time></trkpt><trkpt lat="36.938276386880474" lon="15.023563223345018"><ele>412.0</ele><time>2026-03-28T17:01:40Z</time></trkpt><trkpt lat="36.93838530098443" lon="15.023486614630997"><ele>412.0</ele><time>2026-03-28T17:01:41Z</time></trkpt><trkpt lat="36.93846045791341" lon="15.02340623034969"><ele>412.0</ele><time>2026-03-28T17:01:42Z</time></trkpt><trkpt lat="36.93849703999868" lon="15.023313826070897"><ele>412.75</ele><time>2026-03-28T17:01:43Z</time></trkpt><trkpt lat="36.938523397735445" lon="15.023196427197295"><ele>413.5</ele><time>2026-03-28T17:01:44Z</time></trkpt><trkpt lat="36.938545027299995" lon="15.023040817560908"><ele>414.25</ele><time>2026-03-28T17:01:45Z</time></trkpt><trkpt lat="36.938567933290884" lon="15.022854997250555"><ele>415.0</ele><time>2026-03-28T17:01:46Z</time></trkpt><trkpt lat="36.93859557203658" lon="15.022720249804863"><ele>415.00000000000006</ele><time>2026-03-28T17:01:47Z</time></trkpt><trkpt lat="36.93861064691617" lon="15.022614394431052"><ele>415.0</ele><time>2026-03-28T17:01:48Z</time></trkpt><trkpt lat="36.938633502089395" lon="15.0225311258656"><ele>415.0</ele><time>2026-03-28T17:01:49Z</time></trkpt><trkpt lat="36.93864941416126" lon="15.022452302649928"><ele>415.0</ele><time>2026-03-28T17:01:50Z</time></trkpt><trkpt lat="36.938677135014714" lon="15.022355198631876"><ele>415.00000000000006</ele><time>2026-03-28T17:01:52Z</time></trkpt><trkpt lat="36.93873255537108" lon="15.022293928383778"><ele>415.0</ele><time>2026-03-28T17:01:55Z</time></trkpt><trkpt lat="36.938819694105135" lon="15.02225942302435"><ele>414.75</ele><time>2026-03-28T17:02:12.999Z</time></trkpt><trkpt lat="36.93892316722264" lon="15.022301601486824"><ele>414.5</ele><time>2026-03-28T17:02:13.999Z</time></trkpt><trkpt lat="36.93905002864271" lon="15.02234856452493"><ele>414.25</ele><time>2026-03-28T17:02:14.999Z</time></trkpt><trkpt lat="36.939187004600136" lon="15.022414818243906"><ele>414.0</ele><time>2026-03-28T17:02:15.999Z</time></trkpt><trkpt lat="36.93934302937875" lon="15.02248239104285"><ele>414.0</ele><time>2026-03-28T17:02:16.999Z</time></trkpt><trkpt lat="36.93945688481891" lon="15.02259930732989"><ele>414.0</ele><time>2026-03-28T17:02:17.999Z</time></trkpt><trkpt lat="36.9395310590586" lon="15.022707889610604"><ele>414.0</ele><time>2026-03-28T17:02:18.999Z</time></trkpt><trkpt lat="36.93961564185837" lon="15.022784123880681"><ele>414.0</ele><time>2026-03-28T17:02:19.999Z</time></trkpt><trkpt lat="36.93970401959748" lon="15.02283793151272"><ele>414.0</ele><time>2026-03-28T17:02:20.999Z</time></trkpt><trkpt lat="36.9398163192783" lon="15.022868173185215"><ele>414.0</ele><time>2026-03-28T17:02:21.999Z</time></trkpt><trkpt lat="36.93995985618188" lon="15.02288126984773"><ele>414.0</ele><time>2026-03-28T17:02:22.999Z</time></trkpt><trkpt lat="36.94014245378644" lon="15.022895785902405"><ele>414.0</ele><time>2026-03-28T17:02:23.999Z</time></trkpt><trkpt lat="36.94034868413399" lon="15.022921209269217"><ele>414.33333333333337</ele><time>2026-03-28T17:02:24.999Z</time></trkpt><trkpt lat="36.94053478654467" lon="15.022943954745845"><ele>414.6666666666667</ele><time>2026-03-28T17:02:25.999Z</time></trkpt><trkpt lat="36.940711460181184" lon="15.022964297726405"><ele>415.0</ele><time>2026-03-28T17:02:26.999Z</time></trkpt><trkpt lat="36.94089005852836" lon="15.02298512092959"><ele>415.33333333333337</ele><time>2026-03-28T17:02:27.999Z</time></trkpt><trkpt lat="36.941054147496295" lon="15.023047528998239"><ele>415.66666666666663</ele><time>2026-03-28T17:02:28.999Z</time></trkpt><trkpt lat="36.94122425849069" lon="15.023120236780919"><ele>416.0</ele><time>2026-03-28T17:02:29.999Z</time></trkpt><trkpt lat="36.94138152308725" lon="15.023186610830413"><ele>416.0</ele><time>2026-03-28T17:02:30.999Z</time></trkpt><trkpt lat="36.94152146600249" lon="15.02323566275522"><ele>416.0</ele><time>2026-03-28T17:02:31.999Z</time></trkpt><trkpt lat="36.94164642200322" lon="15.023291063095725"><ele>416.0</ele><time>2026-03-28T17:02:32.999Z</time></trkpt><trkpt lat="36.94177023171648" lon="15.023340103519127"><ele>416.0</ele><time>2026-03-28T17:02:33.999Z</time></trkpt><trkpt lat="36.941906733746734" lon="15.02338107619906"><ele>416.3333333333333</ele><time>2026-03-28T17:02:34.999Z</time></trkpt><trkpt lat="36.9420492118313" lon="15.023421709751451"><ele>416.66666666666663</ele><time>2026-03-28T17:02:35.999Z</time></trkpt><trkpt lat="36.94220415533101" lon="15.023439773808695"><ele>417.0</ele><time>2026-03-28T17:02:36.999Z</time></trkpt><trkpt lat="36.94236920682127" lon="15.02344660770437"><ele>417.0</ele><time>2026-03-28T17:02:37.999Z</time></trkpt><trkpt lat="36.94251746293387" lon="15.023432077211528"><ele>417.0</ele><time>2026-03-28T17:02:38.999Z</time></trkpt><trkpt lat="36.94264407565722" lon="15.023425430780698"><ele>417.0</ele><time>2026-03-28T17:02:39.999Z</time></trkpt><trkpt lat="36.942767487020674" lon="15.023418276533942"><ele>417.0</ele><time>2026-03-28T17:02:40.999Z</time></trkpt><trkpt lat="36.94289464921509" lon="15.02342037949082"><ele>416.5</ele><time>2026-03-28T17:02:41.999Z</time></trkpt><trkpt lat="36.94302724499967" lon="15.023407897676076"><ele>416.0</ele><time>2026-03-28T17:02:42.999Z</time></trkpt><trkpt lat="36.943166775634424" lon="15.023378550238563"><ele>415.5</ele><time>2026-03-28T17:02:43.999Z</time></trkpt><trkpt lat="36.94331073038328" lon="15.023356460184939"><ele>415.0</ele><time>2026-03-28T17:02:44.999Z</time></trkpt><trkpt lat="36.94346123852951" lon="15.02333775346185"><ele>413.0</ele><time>2026-03-28T17:02:45.999Z</time></trkpt><trkpt lat="36.943609197545655" lon="15.02330583808443"><ele>411.0</ele><time>2026-03-28T17:02:46.999Z</time></trkpt><trkpt lat="36.94375184259288" lon="15.023257127318235"><ele>409.0</ele><time>2026-03-28T17:02:47.999Z</time></trkpt><trkpt lat="36.94390346256193" lon="15.023226933435062"><ele>409.0</ele><time>2026-03-28T17:02:48.999Z</time></trkpt><trkpt lat="36.944051830403005" lon="15.023213941582904"><ele>409.0</ele><time>2026-03-28T17:02:49.999Z</time></trkpt><trkpt lat="36.944217127900274" lon="15.023210141348837"><ele>409.0</ele><time>2026-03-28T17:02:50.999Z</time></trkpt><trkpt lat="36.944368173706465" lon="15.023182860924981"><ele>406.75</ele><time>2026-03-28T17:02:51.999Z</time></trkpt><trkpt lat="36.94449844414427" lon="15.023132214125313"><ele>404.5</ele><time>2026-03-28T17:02:52.999Z</time></trkpt><trkpt lat="36.944613659476474" lon="15.023092446272807"><ele>402.25</ele><time>2026-03-28T17:02:53.999Z</time></trkpt><trkpt lat="36.944725054888444" lon="15.023066993267982"><ele>400.0</ele><time>2026-03-28T17:02:54.999Z</time></trkpt><trkpt lat="36.94481701124467" lon="15.0230403701155"><ele>400.0</ele><time>2026-03-28T17:02:55.999Z</time></trkpt><trkpt lat="36.944888495790565" lon="15.023028038281344"><ele>400.0</ele><time>2026-03-28T17:02:56.999Z</time></trkpt><trkpt lat="36.94500199104257" lon="15.023069104398585"><ele>400.0</ele><time>2026-03-28T17:02:58.999Z</time></trkpt><trkpt lat="36.94506172112564" lon="15.023119125314324"><ele>400.0</ele><time>2026-03-28T17:02:59.999Z</time></trkpt><trkpt lat="36.94512321663767" lon="15.023180203726625"><ele>400.0</ele><time>2026-03-28T17:03:00.999Z</time></trkpt><trkpt lat="36.94517828933575" lon="15.023310175070593"><ele>402.14285714285717</ele><time>2026-03-28T17:03:02.999Z</time></trkpt><trkpt lat="36.945201545148336" lon="15.023387601610642"><ele>404.2857142857143</ele><time>2026-03-28T17:03:03.999Z</time></trkpt><trkpt lat="36.945224519549534" lon="15.023474642527123"><ele>406.42857142857144</ele><time>2026-03-28T17:03:04.998Z</time></trkpt><trkpt lat="36.94523729524642" lon="15.0235708031571"><ele>408.57142857142856</ele><time>2026-03-28T17:03:05.998Z</time></trkpt><trkpt lat="36.94524613298833" lon="15.023660055857222"><ele>410.7142857142857</ele><time>2026-03-28T17:03:06.998Z</time></trkpt><trkpt lat="36.94528891477418" lon="15.023739398490362"><ele>412.8571428571429</ele><time>2026-03-28T17:03:07.998Z</time></trkpt><trkpt lat="36.945340335430856" lon="15.02381638294562"><ele>415.0</ele><time>2026-03-28T17:03:08.998Z</time></trkpt><trkpt lat="36.94540739844419" lon="15.023889864617432"><ele>415.0</ele><time>2026-03-28T17:03:09.998Z</time></trkpt><trkpt lat="36.94551902806321" lon="15.023904067964782"><ele>415.0</ele><time>2026-03-28T17:03:10.998Z</time></trkpt><trkpt lat="36.945626908893516" lon="15.023908128183022"><ele>415.0</ele><time>2026-03-28T17:03:11.998Z</time></trkpt><trkpt lat="36.94571943234971" lon="15.023892589891997"><ele>415.0</ele><time>2026-03-28T17:03:12.998Z</time></trkpt><trkpt lat="36.945802843747884" lon="15.02386158618563"><ele>415.0</ele><time>2026-03-28T17:03:13.998Z</time></trkpt><trkpt lat="36.945876808950366" lon="15.023824459414591"><ele>413.50000000000006</ele><time>2026-03-28T17:03:14.998Z</time></trkpt><trkpt lat="36.9459357378814" lon="15.023772033365594"><ele>412.0</ele><time>2026-03-28T17:03:15.998Z</time></trkpt><trkpt lat="36.94598370267159" lon="15.023708782637952"><ele>410.5</ele><time>2026-03-28T17:03:16.998Z</time></trkpt><trkpt lat="36.94603052785865" lon="15.023655443278534"><ele>409.0</ele><time>2026-03-28T17:03:17.998Z</time></trkpt><trkpt lat="36.94607084095285" lon="15.023593445886169"><ele>407.50000000000006</ele><time>2026-03-28T17:03:18.998Z</time></trkpt><trkpt lat="36.94614341672563" lon="15.02345678354974"><ele>406.0</ele><time>2026-03-28T17:03:21Z</time></trkpt><trkpt lat="36.946174988729034" lon="15.02338433368409"><ele>407.8</ele><time>2026-03-28T17:03:22Z</time></trkpt><trkpt lat="36.94623778643909" lon="15.023264906675676"><ele>409.6</ele><time>2026-03-28T17:03:24Z</time></trkpt><trkpt lat="36.94627807528898" lon="15.023167997980728"><ele>411.4</ele><time>2026-03-28T17:03:26Z</time></trkpt><trkpt lat="36.94633496663453" lon="15.02308619710589"><ele>413.2</ele><time>2026-03-28T17:03:28Z</time></trkpt><trkpt lat="36.946386505272386" lon="15.0229945007445"><ele>415.0</ele><time>2026-03-28T17:03:30Z</time></trkpt><trkpt lat="36.94647809369123" lon="15.022970817336507"><ele>415.0</ele><time>2026-03-28T17:04:08Z</time></trkpt><trkpt lat="36.94654370111131" lon="15.023065669852533"><ele>415.0</ele><time>2026-03-28T17:04:08.999Z</time></trkpt><trkpt lat="36.94660884447009" lon="15.023120226896674"><ele>415.0</ele><time>2026-03-28T17:04:09.999Z</time></trkpt><trkpt lat="36.946654104494094" lon="15.023209715748024"><ele>415.0</ele><time>2026-03-28T17:04:10.999Z</time></trkpt><trkpt lat="36.946688360249915" lon="15.02332285746646"><ele>415.0</ele><time>2026-03-28T17:04:11.999Z</time></trkpt><trkpt lat="36.94670232762768" lon="15.023444864520737"><ele>415.33333333333337</ele><time>2026-03-28T17:04:12.999Z</time></trkpt><trkpt lat="36.94673514198457" lon="15.023550146314873"><ele>415.6666666666667</ele><time>2026-03-28T17:04:13.999Z</time></trkpt><trkpt lat="36.94676743816059" lon="15.023644237260628"><ele>416.0</ele><time>2026-03-28T17:04:14.999Z</time></trkpt><trkpt lat="36.94680763692573" lon="15.023720421541313"><ele>416.33333333333337</ele><time>2026-03-28T17:04:15.999Z</time></trkpt><trkpt lat="36.94687386044886" lon="15.02379726082856"><ele>416.6666666666667</ele><time>2026-03-28T17:04:16.999Z</time></trkpt><trkpt lat="36.94696613602816" lon="15.023871021868416"><ele>417.0</ele><time>2026-03-28T17:04:17.999Z</time></trkpt><trkpt lat="36.94706246389489" lon="15.02388751654372"><ele>417.0</ele><time>2026-03-28T17:04:18.999Z</time></trkpt><trkpt lat="36.947158303211886" lon="15.02390245574246"><ele>417.0</ele><time>2026-03-28T17:04:19.999Z</time></trkpt><trkpt lat="36.94726298274213" lon="15.023923465475539"><ele>417.0</ele><time>2026-03-28T17:04:20.999Z</time></trkpt><trkpt lat="36.947325526146244" lon="15.024008425411472"><ele>417.0</ele><time>2026-03-28T17:04:21.999Z</time></trkpt><trkpt lat="36.947415423999516" lon="15.024089967403484"><ele>417.0</ele><time>2026-03-28T17:04:22.999Z</time></trkpt><trkpt lat="36.947511664637744" lon="15.024154385832631"><ele>418.0</ele><time>2026-03-28T17:04:23.999Z</time></trkpt><trkpt lat="36.947568350036846" lon="15.02425360225439"><ele>419.0</ele><time>2026-03-28T17:04:24.999Z</time></trkpt><trkpt lat="36.94760536027915" lon="15.024353671992538"><ele>420.0</ele><time>2026-03-28T17:04:25.999Z</time></trkpt><trkpt lat="36.947619332655734" lon="15.024475654304224"><ele>421.0</ele><time>2026-03-28T17:04:26.999Z</time></trkpt><trkpt lat="36.947653082222175" lon="15.024646604774976"><ele>422.0</ele><time>2026-03-28T17:04:27.999Z</time></trkpt><trkpt lat="36.94770067341313" lon="15.024821889620789"><ele>418.0</ele><time>2026-03-28T17:04:28.999Z</time></trkpt><trkpt lat="36.94772684368168" lon="15.024982268831463"><ele>414.0</ele><time>2026-03-28T17:04:29.999Z</time></trkpt><trkpt lat="36.94773901504093" lon="15.025105693712796"><ele>410.0</ele><time>2026-03-28T17:04:30.999Z</time></trkpt><trkpt lat="36.94775459171622" lon="15.025208119595927"><ele>406.0</ele><time>2026-03-28T17:04:31.999Z</time></trkpt><trkpt lat="36.94770712685743" lon="15.02535907833098"><ele>402.0</ele><time>2026-03-28T17:04:33.999Z</time></trkpt><trkpt lat="36.94764963613228" lon="15.025427857170886"><ele>402.0</ele><time>2026-03-28T17:04:34.999Z</time></trkpt><trkpt lat="36.9476076574971" lon="15.025488413918971"><ele>402.0</ele><time>2026-03-28T17:04:35.999Z</time></trkpt><trkpt lat="36.94752176534322" lon="15.025498167172573"><ele>402.0</ele><time>2026-03-28T17:04:38.999Z</time></trkpt><trkpt lat="36.94741856880634" lon="15.025312456936133"><ele>402.0</ele><time>2026-03-28T17:04:40.999Z</time></trkpt><trkpt lat="36.94734751311141" lon="15.0251805674238"><ele>401.6</ele><time>2026-03-28T17:04:41.999Z</time></trkpt><trkpt lat="36.94729773637617" lon="15.02503260992871"><ele>401.20000000000005</ele><time>2026-03-28T17:04:42.999Z</time></trkpt><trkpt lat="36.94724624988459" lon="15.024907765749909"><ele>400.8</ele><time>2026-03-28T17:04:43.999Z</time></trkpt><trkpt lat="36.94721525616003" lon="15.024798729489405"><ele>400.4</ele><time>2026-03-28T17:04:44.999Z</time></trkpt><trkpt lat="36.947175019295734" lon="15.024729055406917"><ele>400.0</ele><time>2026-03-28T17:04:45.999Z</time></trkpt><trkpt lat="36.947105902405134" lon="15.02466484884678"><ele>400.0</ele><time>2026-03-28T17:04:46.999Z</time></trkpt><trkpt lat="36.947012259472054" lon="15.024635511884034"><ele>400.0</ele><time>2026-03-28T17:04:47.999Z</time></trkpt><trkpt lat="36.94691365962086" lon="15.024624694365517"><ele>400.0</ele><time>2026-03-28T17:04:48.999Z</time></trkpt><trkpt lat="36.9467827578977" lon="15.024681233002932"><ele>400.0</ele><time>2026-03-28T17:04:49.999Z</time></trkpt><trkpt lat="36.946642747311806" lon="15.024736796655166"><ele>397.5</ele><time>2026-03-28T17:04:50.999Z</time></trkpt><trkpt lat="36.94652237634668" lon="15.024781541388531"><ele>395.0</ele><time>2026-03-28T17:04:51.999Z</time></trkpt><trkpt lat="36.94639757297157" lon="15.024828120471083"><ele>392.5</ele><time>2026-03-28T17:04:52.999Z</time></trkpt><trkpt lat="36.94626258869106" lon="15.024879452502201"><ele>390.0</ele><time>2026-03-28T17:04:53.999Z</time></trkpt><trkpt lat="36.94612634051087" lon="15.024950704209935"><ele>389.33333333333337</ele><time>2026-03-28T17:04:54.999Z</time></trkpt><trkpt lat="36.94597680175416" lon="15.02503456429229"><ele>388.6666666666667</ele><time>2026-03-28T17:04:55.999Z</time></trkpt><trkpt lat="36.94582088555462" lon="15.02512841715078"><ele>388.0</ele><time>2026-03-28T17:04:56.999Z</time></trkpt><trkpt lat="36.945659106859026" lon="15.025222898493423"><ele>388.0</ele><time>2026-03-28T17:04:57.999Z</time></trkpt><trkpt lat="36.94547203622351" lon="15.02533331651689"><ele>388.0</ele><time>2026-03-28T17:04:58.999Z</time></trkpt><trkpt lat="36.94526580208796" lon="15.025436562514221"><ele>388.0</ele><time>2026-03-28T17:04:59.999Z</time></trkpt><trkpt lat="36.94505930621723" lon="15.025508131963367"><ele>386.33333333333337</ele><time>2026-03-28T17:05:00.999Z</time></trkpt><trkpt lat="36.94489473470263" lon="15.025567126779348"><ele>384.6666666666667</ele><time>2026-03-28T17:05:01.999Z</time></trkpt><trkpt lat="36.94464799132132" lon="15.025656781796217"><ele>383.0</ele><time>2026-03-28T17:05:02.999Z</time></trkpt><trkpt lat="36.94453691847142" lon="15.02571330062485"><ele>383.0</ele><time>2026-03-28T17:05:03.999Z</time></trkpt><trkpt lat="36.94446119958798" lon="15.025717914873939"><ele>383.0</ele><time>2026-03-28T17:05:04.999Z</time></trkpt><trkpt lat="36.944405844741205" lon="15.02582623891084"><ele>383.0</ele><time>2026-03-28T17:05:06.999Z</time></trkpt><trkpt lat="36.944514199554405" lon="15.025956748079901"><ele>383.0</ele><time>2026-03-28T17:05:07.999Z</time></trkpt><trkpt lat="36.94462580309517" lon="15.026060085890059"><ele>389.0</ele><time>2026-03-28T17:05:08.999Z</time></trkpt><trkpt lat="36.94478744512378" lon="15.026185460434444"><ele>395.0</ele><time>2026-03-28T17:05:09.999Z</time></trkpt><trkpt lat="36.944974614332125" lon="15.026356746081797"><ele>401.0</ele><time>2026-03-28T17:05:10.999Z</time></trkpt><trkpt lat="36.945161470958475" lon="15.026537020252789"><ele>406.0</ele><time>2026-03-28T17:05:11.999Z</time></trkpt><trkpt lat="36.94535436137749" lon="15.026740375288488"><ele>411.0</ele><time>2026-03-28T17:05:12.999Z</time></trkpt><trkpt lat="36.94552219532889" lon="15.026910799247807"><ele>411.0</ele><time>2026-03-28T17:05:13.998Z</time></trkpt><trkpt lat="36.94567397816073" lon="15.027056957324747"><ele>411.0</ele><time>2026-03-28T17:05:14.998Z</time></trkpt><trkpt lat="36.94579475414282" lon="15.027171275303683"><ele>411.0</ele><time>2026-03-28T17:05:15.998Z</time></trkpt><trkpt lat="36.945887220851255" lon="15.027250700014791"><ele>411.0</ele><time>2026-03-28T17:05:16.998Z</time></trkpt><trkpt lat="36.94598656983268" lon="15.02728393771337"><ele>411.0</ele><time>2026-03-28T17:05:17.998Z</time></trkpt><trkpt lat="36.9461287914826" lon="15.027228165785047"><ele>411.0</ele><time>2026-03-28T17:05:18.998Z</time></trkpt><trkpt lat="36.946327256344134" lon="15.027220691650262"><ele>411.0</ele><time>2026-03-28T17:05:19.998Z</time></trkpt><trkpt lat="36.94657567534663" lon="15.02718528155123"><ele>411.0</ele><time>2026-03-28T17:05:20.998Z</time></trkpt><trkpt lat="36.94686048023898" lon="15.027168812448783"><ele>409.5</ele><time>2026-03-28T17:05:21.998Z</time></trkpt><trkpt lat="36.947150088902134" lon="15.027149474551436"><ele>408.0</ele><time>2026-03-28T17:05:22.998Z</time></trkpt><trkpt lat="36.94742364812437" lon="15.027131844527842"><ele>409.0</ele><time>2026-03-28T17:05:23.998Z</time></trkpt><trkpt lat="36.94767248340204" lon="15.027109514425003"><ele>410.0</ele><time>2026-03-28T17:05:24.998Z</time></trkpt><trkpt lat="36.94789845060075" lon="15.027093221544192"><ele>410.0</ele><time>2026-03-28T17:05:25.998Z</time></trkpt><trkpt lat="36.94809023733213" lon="15.027086241046053"><ele>410.0</ele><time>2026-03-28T17:05:27Z</time></trkpt><trkpt lat="36.94825447980987" lon="15.027075212987386"><ele>410.0</ele><time>2026-03-28T17:05:28Z</time></trkpt><trkpt lat="36.948397529253945" lon="15.02707044399408"><ele>411.0</ele><time>2026-03-28T17:05:29Z</time></trkpt><trkpt lat="36.94852591610206" lon="15.027059425026916"><ele>412.0</ele><time>2026-03-28T17:05:30Z</time></trkpt><trkpt lat="36.948635558568036" lon="15.027048882219434"><ele>413.0</ele><time>2026-03-28T17:05:31Z</time></trkpt><trkpt lat="36.94872450624821" lon="15.027040629232985"><ele>414.0</ele><time>2026-03-28T17:05:32Z</time></trkpt><trkpt lat="36.9488069714816" lon="15.02703717928265"><ele>415.0</ele><time>2026-03-28T17:05:33Z</time></trkpt><trkpt lat="36.94887484901466" lon="15.027018458677615"><ele>415.0</ele><time>2026-03-28T17:05:34Z</time></trkpt><trkpt lat="36.94893598675245" lon="15.026978748920046"><ele>415.0</ele><time>2026-03-28T17:05:35Z</time></trkpt><trkpt lat="36.94902814197435" lon="15.026853242426975"><ele>415.0</ele><time>2026-03-28T17:05:37Z</time></trkpt><trkpt lat="36.94908378988176" lon="15.026758529200212"><ele>415.0</ele><time>2026-03-28T17:05:38Z</time></trkpt><trkpt lat="36.94915527721858" lon="15.026680857238084"><ele>415.0</ele><time>2026-03-28T17:05:39Z</time></trkpt><trkpt lat="36.949226071377815" lon="15.026600694097443"><ele>414.8</ele><time>2026-03-28T17:05:40Z</time></trkpt><trkpt lat="36.94930099881585" lon="15.026526566111416"><ele>414.6</ele><time>2026-03-28T17:05:41Z</time></trkpt><trkpt lat="36.94937672429995" lon="15.026465721990064"><ele>414.4</ele><time>2026-03-28T17:05:42Z</time></trkpt><trkpt lat="36.94948256877522" lon="15.026423856828623"><ele>414.2</ele><time>2026-03-28T17:05:43Z</time></trkpt><trkpt lat="36.949613950228105" lon="15.02639713342098"><ele>414.0</ele><time>2026-03-28T17:05:44Z</time></trkpt><trkpt lat="36.94978953399753" lon="15.02636505369054"><ele>414.0</ele><time>2026-03-28T17:05:45Z</time></trkpt><trkpt lat="36.950002610492085" lon="15.02634169378349"><ele>414.0</ele><time>2026-03-28T17:05:46Z</time></trkpt><trkpt lat="36.9502377980323" lon="15.026301223736974"><ele>416.0</ele><time>2026-03-28T17:05:47Z</time></trkpt><trkpt lat="36.95042666408787" lon="15.026282752560741"><ele>418.0</ele><time>2026-03-28T17:05:48Z</time></trkpt><trkpt lat="36.950546539021566" lon="15.02634154733695"><ele>420.0</ele><time>2026-03-28T17:05:49Z</time></trkpt><trkpt lat="36.950622584841646" lon="15.02644553987708"><ele>422.0</ele><time>2026-03-28T17:05:50Z</time></trkpt><trkpt lat="36.95075725209373" lon="15.026566665044326"><ele>419.0</ele><time>2026-03-28T17:05:51Z</time></trkpt><trkpt lat="36.95094816339707" lon="15.026717970678721"><ele>416.0</ele><time>2026-03-28T17:05:52Z</time></trkpt><trkpt lat="36.9511446355511" lon="15.02687841178896"><ele>416.0</ele><time>2026-03-28T17:05:53Z</time></trkpt><trkpt lat="36.95129643981814" lon="15.027048600880557"><ele>416.0</ele><time>2026-03-28T17:05:54Z</time></trkpt><trkpt lat="36.95146070017022" lon="15.027237800181926"><ele>416.0</ele><time>2026-03-28T17:05:55Z</time></trkpt><trkpt lat="36.95164188701721" lon="15.027463187837483"><ele>415.3333333333333</ele><time>2026-03-28T17:05:56Z</time></trkpt><trkpt lat="36.95178317546161" lon="15.02765837333204"><ele>414.66666666666663</ele><time>2026-03-28T17:05:57Z</time></trkpt><trkpt lat="36.95188414695646" lon="15.02783360520955"><ele>414.0</ele><time>2026-03-28T17:05:58Z</time></trkpt><trkpt lat="36.951957645394195" lon="15.02801656411901"><ele>414.0</ele><time>2026-03-28T17:05:59Z</time></trkpt><trkpt lat="36.952026160067504" lon="15.028239821000923"><ele>414.0</ele><time>2026-03-28T17:06:00Z</time></trkpt><trkpt lat="36.95209856412987" lon="15.028540944536493"><ele>414.0</ele><time>2026-03-28T17:06:01Z</time></trkpt><trkpt lat="36.95216952790367" lon="15.028892192452783"><ele>411.0</ele><time>2026-03-28T17:06:02Z</time></trkpt><trkpt lat="36.952242943030335" lon="15.029223420175917"><ele>408.0</ele><time>2026-03-28T17:06:03Z</time></trkpt><trkpt lat="36.952285631335684" lon="15.029469505996309"><ele>408.0</ele><time>2026-03-28T17:06:04Z</time></trkpt><trkpt lat="36.95233634941467" lon="15.02968469210649"><ele>408.0</ele><time>2026-03-28T17:06:05Z</time></trkpt><trkpt lat="36.95240137856218" lon="15.029858180660435"><ele>408.0</ele><time>2026-03-28T17:06:06Z</time></trkpt><trkpt lat="36.95245899450229" lon="15.0299881534708"><ele>407.5</ele><time>2026-03-28T17:06:07Z</time></trkpt><trkpt lat="36.95251832081911" lon="15.030050316963422"><ele>407.0</ele><time>2026-03-28T17:06:08Z</time></trkpt><trkpt lat="36.95260095117638" lon="15.030097401516583"><ele>406.5</ele><time>2026-03-28T17:06:09Z</time></trkpt><trkpt lat="36.9527273840951" lon="15.03010165966368"><ele>406.0</ele><time>2026-03-28T17:06:10Z</time></trkpt><trkpt lat="36.95289731477081" lon="15.030089544430073"><ele>405.75</ele><time>2026-03-28T17:06:11Z</time></trkpt><trkpt lat="36.95302893410629" lon="15.030133155249029"><ele>405.5</ele><time>2026-03-28T17:06:12Z</time></trkpt><trkpt lat="36.95313405567676" lon="15.03021262237291"><ele>405.25</ele><time>2026-03-28T17:06:13Z</time></trkpt><trkpt lat="36.95323951665902" lon="15.030326668735603"><ele>405.0</ele><time>2026-03-28T17:06:13.999Z</time></trkpt><trkpt lat="36.953394764793956" lon="15.030490940050363"><ele>406.0</ele><time>2026-03-28T17:06:14.999Z</time></trkpt><trkpt lat="36.9535642852927" lon="15.0307034733866"><ele>407.0</ele><time>2026-03-28T17:06:15.999Z</time></trkpt><trkpt lat="36.95369834552463" lon="15.030852966219861"><ele>408.0</ele><time>2026-03-28T17:06:16.999Z</time></trkpt><trkpt lat="36.95383589072245" lon="15.03096073953402"><ele>402.33333333333337</ele><time>2026-03-28T17:06:17.999Z</time></trkpt><trkpt lat="36.954002020771576" lon="15.0310180516728"><ele>396.6666666666667</ele><time>2026-03-28T17:06:18.999Z</time></trkpt><trkpt lat="36.95422649559211" lon="15.031042885446356"><ele>391.0</ele><time>2026-03-28T17:06:19.999Z</time></trkpt><trkpt lat="36.95447401229615" lon="15.03101714006009"><ele>389.0</ele><time>2026-03-28T17:06:20.999Z</time></trkpt><trkpt lat="36.954708097418155" lon="15.030999468197779"><ele>387.0</ele><time>2026-03-28T17:06:21.999Z</time></trkpt><trkpt lat="36.954935689773876" lon="15.030932385164945"><ele>385.0</ele><time>2026-03-28T17:06:22.999Z</time></trkpt><trkpt lat="36.955115477544105" lon="15.030863905417432"><ele>383.0</ele><time>2026-03-28T17:06:23.999Z</time></trkpt><trkpt lat="36.95526037764615" lon="15.030826530700523"><ele>381.0</ele><time>2026-03-28T17:06:24.999Z</time></trkpt><trkpt lat="36.955410173049344" lon="15.030810563188902"><ele>381.0</ele><time>2026-03-28T17:06:25.999Z</time></trkpt><trkpt lat="36.95555537452007" lon="15.030817085992421"><ele>381.0</ele><time>2026-03-28T17:06:26.999Z</time></trkpt><trkpt lat="36.95569424002253" lon="15.03076522246669"><ele>381.0</ele><time>2026-03-28T17:06:27.999Z</time></trkpt><trkpt lat="36.95583702188682" lon="15.030748453710872"><ele>381.0</ele><time>2026-03-28T17:06:28.999Z</time></trkpt><trkpt lat="36.95596095960217" lon="15.03072551939645"><ele>382.20000000000005</ele><time>2026-03-28T17:06:29.999Z</time></trkpt><trkpt lat="36.956065772427884" lon="15.030706122990194"><ele>383.40000000000003</ele><time>2026-03-28T17:06:30.999Z</time></trkpt><trkpt lat="36.95616185930818" lon="15.03068834139627"><ele>384.6</ele><time>2026-03-28T17:06:31.999Z</time></trkpt><trkpt lat="36.95624503425344" lon="15.030672949308412"><ele>385.8</ele><time>2026-03-28T17:06:32.999Z</time></trkpt><trkpt lat="36.95633178513693" lon="15.030656546458747"><ele>387.0</ele><time>2026-03-28T17:06:33.999Z</time></trkpt><trkpt lat="36.95642103032029" lon="15.030638687900485"><ele>387.0</ele><time>2026-03-28T17:06:34.999Z</time></trkpt><trkpt lat="36.95651571622908" lon="15.030620134894727"><ele>387.0</ele><time>2026-03-28T17:06:35.999Z</time></trkpt><trkpt lat="36.95659799777629" lon="15.030611030272066"><ele>387.0</ele><time>2026-03-28T17:06:36.999Z</time></trkpt><trkpt lat="36.95665570121969" lon="15.030561361688617"><ele>387.0</ele><time>2026-03-28T17:06:37.999Z</time></trkpt><trkpt lat="36.95670640137805" lon="15.030425176351518"><ele>387.0</ele><time>2026-03-28T17:06:39.999Z</time></trkpt><trkpt lat="36.9567093899714" lon="15.030336590478155"><ele>387.0</ele><time>2026-03-28T17:06:40.999Z</time></trkpt><trkpt lat="36.95671514011466" lon="15.03025750883408"><ele>387.8333333333333</ele><time>2026-03-28T17:06:41.999Z</time></trkpt><trkpt lat="36.956740839766276" lon="15.030166940624238"><ele>388.66666666666663</ele><time>2026-03-28T17:06:43.999Z</time></trkpt><trkpt lat="36.95676081626009" lon="15.030086538364253"><ele>389.5</ele><time>2026-03-28T17:06:46.999Z</time></trkpt><trkpt lat="36.95677676590426" lon="15.030004320992164"><ele>390.3333333333333</ele><time>2026-03-28T17:06:49.999Z</time></trkpt><trkpt lat="36.9568255105193" lon="15.029917371665126"><ele>391.16666666666663</ele><time>2026-03-28T17:06:54.999Z</time></trkpt><trkpt lat="36.95689110786061" lon="15.029787593264139"><ele>392.0</ele><time>2026-03-28T17:06:56.999Z</time></trkpt><trkpt lat="36.956966644626135" lon="15.029675655198554"><ele>392.8333333333333</ele><time>2026-03-28T17:06:57.999Z</time></trkpt><trkpt lat="36.95702819190794" lon="15.029607682115483"><ele>393.66666666666663</ele><time>2026-03-28T17:06:58.999Z</time></trkpt><trkpt lat="36.957089345562" lon="15.029581542918734"><ele>394.5</ele><time>2026-03-28T17:06:59.999Z</time></trkpt><trkpt lat="36.957157696989114" lon="15.02956833762047"><ele>395.33333333333337</ele><time>2026-03-28T17:07:00.999Z</time></trkpt><trkpt lat="36.95726006235443" lon="15.029609950801428"><ele>396.1666666666667</ele><time>2026-03-28T17:07:02.999Z</time></trkpt><trkpt lat="36.95728917210389" lon="15.029710530323436"><ele>397.0</ele><time>2026-03-28T17:07:03.999Z</time></trkpt><trkpt lat="36.957336289929685" lon="15.029823075123486"><ele>397.0</ele><time>2026-03-28T17:07:05.999Z</time></trkpt><trkpt lat="36.95727988443312" lon="15.029866609584397"><ele>397.0</ele><time>2026-03-28T17:07:06.999Z</time></trkpt><trkpt lat="36.95724812113227" lon="15.029938407285622"><ele>397.0</ele><time>2026-03-28T17:07:07.999Z</time></trkpt><trkpt lat="36.95722045366074" lon="15.030021021812544"><ele>397.0</ele><time>2026-03-28T17:07:08.999Z</time></trkpt><trkpt lat="36.957199733765485" lon="15.030100822769699"><ele>397.0</ele><time>2026-03-28T17:07:09.999Z</time></trkpt><trkpt lat="36.95718211180002" lon="15.030182449446118"><ele>397.0</ele><time>2026-03-28T17:07:10.999Z</time></trkpt><trkpt lat="36.95719045625696" lon="15.030265576526512"><ele>397.0</ele><time>2026-03-28T17:07:11.999Z</time></trkpt><trkpt lat="36.95730465114282" lon="15.030395416276079"><ele>395.33333333333337</ele><time>2026-03-28T17:07:12.999Z</time></trkpt><trkpt lat="36.95741158066837" lon="15.03060487489338"><ele>393.66666666666663</ele><time>2026-03-28T17:07:13.999Z</time></trkpt><trkpt lat="36.95748865904069" lon="15.030784658389535"><ele>392.0</ele><time>2026-03-28T17:07:14.999Z</time></trkpt><trkpt lat="36.95751391032597" lon="15.03090452503651"><ele>388.25</ele><time>2026-03-28T17:07:15.999Z</time></trkpt><trkpt lat="36.95751785283875" lon="15.031010778476546"><ele>384.5</ele><time>2026-03-28T17:07:16.999Z</time></trkpt><trkpt lat="36.95748450702875" lon="15.031104058930724"><ele>380.75</ele><time>2026-03-28T17:07:17.998Z</time></trkpt><trkpt lat="36.95746117133499" lon="15.03127788023524"><ele>377.0</ele><time>2026-03-28T17:07:18.998Z</time></trkpt><trkpt lat="36.957437850154086" lon="15.031457415308964"><ele>377.0</ele><time>2026-03-28T17:07:19.998Z</time></trkpt><trkpt lat="36.95738932929145" lon="15.031586589230834"><ele>377.0</ele><time>2026-03-28T17:07:20.998Z</time></trkpt><trkpt lat="36.95730704198972" lon="15.031637078365772"><ele>377.0</ele><time>2026-03-28T17:07:21.998Z</time></trkpt><trkpt lat="36.95720691466174" lon="15.031605254248017"><ele>377.0</ele><time>2026-03-28T17:07:22.998Z</time></trkpt><trkpt lat="36.95711001587105" lon="15.03163438221711"><ele>377.0</ele><time>2026-03-28T17:07:23.998Z</time></trkpt><trkpt lat="36.95700950404322" lon="15.031678477174545"><ele>377.0</ele><time>2026-03-28T17:07:24.998Z</time></trkpt><trkpt lat="36.956894734950446" lon="15.03182119352143"><ele>377.0</ele><time>2026-03-28T17:07:25.998Z</time></trkpt><trkpt lat="36.956776593671" lon="15.032019112603214"><ele>377.0</ele><time>2026-03-28T17:07:26.998Z</time></trkpt><trkpt lat="36.95664511029551" lon="15.032246148886536"><ele>379.6666666666667</ele><time>2026-03-28T17:07:27.998Z</time></trkpt><trkpt lat="36.95651241183408" lon="15.03250079225095"><ele>382.33333333333337</ele><time>2026-03-28T17:07:28.998Z</time></trkpt><trkpt lat="36.95640499059897" lon="15.032710718931861"><ele>385.0</ele><time>2026-03-28T17:07:29.998Z</time></trkpt><trkpt lat="36.95632520795624" lon="15.032874844509497"><ele>385.0</ele><time>2026-03-28T17:07:30.998Z</time></trkpt><trkpt lat="36.95628389758177" lon="15.033001375339621"><ele>385.0</ele><time>2026-03-28T17:07:31.998Z</time></trkpt><trkpt lat="36.956238837781704" lon="15.033088391702348"><ele>385.0</ele><time>2026-03-28T17:07:33Z</time></trkpt><trkpt lat="36.956332619956484" lon="15.033238165005736"><ele>385.0</ele><time>2026-03-28T17:07:35Z</time></trkpt><trkpt lat="36.95646009567067" lon="15.033220715822198"><ele>385.0</ele><time>2026-03-28T17:07:36Z</time></trkpt><trkpt lat="36.95656000162487" lon="15.033164367455743"><ele>385.0</ele><time>2026-03-28T17:07:37Z</time></trkpt><trkpt lat="36.95667316819792" lon="15.03309280180643"><ele>385.0</ele><time>2026-03-28T17:07:38Z</time></trkpt><trkpt lat="36.95683296173052" lon="15.03302201173076"><ele>385.0</ele><time>2026-03-28T17:07:39Z</time></trkpt><trkpt lat="36.95702457884066" lon="15.032935748367008"><ele>389.0</ele><time>2026-03-28T17:07:40Z</time></trkpt><trkpt lat="36.95723998665863" lon="15.032843326755915"><ele>393.0</ele><time>2026-03-28T17:07:41Z</time></trkpt><trkpt lat="36.957471073849675" lon="15.032735889437538"><ele>390.33333333333337</ele><time>2026-03-28T17:07:42Z</time></trkpt><trkpt lat="36.957699855751166" lon="15.032653326048015"><ele>387.6666666666667</ele><time>2026-03-28T17:07:43Z</time></trkpt><trkpt lat="36.957875088208" lon="15.032590106511801"><ele>385.0</ele><time>2026-03-28T17:07:44Z</time></trkpt><trkpt lat="36.95797614281237" lon="15.032562115908945"><ele>385.0</ele><time>2026-03-28T17:07:45Z</time></trkpt><trkpt lat="36.95804231972809" lon="15.032569726135861"><ele>385.0</ele><time>2026-03-28T17:07:46Z</time></trkpt><trkpt lat="36.95811102539115" lon="15.032708912341993"><ele>385.0</ele><time>2026-03-28T17:07:48Z</time></trkpt><trkpt lat="36.9581430973638" lon="15.032832934333605"><ele>385.0</ele><time>2026-03-28T17:07:49Z</time></trkpt><trkpt lat="36.95818821514844" lon="15.03301905056371"><ele>385.0</ele><time>2026-03-28T17:07:50Z</time></trkpt><trkpt lat="36.95824536261189" lon="15.033244276840529"><ele>385.0</ele><time>2026-03-28T17:07:51Z</time></trkpt><trkpt lat="36.95831440903204" lon="15.033512724639603"><ele>385.0</ele><time>2026-03-28T17:07:52Z</time></trkpt><trkpt lat="36.95838758665212" lon="15.033786813209607"><ele>392.5</ele><time>2026-03-28T17:07:53Z</time></trkpt><trkpt lat="36.95847030593261" lon="15.034093765647727"><ele>400.0</ele><time>2026-03-28T17:07:54Z</time></trkpt><trkpt lat="36.95854911558206" lon="15.034345097667591"><ele>403.25</ele><time>2026-03-28T17:07:55Z</time></trkpt><trkpt lat="36.958598335778426" lon="15.034548612935348"><ele>406.5</ele><time>2026-03-28T17:07:56Z</time></trkpt><trkpt lat="36.95865554264199" lon="15.034687013854633"><ele>409.75</ele><time>2026-03-28T17:07:57Z</time></trkpt><trkpt lat="36.958758334316464" lon="15.034825795883487"><ele>413.0</ele><time>2026-03-28T17:07:58Z</time></trkpt><trkpt lat="36.958925450876016" lon="15.034965428125297"><ele>412.5</ele><time>2026-03-28T17:07:59Z</time></trkpt><trkpt lat="36.95912905586944" lon="15.035179988429205"><ele>412.0</ele><time>2026-03-28T17:08:00Z</time></trkpt><trkpt lat="36.959324062900656" lon="15.035385932245314"><ele>413.0</ele><time>2026-03-28T17:08:01Z</time></trkpt><trkpt lat="36.95954745065179" lon="15.035626612457333"><ele>414.0</ele><time>2026-03-28T17:08:02Z</time></trkpt><trkpt lat="36.95978600607853" lon="15.03589740153667"><ele>413.5</ele><time>2026-03-28T17:08:03Z</time></trkpt><trkpt lat="36.96002793193656" lon="15.036171607080378"><ele>413.0</ele><time>2026-03-28T17:08:04Z</time></trkpt><trkpt lat="36.960245207641755" lon="15.036400971503031"><ele>413.0</ele><time>2026-03-28T17:08:05Z</time></trkpt><trkpt lat="36.960443550741346" lon="15.036622672690118"><ele>413.0</ele><time>2026-03-28T17:08:06Z</time></trkpt><trkpt lat="36.96062650538517" lon="15.036822870859309"><ele>411.66666666666663</ele><time>2026-03-28T17:08:07Z</time></trkpt><trkpt lat="36.96079571036759" lon="15.037005478030578"><ele>410.33333333333337</ele><time>2026-03-28T17:08:08Z</time></trkpt><trkpt lat="36.960931197290996" lon="15.037147697525869"><ele>409.0</ele><time>2026-03-28T17:08:09Z</time></trkpt><trkpt lat="36.96104236873007" lon="15.037267399910103"><ele>409.0</ele><time>2026-03-28T17:08:10Z</time></trkpt><trkpt lat="36.961136790473745" lon="15.037379747793718"><ele>409.0</ele><time>2026-03-28T17:08:11Z</time></trkpt><trkpt lat="36.961220057139144" lon="15.037467336114533"><ele>409.0</ele><time>2026-03-28T17:08:12Z</time></trkpt><trkpt lat="36.96128143686906" lon="15.03754019254912"><ele>409.0</ele><time>2026-03-28T17:08:13Z</time></trkpt><trkpt lat="36.9613254060849" lon="15.037637688097304"><ele>409.0</ele><time>2026-03-28T17:08:15Z</time></trkpt><trkpt lat="36.961415866953054" lon="15.03763846820501"><ele>409.25</ele><time>2026-03-28T17:09:17.999Z</time></trkpt><trkpt lat="36.961481644519694" lon="15.037598096098144"><ele>409.5</ele><time>2026-03-28T17:09:18.999Z</time></trkpt><trkpt lat="36.9615995334443" lon="15.037539329163373"><ele>409.75</ele><time>2026-03-28T17:09:19.999Z</time></trkpt><trkpt lat="36.96173396887796" lon="15.037519745807423"><ele>410.0</ele><time>2026-03-28T17:09:20.999Z</time></trkpt><trkpt lat="36.96185449836986" lon="15.037468597379826"><ele>411.0</ele><time>2026-03-28T17:09:21.999Z</time></trkpt><trkpt lat="36.96201428459085" lon="15.03738453339114"><ele>412.0</ele><time>2026-03-28T17:09:22.999Z</time></trkpt><trkpt lat="36.96220293644594" lon="15.037310734151559"><ele>413.0</ele><time>2026-03-28T17:09:23.998Z</time></trkpt><trkpt lat="36.96232841545351" lon="15.037261437521586"><ele>413.0</ele><time>2026-03-28T17:09:24.998Z</time></trkpt><trkpt lat="36.96242482566842" lon="15.037235522950628"><ele>413.0</ele><time>2026-03-28T17:09:26.998Z</time></trkpt><trkpt lat="36.962487178317936" lon="15.03719261703681"><ele>413.0</ele><time>2026-03-28T17:09:29.998Z</time></trkpt><trkpt lat="36.962365984022206" lon="15.03724326202454"><ele>413.0</ele><time>2026-03-28T17:09:35.998Z</time></trkpt><trkpt lat="36.96240055274068" lon="15.037357170721117"><ele>413.0</ele><time>2026-03-28T17:09:37.998Z</time></trkpt><trkpt lat="36.96246131189991" lon="15.037424747120502"><ele>414.0</ele><time>2026-03-28T17:09:39Z</time></trkpt><trkpt lat="36.962547114864776" lon="15.037519134608385"><ele>415.0</ele><time>2026-03-28T17:09:40Z</time></trkpt><trkpt lat="36.96261049017599" lon="15.037605365368863"><ele>416.0</ele><time>2026-03-28T17:09:41Z</time></trkpt><trkpt lat="36.962604893334984" lon="15.03770049501071"><ele>417.0</ele><time>2026-03-28T17:09:43Z</time></trkpt><trkpt lat="36.962648411784436" lon="15.03780497532079"><ele>418.0</ele><time>2026-03-28T17:09:47Z</time></trkpt><trkpt lat="36.96268619060417" lon="15.037945261298972"><ele>418.0</ele><time>2026-03-28T17:09:49Z</time></trkpt><trkpt lat="36.962733544902285" lon="15.038061161429395"><ele>418.0</ele><time>2026-03-28T17:09:50Z</time></trkpt><trkpt lat="36.96280213100538" lon="15.038182033972904"><ele>418.0</ele><time>2026-03-28T17:09:51Z</time></trkpt><trkpt lat="36.96291802730121" lon="15.038296182775563"><ele>418.0</ele><time>2026-03-28T17:09:52Z</time></trkpt><trkpt lat="36.963064384419994" lon="15.038389580129657"><ele>416.25</ele><time>2026-03-28T17:09:53Z</time></trkpt><trkpt lat="36.96319132301678" lon="15.038516079467358"><ele>414.5</ele><time>2026-03-28T17:09:54Z</time></trkpt><trkpt lat="36.96328153544541" lon="15.038646779348252"><ele>412.75</ele><time>2026-03-28T17:09:55Z</time></trkpt><trkpt lat="36.963341486502394" lon="15.03876341082183"><ele>411.0</ele><time>2026-03-28T17:09:56Z</time></trkpt><trkpt lat="36.963376807944236" lon="15.038882461076673"><ele>411.0</ele><time>2026-03-28T17:09:57Z</time></trkpt><trkpt lat="36.96338915580767" lon="15.039040092484914"><ele>411.0</ele><time>2026-03-28T17:09:58Z</time></trkpt><trkpt lat="36.96338749500225" lon="15.039275791697754"><ele>411.0</ele><time>2026-03-28T17:09:59Z</time></trkpt><trkpt lat="36.96339195162132" lon="15.03951345107472"><ele>410.66666666666663</ele><time>2026-03-28T17:10:00Z</time></trkpt><trkpt lat="36.96341211409005" lon="15.03975623544811"><ele>410.3333333333333</ele><time>2026-03-28T17:10:01Z</time></trkpt><trkpt lat="36.96345363283164" lon="15.039982424505299"><ele>410.0</ele><time>2026-03-28T17:10:02Z</time></trkpt><trkpt lat="36.96345108038868" lon="15.040199805647697"><ele>409.0</ele><time>2026-03-28T17:10:03Z</time></trkpt><trkpt lat="36.963467516222046" lon="15.04041116809827"><ele>408.0</ele><time>2026-03-28T17:10:04Z</time></trkpt><trkpt lat="36.963482748758736" lon="15.040603147760027"><ele>407.0</ele><time>2026-03-28T17:10:05Z</time></trkpt><trkpt lat="36.96349500010454" lon="15.04076899688732"><ele>405.75</ele><time>2026-03-28T17:10:06Z</time></trkpt><trkpt lat="36.96350265155424" lon="15.040919448626997"><ele>404.5</ele><time>2026-03-28T17:10:07Z</time></trkpt><trkpt lat="36.96350973430192" lon="15.041069844384987"><ele>403.25</ele><time>2026-03-28T17:10:08Z</time></trkpt><trkpt lat="36.96352606800689" lon="15.041224230867169"><ele>402.0</ele><time>2026-03-28T17:10:09Z</time></trkpt><trkpt lat="36.96355307083457" lon="15.041394060888058"><ele>402.0</ele><time>2026-03-28T17:10:10Z</time></trkpt><trkpt lat="36.96357784529951" lon="15.041564664135748"><ele>402.0</ele><time>2026-03-28T17:10:11Z</time></trkpt><trkpt lat="36.96359795544529" lon="15.041739224391224"><ele>402.0</ele><time>2026-03-28T17:10:12Z</time></trkpt><trkpt lat="36.96361378962666" lon="15.041908460967097"><ele>402.0</ele><time>2026-03-28T17:10:13Z</time></trkpt><trkpt lat="36.963628877480105" lon="15.042088346050821"><ele>400.5</ele><time>2026-03-28T17:10:14Z</time></trkpt><trkpt lat="36.96365668187882" lon="15.042269548370935"><ele>399.0</ele><time>2026-03-28T17:10:15Z</time></trkpt><trkpt lat="36.963683252564564" lon="15.042433625708288"><ele>397.5</ele><time>2026-03-28T17:10:16Z</time></trkpt><trkpt lat="36.963702979832426" lon="15.04258639893552"><ele>396.0</ele><time>2026-03-28T17:10:17Z</time></trkpt><trkpt lat="36.96370873088349" lon="15.042726251546824"><ele>395.0</ele><time>2026-03-28T17:10:18Z</time></trkpt><trkpt lat="36.96370905342434" lon="15.042873364185587"><ele>394.0</ele><time>2026-03-28T17:10:19Z</time></trkpt><trkpt lat="36.963727870502105" lon="15.043045479805667"><ele>393.0</ele><time>2026-03-28T17:10:20Z</time></trkpt><trkpt lat="36.96373358608978" lon="15.043216991537887"><ele>392.0</ele><time>2026-03-28T17:10:21Z</time></trkpt><trkpt lat="36.96375646242295" lon="15.043370756542192"><ele>392.0</ele><time>2026-03-28T17:10:22Z</time></trkpt><trkpt lat="36.96379962136585" lon="15.043514615410961"><ele>392.0</ele><time>2026-03-28T17:10:23Z</time></trkpt><trkpt lat="36.963858865263006" lon="15.043639327662524"><ele>392.0</ele><time>2026-03-28T17:10:24Z</time></trkpt><trkpt lat="36.96393247376375" lon="15.043742066151008"><ele>392.0</ele><time>2026-03-28T17:10:24.999Z</time></trkpt><trkpt lat="36.964023663276286" lon="15.04381074063607"><ele>392.0</ele><time>2026-03-28T17:10:25.999Z</time></trkpt><trkpt lat="36.96412193923865" lon="15.0438828357857"><ele>392.0</ele><time>2026-03-28T17:10:26.999Z</time></trkpt><trkpt lat="36.964164348929394" lon="15.043979767922703"><ele>392.0</ele><time>2026-03-28T17:10:27.999Z</time></trkpt><trkpt lat="36.96420102056952" lon="15.044056995989958"><ele>392.0</ele><time>2026-03-28T17:10:28.999Z</time></trkpt><trkpt lat="36.9642564802534" lon="15.044149674007361"><ele>392.0</ele><time>2026-03-28T17:10:29.999Z</time></trkpt><trkpt lat="36.96432364479751" lon="15.044227408451459"><ele>393.20000000000005</ele><time>2026-03-28T17:10:30.999Z</time></trkpt><trkpt lat="36.96440835829718" lon="15.044318428156409"><ele>394.4</ele><time>2026-03-28T17:10:31.999Z</time></trkpt><trkpt lat="36.96449492305904" lon="15.044420313313111"><ele>395.6</ele><time>2026-03-28T17:10:32.999Z</time></trkpt><trkpt lat="36.96454680455987" lon="15.044555488749799"><ele>396.79999999999995</ele><time>2026-03-28T17:10:33.999Z</time></trkpt><trkpt lat="36.964608799654194" lon="15.044647725599855"><ele>398.0</ele><time>2026-03-28T17:10:34.999Z</time></trkpt><trkpt lat="36.964649656869604" lon="15.044732552857223"><ele>398.0</ele><time>2026-03-28T17:10:35.999Z</time></trkpt><trkpt lat="36.96470238885339" lon="15.044840268580081"><ele>398.0</ele><time>2026-03-28T17:10:37.999Z</time></trkpt><trkpt lat="36.964745375452495" lon="15.044945315689063"><ele>398.0</ele><time>2026-03-28T17:10:40.999Z</time></trkpt><trkpt lat="36.9647839889204" lon="15.045029061882547"><ele>398.0</ele><time>2026-03-28T17:10:41.999Z</time></trkpt><trkpt lat="36.964825407342836" lon="15.045139479777124"><ele>398.0</ele><time>2026-03-28T17:10:42.999Z</time></trkpt><trkpt lat="36.964863454787704" lon="15.04530191667366"><ele>399.0</ele><time>2026-03-28T17:10:43.999Z</time></trkpt><trkpt lat="36.964904937171035" lon="15.045460949073782"><ele>400.0</ele><time>2026-03-28T17:10:44.999Z</time></trkpt><trkpt lat="36.96496462552433" lon="15.045604020485637"><ele>401.0</ele><time>2026-03-28T17:10:45.999Z</time></trkpt><trkpt lat="36.96502524437311" lon="15.045724244029044"><ele>402.0</ele><time>2026-03-28T17:10:46.999Z</time></trkpt><trkpt lat="36.96509536794321" lon="15.045836190766613"><ele>403.0</ele><time>2026-03-28T17:10:47.999Z</time></trkpt><trkpt lat="36.96511459229337" lon="15.045958398838096"><ele>404.0</ele><time>2026-03-28T17:10:48.999Z</time></trkpt><trkpt lat="36.96516427634832" lon="15.046079058558382"><ele>405.0</ele><time>2026-03-28T17:10:49.999Z</time></trkpt><trkpt lat="36.96520029471061" lon="15.046199318951537"><ele>406.0</ele><time>2026-03-28T17:10:50.999Z</time></trkpt><trkpt lat="36.965243061337546" lon="15.046301683938152"><ele>407.0</ele><time>2026-03-28T17:10:51.999Z</time></trkpt><trkpt lat="36.9652873673671" lon="15.046394748663985"><ele>407.0</ele><time>2026-03-28T17:10:52.999Z</time></trkpt><trkpt lat="36.96534674931839" lon="15.046462545771202"><ele>407.0</ele><time>2026-03-28T17:10:53.999Z</time></trkpt><trkpt lat="36.965447579110474" lon="15.046544289902604"><ele>407.0</ele><time>2026-03-28T17:10:54.999Z</time></trkpt><trkpt lat="36.96556748808113" lon="15.046590548702167"><ele>407.0</ele><time>2026-03-28T17:10:55.999Z</time></trkpt><trkpt lat="36.965678581361416" lon="15.046622550802653"><ele>407.0</ele><time>2026-03-28T17:10:56.999Z</time></trkpt><trkpt lat="36.96576804193238" lon="15.046643288518444"><ele>406.49999999999994</ele><time>2026-03-28T17:10:57.999Z</time></trkpt><trkpt lat="36.96584198287347" lon="15.046670237198926"><ele>406.0</ele><time>2026-03-28T17:10:58.999Z</time></trkpt><trkpt lat="36.9658669003958" lon="15.046759967465249"><ele>405.5</ele><time>2026-03-28T17:11:12.999Z</time></trkpt><trkpt lat="36.96587736368904" lon="15.046842946965137"><ele>405.0</ele><time>2026-03-28T17:11:13.999Z</time></trkpt><trkpt lat="36.96588455079281" lon="15.046940905343149"><ele>404.49999999999994</ele><time>2026-03-28T17:11:14.999Z</time></trkpt><trkpt lat="36.9659119754318" lon="15.047045500712382"><ele>404.0</ele><time>2026-03-28T17:11:15.999Z</time></trkpt><trkpt lat="36.965971902569564" lon="15.04712229823078"><ele>405.2</ele><time>2026-03-28T17:11:16.999Z</time></trkpt><trkpt lat="36.9659993108556" lon="15.047235390011043"><ele>406.4</ele><time>2026-03-28T17:11:17.999Z</time></trkpt><trkpt lat="36.96601442452851" lon="15.047326833890299"><ele>407.6</ele><time>2026-03-28T17:11:18.999Z</time></trkpt><trkpt lat="36.96601503092481" lon="15.047441780069029"><ele>408.8</ele><time>2026-03-28T17:11:19.999Z</time></trkpt><trkpt lat="36.96599920617499" lon="15.04756742975724"><ele>410.0</ele><time>2026-03-28T17:11:20.999Z</time></trkpt><trkpt lat="36.96598463450685" lon="15.047718004317522"><ele>410.6</ele><time>2026-03-28T17:11:21.999Z</time></trkpt><trkpt lat="36.965985085936964" lon="15.047847795291258"><ele>411.2</ele><time>2026-03-28T17:11:22.999Z</time></trkpt><trkpt lat="36.96599519652456" lon="15.047992469997057"><ele>411.79999999999995</ele><time>2026-03-28T17:11:23.999Z</time></trkpt><trkpt lat="36.965993932488686" lon="15.04814424050702"><ele>412.4</ele><time>2026-03-28T17:11:24.999Z</time></trkpt><trkpt lat="36.96602724167868" lon="15.048268350401527"><ele>413.0</ele><time>2026-03-28T17:11:25.999Z</time></trkpt><trkpt lat="36.96604686256316" lon="15.048367980535524"><ele>413.4</ele><time>2026-03-28T17:11:26.999Z</time></trkpt><trkpt lat="36.966034833231014" lon="15.048458077420971"><ele>413.79999999999995</ele><time>2026-03-28T17:11:27.999Z</time></trkpt><trkpt lat="36.966032504171785" lon="15.048644380527277"><ele>414.2</ele><time>2026-03-28T17:11:29.998Z</time></trkpt><trkpt lat="36.96602965900369" lon="15.048759378964515"><ele>414.6</ele><time>2026-03-28T17:11:30.998Z</time></trkpt><trkpt lat="36.966039819375524" lon="15.048890702218355"><ele>415.0</ele><time>2026-03-28T17:11:31.998Z</time></trkpt><trkpt lat="36.966023412055165" lon="15.04902820851717"><ele>415.5</ele><time>2026-03-28T17:11:32.998Z</time></trkpt><trkpt lat="36.966032561649214" lon="15.049184091035366"><ele>416.0</ele><time>2026-03-28T17:11:33.998Z</time></trkpt><trkpt lat="36.96604233092577" lon="15.049384610278612"><ele>416.5</ele><time>2026-03-28T17:11:34.998Z</time></trkpt><trkpt lat="36.9660498219293" lon="15.049569216963354"><ele>417.0</ele><time>2026-03-28T17:11:35.998Z</time></trkpt><trkpt lat="36.966056343422764" lon="15.049726255950095"><ele>417.0</ele><time>2026-03-28T17:11:36.998Z</time></trkpt><trkpt lat="36.96605683165685" lon="15.049852141621992"><ele>417.0</ele><time>2026-03-28T17:11:37.998Z</time></trkpt><trkpt lat="36.966069035282466" lon="15.04998075127197"><ele>417.0</ele><time>2026-03-28T17:11:38.998Z</time></trkpt><trkpt lat="36.96608444189768" lon="15.050111634211975"><ele>417.0</ele><time>2026-03-28T17:11:39.998Z</time></trkpt><trkpt lat="36.96609641711895" lon="15.05023742218299"><ele>417.0</ele><time>2026-03-28T17:11:40.998Z</time></trkpt><trkpt lat="36.96610997058017" lon="15.050384523018144"><ele>418.25</ele><time>2026-03-28T17:11:41.998Z</time></trkpt><trkpt lat="36.966128764205024" lon="15.050532002667582"><ele>419.5</ele><time>2026-03-28T17:11:42.998Z</time></trkpt><trkpt lat="36.96616056033801" lon="15.050682166612383"><ele>420.75</ele><time>2026-03-28T17:11:43.998Z</time></trkpt><trkpt lat="36.9662117867252" lon="15.050831803866012"><ele>422.0</ele><time>2026-03-28T17:11:45Z</time></trkpt><trkpt lat="36.96625830777062" lon="15.050991106249137"><ele>425.0</ele><time>2026-03-28T17:11:46Z</time></trkpt><trkpt lat="36.9662979164721" lon="15.051146888609951"><ele>428.0</ele><time>2026-03-28T17:11:47Z</time></trkpt><trkpt lat="36.96633534063914" lon="15.051293063486941"><ele>431.0</ele><time>2026-03-28T17:11:48Z</time></trkpt><trkpt lat="36.96636750507341" lon="15.051442722786819"><ele>434.0</ele><time>2026-03-28T17:11:49Z</time></trkpt><trkpt lat="36.966400864415796" lon="15.051574158753454"><ele>434.75</ele><time>2026-03-28T17:11:50Z</time></trkpt><trkpt lat="36.96642637250869" lon="15.051705997114396"><ele>435.5</ele><time>2026-03-28T17:11:51Z</time></trkpt><trkpt lat="36.96646086007461" lon="15.051843556179987"><ele>436.25</ele><time>2026-03-28T17:11:52Z</time></trkpt><trkpt lat="36.96651119396129" lon="15.051981697767685"><ele>437.0</ele><time>2026-03-28T17:11:53Z</time></trkpt><trkpt lat="36.966582519946854" lon="15.052134633420946"><ele>437.0</ele><time>2026-03-28T17:11:54Z</time></trkpt><trkpt lat="36.96665557909976" lon="15.052280112836549"><ele>437.0</ele><time>2026-03-28T17:11:55Z</time></trkpt><trkpt lat="36.96671225704205" lon="15.052420884708"><ele>437.0</ele><time>2026-03-28T17:11:56Z</time></trkpt><trkpt lat="36.96675093136131" lon="15.05255837001714"><ele>437.0</ele><time>2026-03-28T17:11:57Z</time></trkpt><trkpt lat="36.966769200797046" lon="15.0527138685288"><ele>440.25</ele><time>2026-03-28T17:11:58Z</time></trkpt><trkpt lat="36.96677275532891" lon="15.052870652859278"><ele>443.5</ele><time>2026-03-28T17:11:59Z</time></trkpt><trkpt lat="36.96678145957192" lon="15.053018175030335"><ele>446.75</ele><time>2026-03-28T17:12:00Z</time></trkpt><trkpt lat="36.96679030197371" lon="15.053156223464033"><ele>450.0</ele><time>2026-03-28T17:12:01Z</time></trkpt><trkpt lat="36.96678665639688" lon="15.053283214988976"><ele>450.0</ele><time>2026-03-28T17:12:02Z</time></trkpt><trkpt lat="36.96677112725591" lon="15.05341809414422"><ele>450.0</ele><time>2026-03-28T17:12:03Z</time></trkpt><trkpt lat="36.96673397642262" lon="15.05357467823347"><ele>450.0</ele><time>2026-03-28T17:12:04Z</time></trkpt><trkpt lat="36.966690718949685" lon="15.053774775995935"><ele>450.0</ele><time>2026-03-28T17:12:05Z</time></trkpt><trkpt lat="36.966653991670675" lon="15.053992207732378"><ele>449.0</ele><time>2026-03-28T17:12:06Z</time></trkpt><trkpt lat="36.966619782073685" lon="15.054191305233282"><ele>448.0</ele><time>2026-03-28T17:12:07Z</time></trkpt><trkpt lat="36.96659352932107" lon="15.054366812665378"><ele>447.0</ele><time>2026-03-28T17:12:08Z</time></trkpt><trkpt lat="36.96656654503625" lon="15.054523982930467"><ele>446.0</ele><time>2026-03-28T17:12:09Z</time></trkpt><trkpt lat="36.9665388366771" lon="15.054669155900994"><ele>446.0</ele><time>2026-03-28T17:12:10Z</time></trkpt><trkpt lat="36.96651323451102" lon="15.054801304480737"><ele>446.0</ele><time>2026-03-28T17:12:11Z</time></trkpt><trkpt lat="36.966491473251644" lon="15.054915632852047"><ele>446.0</ele><time>2026-03-28T17:12:12Z</time></trkpt><trkpt lat="36.966470416648384" lon="15.055033002725514"><ele>446.0</ele><time>2026-03-28T17:12:13Z</time></trkpt><trkpt lat="36.96645263484442" lon="15.055156587337864"><ele>446.0</ele><time>2026-03-28T17:12:14Z</time></trkpt><trkpt lat="36.966427804928536" lon="15.055285666874418"><ele>447.20000000000005</ele><time>2026-03-28T17:12:15Z</time></trkpt><trkpt lat="36.9664050351737" lon="15.055418279639877"><ele>448.40000000000003</ele><time>2026-03-28T17:12:16Z</time></trkpt><trkpt lat="36.96638614429621" lon="15.055547017372566"><ele>449.6</ele><time>2026-03-28T17:12:17Z</time></trkpt><trkpt lat="36.96637925027733" lon="15.055659768852614"><ele>450.8</ele><time>2026-03-28T17:12:18Z</time></trkpt><trkpt lat="36.966382351760764" lon="15.055789251666361"><ele>452.0</ele><time>2026-03-28T17:12:19Z</time></trkpt><trkpt lat="36.96639361622382" lon="15.055930434479547"><ele>453.25</ele><time>2026-03-28T17:12:20Z</time></trkpt><trkpt lat="36.966400586058256" lon="15.056071438280648"><ele>454.5</ele><time>2026-03-28T17:12:21Z</time></trkpt><trkpt lat="36.96639402620341" lon="15.056231294622794"><ele>455.75</ele><time>2026-03-28T17:12:22Z</time></trkpt><trkpt lat="36.96637961835213" lon="15.05641109989773"><ele>457.0</ele><time>2026-03-28T17:12:23Z</time></trkpt><trkpt lat="36.966353682509116" lon="15.056608551819707"><ele>458.0</ele><time>2026-03-28T17:12:24Z</time></trkpt><trkpt lat="36.96633406676121" lon="15.056800870648795"><ele>459.0</ele><time>2026-03-28T17:12:25Z</time></trkpt><trkpt lat="36.96630064098669" lon="15.056994830910007"><ele>460.0</ele><time>2026-03-28T17:12:26Z</time></trkpt><trkpt lat="36.96626902098096" lon="15.057158183880684"><ele>461.0</ele><time>2026-03-28T17:12:27Z</time></trkpt><trkpt lat="36.96624428170183" lon="15.057296039271266"><ele>461.0</ele><time>2026-03-28T17:12:28Z</time></trkpt><trkpt lat="36.96620525827919" lon="15.057423494268633"><ele>461.0</ele><time>2026-03-28T17:12:29Z</time></trkpt><trkpt lat="36.9661626600526" lon="15.05755894777758"><ele>461.0</ele><time>2026-03-28T17:12:30Z</time></trkpt><trkpt lat="36.966129832702585" lon="15.057705824291194"><ele>461.0</ele><time>2026-03-28T17:12:30.999Z</time></trkpt><trkpt lat="36.96610088441479" lon="15.057841956789565"><ele>462.25</ele><time>2026-03-28T17:12:31.999Z</time></trkpt><trkpt lat="36.966090463265864" lon="15.057960068217858"><ele>463.5</ele><time>2026-03-28T17:12:32.999Z</time></trkpt><trkpt lat="36.966092046893515" lon="15.058100725322818"><ele>464.75</ele><time>2026-03-28T17:12:33.999Z</time></trkpt><trkpt lat="36.966094350946356" lon="15.05826100736619"><ele>466.0</ele><time>2026-03-28T17:12:34.999Z</time></trkpt><trkpt lat="36.966088427274336" lon="15.058424868689213"><ele>466.6</ele><time>2026-03-28T17:12:35.999Z</time></trkpt><trkpt lat="36.966086630830816" lon="15.058576997091098"><ele>467.20000000000005</ele><time>2026-03-28T17:12:36.999Z</time></trkpt><trkpt lat="36.96608314119489" lon="15.058708214329066"><ele>467.79999999999995</ele><time>2026-03-28T17:12:37.999Z</time></trkpt><trkpt lat="36.9660686772379" lon="15.058834663630412"><ele>468.4</ele><time>2026-03-28T17:12:38.999Z</time></trkpt><trkpt lat="36.96604450962068" lon="15.058954046713271"><ele>469.0</ele><time>2026-03-28T17:12:39.999Z</time></trkpt><trkpt lat="36.9660075183172" lon="15.05909639158633"><ele>469.5</ele><time>2026-03-28T17:12:40.999Z</time></trkpt><trkpt lat="36.96596795311796" lon="15.05923635837081"><ele>470.0</ele><time>2026-03-28T17:12:41.999Z</time></trkpt><trkpt lat="36.96592181051872" lon="15.059381110328026"><ele>470.5</ele><time>2026-03-28T17:12:42.999Z</time></trkpt><trkpt lat="36.9658648942308" lon="15.059515066318088"><ele>471.0</ele><time>2026-03-28T17:12:43.999Z</time></trkpt><trkpt lat="36.96578390700484" lon="15.0596714403346"><ele>470.75</ele><time>2026-03-28T17:12:44.999Z</time></trkpt><trkpt lat="36.96569432863415" lon="15.059831227997316"><ele>470.5</ele><time>2026-03-28T17:12:45.999Z</time></trkpt><trkpt lat="36.9656192856113" lon="15.059963016051313"><ele>470.25</ele><time>2026-03-28T17:12:46.999Z</time></trkpt><trkpt lat="36.96554287527443" lon="15.060060965626086"><ele>470.0</ele><time>2026-03-28T17:12:47.999Z</time></trkpt><trkpt lat="36.96546327863399" lon="15.06016114816887"><ele>470.0</ele><time>2026-03-28T17:12:48.999Z</time></trkpt><trkpt lat="36.96538736365243" lon="15.060289886519705"><ele>470.0</ele><time>2026-03-28T17:12:49.999Z</time></trkpt><trkpt lat="36.96531353632611" lon="15.060429762786608"><ele>470.0</ele><time>2026-03-28T17:12:50.999Z</time></trkpt><trkpt lat="36.965239450326635" lon="15.060584883224557"><ele>470.0</ele><time>2026-03-28T17:12:51.999Z</time></trkpt><trkpt lat="36.96516855331889" lon="15.060759199358948"><ele>470.0</ele><time>2026-03-28T17:12:52.999Z</time></trkpt><trkpt lat="36.96510135883273" lon="15.060931571495747"><ele>470.0</ele><time>2026-03-28T17:12:53.999Z</time></trkpt><trkpt lat="36.96503403210322" lon="15.061086807093623"><ele>470.0</ele><time>2026-03-28T17:12:54.999Z</time></trkpt><trkpt lat="36.964969574782316" lon="15.061225132182011"><ele>470.0</ele><time>2026-03-28T17:12:55.999Z</time></trkpt><trkpt lat="36.96489859976751" lon="15.061367718810978"><ele>469.5</ele><time>2026-03-28T17:12:56.999Z</time></trkpt><trkpt lat="36.96483125403446" lon="15.061499192557765"><ele>469.0</ele><time>2026-03-28T17:12:57.999Z</time></trkpt><trkpt lat="36.96476313373861" lon="15.061624281695565"><ele>468.5</ele><time>2026-03-28T17:12:58.999Z</time></trkpt><trkpt lat="36.96470348411343" lon="15.06174727112502"><ele>468.0</ele><time>2026-03-28T17:12:59.999Z</time></trkpt><trkpt lat="36.964654357631034" lon="15.061858578473634"><ele>467.79999999999995</ele><time>2026-03-28T17:13:00.999Z</time></trkpt><trkpt lat="36.96460723643825" lon="15.061959330447701"><ele>467.59999999999997</ele><time>2026-03-28T17:13:01.999Z</time></trkpt><trkpt lat="36.964554149398694" lon="15.06206744016962"><ele>467.40000000000003</ele><time>2026-03-28T17:13:02.999Z</time></trkpt><trkpt lat="36.96450935941576" lon="15.062179469616149"><ele>467.20000000000005</ele><time>2026-03-28T17:13:03.999Z</time></trkpt><trkpt lat="36.96447305084137" lon="15.062292515564357"><ele>467.0</ele><time>2026-03-28T17:13:04.999Z</time></trkpt><trkpt lat="36.96443872076787" lon="15.062379222934574"><ele>466.3333333333333</ele><time>2026-03-28T17:13:05.999Z</time></trkpt><trkpt lat="36.964410792494185" lon="15.062489509365351"><ele>465.66666666666663</ele><time>2026-03-28T17:13:06.999Z</time></trkpt><trkpt lat="36.96440473709423" lon="15.062573650847169"><ele>465.0</ele><time>2026-03-28T17:13:07.999Z</time></trkpt><trkpt lat="36.96438895234649" lon="15.06265469519037"><ele>464.33333333333337</ele><time>2026-03-28T17:13:08.999Z</time></trkpt><trkpt lat="36.96436293150816" lon="15.062732749559867"><ele>463.6666666666667</ele><time>2026-03-28T17:13:09.999Z</time></trkpt><trkpt lat="36.964308137416886" lon="15.062792120689043"><ele>463.0</ele><time>2026-03-28T17:13:10.999Z</time></trkpt><trkpt lat="36.96422377094074" lon="15.062840622474292"><ele>462.59999999999997</ele><time>2026-03-28T17:13:11.999Z</time></trkpt><trkpt lat="36.96413238875202" lon="15.06290231869033"><ele>462.19999999999993</ele><time>2026-03-28T17:13:12.999Z</time></trkpt><trkpt lat="36.96405924686343" lon="15.063001989437513"><ele>461.8</ele><time>2026-03-28T17:13:13.999Z</time></trkpt><trkpt lat="36.963995926560884" lon="15.063123636176957"><ele>461.4</ele><time>2026-03-28T17:13:14.999Z</time></trkpt><trkpt lat="36.963943753073885" lon="15.063235348537576"><ele>461.0</ele><time>2026-03-28T17:13:15.999Z</time></trkpt><trkpt lat="36.96389421466469" lon="15.063335887689057"><ele>459.5</ele><time>2026-03-28T17:13:16.999Z</time></trkpt><trkpt lat="36.96383750855627" lon="15.063456659518383"><ele>458.0</ele><time>2026-03-28T17:13:17.999Z</time></trkpt><trkpt lat="36.96376388717942" lon="15.063581192370666"><ele>456.5</ele><time>2026-03-28T17:13:18.999Z</time></trkpt><trkpt lat="36.96364839048488" lon="15.06370294945016"><ele>455.0</ele><time>2026-03-28T17:13:19.999Z</time></trkpt><trkpt lat="36.96356504130428" lon="15.0638506804567"><ele>455.0</ele><time>2026-03-28T17:13:20.999Z</time></trkpt><trkpt lat="36.96351050542191" lon="15.064009317164125"><ele>455.0</ele><time>2026-03-28T17:13:21.999Z</time></trkpt><trkpt lat="36.96345255518948" lon="15.064138906560398"><ele>455.0</ele><time>2026-03-28T17:13:22.999Z</time></trkpt><trkpt lat="36.96341212659932" lon="15.064283785777073"><ele>455.0</ele><time>2026-03-28T17:13:23.999Z</time></trkpt><trkpt lat="36.96338287927175" lon="15.064443578120521"><ele>454.4</ele><time>2026-03-28T17:13:24.999Z</time></trkpt><trkpt lat="36.96335083094088" lon="15.064590057424484"><ele>453.8</ele><time>2026-03-28T17:13:25.999Z</time></trkpt><trkpt lat="36.96332801437848" lon="15.064730087072677"><ele>453.20000000000005</ele><time>2026-03-28T17:13:26.999Z</time></trkpt><trkpt lat="36.96330506872236" lon="15.06485963688343"><ele>452.6</ele><time>2026-03-28T17:13:27.999Z</time></trkpt><trkpt lat="36.963289403318704" lon="15.064969429931061"><ele>452.0</ele><time>2026-03-28T17:13:28.999Z</time></trkpt><trkpt lat="36.96327982733328" lon="15.065077677252203"><ele>452.0</ele><time>2026-03-28T17:13:29.999Z</time></trkpt><trkpt lat="36.96327599919836" lon="15.065239994569428"><ele>452.0</ele><time>2026-03-28T17:13:30.999Z</time></trkpt><trkpt lat="36.96326495724788" lon="15.065427806428387"><ele>452.0</ele><time>2026-03-28T17:13:31.999Z</time></trkpt><trkpt lat="36.96323795109081" lon="15.065575082972327"><ele>452.0</ele><time>2026-03-28T17:13:32.999Z</time></trkpt><trkpt lat="36.963201008858626" lon="15.065726581812465"><ele>453.0</ele><time>2026-03-28T17:13:33.999Z</time></trkpt><trkpt lat="36.96315180449646" lon="15.065854438734279"><ele>454.00000000000006</ele><time>2026-03-28T17:13:34.998Z</time></trkpt><trkpt lat="36.96310576439127" lon="15.065972680893873"><ele>455.00000000000006</ele><time>2026-03-28T17:13:35.998Z</time></trkpt><trkpt lat="36.963085402985925" lon="15.066088307451095"><ele>456.0</ele><time>2026-03-28T17:13:36.998Z</time></trkpt><trkpt lat="36.96306989141718" lon="15.0662145709571"><ele>457.0</ele><time>2026-03-28T17:13:37.998Z</time></trkpt><trkpt lat="36.96304612954441" lon="15.066352983995584"><ele>457.0</ele><time>2026-03-28T17:13:38.998Z</time></trkpt><trkpt lat="36.96301186006588" lon="15.066509394439807"><ele>457.0</ele><time>2026-03-28T17:13:39.998Z</time></trkpt><trkpt lat="36.96298654271854" lon="15.066668220382539"><ele>457.0</ele><time>2026-03-28T17:13:40.998Z</time></trkpt><trkpt lat="36.962963436453606" lon="15.066800161249066"><ele>457.0</ele><time>2026-03-28T17:13:41.998Z</time></trkpt><trkpt lat="36.96294122935907" lon="15.066924660446668"><ele>457.8</ele><time>2026-03-28T17:13:42.998Z</time></trkpt><trkpt lat="36.96291250949945" lon="15.067050636313484"><ele>458.6</ele><time>2026-03-28T17:13:43.998Z</time></trkpt><trkpt lat="36.96284504449065" lon="15.067154316712092"><ele>459.40000000000003</ele><time>2026-03-28T17:13:44.998Z</time></trkpt><trkpt lat="36.96280682607761" lon="15.067269882866936"><ele>460.20000000000005</ele><time>2026-03-28T17:13:45.998Z</time></trkpt><trkpt lat="36.96276827823924" lon="15.067383838700696"><ele>461.0</ele><time>2026-03-28T17:13:46.998Z</time></trkpt><trkpt lat="36.96275075365567" lon="15.067485533223115"><ele>461.3333333333333</ele><time>2026-03-28T17:13:47.998Z</time></trkpt><trkpt lat="36.962719179823296" lon="15.067568048077582"><ele>461.66666666666663</ele><time>2026-03-28T17:13:48.998Z</time></trkpt><trkpt lat="36.96265858174039" lon="15.067676319901727"><ele>462.0</ele><time>2026-03-28T17:13:51Z</time></trkpt><trkpt lat="36.96266973553374" lon="15.06776856169577"><ele>462.33333333333337</ele><time>2026-03-28T17:16:45.999Z</time></trkpt><trkpt lat="36.96271976254328" lon="15.067860109930029"><ele>462.6666666666667</ele><time>2026-03-28T17:16:47.999Z</time></trkpt><trkpt lat="36.96276381145855" lon="15.067934426987952"><ele>463.0</ele><time>2026-03-28T17:16:49.999Z</time></trkpt><trkpt lat="36.96280493299597" lon="15.068034877417455"><ele>463.00000000000006</ele><time>2026-03-28T17:16:52.999Z</time></trkpt><trkpt lat="36.96284427672169" lon="15.068117822610294"><ele>463.0</ele><time>2026-03-28T17:16:54.999Z</time></trkpt><trkpt lat="36.96289919985232" lon="15.068199996223084"><ele>463.0</ele><time>2026-03-28T17:16:56.999Z</time></trkpt><trkpt lat="36.962946866363495" lon="15.068282628993503"><ele>463.0</ele><time>2026-03-28T17:16:58.999Z</time></trkpt><trkpt lat="36.96299992362627" lon="15.068362343626623"><ele>463.00000000000006</ele><time>2026-03-28T17:17:00.999Z</time></trkpt><trkpt lat="36.96305338883316" lon="15.068433527267935"><ele>463.0</ele><time>2026-03-28T17:17:02.999Z</time></trkpt><trkpt lat="36.96309906169135" lon="15.068490941714943"><ele>463.33333333333337</ele><time>2026-03-28T17:17:05.999Z</time></trkpt><trkpt lat="36.96315630013667" lon="15.068552378088327"><ele>463.6666666666667</ele><time>2026-03-28T17:17:27.999Z</time></trkpt><trkpt lat="36.96322442210167" lon="15.06861281668076"><ele>464.0</ele><time>2026-03-28T17:17:29.999Z</time></trkpt><trkpt lat="36.96332486310848" lon="15.068720224903227"><ele>464.33333333333337</ele><time>2026-03-28T17:17:31.999Z</time></trkpt><trkpt lat="36.963392993499944" lon="15.068768755479146"><ele>464.6666666666667</ele><time>2026-03-28T17:17:32.999Z</time></trkpt><trkpt lat="36.96344104972619" lon="15.068826982272292"><ele>465.0</ele><time>2026-03-28T17:17:33.999Z</time></trkpt><trkpt lat="36.963496039252526" lon="15.068871296656019"><ele>465.0</ele><time>2026-03-28T17:17:34.999Z</time></trkpt><trkpt lat="36.963590576426135" lon="15.068996007515066"><ele>465.0</ele><time>2026-03-28T17:17:36.999Z</time></trkpt><trkpt lat="36.96364786233547" lon="15.069062108252517"><ele>465.0</ele><time>2026-03-28T17:17:37.999Z</time></trkpt><trkpt lat="36.963695195166075" lon="15.069141246476352"><ele>465.0</ele><time>2026-03-28T17:17:38.999Z</time></trkpt><trkpt lat="36.963733847871495" lon="15.069231035853106"><ele>465.0</ele><time>2026-03-28T17:17:39.999Z</time></trkpt><trkpt lat="36.96377700580819" lon="15.069336881843574"><ele>463.8333333333333</ele><time>2026-03-28T17:17:40.999Z</time></trkpt><trkpt lat="36.96382486506273" lon="15.069452838880597"><ele>462.66666666666663</ele><time>2026-03-28T17:17:41.999Z</time></trkpt><trkpt lat="36.963861572405335" lon="15.069552602310345"><ele>461.5</ele><time>2026-03-28T17:17:42.999Z</time></trkpt><trkpt lat="36.96389043898161" lon="15.069631360387685"><ele>460.3333333333333</ele><time>2026-03-28T17:17:43.998Z</time></trkpt><trkpt lat="36.96390418112415" lon="15.069719187822043"><ele>459.16666666666663</ele><time>2026-03-28T17:17:44.998Z</time></trkpt><trkpt lat="36.963914053954696" lon="15.069851463800866"><ele>458.0</ele><time>2026-03-28T17:17:46.998Z</time></trkpt><trkpt lat="36.963960226916164" lon="15.069916758513584"><ele>457.66666666666663</ele><time>2026-03-28T17:17:49.998Z</time></trkpt><trkpt lat="36.963986329376446" lon="15.070035932137602"><ele>457.3333333333333</ele><time>2026-03-28T17:17:51.998Z</time></trkpt><trkpt lat="36.96400551086059" lon="15.070121097660362"><ele>457.0</ele><time>2026-03-28T17:17:52.998Z</time></trkpt><trkpt lat="36.96403107040486" lon="15.070218291899094"><ele>456.66666666666663</ele><time>2026-03-28T17:17:53.998Z</time></trkpt><trkpt lat="36.964073899032215" lon="15.070347640708862"><ele>456.3333333333333</ele><time>2026-03-28T17:17:55.998Z</time></trkpt><trkpt lat="36.96408010043393" lon="15.070453559133233"><ele>456.0</ele><time>2026-03-28T17:17:57.998Z</time></trkpt><trkpt lat="36.96404974895774" lon="15.070572963095826"><ele>456.0</ele><time>2026-03-28T17:17:59.998Z</time></trkpt><trkpt lat="36.9640621361707" lon="15.070696997646332"><ele>456.0</ele><time>2026-03-28T17:18:03Z</time></trkpt><trkpt lat="36.96404930309884" lon="15.070801033582498"><ele>456.0</ele><time>2026-03-28T17:18:05Z</time></trkpt><trkpt lat="36.96405822509098" lon="15.070978423035726"><ele>456.0</ele><time>2026-03-28T17:18:07Z</time></trkpt><trkpt lat="36.96405147561266" lon="15.071098807740572"><ele>456.0</ele><time>2026-03-28T17:18:08Z</time></trkpt><trkpt lat="36.96404473671692" lon="15.071198626970634"><ele>456.2857142857143</ele><time>2026-03-28T17:18:09Z</time></trkpt><trkpt lat="36.96404474280081" lon="15.071282632097395"><ele>456.57142857142856</ele><time>2026-03-28T17:18:10Z</time></trkpt><trkpt lat="36.96404155772429" lon="15.071367378891342"><ele>456.85714285714283</ele><time>2026-03-28T17:18:11Z</time></trkpt><trkpt lat="36.964033969022594" lon="15.07145792761961"><ele>457.1428571428571</ele><time>2026-03-28T17:18:12Z</time></trkpt><trkpt lat="36.96402504384283" lon="15.071551178593884"><ele>457.42857142857144</ele><time>2026-03-28T17:18:13Z</time></trkpt><trkpt lat="36.964021759405796" lon="15.07164571360755"><ele>457.71428571428567</ele><time>2026-03-28T17:18:14Z</time></trkpt><trkpt lat="36.96402395927446" lon="15.071726019987041"><ele>458.0</ele><time>2026-03-28T17:18:15Z</time></trkpt><trkpt lat="36.96404571424186" lon="15.071859324963494"><ele>458.0</ele><time>2026-03-28T17:18:17Z</time></trkpt><trkpt lat="36.964064743856085" lon="15.071945901268698"><ele>458.0</ele><time>2026-03-28T17:18:18Z</time></trkpt><trkpt lat="36.9640879756054" lon="15.072034809833056"><ele>458.0</ele><time>2026-03-28T17:18:19Z</time></trkpt><trkpt lat="36.964116582636024" lon="15.07211896435093"><ele>458.0</ele><time>2026-03-28T17:18:20Z</time></trkpt><trkpt lat="36.964143952513666" lon="15.072202296097744"><ele>458.0</ele><time>2026-03-28T17:18:21Z</time></trkpt><trkpt lat="36.96414815606678" lon="15.072288313927695"><ele>458.0</ele><time>2026-03-28T17:18:22Z</time></trkpt><trkpt lat="36.96413748597056" lon="15.072386081857744"><ele>458.0</ele><time>2026-03-28T17:18:23Z</time></trkpt><trkpt lat="36.96413479646082" lon="15.072478132334217"><ele>457.99999999999994</ele><time>2026-03-28T17:18:24Z</time></trkpt><trkpt lat="36.96413722234218" lon="15.072588917006234"><ele>458.0</ele><time>2026-03-28T17:18:25Z</time></trkpt><trkpt lat="36.96412959592895" lon="15.072685879614236"><ele>458.0</ele><time>2026-03-28T17:18:26Z</time></trkpt><trkpt lat="36.96411790057288" lon="15.072777055749686"><ele>458.0</ele><time>2026-03-28T17:18:27Z</time></trkpt><trkpt lat="36.964107536404185" lon="15.072868636940628"><ele>457.99999999999994</ele><time>2026-03-28T17:18:28Z</time></trkpt><trkpt lat="36.96410155599229" lon="15.072964068225776"><ele>458.0</ele><time>2026-03-28T17:18:29Z</time></trkpt><trkpt lat="36.9640862521622" lon="15.073098365093317"><ele>457.99999999999994</ele><time>2026-03-28T17:18:31Z</time></trkpt><trkpt lat="36.96406643190892" lon="15.073226859498615"><ele>458.0</ele><time>2026-03-28T17:18:33Z</time></trkpt><trkpt lat="36.964052690425454" lon="15.073317335850696"><ele>458.0</ele><time>2026-03-28T17:18:34Z</time></trkpt><trkpt lat="36.96402576796763" lon="15.0734050556299"><ele>458.0</ele><time>2026-03-28T17:18:35Z</time></trkpt><trkpt lat="36.964006535546794" lon="15.073491356995486"><ele>457.99999999999994</ele><time>2026-03-28T17:18:36Z</time></trkpt><trkpt lat="36.9639881279154" lon="15.07357316119103"><ele>458.0</ele><time>2026-03-28T17:18:37Z</time></trkpt><trkpt lat="36.96396580984359" lon="15.073652915833426"><ele>458.0</ele><time>2026-03-28T17:18:38Z</time></trkpt><trkpt lat="36.96393065340405" lon="15.073789594370831"><ele>457.99999999999994</ele><time>2026-03-28T17:18:40Z</time></trkpt><trkpt lat="36.963906763173576" lon="15.07388886351384"><ele>457.99999999999994</ele><time>2026-03-28T17:18:41Z</time></trkpt><trkpt lat="36.963868422282964" lon="15.073968493126474"><ele>458.0</ele><time>2026-03-28T17:18:42Z</time></trkpt><trkpt lat="36.963796048229064" lon="15.074083979645739"><ele>458.0</ele><time>2026-03-28T17:18:44Z</time></trkpt><trkpt lat="36.96372605601436" lon="15.074217076927741"><ele>457.99999999999994</ele><time>2026-03-28T17:18:46Z</time></trkpt><trkpt lat="36.96370426867668" lon="15.074296280510703"><ele>458.0</ele><time>2026-03-28T17:18:47Z</time></trkpt><trkpt lat="36.9636849370019" lon="15.074373822362361"><ele>458.0</ele><time>2026-03-28T17:18:47.999Z</time></trkpt><trkpt lat="36.96364820189844" lon="15.074466082284436"><ele>458.0</ele><time>2026-03-28T17:18:48.999Z</time></trkpt><trkpt lat="36.96361585862544" lon="15.074575715386443"><ele>457.99999999999994</ele><time>2026-03-28T17:18:49.999Z</time></trkpt><trkpt lat="36.96359531037567" lon="15.074679548796416"><ele>458.0</ele><time>2026-03-28T17:18:50.999Z</time></trkpt><trkpt lat="36.9635899882222" lon="15.074775308991754"><ele>458.0</ele><time>2026-03-28T17:18:51.999Z</time></trkpt><trkpt lat="36.96358163659046" lon="15.074876277806881"><ele>458.0</ele><time>2026-03-28T17:18:52.999Z</time></trkpt><trkpt lat="36.963576163440024" lon="15.07497057483476"><ele>458.0</ele><time>2026-03-28T17:18:53.999Z</time></trkpt><trkpt lat="36.96358579930909" lon="15.07505075054803"><ele>458.0</ele><time>2026-03-28T17:18:54.999Z</time></trkpt><trkpt lat="36.963609095549664" lon="15.07514048403674"><ele>458.0</ele><time>2026-03-28T17:18:55.999Z</time></trkpt><trkpt lat="36.96363756016502" lon="15.075234799435968"><ele>458.0</ele><time>2026-03-28T17:18:56.999Z</time></trkpt><trkpt lat="36.96366506138262" lon="15.075308735931602"><ele>458.0</ele><time>2026-03-28T17:18:57.999Z</time></trkpt><trkpt lat="36.96369795296204" lon="15.075376001542692"><ele>457.3333333333333</ele><time>2026-03-28T17:18:58.999Z</time></trkpt><trkpt lat="36.96373250438245" lon="15.075451476942428"><ele>456.66666666666663</ele><time>2026-03-28T17:18:59.999Z</time></trkpt><trkpt lat="36.96376868207108" lon="15.075521842179436"><ele>456.0</ele><time>2026-03-28T17:19:00.999Z</time></trkpt><trkpt lat="36.96380629953076" lon="15.075623368069254"><ele>455.33333333333337</ele><time>2026-03-28T17:19:01.999Z</time></trkpt><trkpt lat="36.9638348830818" lon="15.075744405787926"><ele>454.6666666666667</ele><time>2026-03-28T17:19:02.999Z</time></trkpt><trkpt lat="36.963863168674436" lon="15.075864106300424"><ele>454.0</ele><time>2026-03-28T17:19:03.999Z</time></trkpt><trkpt lat="36.963897019864" lon="15.075979305824944"><ele>453.6666666666667</ele><time>2026-03-28T17:19:04.999Z</time></trkpt><trkpt lat="36.96392573873721" lon="15.076073757750468"><ele>453.33333333333337</ele><time>2026-03-28T17:19:05.999Z</time></trkpt><trkpt lat="36.96395935285777" lon="15.07615714615734"><ele>453.0</ele><time>2026-03-28T17:19:06.999Z</time></trkpt><trkpt lat="36.963982239946" lon="15.076249929392944"><ele>452.66666666666663</ele><time>2026-03-28T17:19:07.999Z</time></trkpt><trkpt lat="36.96401449044386" lon="15.076356037184427"><ele>452.3333333333333</ele><time>2026-03-28T17:19:08.999Z</time></trkpt><trkpt lat="36.96404523293836" lon="15.076445931814536"><ele>452.0</ele><time>2026-03-28T17:19:09.999Z</time></trkpt><trkpt lat="36.96406874873535" lon="15.076524169067781"><ele>453.0</ele><time>2026-03-28T17:19:10.999Z</time></trkpt><trkpt lat="36.96406581071145" lon="15.076685601784462"><ele>454.00000000000006</ele><time>2026-03-28T17:19:12.999Z</time></trkpt><trkpt lat="36.964081275100604" lon="15.076781308060681"><ele>455.00000000000006</ele><time>2026-03-28T17:19:13.999Z</time></trkpt><trkpt lat="36.9640838380006" lon="15.076898317381339"><ele>456.0</ele><time>2026-03-28T17:19:14.999Z</time></trkpt><trkpt lat="36.96409800650161" lon="15.077019151453515"><ele>457.0</ele><time>2026-03-28T17:19:15.999Z</time></trkpt><trkpt lat="36.9641012448854" lon="15.077143930027646"><ele>457.0</ele><time>2026-03-28T17:19:16.999Z</time></trkpt><trkpt lat="36.96410501239911" lon="15.077255535602472"><ele>457.00000000000006</ele><time>2026-03-28T17:19:17.999Z</time></trkpt><trkpt lat="36.964112529959756" lon="15.077336746243558"><ele>457.00000000000006</ele><time>2026-03-28T17:19:18.999Z</time></trkpt><trkpt lat="36.96414201267184" lon="15.077473164720049"><ele>457.0</ele><time>2026-03-28T17:19:20.999Z</time></trkpt><trkpt lat="36.96419273376215" lon="15.07759675069557"><ele>457.0</ele><time>2026-03-28T17:19:22.999Z</time></trkpt><trkpt lat="36.964274616015544" lon="15.077733195305449"><ele>458.5</ele><time>2026-03-28T17:19:23.999Z</time></trkpt><trkpt lat="36.96437528470744" lon="15.07787359587033"><ele>460.0</ele><time>2026-03-28T17:19:24.999Z</time></trkpt><trkpt lat="36.96445941161993" lon="15.077988252349183"><ele>461.5</ele><time>2026-03-28T17:19:25.999Z</time></trkpt><trkpt lat="36.96450958865221" lon="15.078092257946533"><ele>463.0</ele><time>2026-03-28T17:19:26.999Z</time></trkpt><trkpt lat="36.96455683645039" lon="15.078181357382206"><ele>463.00000000000006</ele><time>2026-03-28T17:19:27.999Z</time></trkpt><trkpt lat="36.964594043833344" lon="15.078263678029478"><ele>463.0</ele><time>2026-03-28T17:19:28.999Z</time></trkpt><trkpt lat="36.9646273342469" lon="15.078345336737195"><ele>463.0</ele><time>2026-03-28T17:19:29.999Z</time></trkpt><trkpt lat="36.96465881208046" lon="15.078434227417114"><ele>463.0</ele><time>2026-03-28T17:19:30.999Z</time></trkpt><trkpt lat="36.964685617968705" lon="15.07852336196103"><ele>463.00000000000006</ele><time>2026-03-28T17:19:31.999Z</time></trkpt><trkpt lat="36.96471384693667" lon="15.078616581506708"><ele>463.0</ele><time>2026-03-28T17:19:32.999Z</time></trkpt><trkpt lat="36.96474561156531" lon="15.07872663082216"><ele>463.0</ele><time>2026-03-28T17:19:33.999Z</time></trkpt><trkpt lat="36.964776095260845" lon="15.078831805579888"><ele>462.99999999999994</ele><time>2026-03-28T17:19:34.999Z</time></trkpt><trkpt lat="36.96480325931051" lon="15.078926888665752"><ele>462.99999999999994</ele><time>2026-03-28T17:19:35.999Z</time></trkpt><trkpt lat="36.96483319415708" lon="15.079033244004808"><ele>463.0</ele><time>2026-03-28T17:19:36.999Z</time></trkpt><trkpt lat="36.96486583075645" lon="15.07914919821455"><ele>463.0</ele><time>2026-03-28T17:19:37.999Z</time></trkpt><trkpt lat="36.96489916569427" lon="15.079267633692332"><ele>463.0</ele><time>2026-03-28T17:19:38.999Z</time></trkpt><trkpt lat="36.964931197977016" lon="15.079383880089457"><ele>462.99999999999994</ele><time>2026-03-28T17:19:39.999Z</time></trkpt><trkpt lat="36.96495814169751" lon="15.079484281538159"><ele>463.0</ele><time>2026-03-28T17:19:40.999Z</time></trkpt><trkpt lat="36.964979997745296" lon="15.07956918642287"><ele>463.0</ele><time>2026-03-28T17:19:41.999Z</time></trkpt><trkpt lat="36.96499894349559" lon="15.07964645962364"><ele>462.99999999999994</ele><time>2026-03-28T17:19:42.999Z</time></trkpt><trkpt lat="36.965017274596136" lon="15.079723130199302"><ele>463.0</ele><time>2026-03-28T17:19:43.999Z</time></trkpt><trkpt lat="36.965034699313776" lon="15.079801030926108"><ele>463.0</ele><time>2026-03-28T17:19:44.999Z</time></trkpt><trkpt lat="36.965054410037645" lon="15.07988915168437"><ele>463.79999999999995</ele><time>2026-03-28T17:19:45.999Z</time></trkpt><trkpt lat="36.96507402488276" lon="15.079978764471736"><ele>464.59999999999997</ele><time>2026-03-28T17:19:46.999Z</time></trkpt><trkpt lat="36.96509414121898" lon="15.080074285781189"><ele>465.40000000000003</ele><time>2026-03-28T17:19:47.999Z</time></trkpt><trkpt lat="36.96512107608373" lon="15.080213570384931"><ele>466.20000000000005</ele><time>2026-03-28T17:19:48.999Z</time></trkpt><trkpt lat="36.96514694639994" lon="15.080389534465382"><ele>467.0</ele><time>2026-03-28T17:19:49.999Z</time></trkpt><trkpt lat="36.96515679341644" lon="15.080531904859138"><ele>467.0</ele><time>2026-03-28T17:19:50.999Z</time></trkpt><trkpt lat="36.96516409972686" lon="15.080648805837754"><ele>467.00000000000006</ele><time>2026-03-28T17:19:51.999Z</time></trkpt><trkpt lat="36.96516942228148" lon="15.080739191822637"><ele>467.00000000000006</ele><time>2026-03-28T17:19:52.999Z</time></trkpt><trkpt lat="36.96517429888054" lon="15.080841422740598"><ele>467.0</ele><time>2026-03-28T17:19:53.999Z</time></trkpt><trkpt lat="36.96518061439213" lon="15.0809738183327"><ele>467.0</ele><time>2026-03-28T17:19:54.999Z</time></trkpt><trkpt lat="36.96518706992766" lon="15.081109149416458"><ele>467.6</ele><time>2026-03-28T17:19:55.999Z</time></trkpt><trkpt lat="36.965193376067916" lon="15.081241348744753"><ele>468.20000000000005</ele><time>2026-03-28T17:19:56.999Z</time></trkpt><trkpt lat="36.96520352285571" lon="15.0813719357533"><ele>468.8</ele><time>2026-03-28T17:19:57.999Z</time></trkpt><trkpt lat="36.965215173594025" lon="15.08149956258152"><ele>469.4</ele><time>2026-03-28T17:19:58.998Z</time></trkpt><trkpt lat="36.965230399999164" lon="15.081632299298255"><ele>470.0</ele><time>2026-03-28T17:19:59.998Z</time></trkpt><trkpt lat="36.96525092202767" lon="15.081761906472096"><ele>472.0</ele><time>2026-03-28T17:20:00.998Z</time></trkpt><trkpt lat="36.96527923535942" lon="15.081899619801693"><ele>474.0</ele><time>2026-03-28T17:20:01.998Z</time></trkpt><trkpt lat="36.9653230341154" lon="15.082079516752318"><ele>476.0</ele><time>2026-03-28T17:20:02.998Z</time></trkpt><trkpt lat="36.965383869009855" lon="15.082278918447715"><ele>478.0</ele><time>2026-03-28T17:20:03.998Z</time></trkpt><trkpt lat="36.96546631172599" lon="15.082512787553584"><ele>481.33333333333337</ele><time>2026-03-28T17:20:04.998Z</time></trkpt><trkpt lat="36.96555295937305" lon="15.082756495556955"><ele>484.66666666666663</ele><time>2026-03-28T17:20:05.998Z</time></trkpt><trkpt lat="36.9656226835915" lon="15.082997093335273"><ele>488.0</ele><time>2026-03-28T17:20:06.998Z</time></trkpt><trkpt lat="36.96567258611683" lon="15.083239154907055"><ele>491.0</ele><time>2026-03-28T17:20:07.998Z</time></trkpt><trkpt lat="36.965692479726435" lon="15.08346312827646"><ele>494.0</ele><time>2026-03-28T17:20:09Z</time></trkpt><trkpt lat="36.965694531183246" lon="15.083654513390073"><ele>497.0</ele><time>2026-03-28T17:20:10Z</time></trkpt><trkpt lat="36.9656744483179" lon="15.083835116360964"><ele>497.0</ele><time>2026-03-28T17:20:11Z</time></trkpt><trkpt lat="36.96563734771779" lon="15.084018860642548"><ele>497.0</ele><time>2026-03-28T17:20:12Z</time></trkpt><trkpt lat="36.96559714461971" lon="15.084198096330448"><ele>497.0</ele><time>2026-03-28T17:20:13Z</time></trkpt><trkpt lat="36.965560799121626" lon="15.084369135664852"><ele>497.0</ele><time>2026-03-28T17:20:14Z</time></trkpt><trkpt lat="36.96556500438577" lon="15.084549322006943"><ele>497.0</ele><time>2026-03-28T17:20:15Z</time></trkpt><trkpt lat="36.965555610858424" lon="15.08473273343506"><ele>497.0</ele><time>2026-03-28T17:20:16Z</time></trkpt><trkpt lat="36.965572347110864" lon="15.084911951998896"><ele>497.0</ele><time>2026-03-28T17:20:17Z</time></trkpt><trkpt lat="36.965590675851594" lon="15.085089279668399"><ele>497.0</ele><time>2026-03-28T17:20:18Z</time></trkpt><trkpt lat="36.96562337426996" lon="15.08525436215507"><ele>497.0</ele><time>2026-03-28T17:20:19Z</time></trkpt><trkpt lat="36.96566166068708" lon="15.085403375710461"><ele>497.0</ele><time>2026-03-28T17:20:20Z</time></trkpt><trkpt lat="36.965636861959325" lon="15.085554992914863"><ele>497.0</ele><time>2026-03-28T17:20:21Z</time></trkpt><trkpt lat="36.96561416525902" lon="15.085741724843656"><ele>497.0</ele><time>2026-03-28T17:20:22Z</time></trkpt><trkpt lat="36.96560174290456" lon="15.085965965247656"><ele>496.3333333333333</ele><time>2026-03-28T17:20:23Z</time></trkpt><trkpt lat="36.96559087168605" lon="15.086221018968683"><ele>495.66666666666663</ele><time>2026-03-28T17:20:24Z</time></trkpt><trkpt lat="36.96558006950885" lon="15.086474452660465"><ele>495.0</ele><time>2026-03-28T17:20:25Z</time></trkpt><trkpt lat="36.96558360745449" lon="15.086722846237656"><ele>496.5</ele><time>2026-03-28T17:20:26Z</time></trkpt><trkpt lat="36.96557078075662" lon="15.086940318100142"><ele>498.0</ele><time>2026-03-28T17:20:27Z</time></trkpt><trkpt lat="36.96555585831139" lon="15.08712857025188"><ele>499.5</ele><time>2026-03-28T17:20:28Z</time></trkpt><trkpt lat="36.96553219528205" lon="15.087268338600394"><ele>501.0</ele><time>2026-03-28T17:20:29Z</time></trkpt><trkpt lat="36.965450778793524" lon="15.087349502359702"><ele>501.0</ele><time>2026-03-28T17:20:30Z</time></trkpt><trkpt lat="36.96536931377741" lon="15.087425747555157"><ele>501.0</ele><time>2026-03-28T17:20:31Z</time></trkpt><trkpt lat="36.965252834249945" lon="15.087535959315947"><ele>501.0</ele><time>2026-03-28T17:20:32Z</time></trkpt><trkpt lat="36.965142932238855" lon="15.087643937224467"><ele>501.0</ele><time>2026-03-28T17:20:33Z</time></trkpt><trkpt lat="36.965084036784575" lon="15.087757053318493"><ele>500.66666666666663</ele><time>2026-03-28T17:20:34Z</time></trkpt><trkpt lat="36.96505857565685" lon="15.087896495638192"><ele>500.3333333333333</ele><time>2026-03-28T17:20:35Z</time></trkpt><trkpt lat="36.965057824536636" lon="15.088089939205013"><ele>500.0</ele><time>2026-03-28T17:20:36Z</time></trkpt><trkpt lat="36.965062213245496" lon="15.088325994945313"><ele>500.0</ele><time>2026-03-28T17:20:37Z</time></trkpt><trkpt lat="36.965061985028605" lon="15.08859285455962"><ele>500.0</ele><time>2026-03-28T17:20:38Z</time></trkpt><trkpt lat="36.96505147306052" lon="15.088787248776514"><ele>500.0</ele><time>2026-03-28T17:20:39Z</time></trkpt><trkpt lat="36.965047802656" lon="15.089064214050351"><ele>500.0</ele><time>2026-03-28T17:20:40Z</time></trkpt><trkpt lat="36.96504630748231" lon="15.089376563849575"><ele>500.0</ele><time>2026-03-28T17:20:41Z</time></trkpt><trkpt lat="36.96504046840924" lon="15.089673394015547"><ele>500.0</ele><time>2026-03-28T17:20:42Z</time></trkpt><trkpt lat="36.96503274469914" lon="15.089919323168974"><ele>500.0</ele><time>2026-03-28T17:20:43Z</time></trkpt><trkpt lat="36.96500049871053" lon="15.090109982964192"><ele>500.0</ele><time>2026-03-28T17:20:44Z</time></trkpt><trkpt lat="36.964953636994736" lon="15.090276494803522"><ele>500.3333333333333</ele><time>2026-03-28T17:20:45Z</time></trkpt><trkpt lat="36.96488086826615" lon="15.09042860574795"><ele>500.66666666666663</ele><time>2026-03-28T17:20:46Z</time></trkpt><trkpt lat="36.96478230244776" lon="15.090627994611179"><ele>501.0</ele><time>2026-03-28T17:20:47Z</time></trkpt><trkpt lat="36.96467500687986" lon="15.09084645248427"><ele>501.0</ele><time>2026-03-28T17:20:48Z</time></trkpt><trkpt lat="36.964578131092814" lon="15.091051763992954"><ele>501.0</ele><time>2026-03-28T17:20:49Z</time></trkpt><trkpt lat="36.96448622657094" lon="15.091235308829669"><ele>501.0</ele><time>2026-03-28T17:20:50Z</time></trkpt><trkpt lat="36.964399729840125" lon="15.09141989880671"><ele>499.66666666666663</ele><time>2026-03-28T17:20:51Z</time></trkpt><trkpt lat="36.96434188220657" lon="15.091609704083487"><ele>498.3333333333333</ele><time>2026-03-28T17:20:52Z</time></trkpt><trkpt lat="36.964289150579056" lon="15.09179280971776"><ele>497.0</ele><time>2026-03-28T17:20:53Z</time></trkpt><trkpt lat="36.96427325022653" lon="15.0920085509112"><ele>497.0</ele><time>2026-03-28T17:20:54Z</time></trkpt><trkpt lat="36.96426719055178" lon="15.092216603492297"><ele>497.0</ele><time>2026-03-28T17:20:55Z</time></trkpt><trkpt lat="36.96418751389849" lon="15.092386126000404"><ele>497.0</ele><time>2026-03-28T17:20:56Z</time></trkpt><trkpt lat="36.96410210010474" lon="15.092577644527205"><ele>496.66666666666663</ele><time>2026-03-28T17:20:57Z</time></trkpt><trkpt lat="36.964020338007145" lon="15.092767545932618"><ele>496.33333333333337</ele><time>2026-03-28T17:20:58Z</time></trkpt><trkpt lat="36.96395070433957" lon="15.092943000607102"><ele>496.0</ele><time>2026-03-28T17:20:59Z</time></trkpt><trkpt lat="36.96387952198958" lon="15.093101748906832"><ele>496.0</ele><time>2026-03-28T17:20:59.999Z</time></trkpt><trkpt lat="36.96381303267913" lon="15.09322728309009"><ele>496.0</ele><time>2026-03-28T17:21:00.999Z</time></trkpt><trkpt lat="36.963752755400385" lon="15.093327257353192"><ele>496.0</ele><time>2026-03-28T17:21:01.999Z</time></trkpt><trkpt lat="36.9637043502663" lon="15.093392545261377"><ele>496.0</ele><time>2026-03-28T17:21:02.999Z</time></trkpt><trkpt lat="36.96378681047285" lon="15.093587407831217"><ele>495.33333333333337</ele><time>2026-03-28T17:21:04.999Z</time></trkpt><trkpt lat="36.96385804523659" lon="15.093728871300577"><ele>494.66666666666663</ele><time>2026-03-28T17:21:05.999Z</time></trkpt><trkpt lat="36.96395010818302" lon="15.093917589438668"><ele>494.0</ele><time>2026-03-28T17:21:06.999Z</time></trkpt><trkpt lat="36.96405445485677" lon="15.094062541624954"><ele>493.5</ele><time>2026-03-28T17:21:07.999Z</time></trkpt><trkpt lat="36.964148521998894" lon="15.094139363012937"><ele>493.0</ele><time>2026-03-28T17:21:08.999Z</time></trkpt><trkpt lat="36.964256795252645" lon="15.09413877839779"><ele>492.5</ele><time>2026-03-28T17:21:09.999Z</time></trkpt><trkpt lat="36.96436147905329" lon="15.09408256126096"><ele>492.0</ele><time>2026-03-28T17:21:10.999Z</time></trkpt><trkpt lat="36.96450839102068" lon="15.094028516238767"><ele>491.25</ele><time>2026-03-28T17:21:11.999Z</time></trkpt><trkpt lat="36.964637912309506" lon="15.094008740588976"><ele>490.5</ele><time>2026-03-28T17:21:12.999Z</time></trkpt><trkpt lat="36.96477301521459" lon="15.094032818384685"><ele>489.75</ele><time>2026-03-28T17:21:13.999Z</time></trkpt><trkpt lat="36.964931978062964" lon="15.09409127918638"><ele>489.0</ele><time>2026-03-28T17:21:14.999Z</time></trkpt><trkpt lat="36.965128966081735" lon="15.094166677065404"><ele>492.5</ele><time>2026-03-28T17:21:15.999Z</time></trkpt><trkpt lat="36.96535534137765" lon="15.094241270755283"><ele>496.0</ele><time>2026-03-28T17:21:16.999Z</time></trkpt><trkpt lat="36.965564926205424" lon="15.094320792720948"><ele>496.0</ele><time>2026-03-28T17:21:17.999Z</time></trkpt><trkpt lat="36.96578991945505" lon="15.094374668992733"><ele>496.0</ele><time>2026-03-28T17:21:18.999Z</time></trkpt><trkpt lat="36.966018911918034" lon="15.094428026367257"><ele>498.33333333333337</ele><time>2026-03-28T17:21:19.999Z</time></trkpt><trkpt lat="36.966202514612135" lon="15.094501540359264"><ele>500.66666666666663</ele><time>2026-03-28T17:21:20.999Z</time></trkpt><trkpt lat="36.966367301709454" lon="15.094561609569345"><ele>503.0</ele><time>2026-03-28T17:21:21.999Z</time></trkpt><trkpt lat="36.96651022718466" lon="15.094613552160668"><ele>503.0</ele><time>2026-03-28T17:21:22.999Z</time></trkpt><trkpt lat="36.96666601986569" lon="15.09465570267484"><ele>503.0</ele><time>2026-03-28T17:21:23.999Z</time></trkpt><trkpt lat="36.96681480493223" lon="15.094682787960124"><ele>503.0</ele><time>2026-03-28T17:21:24.999Z</time></trkpt><trkpt lat="36.966944736810134" lon="15.094721274733224"><ele>503.0</ele><time>2026-03-28T17:21:25.999Z</time></trkpt><trkpt lat="36.96707160855805" lon="15.094748959000414"><ele>502.59999999999997</ele><time>2026-03-28T17:21:26.999Z</time></trkpt><trkpt lat="36.96718103541463" lon="15.09477807267844"><ele>502.19999999999993</ele><time>2026-03-28T17:21:27.999Z</time></trkpt><trkpt lat="36.96727035404567" lon="15.094820338127958"><ele>501.8</ele><time>2026-03-28T17:21:28.999Z</time></trkpt><trkpt lat="36.967350041803606" lon="15.09466710260086"><ele>501.4</ele><time>2026-03-28T17:21:29.999Z</time></trkpt><trkpt lat="36.9674073294355" lon="15.094591430190416"><ele>501.0</ele><time>2026-03-28T17:21:30.999Z</time></trkpt><trkpt lat="36.96746156372276" lon="15.0945017157197"><ele>501.0</ele><time>2026-03-28T17:21:31.999Z</time></trkpt><trkpt lat="36.96749432646635" lon="15.094425100039567"><ele>501.0</ele><time>2026-03-28T17:21:32.999Z</time></trkpt><trkpt lat="36.96755389079282" lon="15.0943554506229"><ele>501.0</ele><time>2026-03-28T17:21:34.999Z</time></trkpt><trkpt lat="36.96754738922764" lon="15.094274934325504"><ele>501.0</ele><time>2026-03-28T17:23:25.999Z</time></trkpt><trkpt lat="36.96756041041586" lon="15.09419067508506"><ele>501.0</ele><time>2026-03-28T17:24:41Z</time></trkpt><trkpt lat="36.96757151868184" lon="15.09409394041293"><ele>501.0</ele><time>2026-03-28T17:24:56Z</time></trkpt><trkpt lat="36.96758925961749" lon="15.094017688443916"><ele>501.0</ele><time>2026-03-28T17:25:03Z</time></trkpt><trkpt lat="36.96761314837622" lon="15.093941355852952"><ele>498.7142857142857</ele><time>2026-03-28T17:25:09.999Z</time></trkpt><trkpt lat="36.967574711686204" lon="15.093877386098333"><ele>496.42857142857144</ele><time>2026-03-28T17:25:19.999Z</time></trkpt><trkpt lat="36.96764378381295" lon="15.093881901572331"><ele>494.14285714285717</ele><time>2026-03-28T17:27:59.999Z</time></trkpt><trkpt lat="36.96757910129022" lon="15.09390359275804"><ele>491.8571428571429</ele><time>2026-03-28T17:31:18Z</time></trkpt><trkpt lat="36.96760896307716" lon="15.093986575171929"><ele>489.57142857142856</ele><time>2026-03-28T17:31:32Z</time></trkpt><trkpt lat="36.967583894032096" lon="15.09407264428672"><ele>487.28571428571433</ele><time>2026-03-28T17:31:37.999Z</time></trkpt><trkpt lat="36.96756237532361" lon="15.094157310225738"><ele>485.00000000000006</ele><time>2026-03-28T17:31:43.999Z</time></trkpt><trkpt lat="36.96754138964047" lon="15.094248900156963"><ele>487.66666666666663</ele><time>2026-03-28T17:31:49.999Z</time></trkpt><trkpt lat="36.96754646383283" lon="15.094333024056175"><ele>490.3333333333333</ele><time>2026-03-28T17:31:56.999Z</time></trkpt><trkpt lat="36.967509022438044" lon="15.094426997256818"><ele>493.0</ele><time>2026-03-28T17:33:26Z</time></trkpt><trkpt lat="36.96742654724778" lon="15.094542423892348"><ele>495.66666666666663</ele><time>2026-03-28T17:33:28Z</time></trkpt><trkpt lat="36.967361444453786" lon="15.094622957541425"><ele>498.3333333333333</ele><time>2026-03-28T17:33:30Z</time></trkpt><trkpt lat="36.96728841657385" lon="15.094666749028425"><ele>501.0</ele><time>2026-03-28T17:33:32Z</time></trkpt><trkpt lat="36.96722864776173" lon="15.094718680719323"><ele>501.0</ele><time>2026-03-28T17:33:34Z</time></trkpt><trkpt lat="36.96730042359591" lon="15.094901002689056"><ele>501.0</ele><time>2026-03-28T17:33:37Z</time></trkpt><trkpt lat="36.9673154563315" lon="15.094998768835248"><ele>501.0</ele><time>2026-03-28T17:33:38.999Z</time></trkpt><trkpt lat="36.96724459961853" lon="15.09509354154754"><ele>501.0</ele><time>2026-03-28T17:33:40.999Z</time></trkpt><trkpt lat="36.96719251348743" lon="15.095205141919802"><ele>501.0</ele><time>2026-03-28T17:33:42.999Z</time></trkpt><trkpt lat="36.9671152781414" lon="15.095359260093604"><ele>496.5</ele><time>2026-03-28T17:33:44.999Z</time></trkpt><trkpt lat="36.96704997332271" lon="15.095489721143533"><ele>492.0</ele><time>2026-03-28T17:33:45.999Z</time></trkpt><trkpt lat="36.96696707996517" lon="15.095657895373574"><ele>487.5</ele><time>2026-03-28T17:33:46.999Z</time></trkpt><trkpt lat="36.96689514221237" lon="15.09582787073266"><ele>483.0</ele><time>2026-03-28T17:33:47.999Z</time></trkpt><trkpt lat="36.96683151673485" lon="15.095987953723315"><ele>474.0</ele><time>2026-03-28T17:33:48.999Z</time></trkpt><trkpt lat="36.9667907229169" lon="15.096189295519126"><ele>465.0</ele><time>2026-03-28T17:33:49.999Z</time></trkpt><trkpt lat="36.9668019764923" lon="15.096414850025901"><ele>456.0</ele><time>2026-03-28T17:33:50.999Z</time></trkpt><trkpt lat="36.96680240793883" lon="15.096644571970327"><ele>455.33333333333337</ele><time>2026-03-28T17:33:51.999Z</time></trkpt><trkpt lat="36.966796712154576" lon="15.096888400870395"><ele>454.6666666666667</ele><time>2026-03-28T17:33:52.999Z</time></trkpt><trkpt lat="36.966790324696525" lon="15.097092106931653"><ele>454.0</ele><time>2026-03-28T17:33:53.999Z</time></trkpt><trkpt lat="36.96676557871297" lon="15.0972740384026"><ele>456.75</ele><time>2026-03-28T17:33:54.999Z</time></trkpt><trkpt lat="36.96675792492531" lon="15.097446988904261"><ele>459.5</ele><time>2026-03-28T17:33:55.999Z</time></trkpt><trkpt lat="36.96678316696675" lon="15.097606212322487"><ele>462.25</ele><time>2026-03-28T17:33:56.999Z</time></trkpt><trkpt lat="36.96677019540066" lon="15.09776852856348"><ele>465.0</ele><time>2026-03-28T17:33:57.999Z</time></trkpt><trkpt lat="36.96674596417163" lon="15.097957799887283"><ele>465.0</ele><time>2026-03-28T17:33:58.999Z</time></trkpt><trkpt lat="36.96672415573965" lon="15.098174725374824"><ele>465.0</ele><time>2026-03-28T17:33:59.999Z</time></trkpt><trkpt lat="36.96668601139939" lon="15.098404587825273"><ele>465.0</ele><time>2026-03-28T17:34:00.999Z</time></trkpt><trkpt lat="36.96664966658776" lon="15.098618059724467"><ele>474.33333333333337</ele><time>2026-03-28T17:34:01.999Z</time></trkpt><trkpt lat="36.966608004812905" lon="15.098829770350555"><ele>483.6666666666667</ele><time>2026-03-28T17:34:02.999Z</time></trkpt><trkpt lat="36.96657930254608" lon="15.099036626762263"><ele>493.0</ele><time>2026-03-28T17:34:03.999Z</time></trkpt><trkpt lat="36.966549705178075" lon="15.099236539643675"><ele>493.6666666666667</ele><time>2026-03-28T17:34:04.999Z</time></trkpt><trkpt lat="36.96651500036698" lon="15.099435305118423"><ele>494.33333333333337</ele><time>2026-03-28T17:34:05.999Z</time></trkpt><trkpt lat="36.966486963940746" lon="15.099634801057904"><ele>495.0</ele><time>2026-03-28T17:34:06.999Z</time></trkpt><trkpt lat="36.96645791827945" lon="15.099834980567698"><ele>496.5</ele><time>2026-03-28T17:34:07.999Z</time></trkpt><trkpt lat="36.96643896899745" lon="15.099996309563192"><ele>498.0</ele><time>2026-03-28T17:34:08.999Z</time></trkpt><trkpt lat="36.966410575405085" lon="15.100137482924513"><ele>499.5</ele><time>2026-03-28T17:34:09.999Z</time></trkpt><trkpt lat="36.966368574219665" lon="15.100270139976361"><ele>501.0</ele><time>2026-03-28T17:34:10.999Z</time></trkpt><trkpt lat="36.96630958133416" lon="15.100428251555158"><ele>501.0</ele><time>2026-03-28T17:34:11.999Z</time></trkpt><trkpt lat="36.96624039353653" lon="15.100601031234255"><ele>501.0</ele><time>2026-03-28T17:34:12.999Z</time></trkpt><trkpt lat="36.966167772691634" lon="15.100772652260526"><ele>501.0</ele><time>2026-03-28T17:34:13.999Z</time></trkpt><trkpt lat="36.96610138513769" lon="15.100906883153334"><ele>501.0</ele><time>2026-03-28T17:34:14.999Z</time></trkpt><trkpt lat="36.966027512593584" lon="15.101018524304346"><ele>501.5</ele><time>2026-03-28T17:34:15.999Z</time></trkpt><trkpt lat="36.965941709103795" lon="15.101114143529644"><ele>502.0</ele><time>2026-03-28T17:34:16.999Z</time></trkpt><trkpt lat="36.96584625862989" lon="15.101215532118516"><ele>502.5</ele><time>2026-03-28T17:34:17.999Z</time></trkpt><trkpt lat="36.96575806132656" lon="15.101307351919608"><ele>503.0</ele><time>2026-03-28T17:34:18.999Z</time></trkpt><trkpt lat="36.96567473716601" lon="15.101392929800811"><ele>503.0</ele><time>2026-03-28T17:34:19.999Z</time></trkpt><trkpt lat="36.96559875535994" lon="15.101474188989886"><ele>503.0</ele><time>2026-03-28T17:34:20.999Z</time></trkpt><trkpt lat="36.96551854988915" lon="15.101573451624205"><ele>503.0</ele><time>2026-03-28T17:34:21.999Z</time></trkpt><trkpt lat="36.96543182238229" lon="15.101687123325082"><ele>503.0</ele><time>2026-03-28T17:34:22.999Z</time></trkpt><trkpt lat="36.96534689778939" lon="15.101799033633396"><ele>503.25</ele><time>2026-03-28T17:34:23.999Z</time></trkpt><trkpt lat="36.96526685622341" lon="15.10189881774426"><ele>503.5</ele><time>2026-03-28T17:34:24.999Z</time></trkpt><trkpt lat="36.96518202002293" lon="15.10200138897687"><ele>503.75</ele><time>2026-03-28T17:34:25.999Z</time></trkpt><trkpt lat="36.96510529042597" lon="15.10210053220256"><ele>504.0</ele><time>2026-03-28T17:34:26.999Z</time></trkpt><trkpt lat="36.965005135336206" lon="15.10216706409116"><ele>502.4</ele><time>2026-03-28T17:34:27.999Z</time></trkpt><trkpt lat="36.964930083536" lon="15.1022708921578"><ele>500.79999999999995</ele><time>2026-03-28T17:34:28.999Z</time></trkpt><trkpt lat="36.96486122538452" lon="15.102375935248745"><ele>499.20000000000005</ele><time>2026-03-28T17:34:29.999Z</time></trkpt><trkpt lat="36.964805757219644" lon="15.10247257094302"><ele>497.6</ele><time>2026-03-28T17:34:30.999Z</time></trkpt><trkpt lat="36.96474596213797" lon="15.10258209945578"><ele>496.0</ele><time>2026-03-28T17:34:31.999Z</time></trkpt><trkpt lat="36.96469022434443" lon="15.102684502290636"><ele>495.8</ele><time>2026-03-28T17:34:32.999Z</time></trkpt><trkpt lat="36.9646363648327" lon="15.102784549497278"><ele>495.6</ele><time>2026-03-28T17:34:33.999Z</time></trkpt><trkpt lat="36.96458607035164" lon="15.102879527700614"><ele>495.4</ele><time>2026-03-28T17:34:34.999Z</time></trkpt><trkpt lat="36.96454197058883" lon="15.102991454760442"><ele>495.2</ele><time>2026-03-28T17:34:35.999Z</time></trkpt><trkpt lat="36.96451663749484" lon="15.103094809631756"><ele>495.0</ele><time>2026-03-28T17:34:36.999Z</time></trkpt><trkpt lat="36.96451258677657" lon="15.103196506620824"><ele>494.71428571428567</ele><time>2026-03-28T17:34:37.999Z</time></trkpt><trkpt lat="36.964506359210745" lon="15.103277437581266"><ele>494.42857142857144</ele><time>2026-03-28T17:34:38.999Z</time></trkpt><trkpt lat="36.96449912484477" lon="15.103364670202286"><ele>494.1428571428571</ele><time>2026-03-28T17:34:39.999Z</time></trkpt><trkpt lat="36.964492607228074" lon="15.103443260095977"><ele>493.85714285714283</ele><time>2026-03-28T17:34:40.999Z</time></trkpt><trkpt lat="36.96448554460194" lon="15.103528421917447"><ele>493.57142857142856</ele><time>2026-03-28T17:34:41.999Z</time></trkpt><trkpt lat="36.964478532611885" lon="15.10361297277034"><ele>493.2857142857143</ele><time>2026-03-28T17:34:42.999Z</time></trkpt><trkpt lat="36.96447042217926" lon="15.103710769129334"><ele>493.0</ele><time>2026-03-28T17:34:43.999Z</time></trkpt><trkpt lat="36.96445980887046" lon="15.103821324866727"><ele>493.00000000000006</ele><time>2026-03-28T17:34:44.999Z</time></trkpt><trkpt lat="36.96444654847014" lon="15.103933561461806"><ele>493.0</ele><time>2026-03-28T17:34:45.999Z</time></trkpt><trkpt lat="36.96443004358371" lon="15.104041928994867"><ele>493.0</ele><time>2026-03-28T17:34:46.999Z</time></trkpt><trkpt lat="36.96441119847181" lon="15.104149363239596"><ele>493.0</ele><time>2026-03-28T17:34:47.999Z</time></trkpt><trkpt lat="36.96439315741177" lon="15.10424012194565"><ele>493.00000000000006</ele><time>2026-03-28T17:34:48.999Z</time></trkpt><trkpt lat="36.96436790494705" lon="15.104328631941554"><ele>493.0</ele><time>2026-03-28T17:34:49.999Z</time></trkpt><trkpt lat="36.964349188195996" lon="15.104419677790737"><ele>492.71428571428567</ele><time>2026-03-28T17:34:51.001Z</time></trkpt><trkpt lat="36.96434185757085" lon="15.104500079048881"><ele>492.42857142857144</ele><time>2026-03-28T17:34:52.001Z</time></trkpt><trkpt lat="36.96434677111419" lon="15.104596304072933"><ele>492.1428571428571</ele><time>2026-03-28T17:34:53.001Z</time></trkpt><trkpt lat="36.96435356815658" lon="15.104691526848448"><ele>491.85714285714283</ele><time>2026-03-28T17:34:54.001Z</time></trkpt><trkpt lat="36.96436227021799" lon="15.1047771800845"><ele>491.57142857142856</ele><time>2026-03-28T17:34:55.001Z</time></trkpt><trkpt lat="36.96437000104788" lon="15.104859978674545"><ele>491.2857142857143</ele><time>2026-03-28T17:34:56.001Z</time></trkpt><trkpt lat="36.96437527046789" lon="15.104941970672863"><ele>491.0</ele><time>2026-03-28T17:34:57.001Z</time></trkpt><trkpt lat="36.96437962856843" lon="15.105031747095394"><ele>490.8333333333333</ele><time>2026-03-28T17:34:58.001Z</time></trkpt><trkpt lat="36.96438243901479" lon="15.10512618548395"><ele>490.66666666666663</ele><time>2026-03-28T17:34:59Z</time></trkpt><trkpt lat="36.96438173294756" lon="15.10521637262031"><ele>490.5</ele><time>2026-03-28T17:35:00Z</time></trkpt><trkpt lat="36.96437732904417" lon="15.105295356774253"><ele>490.33333333333337</ele><time>2026-03-28T17:35:01Z</time></trkpt><trkpt lat="36.96436060467421" lon="15.105432049424216"><ele>490.1666666666667</ele><time>2026-03-28T17:35:03Z</time></trkpt><trkpt lat="36.96433683730702" lon="15.105552783807584"><ele>490.0</ele><time>2026-03-28T17:35:05Z</time></trkpt><trkpt lat="36.96430817402563" lon="15.10568416913921"><ele>489.50000000000006</ele><time>2026-03-28T17:35:07Z</time></trkpt><trkpt lat="36.96427473685606" lon="15.105824736590552"><ele>489.0</ele><time>2026-03-28T17:35:09Z</time></trkpt><trkpt lat="36.9642513404186" lon="15.105919364661686"><ele>488.5</ele><time>2026-03-28T17:35:10Z</time></trkpt><trkpt lat="36.96422873954642" lon="15.106010775071365"><ele>488.0</ele><time>2026-03-28T17:35:11Z</time></trkpt><trkpt lat="36.964207975081464" lon="15.10609475834778"><ele>487.50000000000006</ele><time>2026-03-28T17:35:12Z</time></trkpt><trkpt lat="36.96418810344013" lon="15.106175130328145"><ele>487.0</ele><time>2026-03-28T17:35:13Z</time></trkpt><trkpt lat="36.96416287709009" lon="15.106272631855896"><ele>484.75</ele><time>2026-03-28T17:35:14Z</time></trkpt><trkpt lat="36.964135033362595" lon="15.106379046822866"><ele>482.5</ele><time>2026-03-28T17:35:15Z</time></trkpt><trkpt lat="36.96410325738501" lon="15.106500490427264"><ele>480.25</ele><time>2026-03-28T17:35:16Z</time></trkpt><trkpt lat="36.96406380522877" lon="15.106642183822553"><ele>478.0</ele><time>2026-03-28T17:35:17Z</time></trkpt><trkpt lat="36.964011443903026" lon="15.106815631683356"><ele>477.6666666666667</ele><time>2026-03-28T17:35:18Z</time></trkpt><trkpt lat="36.963948284049486" lon="15.107010034822588"><ele>477.33333333333337</ele><time>2026-03-28T17:35:19Z</time></trkpt><trkpt lat="36.96388370106842" lon="15.107194233106924"><ele>477.0</ele><time>2026-03-28T17:35:20Z</time></trkpt><trkpt lat="36.963829428775895" lon="15.107351244435106"><ele>476.66666666666663</ele><time>2026-03-28T17:35:21Z</time></trkpt><trkpt lat="36.96378375896666" lon="15.1075078735421"><ele>476.3333333333333</ele><time>2026-03-28T17:35:22Z</time></trkpt><trkpt lat="36.96375546559356" lon="15.107692978916349"><ele>476.0</ele><time>2026-03-28T17:35:23Z</time></trkpt><trkpt lat="36.96368495506264" lon="15.107923589970781"><ele>476.0</ele><time>2026-03-28T17:35:24Z</time></trkpt><trkpt lat="36.96363364058013" lon="15.108160109143284"><ele>476.0</ele><time>2026-03-28T17:35:25Z</time></trkpt><trkpt lat="36.963591628224215" lon="15.108375690370206"><ele>476.0</ele><time>2026-03-28T17:35:26Z</time></trkpt><trkpt lat="36.9635504655269" lon="15.108566448107762"><ele>476.5</ele><time>2026-03-28T17:35:27Z</time></trkpt><trkpt lat="36.96351040259005" lon="15.108734033126229"><ele>477.0</ele><time>2026-03-28T17:35:28Z</time></trkpt><trkpt lat="36.963466951666604" lon="15.108883545790984"><ele>477.5</ele><time>2026-03-28T17:35:29Z</time></trkpt><trkpt lat="36.963412149004164" lon="15.109029829771771"><ele>478.0</ele><time>2026-03-28T17:35:30Z</time></trkpt><trkpt lat="36.96335704568356" lon="15.109156811529486"><ele>476.79999999999995</ele><time>2026-03-28T17:35:31Z</time></trkpt><trkpt lat="36.96331266124589" lon="15.109274085838907"><ele>475.59999999999997</ele><time>2026-03-28T17:35:32Z</time></trkpt><trkpt lat="36.96327755213013" lon="15.10938784082358"><ele>474.40000000000003</ele><time>2026-03-28T17:35:33Z</time></trkpt><trkpt lat="36.96325997179499" lon="15.109503844418631"><ele>473.20000000000005</ele><time>2026-03-28T17:35:34Z</time></trkpt><trkpt lat="36.96326613110419" lon="15.109604162794646"><ele>472.0</ele><time>2026-03-28T17:35:35Z</time></trkpt><trkpt lat="36.96329440033532" lon="15.109721212559318"><ele>472.0</ele><time>2026-03-28T17:35:36Z</time></trkpt><trkpt lat="36.96329147789548" lon="15.109881215785741"><ele>472.0</ele><time>2026-03-28T17:35:37Z</time></trkpt><trkpt lat="36.96332142192174" lon="15.110059731837467"><ele>472.0</ele><time>2026-03-28T17:35:38Z</time></trkpt><trkpt lat="36.96332912546419" lon="15.110236910571786"><ele>472.0</ele><time>2026-03-28T17:35:39Z</time></trkpt><trkpt lat="36.963359478455686" lon="15.110439135905617"><ele>470.0</ele><time>2026-03-28T17:35:40Z</time></trkpt><trkpt lat="36.96340633175387" lon="15.110644165795426"><ele>468.0</ele><time>2026-03-28T17:35:41Z</time></trkpt><trkpt lat="36.96344210811551" lon="15.110824161027791"><ele>466.0</ele><time>2026-03-28T17:35:42Z</time></trkpt><trkpt lat="36.96346678191137" lon="15.11095449966505"><ele>464.0</ele><time>2026-03-28T17:35:43Z</time></trkpt><trkpt lat="36.963482132210025" lon="15.111065167098317"><ele>457.75</ele><time>2026-03-28T17:35:44Z</time></trkpt><trkpt lat="36.96350447406009" lon="15.111177622899698"><ele>451.5</ele><time>2026-03-28T17:35:45Z</time></trkpt><trkpt lat="36.963533338451626" lon="15.111317160858954"><ele>445.25</ele><time>2026-03-28T17:35:46Z</time></trkpt><trkpt lat="36.96354781871903" lon="15.111469546139997"><ele>439.0</ele><time>2026-03-28T17:35:47Z</time></trkpt><trkpt lat="36.96354542298834" lon="15.111630724772658"><ele>429.5</ele><time>2026-03-28T17:35:48Z</time></trkpt><trkpt lat="36.96352758604093" lon="15.11179272854958"><ele>420.0</ele><time>2026-03-28T17:35:49Z</time></trkpt><trkpt lat="36.96349429923124" lon="15.111976129528964"><ele>410.5</ele><time>2026-03-28T17:35:50Z</time></trkpt><trkpt lat="36.96344773379678" lon="15.112174017761992"><ele>401.0</ele><time>2026-03-28T17:35:51Z</time></trkpt><trkpt lat="36.96338858587314" lon="15.112360939913039"><ele>422.0</ele><time>2026-03-28T17:35:52Z</time></trkpt><trkpt lat="36.963328881347536" lon="15.11254366718911"><ele>443.0</ele><time>2026-03-28T17:35:53Z</time></trkpt><trkpt lat="36.96327136355723" lon="15.112722273435251"><ele>464.0</ele><time>2026-03-28T17:35:54Z</time></trkpt><trkpt lat="36.96321184869114" lon="15.112925031198465"><ele>464.0</ele><time>2026-03-28T17:35:55Z</time></trkpt><trkpt lat="36.96316335009754" lon="15.113150442421736"><ele>464.0</ele><time>2026-03-28T17:35:56Z</time></trkpt><trkpt lat="36.96311142047606" lon="15.113380549385717"><ele>464.0</ele><time>2026-03-28T17:35:57Z</time></trkpt><trkpt lat="36.96305766508216" lon="15.113601280040147"><ele>455.0</ele><time>2026-03-28T17:35:58Z</time></trkpt><trkpt lat="36.96300975340012" lon="15.11381172588541"><ele>446.0</ele><time>2026-03-28T17:35:59Z</time></trkpt><trkpt lat="36.96296116365261" lon="15.114023990168368"><ele>437.0</ele><time>2026-03-28T17:36:00Z</time></trkpt><trkpt lat="36.96290976308029" lon="15.11423172738967"><ele>427.75</ele><time>2026-03-28T17:36:01Z</time></trkpt><trkpt lat="36.96285564861325" lon="15.114418342418924"><ele>418.5</ele><time>2026-03-28T17:36:02Z</time></trkpt><trkpt lat="36.96280376359988" lon="15.114574066711342"><ele>409.25</ele><time>2026-03-28T17:36:03Z</time></trkpt><trkpt lat="36.962749659928534" lon="15.114707398947859"><ele>400.0</ele><time>2026-03-28T17:36:04Z</time></trkpt><trkpt lat="36.96267026303252" lon="15.11484327517592"><ele>391.25</ele><time>2026-03-28T17:36:05Z</time></trkpt><trkpt lat="36.96263270895975" lon="15.114982761767251"><ele>382.5</ele><time>2026-03-28T17:36:06Z</time></trkpt><trkpt lat="36.96259083595797" lon="15.115138290075272"><ele>373.75</ele><time>2026-03-28T17:36:06.999Z</time></trkpt><trkpt lat="36.962545856638286" lon="15.115308912627537"><ele>365.0</ele><time>2026-03-28T17:36:07.999Z</time></trkpt><trkpt lat="36.962500791388116" lon="15.115482907084555"><ele>386.0</ele><time>2026-03-28T17:36:08.999Z</time></trkpt><trkpt lat="36.96245654906599" lon="15.115666792998034"><ele>407.0</ele><time>2026-03-28T17:36:09.999Z</time></trkpt><trkpt lat="36.96242422759691" lon="15.115830222991592"><ele>428.0</ele><time>2026-03-28T17:36:10.999Z</time></trkpt><trkpt lat="36.9624185119051" lon="15.11599410642496"><ele>449.0</ele><time>2026-03-28T17:36:11.999Z</time></trkpt><trkpt lat="36.96238804449793" lon="15.116150389519026"><ele>449.0</ele><time>2026-03-28T17:36:12.999Z</time></trkpt><trkpt lat="36.962378412448516" lon="15.116316484600423"><ele>449.0</ele><time>2026-03-28T17:36:13.999Z</time></trkpt><trkpt lat="36.96239578961274" lon="15.116488003143525"><ele>449.0</ele><time>2026-03-28T17:36:14.999Z</time></trkpt><trkpt lat="36.962410656463135" lon="15.116677256510174"><ele>449.0</ele><time>2026-03-28T17:36:15.999Z</time></trkpt><trkpt lat="36.96244195213234" lon="15.116902865721164"><ele>448.0</ele><time>2026-03-28T17:36:16.999Z</time></trkpt><trkpt lat="36.96248050076368" lon="15.117137876040058"><ele>447.0</ele><time>2026-03-28T17:36:17.999Z</time></trkpt><trkpt lat="36.96248338520137" lon="15.117336428160721"><ele>446.0</ele><time>2026-03-28T17:36:18.999Z</time></trkpt><trkpt lat="36.96248937576943" lon="15.117503616276665"><ele>446.0</ele><time>2026-03-28T17:36:19.999Z</time></trkpt><trkpt lat="36.962489060810945" lon="15.117674135478856"><ele>446.0</ele><time>2026-03-28T17:36:20.999Z</time></trkpt><trkpt lat="36.96251121948949" lon="15.117877892092968"><ele>446.0</ele><time>2026-03-28T17:36:21.999Z</time></trkpt><trkpt lat="36.962499897246474" lon="15.118094050631909"><ele>447.3333333333333</ele><time>2026-03-28T17:36:22.999Z</time></trkpt><trkpt lat="36.962475014870066" lon="15.11829999835469"><ele>448.66666666666663</ele><time>2026-03-28T17:36:23.999Z</time></trkpt><trkpt lat="36.962449637067714" lon="15.118505249378645"><ele>450.0</ele><time>2026-03-28T17:36:24.999Z</time></trkpt><trkpt lat="36.96242852544803" lon="15.118689004660968"><ele>450.0</ele><time>2026-03-28T17:36:25.999Z</time></trkpt><trkpt lat="36.962409609851406" lon="15.118835903342006"><ele>450.0</ele><time>2026-03-28T17:36:26.999Z</time></trkpt><trkpt lat="36.962399957164635" lon="15.118946400033431"><ele>450.0</ele><time>2026-03-28T17:36:27.999Z</time></trkpt><trkpt lat="36.962409682932915" lon="15.119044360103812"><ele>450.0</ele><time>2026-03-28T17:36:28.999Z</time></trkpt><trkpt lat="36.96244364108559" lon="15.119141666767703"><ele>450.0</ele><time>2026-03-28T17:36:29.999Z</time></trkpt><trkpt lat="36.96250648720364" lon="15.11925076911717"><ele>446.0</ele><time>2026-03-28T17:36:30.999Z</time></trkpt><trkpt lat="36.96258235450651" lon="15.11935867121554"><ele>442.0</ele><time>2026-03-28T17:36:31.999Z</time></trkpt><trkpt lat="36.962659864584836" lon="15.119471565055031"><ele>438.0</ele><time>2026-03-28T17:36:32.999Z</time></trkpt><trkpt lat="36.96276772062875" lon="15.119610841626988"><ele>434.0</ele><time>2026-03-28T17:36:33.999Z</time></trkpt><trkpt lat="36.96289281633997" lon="15.119786173365824"><ele>434.75</ele><time>2026-03-28T17:36:34.999Z</time></trkpt><trkpt lat="36.96299747955721" lon="15.119929121703002"><ele>435.5</ele><time>2026-03-28T17:36:35.999Z</time></trkpt><trkpt lat="36.963067401866724" lon="15.120057486609841"><ele>436.25</ele><time>2026-03-28T17:36:36.999Z</time></trkpt><trkpt lat="36.963113098113034" lon="15.120196405089747"><ele>437.0</ele><time>2026-03-28T17:36:37.999Z</time></trkpt><trkpt lat="36.96314057683427" lon="15.12035483811972"><ele>437.0</ele><time>2026-03-28T17:36:38.999Z</time></trkpt><trkpt lat="36.96315824052765" lon="15.120504810443595"><ele>437.0</ele><time>2026-03-28T17:36:39.999Z</time></trkpt><trkpt lat="36.96317687972307" lon="15.120648577154002"><ele>437.0</ele><time>2026-03-28T17:36:40.999Z</time></trkpt><trkpt lat="36.96320849017333" lon="15.12081494294691"><ele>437.0</ele><time>2026-03-28T17:36:41.999Z</time></trkpt><trkpt lat="36.96323976862298" lon="15.121001071998021"><ele>438.49999999999994</ele><time>2026-03-28T17:36:42.999Z</time></trkpt><trkpt lat="36.963267436526614" lon="15.121159942559775"><ele>440.0</ele><time>2026-03-28T17:36:43.999Z</time></trkpt><trkpt lat="36.96329045646063" lon="15.121274683720927"><ele>441.5</ele><time>2026-03-28T17:36:44.999Z</time></trkpt><trkpt lat="36.96330984343068" lon="15.121357791637813"><ele>443.0</ele><time>2026-03-28T17:36:45.999Z</time></trkpt><trkpt lat="36.963323110760264" lon="15.121435205040534"><ele>444.49999999999994</ele><time>2026-03-28T17:36:46.999Z</time></trkpt><trkpt lat="36.96333206481846" lon="15.121531597926738"><ele>446.0</ele><time>2026-03-28T17:36:47.999Z</time></trkpt><trkpt lat="36.963333484432965" lon="15.121645026609244"><ele>446.0</ele><time>2026-03-28T17:36:48.999Z</time></trkpt><trkpt lat="36.96331200935562" lon="15.121818511345602"><ele>446.0</ele><time>2026-03-28T17:36:49.999Z</time></trkpt><trkpt lat="36.9632749261385" lon="15.12203049113536"><ele>446.0</ele><time>2026-03-28T17:36:50.999Z</time></trkpt><trkpt lat="36.96324152320803" lon="15.122268933888517"><ele>441.0</ele><time>2026-03-28T17:36:51.999Z</time></trkpt><trkpt lat="36.96320171761368" lon="15.122503883272293"><ele>436.0</ele><time>2026-03-28T17:36:52.999Z</time></trkpt><trkpt lat="36.96316369398672" lon="15.122671841842873"><ele>431.0</ele><time>2026-03-28T17:36:53.999Z</time></trkpt><trkpt lat="36.96312126259261" lon="15.122800364485355"><ele>426.0</ele><time>2026-03-28T17:36:54.999Z</time></trkpt><trkpt lat="36.96306485660364" lon="15.122891726293807"><ele>426.0</ele><time>2026-03-28T17:36:55.999Z</time></trkpt><trkpt lat="36.96298911368769" lon="15.122972493253343"><ele>426.0</ele><time>2026-03-28T17:36:57.001Z</time></trkpt><trkpt lat="36.96288176831214" lon="15.123073116844202"><ele>426.0</ele><time>2026-03-28T17:36:58.001Z</time></trkpt><trkpt lat="36.96277182208725" lon="15.123177910301688"><ele>426.0</ele><time>2026-03-28T17:36:59.001Z</time></trkpt><trkpt lat="36.96267020318397" lon="15.123269121151177"><ele>432.25</ele><time>2026-03-28T17:37:00.001Z</time></trkpt><trkpt lat="36.96257785727088" lon="15.123373846772855"><ele>438.5</ele><time>2026-03-28T17:37:01.001Z</time></trkpt><trkpt lat="36.96249924960723" lon="15.123500234305533"><ele>444.75</ele><time>2026-03-28T17:37:02.001Z</time></trkpt><trkpt lat="36.962427448507455" lon="15.123673335347817"><ele>451.0</ele><time>2026-03-28T17:37:03.001Z</time></trkpt><trkpt lat="36.962355740070095" lon="15.123899002001105"><ele>446.33333333333337</ele><time>2026-03-28T17:37:04.001Z</time></trkpt><trkpt lat="36.96229033726444" lon="15.124118013236115"><ele>441.66666666666663</ele><time>2026-03-28T17:37:05.001Z</time></trkpt><trkpt lat="36.96223319780161" lon="15.124325274051369"><ele>437.0</ele><time>2026-03-28T17:37:06.001Z</time></trkpt><trkpt lat="36.96218592308314" lon="15.124508849329265"><ele>437.0</ele><time>2026-03-28T17:37:07.001Z</time></trkpt><trkpt lat="36.96214158183263" lon="15.124683705126824"><ele>437.0</ele><time>2026-03-28T17:37:08.001Z</time></trkpt><trkpt lat="36.96208144026949" lon="15.124850418141502"><ele>437.0</ele><time>2026-03-28T17:37:09.001Z</time></trkpt><trkpt lat="36.96200636736103" lon="15.125021704386292"><ele>437.0</ele><time>2026-03-28T17:37:10.001Z</time></trkpt><trkpt lat="36.961932262497726" lon="15.125185547868954"><ele>438.75</ele><time>2026-03-28T17:37:11.001Z</time></trkpt><trkpt lat="36.9618296009503" lon="15.12532882875204"><ele>440.5</ele><time>2026-03-28T17:37:12.001Z</time></trkpt><trkpt lat="36.96176240818453" lon="15.125477239046596"><ele>442.25</ele><time>2026-03-28T17:37:13Z</time></trkpt><trkpt lat="36.96170047707351" lon="15.125612788775014"><ele>444.0</ele><time>2026-03-28T17:37:14Z</time></trkpt><trkpt lat="36.96164498681184" lon="15.125733651389016"><ele>444.0</ele><time>2026-03-28T17:37:15Z</time></trkpt><trkpt lat="36.96160054778689" lon="15.125827322708416"><ele>444.0</ele><time>2026-03-28T17:37:16Z</time></trkpt><trkpt lat="36.961557575214854" lon="15.125906988746229"><ele>444.0</ele><time>2026-03-28T17:37:17Z</time></trkpt><trkpt lat="36.961515799141765" lon="15.125978650815624"><ele>444.0</ele><time>2026-03-28T17:37:18Z</time></trkpt><trkpt lat="36.961470988600006" lon="15.126053894434111"><ele>444.0</ele><time>2026-03-28T17:37:19Z</time></trkpt><trkpt lat="36.96141001862026" lon="15.126156272196363"><ele>444.0</ele><time>2026-03-28T17:37:20Z</time></trkpt><trkpt lat="36.961327528891665" lon="15.126296349240041"><ele>444.0</ele><time>2026-03-28T17:37:21Z</time></trkpt><trkpt lat="36.96126325463515" lon="15.126464329409883"><ele>444.0</ele><time>2026-03-28T17:37:22Z</time></trkpt><trkpt lat="36.96120326715248" lon="15.126618976193532"><ele>444.0</ele><time>2026-03-28T17:37:23Z</time></trkpt><trkpt lat="36.96116167735751" lon="15.126787954373741"><ele>444.0</ele><time>2026-03-28T17:37:24Z</time></trkpt><trkpt lat="36.961111468870605" lon="15.126940022650428"><ele>438.5</ele><time>2026-03-28T17:37:25Z</time></trkpt><trkpt lat="36.961059037650784" lon="15.127076155910785"><ele>433.0</ele><time>2026-03-28T17:37:26Z</time></trkpt><trkpt lat="36.960995972080404" lon="15.127201879831574"><ele>427.5</ele><time>2026-03-28T17:37:27Z</time></trkpt><trkpt lat="36.960951060178395" lon="15.127351738851067"><ele>422.0</ele><time>2026-03-28T17:37:28Z</time></trkpt><trkpt lat="36.96091883918709" lon="15.127536494460184"><ele>428.5</ele><time>2026-03-28T17:37:29Z</time></trkpt><trkpt lat="36.96089741854523" lon="15.127721724153599"><ele>435.0</ele><time>2026-03-28T17:37:30Z</time></trkpt><trkpt lat="36.960897671940984" lon="15.127877452286564"><ele>441.5</ele><time>2026-03-28T17:37:31Z</time></trkpt><trkpt lat="36.9608648738421" lon="15.128007062265139"><ele>448.0</ele><time>2026-03-28T17:37:32Z</time></trkpt><trkpt lat="36.960818308011184" lon="15.128138348398041"><ele>446.5</ele><time>2026-03-28T17:37:33Z</time></trkpt><trkpt lat="36.96073309866826" lon="15.12826074630287"><ele>445.0</ele><time>2026-03-28T17:37:34Z</time></trkpt><trkpt lat="36.96067631102744" lon="15.128398872002691"><ele>443.5</ele><time>2026-03-28T17:37:35Z</time></trkpt><trkpt lat="36.960628764428925" lon="15.12852220611834"><ele>442.0</ele><time>2026-03-28T17:37:36Z</time></trkpt><trkpt lat="36.96058721026244" lon="15.12863960930401"><ele>442.0</ele><time>2026-03-28T17:37:37Z</time></trkpt><trkpt lat="36.96058927388461" lon="15.128777647464666"><ele>442.00000000000006</ele><time>2026-03-28T17:37:38Z</time></trkpt><trkpt lat="36.9605520550955" lon="15.128894458999676"><ele>442.00000000000006</ele><time>2026-03-28T17:37:39Z</time></trkpt><trkpt lat="36.96052111904308" lon="15.12900908798119"><ele>442.0</ele><time>2026-03-28T17:37:40Z</time></trkpt><trkpt lat="36.96048155692348" lon="15.129128209619768"><ele>442.0</ele><time>2026-03-28T17:37:41Z</time></trkpt><trkpt lat="36.96043167551707" lon="15.129290036692712"><ele>436.0</ele><time>2026-03-28T17:37:42Z</time></trkpt><trkpt lat="36.960363498574374" lon="15.12947107011827"><ele>430.0</ele><time>2026-03-28T17:37:43Z</time></trkpt><trkpt lat="36.96029275674831" lon="15.129658938172476"><ele>424.0</ele><time>2026-03-28T17:37:44Z</time></trkpt><trkpt lat="36.96022053675737" lon="15.129845823574735"><ele>428.33333333333337</ele><time>2026-03-28T17:37:45Z</time></trkpt><trkpt lat="36.96015213999737" lon="15.13001743498269"><ele>432.66666666666663</ele><time>2026-03-28T17:37:46Z</time></trkpt><trkpt lat="36.96008789748233" lon="15.130187716848615"><ele>437.0</ele><time>2026-03-28T17:37:47Z</time></trkpt><trkpt lat="36.96002038350667" lon="15.130365503892834"><ele>437.0</ele><time>2026-03-28T17:37:48Z</time></trkpt><trkpt lat="36.95994518784406" lon="15.130552663866732"><ele>437.0</ele><time>2026-03-28T17:37:49Z</time></trkpt><trkpt lat="36.95987680858442" lon="15.130748238866644"><ele>437.0</ele><time>2026-03-28T17:37:50Z</time></trkpt><trkpt lat="36.959810085683216" lon="15.130979625096746"><ele>438.0</ele><time>2026-03-28T17:37:51Z</time></trkpt><trkpt lat="36.95976123442632" lon="15.131205941991126"><ele>439.0</ele><time>2026-03-28T17:37:52Z</time></trkpt><trkpt lat="36.95972750452456" lon="15.131414475905796"><ele>440.0</ele><time>2026-03-28T17:37:53Z</time></trkpt><trkpt lat="36.95970610625449" lon="15.131624383017572"><ele>440.3333333333333</ele><time>2026-03-28T17:37:54Z</time></trkpt><trkpt lat="36.95970968004093" lon="15.131852857448155"><ele>440.66666666666663</ele><time>2026-03-28T17:37:55Z</time></trkpt><trkpt lat="36.95972117119642" lon="15.13209037307674"><ele>441.0</ele><time>2026-03-28T17:37:56Z</time></trkpt><trkpt lat="36.95972121077262" lon="15.132332958935164"><ele>437.66666666666663</ele><time>2026-03-28T17:37:57Z</time></trkpt><trkpt lat="36.959708938940594" lon="15.132577964172063"><ele>434.3333333333333</ele><time>2026-03-28T17:37:58Z</time></trkpt><trkpt lat="36.959681925478556" lon="15.132790040827128"><ele>431.0</ele><time>2026-03-28T17:37:59Z</time></trkpt><trkpt lat="36.95963029340831" lon="15.132964700822022"><ele>431.0</ele><time>2026-03-28T17:38:00Z</time></trkpt><trkpt lat="36.95955038987443" lon="15.133142849245608"><ele>431.0</ele><time>2026-03-28T17:38:01Z</time></trkpt><trkpt lat="36.95946038079117" lon="15.133345005970517"><ele>431.0</ele><time>2026-03-28T17:38:02Z</time></trkpt><trkpt lat="36.95938953574225" lon="15.133566211435019"><ele>422.66666666666663</ele><time>2026-03-28T17:38:03Z</time></trkpt><trkpt lat="36.95933931702931" lon="15.133773576825147"><ele>414.33333333333337</ele><time>2026-03-28T17:38:04Z</time></trkpt><trkpt lat="36.95928080940967" lon="15.133963442239144"><ele>406.0</ele><time>2026-03-28T17:38:05Z</time></trkpt><trkpt lat="36.95921497965627" lon="15.13414336221662"><ele>410.75</ele><time>2026-03-28T17:38:06Z</time></trkpt><trkpt lat="36.95915550383665" lon="15.134303566493145"><ele>415.5</ele><time>2026-03-28T17:38:07Z</time></trkpt><trkpt lat="36.95912936573039" lon="15.134436081335867"><ele>420.25</ele><time>2026-03-28T17:38:08Z</time></trkpt><trkpt lat="36.95914039748176" lon="15.13458217536114"><ele>425.0</ele><time>2026-03-28T17:38:09Z</time></trkpt><trkpt lat="36.95918872225484" lon="15.134751216873969"><ele>404.5</ele><time>2026-03-28T17:38:10Z</time></trkpt><trkpt lat="36.95920307813758" lon="15.134940614356822"><ele>384.0</ele><time>2026-03-28T17:38:10.999Z</time></trkpt><trkpt lat="36.959215637417444" lon="15.135121898893765"><ele>363.5</ele><time>2026-03-28T17:38:11.999Z</time></trkpt><trkpt lat="36.95921455164804" lon="15.135306815270964"><ele>343.0</ele><time>2026-03-28T17:38:12.999Z</time></trkpt><trkpt lat="36.959203271414516" lon="15.135472806781957"><ele>366.3333333333333</ele><time>2026-03-28T17:38:13.999Z</time></trkpt><trkpt lat="36.95916340998867" lon="15.1356301085888"><ele>389.66666666666663</ele><time>2026-03-28T17:38:14.999Z</time></trkpt><trkpt lat="36.959076779315005" lon="15.135794266113594"><ele>413.0</ele><time>2026-03-28T17:38:15.999Z</time></trkpt><trkpt lat="36.95898657364395" lon="15.136010984700581"><ele>413.0</ele><time>2026-03-28T17:38:16.999Z</time></trkpt><trkpt lat="36.95889533841249" lon="15.136243115036525"><ele>413.0</ele><time>2026-03-28T17:38:17.999Z</time></trkpt><trkpt lat="36.958798938941996" lon="15.136491217335546"><ele>413.0</ele><time>2026-03-28T17:38:18.999Z</time></trkpt><trkpt lat="36.9587108588151" lon="15.13671790820037"><ele>410.66666666666663</ele><time>2026-03-28T17:38:19.999Z</time></trkpt><trkpt lat="36.958629440362536" lon="15.136928226871056"><ele>408.33333333333337</ele><time>2026-03-28T17:38:20.999Z</time></trkpt><trkpt lat="36.95854690172528" lon="15.137134531698402"><ele>406.0</ele><time>2026-03-28T17:38:21.999Z</time></trkpt><trkpt lat="36.958465667300025" lon="15.137337576448477"><ele>405.0</ele><time>2026-03-28T17:38:22.999Z</time></trkpt><trkpt lat="36.95838445375855" lon="15.137540569071858"><ele>404.0</ele><time>2026-03-28T17:38:23.999Z</time></trkpt><trkpt lat="36.95832919573915" lon="15.137743327880866"><ele>403.0</ele><time>2026-03-28T17:38:24.999Z</time></trkpt><trkpt lat="36.958255092050514" lon="15.137934047273752"><ele>402.5</ele><time>2026-03-28T17:38:25.999Z</time></trkpt><trkpt lat="36.95816733338006" lon="15.13808259175413"><ele>402.0</ele><time>2026-03-28T17:38:26.999Z</time></trkpt><trkpt lat="36.95811146800461" lon="15.138221797532127"><ele>401.5</ele><time>2026-03-28T17:38:27.999Z</time></trkpt><trkpt lat="36.958061806867825" lon="15.138382992671234"><ele>401.0</ele><time>2026-03-28T17:38:28.999Z</time></trkpt><trkpt lat="36.957984734678966" lon="15.138537592628944"><ele>400.0</ele><time>2026-03-28T17:38:29.999Z</time></trkpt><trkpt lat="36.95793972629489" lon="15.13864974464233"><ele>399.0</ele><time>2026-03-28T17:38:30.999Z</time></trkpt><trkpt lat="36.957915683338264" lon="15.138745942441524"><ele>398.0</ele><time>2026-03-28T17:38:31.999Z</time></trkpt><trkpt lat="36.957871480482986" lon="15.138844843438847"><ele>397.0</ele><time>2026-03-28T17:38:32.999Z</time></trkpt><trkpt lat="36.957830525336995" lon="15.138959502097832"><ele>396.0</ele><time>2026-03-28T17:38:33.999Z</time></trkpt><trkpt lat="36.95776657427005" lon="15.139089266262378"><ele>395.0</ele><time>2026-03-28T17:38:34.999Z</time></trkpt><trkpt lat="36.957718040258335" lon="15.139217556279352"><ele>394.0</ele><time>2026-03-28T17:38:35.999Z</time></trkpt><trkpt lat="36.95769050603079" lon="15.139403633592572"><ele>393.0</ele><time>2026-03-28T17:38:36.999Z</time></trkpt><trkpt lat="36.95761549126878" lon="15.139566257158295"><ele>392.0</ele><time>2026-03-28T17:38:37.999Z</time></trkpt><trkpt lat="36.95754165154031" lon="15.13974079741943"><ele>391.0</ele><time>2026-03-28T17:38:38.999Z</time></trkpt><trkpt lat="36.957464140524834" lon="15.139924886626913"><ele>390.0</ele><time>2026-03-28T17:38:39.999Z</time></trkpt><trkpt lat="36.95737298891202" lon="15.140103243610085"><ele>389.0</ele><time>2026-03-28T17:38:40.999Z</time></trkpt><trkpt lat="36.957267258661766" lon="15.140303047064851"><ele>389.0</ele><time>2026-03-28T17:38:41.999Z</time></trkpt><trkpt lat="36.957165229384664" lon="15.1405166523258"><ele>389.0</ele><time>2026-03-28T17:38:42.999Z</time></trkpt><trkpt lat="36.9570726771999" lon="15.140732456099537"><ele>389.0</ele><time>2026-03-28T17:38:43.999Z</time></trkpt><trkpt lat="36.95699169913018" lon="15.1409451418968"><ele>390.66666666666663</ele><time>2026-03-28T17:38:44.999Z</time></trkpt><trkpt lat="36.9569026648096" lon="15.14115257553533"><ele>392.33333333333337</ele><time>2026-03-28T17:38:45.999Z</time></trkpt><trkpt lat="36.95680225089105" lon="15.1413694646476"><ele>394.0</ele><time>2026-03-28T17:38:46.999Z</time></trkpt><trkpt lat="36.956752666924075" lon="15.14156195765609"><ele>395.5</ele><time>2026-03-28T17:38:47.999Z</time></trkpt><trkpt lat="36.9566806998936" lon="15.141718274752664"><ele>397.0</ele><time>2026-03-28T17:38:48.999Z</time></trkpt><trkpt lat="36.95660540836641" lon="15.141884543422728"><ele>398.5</ele><time>2026-03-28T17:38:49.999Z</time></trkpt><trkpt lat="36.956545120476164" lon="15.142058475412737"><ele>400.0</ele><time>2026-03-28T17:38:50.999Z</time></trkpt><trkpt lat="36.95648714141715" lon="15.142202276680692"><ele>400.0</ele><time>2026-03-28T17:38:51.999Z</time></trkpt><trkpt lat="36.95641739313235" lon="15.142303528973223"><ele>400.0</ele><time>2026-03-28T17:38:52.999Z</time></trkpt><trkpt lat="36.956314766234286" lon="15.142370713540746"><ele>400.0</ele><time>2026-03-28T17:38:53.999Z</time></trkpt><trkpt lat="36.95617433088477" lon="15.14242921128632"><ele>400.0</ele><time>2026-03-28T17:38:54.999Z</time></trkpt><trkpt lat="36.95603971360364" lon="15.142476441506338"><ele>399.5</ele><time>2026-03-28T17:38:55.999Z</time></trkpt><trkpt lat="36.95593519505076" lon="15.14255492207936"><ele>399.0</ele><time>2026-03-28T17:38:56.999Z</time></trkpt><trkpt lat="36.95584518773526" lon="15.14267375572475"><ele>398.5</ele><time>2026-03-28T17:38:57.999Z</time></trkpt><trkpt lat="36.95575596020054" lon="15.142819430284732"><ele>398.0</ele><time>2026-03-28T17:38:58.999Z</time></trkpt><trkpt lat="36.95567767150588" lon="15.142979123231038"><ele>396.0</ele><time>2026-03-28T17:38:59.999Z</time></trkpt><trkpt lat="36.95561993725245" lon="15.143139668402695"><ele>394.0</ele><time>2026-03-28T17:39:00.999Z</time></trkpt><trkpt lat="36.955568265430024" lon="15.143290368195244"><ele>392.0</ele><time>2026-03-28T17:39:01.999Z</time></trkpt><trkpt lat="36.955518858220636" lon="15.143428240460803"><ele>390.0</ele><time>2026-03-28T17:39:03.001Z</time></trkpt><trkpt lat="36.95548236796944" lon="15.143565711559122"><ele>389.25</ele><time>2026-03-28T17:39:04.001Z</time></trkpt><trkpt lat="36.95547570505218" lon="15.143711505084157"><ele>388.5</ele><time>2026-03-28T17:39:05.001Z</time></trkpt><trkpt lat="36.95551123460088" lon="15.143849146873267"><ele>387.75</ele><time>2026-03-28T17:39:06.001Z</time></trkpt><trkpt lat="36.95557132156248" lon="15.143976845513945"><ele>387.0</ele><time>2026-03-28T17:39:07.001Z</time></trkpt><trkpt lat="36.95559768796238" lon="15.14409964463965"><ele>385.5</ele><time>2026-03-28T17:39:08.001Z</time></trkpt><trkpt lat="36.95557995369804" lon="15.144213639645027"><ele>384.0</ele><time>2026-03-28T17:39:09Z</time></trkpt><trkpt lat="36.95553578975319" lon="15.144323084218332"><ele>382.5</ele><time>2026-03-28T17:39:10Z</time></trkpt><trkpt lat="36.95546838040738" lon="15.144459512174066"><ele>381.0</ele><time>2026-03-28T17:39:11Z</time></trkpt><trkpt lat="36.95538265454559" lon="15.144613845140888"><ele>381.0</ele><time>2026-03-28T17:39:12Z</time></trkpt><trkpt lat="36.9553012479218" lon="15.144777263541807"><ele>381.0</ele><time>2026-03-28T17:39:13Z</time></trkpt><trkpt lat="36.95521620953871" lon="15.144911950934825"><ele>381.0</ele><time>2026-03-28T17:39:14Z</time></trkpt><trkpt lat="36.95512202428297" lon="15.14501488870714"><ele>381.0</ele><time>2026-03-28T17:39:15Z</time></trkpt><trkpt lat="36.95501652673024" lon="15.145107532512391"><ele>379.6666666666667</ele><time>2026-03-28T17:39:16Z</time></trkpt><trkpt lat="36.954874537162524" lon="15.14518660751087"><ele>378.33333333333337</ele><time>2026-03-28T17:39:17Z</time></trkpt><trkpt lat="36.95470303552572" lon="15.145270283717954"><ele>377.0</ele><time>2026-03-28T17:39:18Z</time></trkpt><trkpt lat="36.95454413688206" lon="15.145357751040612"><ele>377.0</ele><time>2026-03-28T17:39:19Z</time></trkpt><trkpt lat="36.95440843252441" lon="15.145437119179185"><ele>377.0</ele><time>2026-03-28T17:39:20Z</time></trkpt><trkpt lat="36.95427889647514" lon="15.145502717385432"><ele>377.0</ele><time>2026-03-28T17:39:21Z</time></trkpt><trkpt lat="36.95416073144054" lon="15.145568851846166"><ele>377.0</ele><time>2026-03-28T17:39:22Z</time></trkpt><trkpt lat="36.95406865674172" lon="15.145660423341107"><ele>373.33333333333337</ele><time>2026-03-28T17:39:23Z</time></trkpt><trkpt lat="36.954009961999034" lon="15.145794997404874"><ele>369.6666666666667</ele><time>2026-03-28T17:39:24Z</time></trkpt><trkpt lat="36.953967919721016" lon="15.145989901441565"><ele>366.0</ele><time>2026-03-28T17:39:25Z</time></trkpt><trkpt lat="36.95392622608285" lon="15.146193879294792"><ele>366.0</ele><time>2026-03-28T17:39:26Z</time></trkpt><trkpt lat="36.95388051141099" lon="15.146369234000652"><ele>366.0</ele><time>2026-03-28T17:39:27Z</time></trkpt><trkpt lat="36.95383243944732" lon="15.146529911180613"><ele>366.0</ele><time>2026-03-28T17:39:28Z</time></trkpt><trkpt lat="36.9537701056839" lon="15.146676759473754"><ele>366.0</ele><time>2026-03-28T17:39:29Z</time></trkpt><trkpt lat="36.95369424975845" lon="15.14681489169144"><ele>364.5</ele><time>2026-03-28T17:39:30Z</time></trkpt><trkpt lat="36.95362466937438" lon="15.14695894770548"><ele>363.0</ele><time>2026-03-28T17:39:31Z</time></trkpt><trkpt lat="36.95360093034647" lon="15.147107605247438"><ele>361.5</ele><time>2026-03-28T17:39:32Z</time></trkpt><trkpt lat="36.953628021568456" lon="15.147265199712136"><ele>360.0</ele><time>2026-03-28T17:39:33Z</time></trkpt><trkpt lat="36.953686522306704" lon="15.147423017031734"><ele>359.75</ele><time>2026-03-28T17:39:34Z</time></trkpt><trkpt lat="36.95373003131747" lon="15.147575711447535"><ele>359.5</ele><time>2026-03-28T17:39:35Z</time></trkpt><trkpt lat="36.95374908490924" lon="15.147718051031509"><ele>359.25</ele><time>2026-03-28T17:39:36Z</time></trkpt><trkpt lat="36.95372696395087" lon="15.147852159100248"><ele>359.0</ele><time>2026-03-28T17:39:37Z</time></trkpt><trkpt lat="36.95369462439681" lon="15.147970150523088"><ele>359.0</ele><time>2026-03-28T17:39:38Z</time></trkpt><trkpt lat="36.953605513807666" lon="15.148041911174035"><ele>359.0</ele><time>2026-03-28T17:39:39Z</time></trkpt><trkpt lat="36.95351686074842" lon="15.14815074868937"><ele>359.0</ele><time>2026-03-28T17:39:40Z</time></trkpt><trkpt lat="36.95343531199252" lon="15.148242959846993"><ele>359.0</ele><time>2026-03-28T17:39:41Z</time></trkpt><trkpt lat="36.95337254469554" lon="15.148324265349029"><ele>359.0</ele><time>2026-03-28T17:39:42Z</time></trkpt><trkpt lat="36.953338950493574" lon="15.148415428149208"><ele>359.6</ele><time>2026-03-28T17:39:43Z</time></trkpt><trkpt lat="36.953369598035934" lon="15.148541698137787"><ele>360.2</ele><time>2026-03-28T17:39:44Z</time></trkpt><trkpt lat="36.953456409250904" lon="15.148633348092611"><ele>360.8</ele><time>2026-03-28T17:39:45Z</time></trkpt><trkpt lat="36.953516432311304" lon="15.148712455439778"><ele>361.40000000000003</ele><time>2026-03-28T17:39:46Z</time></trkpt><trkpt lat="36.953508823148596" lon="15.14880741012509"><ele>362.0</ele><time>2026-03-28T17:39:47Z</time></trkpt><trkpt lat="36.95344821505202" lon="15.148850935061331"><ele>358.20000000000005</ele><time>2026-03-28T17:39:48Z</time></trkpt><trkpt lat="36.95330710469688" lon="15.14877143910347"><ele>354.4</ele><time>2026-03-28T17:39:50Z</time></trkpt><trkpt lat="36.953217272369315" lon="15.14872267291426"><ele>350.6</ele><time>2026-03-28T17:39:51Z</time></trkpt><trkpt lat="36.95312512805154" lon="15.14867673879795"><ele>346.79999999999995</ele><time>2026-03-28T17:39:52Z</time></trkpt><trkpt lat="36.95304149920856" lon="15.148640937736609"><ele>343.0</ele><time>2026-03-28T17:39:53Z</time></trkpt><trkpt lat="36.95295671537557" lon="15.148607467643366"><ele>343.0</ele><time>2026-03-28T17:39:54Z</time></trkpt><trkpt lat="36.95287600005833" lon="15.148576558182388"><ele>343.0</ele><time>2026-03-28T17:39:55Z</time></trkpt><trkpt lat="36.95280282896731" lon="15.14854853770828"><ele>343.0</ele><time>2026-03-28T17:39:56Z</time></trkpt><trkpt lat="36.95273859315961" lon="15.148523938606246"><ele>343.0</ele><time>2026-03-28T17:39:57Z</time></trkpt><trkpt lat="36.952627444558765" lon="15.148548182984037"><ele>343.0</ele><time>2026-03-28T17:39:59Z</time></trkpt><trkpt lat="36.95257726779282" lon="15.148622154757314"><ele>343.0</ele><time>2026-03-28T17:40:02Z</time></trkpt><trkpt lat="36.952608631927305" lon="15.148695666551905"><ele>343.0</ele><time>2026-03-28T17:42:20.999Z</time></trkpt><trkpt lat="36.95269604979007" lon="15.14872309160648"><ele>343.0</ele><time>2026-03-28T17:42:23.999Z</time></trkpt><trkpt lat="36.952784930642544" lon="15.148815506411102"><ele>343.0</ele><time>2026-03-28T17:42:24.999Z</time></trkpt><trkpt lat="36.95290105004001" lon="15.14890125673509"><ele>343.0</ele><time>2026-03-28T17:42:25.999Z</time></trkpt><trkpt lat="36.952990332813535" lon="15.148974530229534"><ele>343.0</ele><time>2026-03-28T17:42:26.999Z</time></trkpt><trkpt lat="36.95306156258115" lon="15.149046959750716"><ele>342.0</ele><time>2026-03-28T17:42:27.999Z</time></trkpt><trkpt lat="36.953124909239314" lon="15.149121788532817"><ele>341.0</ele><time>2026-03-28T17:42:28.999Z</time></trkpt><trkpt lat="36.95317359480567" lon="15.149197579298988"><ele>340.0</ele><time>2026-03-28T17:42:29.999Z</time></trkpt><trkpt lat="36.953194857767265" lon="15.149276224569677"><ele>339.0</ele><time>2026-03-28T17:42:30.999Z</time></trkpt><trkpt lat="36.95316358680255" lon="15.149348129509773"><ele>338.0</ele><time>2026-03-28T17:42:31.999Z</time></trkpt><trkpt lat="36.95308524384975" lon="15.14936115338988"><ele>337.0</ele><time>2026-03-28T17:42:32.999Z</time></trkpt><trkpt lat="36.95302215614518" lon="15.149337319592828"><ele>336.0</ele><time>2026-03-28T17:42:33.999Z</time></trkpt><trkpt lat="36.95292326446097" lon="15.149305523702248"><ele>336.0</ele><time>2026-03-28T17:42:34.999Z</time></trkpt><trkpt lat="36.9527989959114" lon="15.149280038216657"><ele>336.0</ele><time>2026-03-28T17:42:35.999Z</time></trkpt><trkpt lat="36.952682300348926" lon="15.149261579660699"><ele>336.0</ele><time>2026-03-28T17:42:36.999Z</time></trkpt><trkpt lat="36.95257551856908" lon="15.149247670449956"><ele>336.0</ele><time>2026-03-28T17:42:37.999Z</time></trkpt><trkpt lat="36.95247751481896" lon="15.149242794110867"><ele>336.0</ele><time>2026-03-28T17:42:38.999Z</time></trkpt><trkpt lat="36.952386337715666" lon="15.149238207346471"><ele>332.8</ele><time>2026-03-28T17:42:39.999Z</time></trkpt><trkpt lat="36.952305047777344" lon="15.149231162383423"><ele>329.6</ele><time>2026-03-28T17:42:40.999Z</time></trkpt><trkpt lat="36.95221687361295" lon="15.149222050954796"><ele>326.4</ele><time>2026-03-28T17:42:41.999Z</time></trkpt><trkpt lat="36.95210325048503" lon="15.149197537332663"><ele>323.2</ele><time>2026-03-28T17:42:42.999Z</time></trkpt><trkpt lat="36.95198092049292" lon="15.14916381913732"><ele>320.0</ele><time>2026-03-28T17:42:43.999Z</time></trkpt><trkpt lat="36.95187404564059" lon="15.149136046968408"><ele>320.0</ele><time>2026-03-28T17:42:44.999Z</time></trkpt><trkpt lat="36.95179030269797" lon="15.149122213941586"><ele>320.0</ele><time>2026-03-28T17:42:45.999Z</time></trkpt><trkpt lat="36.951701493605974" lon="15.149119729366888"><ele>320.0</ele><time>2026-03-28T17:42:46.999Z</time></trkpt><trkpt lat="36.951609061912656" lon="15.149151970085134"><ele>320.0</ele><time>2026-03-28T17:42:47.999Z</time></trkpt><trkpt lat="36.951530472789415" lon="15.149226372777633"><ele>320.0</ele><time>2026-03-28T17:42:48.999Z</time></trkpt><trkpt lat="36.951461151420894" lon="15.149338453747616"><ele>313.25</ele><time>2026-03-28T17:42:49.999Z</time></trkpt><trkpt lat="36.95140653302194" lon="15.149494924541553"><ele>306.5</ele><time>2026-03-28T17:42:50.999Z</time></trkpt><trkpt lat="36.95140617802386" lon="15.149669066875086"><ele>299.75</ele><time>2026-03-28T17:42:51.999Z</time></trkpt><trkpt lat="36.95143882310691" lon="15.149804758733087"><ele>293.0</ele><time>2026-03-28T17:42:52.999Z</time></trkpt><trkpt lat="36.951461572854214" lon="15.149914161694504"><ele>292.0</ele><time>2026-03-28T17:42:53.999Z</time></trkpt><trkpt lat="36.95153343956002" lon="15.149992834486408"><ele>291.0</ele><time>2026-03-28T17:42:54.999Z</time></trkpt><trkpt lat="36.95160312492973" lon="15.150057677170146"><ele>290.0</ele><time>2026-03-28T17:42:55.999Z</time></trkpt><trkpt lat="36.95169531166929" lon="15.150132017295407"><ele>289.0</ele><time>2026-03-28T17:42:56.999Z</time></trkpt><trkpt lat="36.95181281637113" lon="15.150242479075692"><ele>288.0</ele><time>2026-03-28T17:42:57.999Z</time></trkpt><trkpt lat="36.951919731548124" lon="15.150350907403563"><ele>286.2</ele><time>2026-03-28T17:42:58.999Z</time></trkpt><trkpt lat="36.952008128418214" lon="15.15044445940794"><ele>284.4</ele><time>2026-03-28T17:42:59.999Z</time></trkpt><trkpt lat="36.95209253560785" lon="15.15052179627785"><ele>282.59999999999997</ele><time>2026-03-28T17:43:00.999Z</time></trkpt><trkpt lat="36.9521659668406" lon="15.150603020017996"><ele>280.8</ele><time>2026-03-28T17:43:01.999Z</time></trkpt><trkpt lat="36.95223115506459" lon="15.150666724251666"><ele>279.0</ele><time>2026-03-28T17:43:02.999Z</time></trkpt><trkpt lat="36.95227271928223" lon="15.150794037129183"><ele>279.0</ele><time>2026-03-28T17:43:04.999Z</time></trkpt><trkpt lat="36.95214697472624" lon="15.15080038344936"><ele>279.0</ele><time>2026-03-28T17:43:06.999Z</time></trkpt><trkpt lat="36.952059274719765" lon="15.150798365851802"><ele>279.0</ele><time>2026-03-28T17:43:07.998Z</time></trkpt><trkpt lat="36.95196285750688" lon="15.150807245262373"><ele>279.0</ele><time>2026-03-28T17:43:08.998Z</time></trkpt><trkpt lat="36.95187191725965" lon="15.150825772513091"><ele>279.0</ele><time>2026-03-28T17:43:09.998Z</time></trkpt><trkpt lat="36.95179092215058" lon="15.150849953980169"><ele>279.0</ele><time>2026-03-28T17:43:10.998Z</time></trkpt><trkpt lat="36.951715334324845" lon="15.150963868956147"><ele>279.0</ele><time>2026-03-28T17:43:12.998Z</time></trkpt><trkpt lat="36.95177743157553" lon="15.151037830029587"><ele>279.0</ele><time>2026-03-28T17:43:13.998Z</time></trkpt><trkpt lat="36.95185468514093" lon="15.151083586791758"><ele>279.0</ele><time>2026-03-28T17:43:15Z</time></trkpt><trkpt lat="36.95198254156058" lon="15.151126997961226"><ele>279.0</ele><time>2026-03-28T17:43:16Z</time></trkpt><trkpt lat="36.95206047471378" lon="15.15120927130483"><ele>279.0</ele><time>2026-03-28T17:43:17Z</time></trkpt><trkpt lat="36.95212434778075" lon="15.151329794958537"><ele>279.0</ele><time>2026-03-28T17:43:18Z</time></trkpt><trkpt lat="36.952173135793814" lon="15.151472695441562"><ele>279.0</ele><time>2026-03-28T17:43:19Z</time></trkpt><trkpt lat="36.952214892493714" lon="15.151633602159777"><ele>279.0</ele><time>2026-03-28T17:43:20Z</time></trkpt><trkpt lat="36.95225164345487" lon="15.151788234374527"><ele>275.5</ele><time>2026-03-28T17:43:21Z</time></trkpt><trkpt lat="36.95230617222667" lon="15.151923136281042"><ele>272.0</ele><time>2026-03-28T17:43:22Z</time></trkpt><trkpt lat="36.952370065441336" lon="15.15203869227993"><ele>268.5</ele><time>2026-03-28T17:43:23Z</time></trkpt><trkpt lat="36.952415429973" lon="15.152117045479313"><ele>265.0</ele><time>2026-03-28T17:43:24Z</time></trkpt><trkpt lat="36.9524522639289" lon="15.152189360755283"><ele>261.5</ele><time>2026-03-28T17:43:25Z</time></trkpt><trkpt lat="36.95244539316135" lon="15.152271140629516"><ele>258.0</ele><time>2026-03-28T17:43:26Z</time></trkpt><trkpt lat="36.95245329510313" lon="15.152414703425594"><ele>258.2</ele><time>2026-03-28T17:43:28Z</time></trkpt><trkpt lat="36.952455175747595" lon="15.152530091127256"><ele>258.4</ele><time>2026-03-28T17:43:29Z</time></trkpt><trkpt lat="36.95251363599415" lon="15.152648461518604"><ele>258.59999999999997</ele><time>2026-03-28T17:43:30Z</time></trkpt><trkpt lat="36.952581857521984" lon="15.152757319776642"><ele>258.8</ele><time>2026-03-28T17:43:31Z</time></trkpt><trkpt lat="36.952662002152294" lon="15.15287600354233"><ele>259.0</ele><time>2026-03-28T17:43:32Z</time></trkpt><trkpt lat="36.95274226799587" lon="15.152984249233844"><ele>259.0</ele><time>2026-03-28T17:43:33Z</time></trkpt><trkpt lat="36.95281568659626" lon="15.153083732168664"><ele>259.0</ele><time>2026-03-28T17:43:34Z</time></trkpt><trkpt lat="36.952884228810575" lon="15.153180425673861"><ele>259.0</ele><time>2026-03-28T17:43:35Z</time></trkpt><trkpt lat="36.95293071842677" lon="15.153262151444306"><ele>259.0</ele><time>2026-03-28T17:43:36Z</time></trkpt><trkpt lat="36.95299749708674" lon="15.153354785571182"><ele>259.0</ele><time>2026-03-28T17:43:38Z</time></trkpt><trkpt lat="36.95301992964545" lon="15.153428448586562"><ele>256.4</ele><time>2026-03-28T17:43:40Z</time></trkpt><trkpt lat="36.95297754589584" lon="15.15349747561464"><ele>253.79999999999998</ele><time>2026-03-28T17:43:43Z</time></trkpt><trkpt lat="36.95287958425642" lon="15.153444557191806"><ele>251.20000000000002</ele><time>2026-03-28T17:43:47Z</time></trkpt><trkpt lat="36.95279193770974" lon="15.153367204021947"><ele>248.60000000000002</ele><time>2026-03-28T17:43:48Z</time></trkpt><trkpt lat="36.952689951494776" lon="15.153284691547368"><ele>246.0</ele><time>2026-03-28T17:43:49Z</time></trkpt><trkpt lat="36.95259512953238" lon="15.153221042287292"><ele>246.25</ele><time>2026-03-28T17:43:50Z</time></trkpt><trkpt lat="36.95249543095478" lon="15.15315338392572"><ele>246.5</ele><time>2026-03-28T17:43:51Z</time></trkpt><trkpt lat="36.952396319003775" lon="15.153078554648745"><ele>246.75</ele><time>2026-03-28T17:43:52Z</time></trkpt><trkpt lat="36.95230764605515" lon="15.152982784536995"><ele>247.0</ele><time>2026-03-28T17:43:53Z</time></trkpt><trkpt lat="36.95221861963892" lon="15.152882105353974"><ele>247.0</ele><time>2026-03-28T17:43:54Z</time></trkpt><trkpt lat="36.9521177323995" lon="15.152788635548776"><ele>247.0</ele><time>2026-03-28T17:43:55Z</time></trkpt><trkpt lat="36.951993844745836" lon="15.152693351680682"><ele>247.0</ele><time>2026-03-28T17:43:56Z</time></trkpt><trkpt lat="36.951863665000865" lon="15.15264354236633"><ele>247.0</ele><time>2026-03-28T17:43:57Z</time></trkpt><trkpt lat="36.95176902622497" lon="15.152590035401209"><ele>247.0</ele><time>2026-03-28T17:43:58Z</time></trkpt><trkpt lat="36.95171595455048" lon="15.152510676264132"><ele>247.0</ele><time>2026-03-28T17:43:59Z</time></trkpt><trkpt lat="36.951675388950825" lon="15.15241000344534"><ele>247.0</ele><time>2026-03-28T17:44:00Z</time></trkpt><trkpt lat="36.95162236424832" lon="15.152281683905063"><ele>247.0</ele><time>2026-03-28T17:44:00.999Z</time></trkpt><trkpt lat="36.951558815542974" lon="15.152130669760002"><ele>247.0</ele><time>2026-03-28T17:44:01.999Z</time></trkpt><trkpt lat="36.951479322642605" lon="15.151972577635789"><ele>244.0</ele><time>2026-03-28T17:44:02.999Z</time></trkpt><trkpt lat="36.95137012566936" lon="15.151849593956605"><ele>241.0</ele><time>2026-03-28T17:44:03.999Z</time></trkpt><trkpt lat="36.951232244772605" lon="15.151753795268256"><ele>238.0</ele><time>2026-03-28T17:44:04.999Z</time></trkpt><trkpt lat="36.95107095143652" lon="15.151668578180155"><ele>238.0</ele><time>2026-03-28T17:44:05.999Z</time></trkpt><trkpt lat="36.950901421145396" lon="15.151596787892775"><ele>238.0</ele><time>2026-03-28T17:44:06.999Z</time></trkpt><trkpt lat="36.95070617312102" lon="15.151572151670093"><ele>238.0</ele><time>2026-03-28T17:44:07.999Z</time></trkpt><trkpt lat="36.950513337735316" lon="15.151532936542669"><ele>240.0</ele><time>2026-03-28T17:44:08.999Z</time></trkpt><trkpt lat="36.95032945614585" lon="15.151490343270565"><ele>242.0</ele><time>2026-03-28T17:44:09.999Z</time></trkpt><trkpt lat="36.95016157199157" lon="15.151446470449374"><ele>244.0</ele><time>2026-03-28T17:44:10.999Z</time></trkpt><trkpt lat="36.94999209995778" lon="15.15139158238959"><ele>233.0</ele><time>2026-03-28T17:44:11.999Z</time></trkpt><trkpt lat="36.94983265193624" lon="15.151337004743073"><ele>222.0</ele><time>2026-03-28T17:44:12.999Z</time></trkpt><trkpt lat="36.94967755891622" lon="15.151284523009604"><ele>211.0</ele><time>2026-03-28T17:44:13.999Z</time></trkpt><trkpt lat="36.94952816104489" lon="15.151238828469907"><ele>211.0</ele><time>2026-03-28T17:44:14.999Z</time></trkpt><trkpt lat="36.94938178489966" lon="15.151212326306574"><ele>211.0</ele><time>2026-03-28T17:44:15.999Z</time></trkpt><trkpt lat="36.949230187325114" lon="15.151221142260898"><ele>211.0</ele><time>2026-03-28T17:44:16.999Z</time></trkpt><trkpt lat="36.949075189901784" lon="15.151231531834492"><ele>205.33333333333331</ele><time>2026-03-28T17:44:17.999Z</time></trkpt><trkpt lat="36.9489224986222" lon="15.151241766827853"><ele>199.66666666666669</ele><time>2026-03-28T17:44:18.999Z</time></trkpt><trkpt lat="36.94877056117681" lon="15.15125195128971"><ele>194.0</ele><time>2026-03-28T17:44:19.999Z</time></trkpt><trkpt lat="36.94862299384206" lon="15.151261842817268"><ele>194.0</ele><time>2026-03-28T17:44:20.999Z</time></trkpt><trkpt lat="36.948478663781394" lon="15.151271517374356"><ele>194.0</ele><time>2026-03-28T17:44:21.999Z</time></trkpt><trkpt lat="36.94834751485019" lon="15.151279082268497"><ele>194.0</ele><time>2026-03-28T17:44:22.999Z</time></trkpt><trkpt lat="36.948209589550515" lon="15.151286865381186"><ele>194.0</ele><time>2026-03-28T17:44:23.999Z</time></trkpt><trkpt lat="36.94807262395916" lon="15.151293181804764"><ele>188.25</ele><time>2026-03-28T17:44:24.999Z</time></trkpt><trkpt lat="36.947936054511935" lon="15.151299406705462"><ele>182.5</ele><time>2026-03-28T17:44:25.999Z</time></trkpt><trkpt lat="36.947801792303366" lon="15.151304377293947"><ele>176.75</ele><time>2026-03-28T17:44:26.999Z</time></trkpt><trkpt lat="36.9476708978526" lon="15.151308377259337"><ele>171.0</ele><time>2026-03-28T17:44:27.999Z</time></trkpt><trkpt lat="36.94754673238253" lon="15.151312171589796"><ele>166.4</ele><time>2026-03-28T17:44:28.999Z</time></trkpt><trkpt lat="36.94744017845563" lon="15.151315414441632"><ele>161.8</ele><time>2026-03-28T17:44:29.999Z</time></trkpt><trkpt lat="36.94735111467707" lon="15.15132348598159"><ele>157.20000000000002</ele><time>2026-03-28T17:44:30.999Z</time></trkpt><trkpt lat="36.94725447877825" lon="15.15136079540276"><ele>152.60000000000002</ele><time>2026-03-28T17:44:32.999Z</time></trkpt><trkpt lat="36.94727520548566" lon="15.15147142707428"><ele>148.0</ele><time>2026-03-28T17:44:33.999Z</time></trkpt><trkpt lat="36.94733467078047" lon="15.151532745207108"><ele>147.4</ele><time>2026-03-28T17:44:34.999Z</time></trkpt><trkpt lat="36.947450319329164" lon="15.151553820639462"><ele>146.8</ele><time>2026-03-28T17:44:35.999Z</time></trkpt><trkpt lat="36.947567557952105" lon="15.151594420420215"><ele>146.2</ele><time>2026-03-28T17:44:36.999Z</time></trkpt><trkpt lat="36.947664563223654" lon="15.151618202107874"><ele>145.6</ele><time>2026-03-28T17:44:37.999Z</time></trkpt><trkpt lat="36.947745545960935" lon="15.151641748877578"><ele>145.0</ele><time>2026-03-28T17:44:38.999Z</time></trkpt><trkpt lat="36.947812948852494" lon="15.15166052354349"><ele>145.0</ele><time>2026-03-28T17:44:39.999Z</time></trkpt><trkpt lat="36.9478948478266" lon="15.151720688214025"><ele>145.0</ele><time>2026-03-28T17:44:41.999Z</time></trkpt><trkpt lat="36.94780775802993" lon="15.151809726100007"><ele>145.0</ele><time>2026-03-28T17:44:43.999Z</time></trkpt><trkpt lat="36.947721456584155" lon="15.151804805993176"><ele>145.0</ele><time>2026-03-28T17:44:44.999Z</time></trkpt><trkpt lat="36.9475882228424" lon="15.151832010206672"><ele>145.0</ele><time>2026-03-28T17:44:45.999Z</time></trkpt><trkpt lat="36.94743873524224" lon="15.151874662416153"><ele>145.0</ele><time>2026-03-28T17:44:46.999Z</time></trkpt><trkpt lat="36.94731943880967" lon="15.151908571751534"><ele>145.0</ele><time>2026-03-28T17:44:47.999Z</time></trkpt><trkpt lat="36.94721128111986" lon="15.15192789772415"><ele>145.0</ele><time>2026-03-28T17:44:48.999Z</time></trkpt><trkpt lat="36.947108617383975" lon="15.151912677270925"><ele>145.0</ele><time>2026-03-28T17:44:49.999Z</time></trkpt><trkpt lat="36.947000019863665" lon="15.151864882844732"><ele>145.0</ele><time>2026-03-28T17:44:50.999Z</time></trkpt><trkpt lat="36.9468795632906" lon="15.151815008845968"><ele>145.0</ele><time>2026-03-28T17:44:51.999Z</time></trkpt><trkpt lat="36.94675708809009" lon="15.15175983391718"><ele>145.0</ele><time>2026-03-28T17:44:52.999Z</time></trkpt><trkpt lat="36.94663630357497" lon="15.15169777753067"><ele>145.0</ele><time>2026-03-28T17:44:53.999Z</time></trkpt><trkpt lat="36.94652123509743" lon="15.151637135823353"><ele>143.0</ele><time>2026-03-28T17:44:54.999Z</time></trkpt><trkpt lat="36.94642033895572" lon="15.15158628074462"><ele>141.0</ele><time>2026-03-28T17:44:55.999Z</time></trkpt><trkpt lat="36.94632486911371" lon="15.151543951310826"><ele>139.0</ele><time>2026-03-28T17:44:56.999Z</time></trkpt><trkpt lat="36.94624422957251" lon="15.151516331939963"><ele>137.0</ele><time>2026-03-28T17:44:57.999Z</time></trkpt><trkpt lat="36.94612654976757" lon="15.151524549911061"><ele>135.0</ele><time>2026-03-28T17:44:59.999Z</time></trkpt><trkpt lat="36.94605527994884" lon="15.151567676555038"><ele>135.0</ele><time>2026-03-28T17:45:00.999Z</time></trkpt><trkpt lat="36.945956823768384" lon="15.15168046155773"><ele>135.0</ele><time>2026-03-28T17:45:01.999Z</time></trkpt><trkpt lat="36.94582335703513" lon="15.151798146893915"><ele>135.0</ele><time>2026-03-28T17:45:02.999Z</time></trkpt><trkpt lat="36.945718394239606" lon="15.151929520122112"><ele>135.0</ele><time>2026-03-28T17:45:03.999Z</time></trkpt><trkpt lat="36.94560390323005" lon="15.152041686490179"><ele>131.33333333333334</ele><time>2026-03-28T17:45:04.999Z</time></trkpt><trkpt lat="36.94548207654761" lon="15.152178625050063"><ele>127.66666666666667</ele><time>2026-03-28T17:45:05.999Z</time></trkpt><trkpt lat="36.94534936254766" lon="15.152318160597778"><ele>124.0</ele><time>2026-03-28T17:45:06.998Z</time></trkpt><trkpt lat="36.94521073984467" lon="15.152448554954072"><ele>123.0</ele><time>2026-03-28T17:45:07.998Z</time></trkpt><trkpt lat="36.94507885997885" lon="15.152569893075416"><ele>122.0</ele><time>2026-03-28T17:45:08.998Z</time></trkpt><trkpt lat="36.9449589897849" lon="15.152687009889197"><ele>121.0</ele><time>2026-03-28T17:45:09.998Z</time></trkpt><trkpt lat="36.94484251930992" lon="15.152801307113867"><ele>119.0</ele><time>2026-03-28T17:45:10.998Z</time></trkpt><trkpt lat="36.94473562939186" lon="15.152916701058892"><ele>117.0</ele><time>2026-03-28T17:45:11.998Z</time></trkpt><trkpt lat="36.94461968891099" lon="15.153030252890984"><ele>115.0</ele><time>2026-03-28T17:45:12.998Z</time></trkpt><trkpt lat="36.94449827648299" lon="15.153147378949004"><ele>113.0</ele><time>2026-03-28T17:45:13.998Z</time></trkpt><trkpt lat="36.944377035939965" lon="15.153253255944168"><ele>112.25</ele><time>2026-03-28T17:45:14.998Z</time></trkpt><trkpt lat="36.94426530875657" lon="15.153368391875093"><ele>111.5</ele><time>2026-03-28T17:45:15.998Z</time></trkpt><trkpt lat="36.94414738507365" lon="15.153470157846128"><ele>110.75</ele><time>2026-03-28T17:45:16.998Z</time></trkpt><trkpt lat="36.94402649278042" lon="15.153547049007425"><ele>110.0</ele><time>2026-03-28T17:45:17.998Z</time></trkpt><trkpt lat="36.94391362813335" lon="15.1536288877089"><ele>108.5</ele><time>2026-03-28T17:45:18.998Z</time></trkpt><trkpt lat="36.94381566882162" lon="15.153729609580315"><ele>107.0</ele><time>2026-03-28T17:45:19.998Z</time></trkpt><trkpt lat="36.943733504286485" lon="15.153853403449311"><ele>105.5</ele><time>2026-03-28T17:45:21Z</time></trkpt><trkpt lat="36.943662124485236" lon="15.154012491536509"><ele>104.0</ele><time>2026-03-28T17:45:22Z</time></trkpt><trkpt lat="36.943608033176815" lon="15.154183706462529"><ele>103.25</ele><time>2026-03-28T17:45:23Z</time></trkpt><trkpt lat="36.943560698506595" lon="15.154355468953751"><ele>102.5</ele><time>2026-03-28T17:45:24Z</time></trkpt><trkpt lat="36.94352539008634" lon="15.154531931600863"><ele>101.75</ele><time>2026-03-28T17:45:25Z</time></trkpt><trkpt lat="36.94349483733457" lon="15.154690955730269"><ele>101.0</ele><time>2026-03-28T17:45:26Z</time></trkpt><trkpt lat="36.94346396278875" lon="15.154848678760395"><ele>99.25</ele><time>2026-03-28T17:45:27Z</time></trkpt><trkpt lat="36.94338523663359" lon="15.154958863330233"><ele>97.5</ele><time>2026-03-28T17:45:28Z</time></trkpt><trkpt lat="36.9432991237815" lon="15.15507455359653"><ele>95.75</ele><time>2026-03-28T17:45:29Z</time></trkpt><trkpt lat="36.94318951169555" lon="15.155217951193947"><ele>94.0</ele><time>2026-03-28T17:45:30Z</time></trkpt><trkpt lat="36.94308205564074" lon="15.155356941488606"><ele>92.75</ele><time>2026-03-28T17:45:31Z</time></trkpt><trkpt lat="36.942979076057476" lon="15.155490141510061"><ele>91.5</ele><time>2026-03-28T17:45:32Z</time></trkpt><trkpt lat="36.94287623798927" lon="15.15562315858775"><ele>90.25</ele><time>2026-03-28T17:45:33Z</time></trkpt><trkpt lat="36.94277554735469" lon="15.155753397993188"><ele>89.0</ele><time>2026-03-28T17:45:34Z</time></trkpt><trkpt lat="36.94267567384216" lon="15.155882580556952"><ele>88.0</ele><time>2026-03-28T17:45:35Z</time></trkpt><trkpt lat="36.94258176219511" lon="15.156004051419822"><ele>87.0</ele><time>2026-03-28T17:45:36Z</time></trkpt><trkpt lat="36.94249561509742" lon="15.1561190560532"><ele>86.0</ele><time>2026-03-28T17:45:37Z</time></trkpt><trkpt lat="36.942416236966984" lon="15.156237928582925"><ele>85.0</ele><time>2026-03-28T17:45:38Z</time></trkpt><trkpt lat="36.94235514250421" lon="15.156392898016286"><ele>82.0</ele><time>2026-03-28T17:45:39Z</time></trkpt><trkpt lat="36.942268408619476" lon="15.15655506223785"><ele>79.0</ele><time>2026-03-28T17:45:40Z</time></trkpt><trkpt lat="36.94219270775557" lon="15.156725262744132"><ele>76.0</ele><time>2026-03-28T17:45:41Z</time></trkpt><trkpt lat="36.942117659226604" lon="15.156889920608917"><ele>76.0</ele><time>2026-03-28T17:45:42Z</time></trkpt><trkpt lat="36.942047413291355" lon="15.157045237520768"><ele>76.0</ele><time>2026-03-28T17:45:43Z</time></trkpt><trkpt lat="36.94197664514996" lon="15.157210402446436"><ele>76.0</ele><time>2026-03-28T17:45:44Z</time></trkpt><trkpt lat="36.94191062914734" lon="15.157371868970586"><ele>76.0</ele><time>2026-03-28T17:45:45Z</time></trkpt><trkpt lat="36.94184798188174" lon="15.157531074619719"><ele>75.0</ele><time>2026-03-28T17:45:46Z</time></trkpt><trkpt lat="36.94178399109732" lon="15.157693001461409"><ele>74.0</ele><time>2026-03-28T17:45:47Z</time></trkpt><trkpt lat="36.941715039597966" lon="15.15786224599783"><ele>73.0</ele><time>2026-03-28T17:45:48Z</time></trkpt><trkpt lat="36.941656464038054" lon="15.15804705100032"><ele>71.25</ele><time>2026-03-28T17:45:49Z</time></trkpt><trkpt lat="36.94157173279219" lon="15.158204810014515"><ele>69.5</ele><time>2026-03-28T17:45:50Z</time></trkpt><trkpt lat="36.9415021069743" lon="15.158357914739785"><ele>67.75</ele><time>2026-03-28T17:45:51Z</time></trkpt><trkpt lat="36.94143267914008" lon="15.158497047989252"><ele>66.0</ele><time>2026-03-28T17:45:52Z</time></trkpt><trkpt lat="36.941359147417394" lon="15.158632688507454"><ele>66.0</ele><time>2026-03-28T17:45:53Z</time></trkpt><trkpt lat="36.94128795643842" lon="15.158782054032027"><ele>66.0</ele><time>2026-03-28T17:45:54Z</time></trkpt><trkpt lat="36.94119084521496" lon="15.158914075825287"><ele>66.0</ele><time>2026-03-28T17:45:55Z</time></trkpt><trkpt lat="36.941111332090045" lon="15.1590449927883"><ele>66.0</ele><time>2026-03-28T17:45:56Z</time></trkpt><trkpt lat="36.94103548469128" lon="15.159187074393726"><ele>65.5</ele><time>2026-03-28T17:45:57Z</time></trkpt><trkpt lat="36.94096607149643" lon="15.159320094462158"><ele>65.0</ele><time>2026-03-28T17:45:58Z</time></trkpt><trkpt lat="36.94089643458998" lon="15.159444066913393"><ele>64.5</ele><time>2026-03-28T17:45:59Z</time></trkpt><trkpt lat="36.94082718309985" lon="15.15955431480531"><ele>64.0</ele><time>2026-03-28T17:46:00Z</time></trkpt><trkpt lat="36.94075664596399" lon="15.159635639097486"><ele>63.0</ele><time>2026-03-28T17:46:01Z</time></trkpt><trkpt lat="36.94067844622039" lon="15.159699289535189"><ele>62.00000000000001</ele><time>2026-03-28T17:46:02Z</time></trkpt><trkpt lat="36.94059483937818" lon="15.159761077483031"><ele>61.00000000000001</ele><time>2026-03-28T17:46:03Z</time></trkpt><trkpt lat="36.940506438230834" lon="15.159814058046337"><ele>60.0</ele><time>2026-03-28T17:46:04Z</time></trkpt><trkpt lat="36.94041875128857" lon="15.159847248223329"><ele>59.0</ele><time>2026-03-28T17:46:05Z</time></trkpt><trkpt lat="36.94032153988203" lon="15.159863222053408"><ele>58.400000000000006</ele><time>2026-03-28T17:46:06Z</time></trkpt><trkpt lat="36.940233799079955" lon="15.15988974133767"><ele>57.800000000000004</ele><time>2026-03-28T17:46:07Z</time></trkpt><trkpt lat="36.940143592995426" lon="15.160014829471352"><ele>57.199999999999996</ele><time>2026-03-28T17:46:08Z</time></trkpt><trkpt lat="36.940075378822684" lon="15.160114957740078"><ele>56.599999999999994</ele><time>2026-03-28T17:46:08.999Z</time></trkpt><trkpt lat="36.94001493051007" lon="15.160202904518783"><ele>56.0</ele><time>2026-03-28T17:46:09.999Z</time></trkpt><trkpt lat="36.93996040079561" lon="15.160280727517781"><ele>55.5</ele><time>2026-03-28T17:46:10.999Z</time></trkpt><trkpt lat="36.93989731733084" lon="15.1603870910146"><ele>55.0</ele><time>2026-03-28T17:46:11.999Z</time></trkpt><trkpt lat="36.939856325457335" lon="15.160584344648214"><ele>54.5</ele><time>2026-03-28T17:46:12.999Z</time></trkpt><trkpt lat="36.93983338299942" lon="15.160714792137131"><ele>54.0</ele><time>2026-03-28T17:46:13.999Z</time></trkpt><trkpt lat="36.93977426140795" lon="15.160821911792505"><ele>53.0</ele><time>2026-03-28T17:46:14.999Z</time></trkpt><trkpt lat="36.93967698061549" lon="15.16097116336455"><ele>52.0</ele><time>2026-03-28T17:46:15.999Z</time></trkpt><trkpt lat="36.93956522964145" lon="15.161117063948403"><ele>51.0</ele><time>2026-03-28T17:46:16.999Z</time></trkpt><trkpt lat="36.93945535816141" lon="15.161268038642195"><ele>51.0</ele><time>2026-03-28T17:46:17.999Z</time></trkpt><trkpt lat="36.9393364676955" lon="15.161415276978632"><ele>51.0</ele><time>2026-03-28T17:46:18.999Z</time></trkpt><trkpt lat="36.939230394176136" lon="15.161544701387971"><ele>51.0</ele><time>2026-03-28T17:46:19.999Z</time></trkpt><trkpt lat="36.93912610491107" lon="15.161671948811021"><ele>50.0</ele><time>2026-03-28T17:46:20.999Z</time></trkpt><trkpt lat="36.93902149630583" lon="15.161799585838171"><ele>49.0</ele><time>2026-03-28T17:46:21.999Z</time></trkpt><trkpt lat="36.938923115032615" lon="15.161903774721088"><ele>48.0</ele><time>2026-03-28T17:46:22.999Z</time></trkpt><trkpt lat="36.9388140380111" lon="15.16198317273881"><ele>47.0</ele><time>2026-03-28T17:46:23.999Z</time></trkpt><trkpt lat="36.93871708376205" lon="15.162107787309164"><ele>47.0</ele><time>2026-03-28T17:46:24.999Z</time></trkpt><trkpt lat="36.93864860394659" lon="15.162254977701902"><ele>47.0</ele><time>2026-03-28T17:46:25.999Z</time></trkpt><trkpt lat="36.93858998526856" lon="15.162405099926726"><ele>47.0</ele><time>2026-03-28T17:46:26.999Z</time></trkpt><trkpt lat="36.93853159518917" lon="15.162559151575117"><ele>47.0</ele><time>2026-03-28T17:46:27.999Z</time></trkpt><trkpt lat="36.93847814794369" lon="15.162695377966934"><ele>46.5</ele><time>2026-03-28T17:46:28.999Z</time></trkpt><trkpt lat="36.93842630888772" lon="15.162817784262732"><ele>46.0</ele><time>2026-03-28T17:46:29.999Z</time></trkpt><trkpt lat="36.93837948913431" lon="15.162919532843137"><ele>45.5</ele><time>2026-03-28T17:46:30.999Z</time></trkpt><trkpt lat="36.93834062660638" lon="15.162999255692435"><ele>45.0</ele><time>2026-03-28T17:46:31.999Z</time></trkpt><trkpt lat="36.93830365240922" lon="15.163069202530203"><ele>44.5</ele><time>2026-03-28T17:46:32.999Z</time></trkpt><trkpt lat="36.93824741798172" lon="15.163164015656516"><ele>44.0</ele><time>2026-03-28T17:46:34.999Z</time></trkpt><trkpt lat="36.938190411364275" lon="15.163197754424733"><ele>43.5</ele><time>2026-03-28T17:46:49.999Z</time></trkpt><trkpt lat="36.93812087981464" lon="15.163048334846204"><ele>43.0</ele><time>2026-03-28T17:46:51.999Z</time></trkpt><trkpt lat="36.938065021448985" lon="15.16299635261207"><ele>42.5</ele><time>2026-03-28T17:46:52.999Z</time></trkpt><trkpt lat="36.937996856284414" lon="15.162892785286386"><ele>42.0</ele><time>2026-03-28T17:46:53.999Z</time></trkpt><trkpt lat="36.93789413902743" lon="15.162744840557894"><ele>42.0</ele><time>2026-03-28T17:46:54.999Z</time></trkpt><trkpt lat="36.93775777919618" lon="15.162553864188268"><ele>42.0</ele><time>2026-03-28T17:46:55.999Z</time></trkpt><trkpt lat="36.937618178303374" lon="15.162388258456744"><ele>42.0</ele><time>2026-03-28T17:46:56.999Z</time></trkpt><trkpt lat="36.93745896597638" lon="15.162221987902118"><ele>42.333333333333336</ele><time>2026-03-28T17:46:57.999Z</time></trkpt><trkpt lat="36.93731649497393" lon="15.162069651426258"><ele>42.66666666666667</ele><time>2026-03-28T17:46:58.999Z</time></trkpt><trkpt lat="36.93719448201325" lon="15.161948470848069"><ele>43.0</ele><time>2026-03-28T17:46:59.999Z</time></trkpt><trkpt lat="36.93707418997035" lon="15.161835831953116"><ele>43.0</ele><time>2026-03-28T17:47:00.999Z</time></trkpt><trkpt lat="36.93695882255167" lon="15.16173684860528"><ele>43.0</ele><time>2026-03-28T17:47:01.999Z</time></trkpt><trkpt lat="36.936852237980204" lon="15.16165219224664"><ele>43.0</ele><time>2026-03-28T17:47:02.999Z</time></trkpt><trkpt lat="36.93676295704051" lon="15.161569182791176"><ele>43.0</ele><time>2026-03-28T17:47:03.999Z</time></trkpt><trkpt lat="36.93667419610536" lon="15.161489053726926"><ele>42.8</ele><time>2026-03-28T17:47:04.999Z</time></trkpt><trkpt lat="36.93658909034305" lon="15.161411992826055"><ele>42.599999999999994</ele><time>2026-03-28T17:47:05.999Z</time></trkpt><trkpt lat="36.93650735686729" lon="15.16133556610477"><ele>42.400000000000006</ele><time>2026-03-28T17:47:06.999Z</time></trkpt><trkpt lat="36.93642916904955" lon="15.1612757304798"><ele>42.2</ele><time>2026-03-28T17:47:07.999Z</time></trkpt><trkpt lat="36.93636031985003" lon="15.161196940089084"><ele>42.0</ele><time>2026-03-28T17:47:08.999Z</time></trkpt><trkpt lat="36.936285304975236" lon="15.161133300467954"><ele>42.0</ele><time>2026-03-28T17:47:09.999Z</time></trkpt><trkpt lat="36.936198773381705" lon="15.161061148628416"><ele>42.0</ele><time>2026-03-28T17:47:10.999Z</time></trkpt><trkpt lat="36.93608882557658" lon="15.160991773959285"><ele>42.0</ele><time>2026-03-28T17:47:11.999Z</time></trkpt><trkpt lat="36.935974735830094" lon="15.160899419249217"><ele>42.0</ele><time>2026-03-28T17:47:12.999Z</time></trkpt><trkpt lat="36.93587453334506" lon="15.160814045591309"><ele>41.75</ele><time>2026-03-28T17:47:13.998Z</time></trkpt><trkpt lat="36.93577138069052" lon="15.16071855169905"><ele>41.5</ele><time>2026-03-28T17:47:14.998Z</time></trkpt><trkpt lat="36.93568246931565" lon="15.16060613982579"><ele>41.25</ele><time>2026-03-28T17:47:15.998Z</time></trkpt><trkpt lat="36.935579354158065" lon="15.160503024682393"><ele>41.0</ele><time>2026-03-28T17:47:16.998Z</time></trkpt><trkpt lat="36.935468768078" lon="15.160402820839037"><ele>41.0</ele><time>2026-03-28T17:47:17.998Z</time></trkpt><trkpt lat="36.93536588210423" lon="15.16031324768674"><ele>41.0</ele><time>2026-03-28T17:47:18.998Z</time></trkpt><trkpt lat="36.935280648047254" lon="15.160164954547547"><ele>41.0</ele><time>2026-03-28T17:47:19.998Z</time></trkpt><trkpt lat="36.93521057290967" lon="15.160035546068602"><ele>41.0</ele><time>2026-03-28T17:47:20.998Z</time></trkpt><trkpt lat="36.93514037501473" lon="15.159934248539157"><ele>40.83333333333333</ele><time>2026-03-28T17:47:21.998Z</time></trkpt><trkpt lat="36.93510178955799" lon="15.159838085192929"><ele>40.666666666666664</ele><time>2026-03-28T17:47:22.998Z</time></trkpt><trkpt lat="36.9350470252933" lon="15.159777234132541"><ele>40.5</ele><time>2026-03-28T17:47:23.998Z</time></trkpt><trkpt lat="36.934972762790814" lon="15.159758342436435"><ele>40.333333333333336</ele><time>2026-03-28T17:47:24.998Z</time></trkpt><trkpt lat="36.93490696259385" lon="15.159797013343127"><ele>40.16666666666667</ele><time>2026-03-28T17:47:25.998Z</time></trkpt><trkpt lat="36.9347941972565" lon="15.15977748868973"><ele>40.0</ele><time>2026-03-28T17:47:28Z</time></trkpt><trkpt lat="36.93468109798878" lon="15.159677933901154"><ele>40.0</ele><time>2026-03-28T17:47:30Z</time></trkpt><trkpt lat="36.934616481258516" lon="15.159605696087421"><ele>40.0</ele><time>2026-03-28T17:47:31Z</time></trkpt><trkpt lat="36.93454801740964" lon="15.159537509005519"><ele>40.0</ele><time>2026-03-28T17:47:32Z</time></trkpt><trkpt lat="36.93447853832162" lon="15.159458239581292"><ele>40.0</ele><time>2026-03-28T17:47:33Z</time></trkpt><trkpt lat="36.934407865315414" lon="15.15938773824447"><ele>40.0</ele><time>2026-03-28T17:47:34Z</time></trkpt><trkpt lat="36.93435312489847" lon="15.159306553165319"><ele>40.0</ele><time>2026-03-28T17:47:35Z</time></trkpt><trkpt lat="36.93421974527649" lon="15.159194461192046"><ele>40.25</ele><time>2026-03-28T17:47:36Z</time></trkpt><trkpt lat="36.93411255788963" lon="15.15907384072971"><ele>40.5</ele><time>2026-03-28T17:47:37Z</time></trkpt><trkpt lat="36.93399567778442" lon="15.158952561999504"><ele>40.75</ele><time>2026-03-28T17:47:38Z</time></trkpt><trkpt lat="36.933892857640416" lon="15.15885908777179"><ele>41.0</ele><time>2026-03-28T17:47:39Z</time></trkpt><trkpt lat="36.93379907881276" lon="15.158780069412826"><ele>41.0</ele><time>2026-03-28T17:47:40Z</time></trkpt><trkpt lat="36.93371557643386" lon="15.158716674330721"><ele>41.0</ele><time>2026-03-28T17:47:41Z</time></trkpt><trkpt lat="36.93362453078912" lon="15.158647508936129"><ele>41.0</ele><time>2026-03-28T17:47:42Z</time></trkpt><trkpt lat="36.93351136915139" lon="15.158557071440272"><ele>41.0</ele><time>2026-03-28T17:47:43Z</time></trkpt><trkpt lat="36.93337397706779" lon="15.158414000366548"><ele>40.666666666666664</ele><time>2026-03-28T17:47:44Z</time></trkpt><trkpt lat="36.93323769171601" lon="15.15829365479476"><ele>40.333333333333336</ele><time>2026-03-28T17:47:45Z</time></trkpt><trkpt lat="36.93310712152082" lon="15.158185979039338"><ele>40.0</ele><time>2026-03-28T17:47:46Z</time></trkpt><trkpt lat="36.932986514585835" lon="15.15809003951177"><ele>40.0</ele><time>2026-03-28T17:47:47Z</time></trkpt><trkpt lat="36.93286967149872" lon="15.158016225880774"><ele>40.0</ele><time>2026-03-28T17:47:48Z</time></trkpt><trkpt lat="36.93276275389238" lon="15.157929427186794"><ele>40.0</ele><time>2026-03-28T17:47:49Z</time></trkpt><trkpt lat="36.932675441409" lon="15.157823271590143"><ele>40.0</ele><time>2026-03-28T17:47:50Z</time></trkpt><trkpt lat="36.932590320347316" lon="15.157738007824994"><ele>39.8</ele><time>2026-03-28T17:47:51Z</time></trkpt><trkpt lat="36.93251394146972" lon="15.15765876959447"><ele>39.6</ele><time>2026-03-28T17:47:52Z</time></trkpt><trkpt lat="36.93244396393871" lon="15.157586354560015"><ele>39.4</ele><time>2026-03-28T17:47:53Z</time></trkpt><trkpt lat="36.932383432512076" lon="15.15754586405527"><ele>39.2</ele><time>2026-03-28T17:47:54Z</time></trkpt><trkpt lat="36.93232548393739" lon="15.157462989225916"><ele>39.0</ele><time>2026-03-28T17:47:56Z</time></trkpt><trkpt lat="36.932117268328085" lon="15.15766755924931"><ele>39.0</ele><time>2026-03-28T17:47:58Z</time></trkpt><trkpt lat="36.93212980359212" lon="15.157852220027577"><ele>39.0</ele><time>2026-03-28T17:47:59Z</time></trkpt><trkpt lat="36.932057030538935" lon="15.158097261444308"><ele>39.0</ele><time>2026-03-28T17:48:00Z</time></trkpt><trkpt lat="36.93197500619651" lon="15.158299589239986"><ele>39.0</ele><time>2026-03-28T17:48:01Z</time></trkpt><trkpt lat="36.93188906550702" lon="15.158522554524575"><ele>39.0</ele><time>2026-03-28T17:48:02Z</time></trkpt><trkpt lat="36.93177302429647" lon="15.158742911247757"><ele>39.0</ele><time>2026-03-28T17:48:03Z</time></trkpt><trkpt lat="36.93172615950491" lon="15.158955687039777"><ele>38.333333333333336</ele><time>2026-03-28T17:48:04Z</time></trkpt><trkpt lat="36.931680099622184" lon="15.159165141262873"><ele>37.66666666666667</ele><time>2026-03-28T17:48:05Z</time></trkpt><trkpt lat="36.931634757087366" lon="15.159373749440155"><ele>37.0</ele><time>2026-03-28T17:48:06Z</time></trkpt><trkpt lat="36.93159670344508" lon="15.159576578925599"><ele>37.0</ele><time>2026-03-28T17:48:07Z</time></trkpt><trkpt lat="36.93156014861714" lon="15.159781300654647"><ele>37.0</ele><time>2026-03-28T17:48:08Z</time></trkpt><trkpt lat="36.931527850959" lon="15.159970315963713"><ele>37.0</ele><time>2026-03-28T17:48:09Z</time></trkpt><trkpt lat="36.931499810697275" lon="15.160120272770754"><ele>37.0</ele><time>2026-03-28T17:48:10Z</time></trkpt><trkpt lat="36.931471096839815" lon="15.160245211559118"><ele>36.800000000000004</ele><time>2026-03-28T17:48:11Z</time></trkpt><trkpt lat="36.93143802866864" lon="15.16035783086555"><ele>36.6</ele><time>2026-03-28T17:48:12Z</time></trkpt><trkpt lat="36.93139404388379" lon="15.160460126165285"><ele>36.400000000000006</ele><time>2026-03-28T17:48:13Z</time></trkpt><trkpt lat="36.93132538902753" lon="15.160537895158823"><ele>36.2</ele><time>2026-03-28T17:48:13.999Z</time></trkpt><trkpt lat="36.93124818209998" lon="15.160581652157664"><ele>36.0</ele><time>2026-03-28T17:48:14.999Z</time></trkpt><trkpt lat="36.93114007045315" lon="15.160581024283577"><ele>36.0</ele><time>2026-03-28T17:48:15.999Z</time></trkpt><trkpt lat="36.93102012568182" lon="15.160605143071574"><ele>36.0</ele><time>2026-03-28T17:48:16.999Z</time></trkpt><trkpt lat="36.93089417625955" lon="15.160644222748067"><ele>36.0</ele><time>2026-03-28T17:48:17.999Z</time></trkpt><trkpt lat="36.930793140283924" lon="15.160705407845015"><ele>36.0</ele><time>2026-03-28T17:48:18.999Z</time></trkpt><trkpt lat="36.9307094203752" lon="15.160793024017575"><ele>35.5</ele><time>2026-03-28T17:48:19.999Z</time></trkpt><trkpt lat="36.930646236335164" lon="15.160912467547874"><ele>35.0</ele><time>2026-03-28T17:48:20.999Z</time></trkpt><trkpt lat="36.93060577337996" lon="15.161060152367062"><ele>34.5</ele><time>2026-03-28T17:48:21.999Z</time></trkpt><trkpt lat="36.93059341443049" lon="15.161221312492493"><ele>34.0</ele><time>2026-03-28T17:48:22.999Z</time></trkpt><trkpt lat="36.93061081911297" lon="15.16136785570988"><ele>34.0</ele><time>2026-03-28T17:48:23.999Z</time></trkpt><trkpt lat="36.930663678634666" lon="15.16148900578753"><ele>34.0</ele><time>2026-03-28T17:48:24.999Z</time></trkpt><trkpt lat="36.93074236251903" lon="15.161599686639942"><ele>34.0</ele><time>2026-03-28T17:48:25.999Z</time></trkpt><trkpt lat="36.930818913739415" lon="15.161703622709233"><ele>34.0</ele><time>2026-03-28T17:48:26.999Z</time></trkpt><trkpt lat="36.93086519041276" lon="15.161803880896601"><ele>34.0</ele><time>2026-03-28T17:48:27.999Z</time></trkpt><trkpt lat="36.93090686138252" lon="15.161884919778403"><ele>34.25</ele><time>2026-03-28T17:48:28.999Z</time></trkpt><trkpt lat="36.930949285997684" lon="15.161977618412322"><ele>34.5</ele><time>2026-03-28T17:48:29.999Z</time></trkpt><trkpt lat="36.93100550836722" lon="15.162121081066077"><ele>34.75</ele><time>2026-03-28T17:48:30.999Z</time></trkpt><trkpt lat="36.9310580646954" lon="15.162275699890259"><ele>35.0</ele><time>2026-03-28T17:48:31.999Z</time></trkpt><trkpt lat="36.93109618437047" lon="15.162415687367648"><ele>34.25</ele><time>2026-03-28T17:48:32.999Z</time></trkpt><trkpt lat="36.9311040737595" lon="15.162526466779832"><ele>33.5</ele><time>2026-03-28T17:48:33.999Z</time></trkpt><trkpt lat="36.93102133149756" lon="15.162642978986803"><ele>32.75</ele><time>2026-03-28T17:48:35.999Z</time></trkpt><trkpt lat="36.930931963526646" lon="15.162736099448058"><ele>32.0</ele><time>2026-03-28T17:48:36.999Z</time></trkpt><trkpt lat="36.93083263932215" lon="15.1628436600012"><ele>31.8</ele><time>2026-03-28T17:48:37.999Z</time></trkpt><trkpt lat="36.930756175817756" lon="15.162928493585289"><ele>31.6</ele><time>2026-03-28T17:48:38.999Z</time></trkpt><trkpt lat="36.93069454768873" lon="15.16300276942063"><ele>31.400000000000002</ele><time>2026-03-28T17:48:39.999Z</time></trkpt><trkpt lat="36.9306291329541" lon="15.163089993878955"><ele>31.200000000000003</ele><time>2026-03-28T17:48:40.999Z</time></trkpt><trkpt lat="36.930561840345995" lon="15.163184942394068"><ele>31.0</ele><time>2026-03-28T17:48:41.999Z</time></trkpt><trkpt lat="36.93050609503942" lon="15.163264487765261"><ele>30.666666666666668</ele><time>2026-03-28T17:48:42.999Z</time></trkpt><trkpt lat="36.9304562964955" lon="15.163335547434842"><ele>30.333333333333336</ele><time>2026-03-28T17:48:43.999Z</time></trkpt><trkpt lat="36.93041112048386" lon="15.163400011037561"><ele>30.0</ele><time>2026-03-28T17:48:44.999Z</time></trkpt><trkpt lat="36.930362639988736" lon="15.16346918997407"><ele>29.666666666666664</ele><time>2026-03-28T17:48:45.999Z</time></trkpt><trkpt lat="36.93030545528118" lon="15.163550789227399"><ele>29.333333333333332</ele><time>2026-03-28T17:48:46.999Z</time></trkpt><trkpt lat="36.93024532450354" lon="15.16363798886517"><ele>29.0</ele><time>2026-03-28T17:48:47.999Z</time></trkpt><trkpt lat="36.930185403316685" lon="15.16372527860133"><ele>28.999999999999996</ele><time>2026-03-28T17:48:48.999Z</time></trkpt><trkpt lat="36.930128716633746" lon="15.163807856462423"><ele>29.0</ele><time>2026-03-28T17:48:49.999Z</time></trkpt><trkpt lat="36.9300692948679" lon="15.163894418590457"><ele>29.0</ele><time>2026-03-28T17:48:50.999Z</time></trkpt><trkpt lat="36.930015225648816" lon="15.163973183522595"><ele>29.0</ele><time>2026-03-28T17:48:51.999Z</time></trkpt><trkpt lat="36.92996355817769" lon="15.164048449726852"><ele>28.999999999999996</ele><time>2026-03-28T17:48:52.999Z</time></trkpt><trkpt lat="36.9299113161207" lon="15.164124552891556"><ele>29.0</ele><time>2026-03-28T17:48:53.999Z</time></trkpt><trkpt lat="36.92985650715566" lon="15.164202788503266"><ele>28.428571428571434</ele><time>2026-03-28T17:48:54.999Z</time></trkpt><trkpt lat="36.92980506119706" lon="15.16427610410107"><ele>27.857142857142858</ele><time>2026-03-28T17:48:55.999Z</time></trkpt><trkpt lat="36.9297606851835" lon="15.164339344319293"><ele>27.28571428571429</ele><time>2026-03-28T17:48:56.999Z</time></trkpt><trkpt lat="36.92971740821981" lon="15.164402657160721"><ele>26.714285714285715</ele><time>2026-03-28T17:48:57.999Z</time></trkpt><trkpt lat="36.929654741147104" lon="15.16449098510421"><ele>26.142857142857146</ele><time>2026-03-28T17:48:59.999Z</time></trkpt><trkpt lat="36.929599088033555" lon="15.164533101210498"><ele>25.571428571428573</ele><time>2026-03-28T17:49:00.999Z</time></trkpt><trkpt lat="36.92952933649315" lon="15.164556686980438"><ele>25.0</ele><time>2026-03-28T17:49:01.999Z</time></trkpt><trkpt lat="36.929427892749594" lon="15.164458620715095"><ele>25.000000000000004</ele><time>2026-03-28T17:49:02.999Z</time></trkpt><trkpt lat="36.929343656940624" lon="15.164406628288148"><ele>25.0</ele><time>2026-03-28T17:49:03.999Z</time></trkpt><trkpt lat="36.92927228696308" lon="15.164361660461148"><ele>25.0</ele><time>2026-03-28T17:49:04.999Z</time></trkpt><trkpt lat="36.92919778818878" lon="15.164359322016942"><ele>25.0</ele><time>2026-03-28T17:49:05.999Z</time></trkpt><trkpt lat="36.92912609775391" lon="15.164362072007957"><ele>25.000000000000004</ele><time>2026-03-28T17:49:06.999Z</time></trkpt><trkpt lat="36.92906681136332" lon="15.16439785414132"><ele>25.0</ele><time>2026-03-28T17:49:07.999Z</time></trkpt><trkpt lat="36.928997568729535" lon="15.164482929987056"><ele>24.6</ele><time>2026-03-28T17:49:09.999Z</time></trkpt><trkpt lat="36.928922350305726" lon="15.164538377470006"><ele>24.2</ele><time>2026-03-28T17:51:00.999Z</time></trkpt><trkpt lat="36.92880276480396" lon="15.164493584700095"><ele>23.799999999999997</ele><time>2026-03-28T17:51:04.999Z</time></trkpt><trkpt lat="36.92871738377948" lon="15.164443607161047"><ele>23.4</ele><time>2026-03-28T17:51:05.999Z</time></trkpt><trkpt lat="36.92863024772928" lon="15.164377130760196"><ele>23.0</ele><time>2026-03-28T17:51:06.999Z</time></trkpt><trkpt lat="36.928533349365004" lon="15.164284558628246"><ele>23.0</ele><time>2026-03-28T17:51:07.999Z</time></trkpt><trkpt lat="36.928425644342525" lon="15.164164150332795"><ele>23.0</ele><time>2026-03-28T17:51:08.999Z</time></trkpt><trkpt lat="36.92833207552878" lon="15.164035169719336"><ele>23.0</ele><time>2026-03-28T17:51:09.999Z</time></trkpt><trkpt lat="36.9282449700252" lon="15.163919668834946"><ele>23.0</ele><time>2026-03-28T17:51:10.999Z</time></trkpt><trkpt lat="36.9281697968671" lon="15.163808006000144"><ele>23.0</ele><time>2026-03-28T17:51:11.999Z</time></trkpt><trkpt lat="36.92808165714908" lon="15.163684224909128"><ele>23.0</ele><time>2026-03-28T17:51:12.999Z</time></trkpt><trkpt lat="36.927987308618874" lon="15.163541448482658"><ele>23.0</ele><time>2026-03-28T17:51:13.999Z</time></trkpt><trkpt lat="36.927888946139234" lon="15.163411850986192"><ele>23.0</ele><time>2026-03-28T17:51:14.999Z</time></trkpt><trkpt lat="36.927803194943785" lon="15.163282266848384"><ele>23.25</ele><time>2026-03-28T17:51:15.999Z</time></trkpt><trkpt lat="36.92771135509747" lon="15.163137882705687"><ele>23.5</ele><time>2026-03-28T17:51:16.999Z</time></trkpt><trkpt lat="36.92761663653794" lon="15.163000563407877"><ele>23.75</ele><time>2026-03-28T17:51:17.999Z</time></trkpt><trkpt lat="36.92751713574779" lon="15.162860095006375"><ele>24.0</ele><time>2026-03-28T17:51:18.999Z</time></trkpt><trkpt lat="36.927401466450746" lon="15.162710948118308"><ele>23.666666666666668</ele><time>2026-03-28T17:51:19.999Z</time></trkpt><trkpt lat="36.92727483254285" lon="15.162514892226081"><ele>23.333333333333336</ele><time>2026-03-28T17:51:20.999Z</time></trkpt><trkpt lat="36.92711674804586" lon="15.162313816287561"><ele>23.0</ele><time>2026-03-28T17:51:21.999Z</time></trkpt><trkpt lat="36.92699404254314" lon="15.162107891669443"><ele>23.0</ele><time>2026-03-28T17:51:22.998Z</time></trkpt><trkpt lat="36.92678343224815" lon="15.161801042602473"><ele>23.0</ele><time>2026-03-28T17:51:23.998Z</time></trkpt><trkpt lat="36.926584079470224" lon="15.16153353619163"><ele>22.0</ele><time>2026-03-28T17:51:24.998Z</time></trkpt><trkpt lat="36.926419331724034" lon="15.161286503089638"><ele>21.0</ele><time>2026-03-28T17:51:25.998Z</time></trkpt><trkpt lat="36.926273539976854" lon="15.161057968780971"><ele>21.0</ele><time>2026-03-28T17:51:26.998Z</time></trkpt><trkpt lat="36.926130659502604" lon="15.160834144871993"><ele>21.0</ele><time>2026-03-28T17:51:27.998Z</time></trkpt><trkpt lat="36.9260218598239" lon="15.160616933989393"><ele>21.0</ele><time>2026-03-28T17:51:28.998Z</time></trkpt><trkpt lat="36.92591927097422" lon="15.160416605157097"><ele>21.333333333333332</ele><time>2026-03-28T17:51:29.998Z</time></trkpt><trkpt lat="36.92582556539853" lon="15.160236641929142"><ele>21.666666666666664</ele><time>2026-03-28T17:51:30.998Z</time></trkpt><trkpt lat="36.92572153289515" lon="15.1600739903483"><ele>22.0</ele><time>2026-03-28T17:51:31.998Z</time></trkpt><trkpt lat="36.92563227168255" lon="15.159883926876418"><ele>23.0</ele><time>2026-03-28T17:51:32.998Z</time></trkpt><trkpt lat="36.9255499324648" lon="15.159689391748108"><ele>24.0</ele><time>2026-03-28T17:51:33.998Z</time></trkpt><trkpt lat="36.92546894478195" lon="15.159507494103917"><ele>25.0</ele><time>2026-03-28T17:51:34.998Z</time></trkpt><trkpt lat="36.92539292017265" lon="15.159353434935493"><ele>25.0</ele><time>2026-03-28T17:51:35.998Z</time></trkpt><trkpt lat="36.92533972379326" lon="15.159235837311888"><ele>25.0</ele><time>2026-03-28T17:51:36.998Z</time></trkpt><trkpt lat="36.92532722936797" lon="15.159117572565606"><ele>25.0</ele><time>2026-03-28T17:51:37.998Z</time></trkpt><trkpt lat="36.925341152018866" lon="15.159002956193186"><ele>25.0</ele><time>2026-03-28T17:51:39Z</time></trkpt><trkpt lat="36.925325508182944" lon="15.158907398481562"><ele>25.0</ele><time>2026-03-28T17:51:40Z</time></trkpt><trkpt lat="36.925256904110775" lon="15.158845866231951"><ele>24.75</ele><time>2026-03-28T17:51:41Z</time></trkpt><trkpt lat="36.925157003952805" lon="15.158775237890616"><ele>24.5</ele><time>2026-03-28T17:51:42Z</time></trkpt><trkpt lat="36.92506259215953" lon="15.158653160207045"><ele>24.25</ele><time>2026-03-28T17:51:43Z</time></trkpt><trkpt lat="36.924978836843444" lon="15.158498528162205"><ele>24.0</ele><time>2026-03-28T17:51:44Z</time></trkpt><trkpt lat="36.924915114388405" lon="15.158348692178727"><ele>23.5</ele><time>2026-03-28T17:51:45Z</time></trkpt><trkpt lat="36.9248423248403" lon="15.158196171446127"><ele>23.0</ele><time>2026-03-28T17:51:46Z</time></trkpt><trkpt lat="36.92478120578578" lon="15.158074474191656"><ele>22.5</ele><time>2026-03-28T17:51:47Z</time></trkpt><trkpt lat="36.92472522672584" lon="15.15796780025462"><ele>22.0</ele><time>2026-03-28T17:51:48Z</time></trkpt><trkpt lat="36.924674871887696" lon="15.157872575356947"><ele>22.0</ele><time>2026-03-28T17:51:49Z</time></trkpt><trkpt lat="36.92463394420716" lon="15.157794694510303"><ele>22.0</ele><time>2026-03-28T17:51:50Z</time></trkpt><trkpt lat="36.92459703336349" lon="15.157719559980505"><ele>22.0</ele><time>2026-03-28T17:51:51Z</time></trkpt><trkpt lat="36.92455131487661" lon="15.157636316787288"><ele>22.0</ele><time>2026-03-28T17:51:52Z</time></trkpt><trkpt lat="36.92449474423544" lon="15.157548068599159"><ele>22.0</ele><time>2026-03-28T17:51:53Z</time></trkpt><trkpt lat="36.924432654663654" lon="15.157449798184373"><ele>22.0</ele><time>2026-03-28T17:51:54Z</time></trkpt><trkpt lat="36.92436639999069" lon="15.157337617656763"><ele>22.0</ele><time>2026-03-28T17:51:55Z</time></trkpt><trkpt lat="36.924304607518" lon="15.15722312033288"><ele>22.0</ele><time>2026-03-28T17:51:56Z</time></trkpt><trkpt lat="36.92423493695116" lon="15.157107034364971"><ele>22.0</ele><time>2026-03-28T17:51:57Z</time></trkpt><trkpt lat="36.9241465047077" lon="15.156937166076926"><ele>22.0</ele><time>2026-03-28T17:51:58Z</time></trkpt><trkpt lat="36.92404151311235" lon="15.156755509028882"><ele>22.0</ele><time>2026-03-28T17:51:59Z</time></trkpt><trkpt lat="36.92391097077772" lon="15.156577424581393"><ele>22.0</ele><time>2026-03-28T17:52:00Z</time></trkpt><trkpt lat="36.92379410207354" lon="15.156385558384011"><ele>22.0</ele><time>2026-03-28T17:52:01Z</time></trkpt><trkpt lat="36.92369126888208" lon="15.156195291266382"><ele>22.0</ele><time>2026-03-28T17:52:02Z</time></trkpt><trkpt lat="36.92361498695381" lon="15.156047543915248"><ele>22.0</ele><time>2026-03-28T17:52:03Z</time></trkpt><trkpt lat="36.92355196060841" lon="15.155952917817432"><ele>22.0</ele><time>2026-03-28T17:52:04Z</time></trkpt><trkpt lat="36.9234915546259" lon="15.155849076285566"><ele>22.0</ele><time>2026-03-28T17:52:05Z</time></trkpt><trkpt lat="36.92343510616089" lon="15.155748605600815"><ele>22.0</ele><time>2026-03-28T17:52:06Z</time></trkpt><trkpt lat="36.923384434697624" lon="15.155678032013013"><ele>21.25</ele><time>2026-03-28T17:52:07Z</time></trkpt><trkpt lat="36.92333351870844" lon="15.155573689182775"><ele>20.5</ele><time>2026-03-28T17:52:09Z</time></trkpt><trkpt lat="36.92325723170046" lon="15.15543438780974"><ele>19.75</ele><time>2026-03-28T17:52:11Z</time></trkpt><trkpt lat="36.92319308745931" lon="15.155314840102267"><ele>19.0</ele><time>2026-03-28T17:52:12Z</time></trkpt><trkpt lat="36.92312202957653" lon="15.155174519582015"><ele>19.0</ele><time>2026-03-28T17:52:13Z</time></trkpt><trkpt lat="36.9230398178433" lon="15.155024649810448"><ele>19.0</ele><time>2026-03-28T17:52:14Z</time></trkpt><trkpt lat="36.92294022179698" lon="15.154855877642651"><ele>19.0</ele><time>2026-03-28T17:52:15Z</time></trkpt><trkpt lat="36.92285222737848" lon="15.15470139095613"><ele>19.0</ele><time>2026-03-28T17:52:16Z</time></trkpt><trkpt lat="36.92277437151585" lon="15.154553060231596"><ele>19.0</ele><time>2026-03-28T17:52:17Z</time></trkpt><trkpt lat="36.922694363934376" lon="15.154409717116184"><ele>19.0</ele><time>2026-03-28T17:52:18Z</time></trkpt><trkpt lat="36.922610615861934" lon="15.154248505752143"><ele>19.0</ele><time>2026-03-28T17:52:19Z</time></trkpt><trkpt lat="36.922521952972964" lon="15.15408573724013"><ele>19.0</ele><time>2026-03-28T17:52:20Z</time></trkpt><trkpt lat="36.92243311095687" lon="15.153912220594695"><ele>19.0</ele><time>2026-03-28T17:52:20.999Z</time></trkpt><trkpt lat="36.92233606640411" lon="15.153733912729733"><ele>19.0</ele><time>2026-03-28T17:52:21.999Z</time></trkpt><trkpt lat="36.92222657258405" lon="15.153499620145965"><ele>19.0</ele><time>2026-03-28T17:52:22.999Z</time></trkpt><trkpt lat="36.922100436773306" lon="15.153255538070415"><ele>19.0</ele><time>2026-03-28T17:52:23.999Z</time></trkpt><trkpt lat="36.92196766603878" lon="15.152982379890528"><ele>19.5</ele><time>2026-03-28T17:52:24.999Z</time></trkpt><trkpt lat="36.92183144418174" lon="15.152706965608054"><ele>20.0</ele><time>2026-03-28T17:52:25.999Z</time></trkpt><trkpt lat="36.92172151374065" lon="15.152429585834433"><ele>21.5</ele><time>2026-03-28T17:52:26.999Z</time></trkpt><trkpt lat="36.92161375904338" lon="15.152152514441667"><ele>23.0</ele><time>2026-03-28T17:52:27.999Z</time></trkpt><trkpt lat="36.92150320724391" lon="15.151877472583307"><ele>23.0</ele><time>2026-03-28T17:52:28.999Z</time></trkpt><trkpt lat="36.92139306666346" lon="15.151607572970741"><ele>23.0</ele><time>2026-03-28T17:52:29.999Z</time></trkpt><trkpt lat="36.921286103051486" lon="15.151354420539928"><ele>23.666666666666668</ele><time>2026-03-28T17:52:30.999Z</time></trkpt><trkpt lat="36.92118511255527" lon="15.15110377954998"><ele>24.333333333333336</ele><time>2026-03-28T17:52:31.999Z</time></trkpt><trkpt lat="36.92108637148754" lon="15.150857837981263"><ele>25.0</ele><time>2026-03-28T17:52:32.999Z</time></trkpt><trkpt lat="36.92098447226275" lon="15.150607421863258"><ele>25.5</ele><time>2026-03-28T17:52:33.999Z</time></trkpt><trkpt lat="36.9208804562569" lon="15.150359125620724"><ele>26.0</ele><time>2026-03-28T17:52:34.999Z</time></trkpt><trkpt lat="36.92076910172392" lon="15.150087358563738"><ele>26.0</ele><time>2026-03-28T17:52:35.999Z</time></trkpt><trkpt lat="36.92066488926676" lon="15.149819856744243"><ele>26.0</ele><time>2026-03-28T17:52:36.999Z</time></trkpt><trkpt lat="36.92055393205345" lon="15.149554210647768"><ele>26.0</ele><time>2026-03-28T17:52:37.999Z</time></trkpt><trkpt lat="36.92044526602909" lon="15.149295622770282"><ele>26.0</ele><time>2026-03-28T17:52:38.999Z</time></trkpt><trkpt lat="36.920349208995404" lon="15.149061879001419"><ele>26.0</ele><time>2026-03-28T17:52:39.999Z</time></trkpt><trkpt lat="36.92025850994899" lon="15.14884207112294"><ele>26.0</ele><time>2026-03-28T17:52:40.999Z</time></trkpt><trkpt lat="36.920168509774946" lon="15.148630552766846"><ele>26.0</ele><time>2026-03-28T17:52:41.999Z</time></trkpt><trkpt lat="36.92009021884291" lon="15.148441871621076"><ele>26.0</ele><time>2026-03-28T17:52:42.999Z</time></trkpt><trkpt lat="36.92003205169889" lon="15.148297753592995"><ele>25.833333333333332</ele><time>2026-03-28T17:52:43.999Z</time></trkpt><trkpt lat="36.91998856524224" lon="15.148186570800357"><ele>25.666666666666664</ele><time>2026-03-28T17:52:44.999Z</time></trkpt><trkpt lat="36.91995095264203" lon="15.14807931904871"><ele>25.5</ele><time>2026-03-28T17:52:45.999Z</time></trkpt><trkpt lat="36.919928930756164" lon="15.147979001835875"><ele>25.333333333333336</ele><time>2026-03-28T17:52:46.999Z</time></trkpt><trkpt lat="36.919932797301534" lon="15.147892638671179"><ele>25.166666666666668</ele><time>2026-03-28T17:52:47.999Z</time></trkpt><trkpt lat="36.919946724600166" lon="15.147815341035871"><ele>25.0</ele><time>2026-03-28T17:52:48.999Z</time></trkpt><trkpt lat="36.91999897050121" lon="15.147681586464119"><ele>25.000000000000004</ele><time>2026-03-28T17:52:50.999Z</time></trkpt><trkpt lat="36.92005208012688" lon="15.147570398344776"><ele>25.0</ele><time>2026-03-28T17:52:52.999Z</time></trkpt><trkpt lat="36.92006180237227" lon="15.147487308510785"><ele>25.0</ele><time>2026-03-28T17:52:53.999Z</time></trkpt><trkpt lat="36.92010427368809" lon="15.147406511756706"><ele>25.0</ele><time>2026-03-28T17:52:54.999Z</time></trkpt><trkpt lat="36.92012519207477" lon="15.14731113286388"><ele>25.000000000000004</ele><time>2026-03-28T17:52:55.999Z</time></trkpt><trkpt lat="36.920128023581746" lon="15.14720491835817"><ele>25.0</ele><time>2026-03-28T17:52:56.999Z</time></trkpt><trkpt lat="36.92011066637879" lon="15.147097309755132"><ele>25.166666666666668</ele><time>2026-03-28T17:52:57.999Z</time></trkpt><trkpt lat="36.92007080528029" lon="15.146999270468909"><ele>25.333333333333336</ele><time>2026-03-28T17:52:58.999Z</time></trkpt><trkpt lat="36.920006471897594" lon="15.146940663395858"><ele>25.5</ele><time>2026-03-28T17:52:59.999Z</time></trkpt><trkpt lat="36.919942230493625" lon="15.146905991862853"><ele>25.666666666666664</ele><time>2026-03-28T17:53:00.999Z</time></trkpt><trkpt lat="36.91986598509713" lon="15.146897300506883"><ele>25.833333333333332</ele><time>2026-03-28T17:53:01.999Z</time></trkpt><trkpt lat="36.91975421679842" lon="15.146909957480617"><ele>26.0</ele><time>2026-03-28T17:53:02.999Z</time></trkpt><trkpt lat="36.91963632059119" lon="15.146913927686432"><ele>26.0</ele><time>2026-03-28T17:53:03.999Z</time></trkpt><trkpt lat="36.91952538969039" lon="15.146885037250645"><ele>26.0</ele><time>2026-03-28T17:53:04.999Z</time></trkpt><trkpt lat="36.91942709559308" lon="15.14680472408071"><ele>26.0</ele><time>2026-03-28T17:53:05.999Z</time></trkpt><trkpt lat="36.919327050315" lon="15.146708275197533"><ele>26.0</ele><time>2026-03-28T17:53:06.999Z</time></trkpt><trkpt lat="36.919230231977465" lon="15.146618854341172"><ele>26.166666666666664</ele><time>2026-03-28T17:53:07.999Z</time></trkpt><trkpt lat="36.91913570734528" lon="15.146534095461629"><ele>26.333333333333332</ele><time>2026-03-28T17:53:08.999Z</time></trkpt><trkpt lat="36.91905350810732" lon="15.146467041203792"><ele>26.5</ele><time>2026-03-28T17:53:09.999Z</time></trkpt><trkpt lat="36.918990890745334" lon="15.146416237353174"><ele>26.666666666666664</ele><time>2026-03-28T17:53:10.999Z</time></trkpt><trkpt lat="36.918937489400015" lon="15.146367897677184"><ele>26.833333333333332</ele><time>2026-03-28T17:53:11.999Z</time></trkpt><trkpt lat="36.9188823339749" lon="15.146317297855699"><ele>27.0</ele><time>2026-03-28T17:53:12.999Z</time></trkpt><trkpt lat="36.918814349479725" lon="15.146258555301488"><ele>27.0</ele><time>2026-03-28T17:53:13.999Z</time></trkpt><trkpt lat="36.9187292532328" lon="15.146190066534546"><ele>27.000000000000004</ele><time>2026-03-28T17:53:14.999Z</time></trkpt><trkpt lat="36.91865125465877" lon="15.146121546801421"><ele>27.000000000000004</ele><time>2026-03-28T17:53:15.999Z</time></trkpt><trkpt lat="36.918564166195154" lon="15.146045776837415"><ele>27.0</ele><time>2026-03-28T17:53:16.999Z</time></trkpt><trkpt lat="36.918476886278754" lon="15.145971952304949"><ele>27.0</ele><time>2026-03-28T17:53:17.999Z</time></trkpt><trkpt lat="36.918399959292046" lon="15.14590032559785"><ele>27.0</ele><time>2026-03-28T17:53:18.999Z</time></trkpt><trkpt lat="36.9183333776587" lon="15.1458341964087"><ele>27.000000000000004</ele><time>2026-03-28T17:53:19.999Z</time></trkpt><trkpt lat="36.91826582839" lon="15.145762692687327"><ele>27.000000000000004</ele><time>2026-03-28T17:53:20.999Z</time></trkpt><trkpt lat="36.91817578275576" lon="15.145673806517271"><ele>27.0</ele><time>2026-03-28T17:53:21.999Z</time></trkpt><trkpt lat="36.918062642632464" lon="15.145570240019769"><ele>27.0</ele><time>2026-03-28T17:53:22.999Z</time></trkpt><trkpt lat="36.917933316471384" lon="15.145459615618465"><ele>27.0</ele><time>2026-03-28T17:53:23.999Z</time></trkpt><trkpt lat="36.91780203429834" lon="15.145346856280508"><ele>27.0</ele><time>2026-03-28T17:53:24.999Z</time></trkpt><trkpt lat="36.91767099242273" lon="15.145238538821266"><ele>27.0</ele><time>2026-03-28T17:53:25.999Z</time></trkpt><trkpt lat="36.91755934580273" lon="15.145140663898237"><ele>26.75</ele><time>2026-03-28T17:53:26.999Z</time></trkpt><trkpt lat="36.91744922607959" lon="15.14504355121767"><ele>26.5</ele><time>2026-03-28T17:53:27.999Z</time></trkpt><trkpt lat="36.917343718675504" lon="15.144947120144254"><ele>26.25</ele><time>2026-03-28T17:53:28.999Z</time></trkpt><trkpt lat="36.91724764000097" lon="15.144865161079622"><ele>26.0</ele><time>2026-03-28T17:53:29.998Z</time></trkpt><trkpt lat="36.917155516417154" lon="15.144788962149171"><ele>26.499999999999996</ele><time>2026-03-28T17:53:30.998Z</time></trkpt><trkpt lat="36.917083247726566" lon="15.144731665765699"><ele>27.0</ele><time>2026-03-28T17:53:31.998Z</time></trkpt><trkpt lat="36.91702908390928" lon="15.144686799318608"><ele>27.5</ele><time>2026-03-28T17:53:32.998Z</time></trkpt><trkpt lat="36.91696126496719" lon="15.144622745284"><ele>28.0</ele><time>2026-03-28T17:53:34.998Z</time></trkpt><trkpt lat="36.916903117919986" lon="15.144543179560634"><ele>28.499999999999996</ele><time>2026-03-28T17:53:38.998Z</time></trkpt><trkpt lat="36.91682523405985" lon="15.144482560504812"><ele>29.0</ele><time>2026-03-28T17:53:40.998Z</time></trkpt><trkpt lat="36.91675644007261" lon="15.144473589960194"><ele>29.0</ele><time>2026-03-28T17:53:42.998Z</time></trkpt><trkpt lat="36.91675045823382" lon="15.144562066402537"><ele>29.0</ele><time>2026-03-28T17:53:43.998Z</time></trkpt><trkpt lat="36.91675416720114" lon="15.144706061673975"><ele>29.0</ele><time>2026-03-28T17:53:46Z</time></trkpt><trkpt lat="36.916741224286376" lon="15.144795828947986"><ele>29.0</ele><time>2026-03-28T17:53:47Z</time></trkpt><trkpt lat="36.91666462721048" lon="15.144874543481043"><ele>29.0</ele><time>2026-03-28T17:53:48Z</time></trkpt><trkpt lat="36.91659533337977" lon="15.145020449510175"><ele>27.5</ele><time>2026-03-28T17:53:49Z</time></trkpt><trkpt lat="36.91652148553097" lon="15.145172950981054"><ele>26.0</ele><time>2026-03-28T17:53:50Z</time></trkpt><trkpt lat="36.91644643223151" lon="15.145326226433871"><ele>24.5</ele><time>2026-03-28T17:53:51Z</time></trkpt><trkpt lat="36.91637913375564" lon="15.145461295537398"><ele>23.0</ele><time>2026-03-28T17:53:52Z</time></trkpt><trkpt lat="36.916317210751785" lon="15.145587624360962"><ele>23.0</ele><time>2026-03-28T17:53:53Z</time></trkpt><trkpt lat="36.9162601870532" lon="15.145704028583793"><ele>23.0</ele><time>2026-03-28T17:53:54Z</time></trkpt><trkpt lat="36.91619882572363" lon="15.145829287344847"><ele>23.0</ele><time>2026-03-28T17:53:55Z</time></trkpt><trkpt lat="36.91612642093289" lon="15.14597795132848"><ele>23.0</ele><time>2026-03-28T17:53:56Z</time></trkpt><trkpt lat="36.91604524395363" lon="15.14614320221347"><ele>22.666666666666668</ele><time>2026-03-28T17:53:57Z</time></trkpt><trkpt lat="36.915963407071416" lon="15.146306639864365"><ele>22.333333333333332</ele><time>2026-03-28T17:53:58Z</time></trkpt><trkpt lat="36.91587688764329" lon="15.146468085029385"><ele>22.0</ele><time>2026-03-28T17:53:59Z</time></trkpt><trkpt lat="36.91579134121982" lon="15.146614419825532"><ele>21.5</ele><time>2026-03-28T17:54:00Z</time></trkpt><trkpt lat="36.91570722087445" lon="15.146745471076713"><ele>21.0</ele><time>2026-03-28T17:54:01Z</time></trkpt><trkpt lat="36.91561989145785" lon="15.14687885400891"><ele>20.5</ele><time>2026-03-28T17:54:02Z</time></trkpt><trkpt lat="36.91551729447631" lon="15.147043002877876"><ele>20.0</ele><time>2026-03-28T17:54:03Z</time></trkpt><trkpt lat="36.915402095185186" lon="15.147225866550887"><ele>19.666666666666668</ele><time>2026-03-28T17:54:04Z</time></trkpt><trkpt lat="36.915266260725716" lon="15.147441485828816"><ele>19.333333333333332</ele><time>2026-03-28T17:54:05Z</time></trkpt><trkpt lat="36.91512402927036" lon="15.147667327466612"><ele>19.0</ele><time>2026-03-28T17:54:06Z</time></trkpt><trkpt lat="36.91499326187779" lon="15.147905377095666"><ele>19.0</ele><time>2026-03-28T17:54:07Z</time></trkpt><trkpt lat="36.91483916508741" lon="15.148138532959823"><ele>19.0</ele><time>2026-03-28T17:54:08Z</time></trkpt><trkpt lat="36.91468877400418" lon="15.148387048439675"><ele>18.5</ele><time>2026-03-28T17:54:09Z</time></trkpt><trkpt lat="36.91456503042722" lon="15.148625060486584"><ele>18.0</ele><time>2026-03-28T17:54:10Z</time></trkpt><trkpt lat="36.91444083682877" lon="15.148881772001289"><ele>17.5</ele><time>2026-03-28T17:54:11Z</time></trkpt><trkpt lat="36.91432433615068" lon="15.149149612234476"><ele>17.0</ele><time>2026-03-28T17:54:12Z</time></trkpt><trkpt lat="36.91422062257632" lon="15.149432734653898"><ele>17.0</ele><time>2026-03-28T17:54:13Z</time></trkpt><trkpt lat="36.914111236753286" lon="15.149726676090935"><ele>17.0</ele><time>2026-03-28T17:54:14Z</time></trkpt><trkpt lat="36.914042256418696" lon="15.149922567589508"><ele>17.0</ele><time>2026-03-28T17:54:15Z</time></trkpt><trkpt lat="36.91395326463439" lon="15.150207935460404"><ele>16.0</ele><time>2026-03-28T17:54:16Z</time></trkpt><trkpt lat="36.91387425157341" lon="15.150467963984253"><ele>15.0</ele><time>2026-03-28T17:54:17Z</time></trkpt><trkpt lat="36.913802897927305" lon="15.150703450433973"><ele>14.0</ele><time>2026-03-28T17:54:18Z</time></trkpt><trkpt lat="36.91373171649592" lon="15.150927461656453"><ele>13.75</ele><time>2026-03-28T17:54:19Z</time></trkpt><trkpt lat="36.91367050318626" lon="15.151121939086394"><ele>13.5</ele><time>2026-03-28T17:54:20Z</time></trkpt><trkpt lat="36.91360230521764" lon="15.151288083307895"><ele>13.25</ele><time>2026-03-28T17:54:21Z</time></trkpt><trkpt lat="36.91355652149095" lon="15.151434336418802"><ele>13.0</ele><time>2026-03-28T17:54:22Z</time></trkpt><trkpt lat="36.91351590729225" lon="15.151549017069344"><ele>12.8</ele><time>2026-03-28T17:54:23Z</time></trkpt><trkpt lat="36.91348201683205" lon="15.151644324230109"><ele>12.600000000000001</ele><time>2026-03-28T17:54:24Z</time></trkpt><trkpt lat="36.91345889845073" lon="15.151721489213852"><ele>12.399999999999999</ele><time>2026-03-28T17:54:25Z</time></trkpt><trkpt lat="36.9133270324006" lon="15.15173742208568"><ele>12.2</ele><time>2026-03-28T17:54:27Z</time></trkpt><trkpt lat="36.913221413619134" lon="15.151706440477259"><ele>12.0</ele><time>2026-03-28T17:54:28Z</time></trkpt><trkpt lat="36.91311249982191" lon="15.151717459728506"><ele>11.6</ele><time>2026-03-28T17:54:29Z</time></trkpt><trkpt lat="36.91301873559793" lon="15.151788338446718"><ele>11.2</ele><time>2026-03-28T17:54:30Z</time></trkpt><trkpt lat="36.91292899914537" lon="15.151914836211079"><ele>10.8</ele><time>2026-03-28T17:54:31Z</time></trkpt><trkpt lat="36.912888471508445" lon="15.152049292418514"><ele>10.4</ele><time>2026-03-28T17:54:31.999Z</time></trkpt><trkpt lat="36.91284583902088" lon="15.152133398510403"><ele>10.0</ele><time>2026-03-28T17:54:32.999Z</time></trkpt><trkpt lat="36.91278634382814" lon="15.152159303974157"><ele>10.0</ele><time>2026-03-28T17:54:33.999Z</time></trkpt><trkpt lat="36.91270806873687" lon="15.152157392351254"><ele>10.0</ele><time>2026-03-28T17:54:34.999Z</time></trkpt><trkpt lat="36.9126037525732" lon="15.152054967720714"><ele>10.0</ele><time>2026-03-28T17:54:35.999Z</time></trkpt><trkpt lat="36.91246367420142" lon="15.15197606246721"><ele>10.0</ele><time>2026-03-28T17:54:36.999Z</time></trkpt><trkpt lat="36.91231459850011" lon="15.151899171286672"><ele>9.333333333333334</ele><time>2026-03-28T17:54:37.999Z</time></trkpt><trkpt lat="36.912153415515434" lon="15.151803952874149"><ele>8.666666666666666</ele><time>2026-03-28T17:54:38.999Z</time></trkpt><trkpt lat="36.91199509872205" lon="15.151716545149817"><ele>8.0</ele><time>2026-03-28T17:54:39.999Z</time></trkpt><trkpt lat="36.91182772349122" lon="15.151618947161355"><ele>9.333333333333332</ele><time>2026-03-28T17:54:40.999Z</time></trkpt><trkpt lat="36.911654003015144" lon="15.15151035629501"><ele>10.666666666666666</ele><time>2026-03-28T17:54:41.999Z</time></trkpt><trkpt lat="36.91148461336331" lon="15.15140592899474"><ele>12.0</ele><time>2026-03-28T17:54:42.999Z</time></trkpt><trkpt lat="36.911331448440315" lon="15.151317784632042"><ele>12.0</ele><time>2026-03-28T17:54:43.999Z</time></trkpt><trkpt lat="36.91118223774419" lon="15.151247650308976"><ele>12.0</ele><time>2026-03-28T17:54:44.999Z</time></trkpt><trkpt lat="36.91102932079122" lon="15.151189528775845"><ele>12.0</ele><time>2026-03-28T17:54:45.999Z</time></trkpt><trkpt lat="36.91086978448839" lon="15.151142789730976"><ele>11.666666666666666</ele><time>2026-03-28T17:54:46.999Z</time></trkpt><trkpt lat="36.91071649995328" lon="15.15109464145972"><ele>11.333333333333332</ele><time>2026-03-28T17:54:47.999Z</time></trkpt><trkpt lat="36.91057217344213" lon="15.151050313082928"><ele>11.0</ele><time>2026-03-28T17:54:48.999Z</time></trkpt><trkpt lat="36.910422518066234" lon="15.15100415161719"><ele>11.0</ele><time>2026-03-28T17:54:49.999Z</time></trkpt><trkpt lat="36.91030301907242" lon="15.150967059868407"><ele>11.0</ele><time>2026-03-28T17:54:50.999Z</time></trkpt><trkpt lat="36.91022799424846" lon="15.150939869121066"><ele>11.0</ele><time>2026-03-28T17:54:51.999Z</time></trkpt><trkpt lat="36.91014506762641" lon="15.15090850565338"><ele>11.0</ele><time>2026-03-28T17:54:52.999Z</time></trkpt><trkpt lat="36.9100421658649" lon="15.150858740153678"><ele>11.0</ele><time>2026-03-28T17:54:53.999Z</time></trkpt><trkpt lat="36.9099296582215" lon="15.15080054185503"><ele>11.200000000000001</ele><time>2026-03-28T17:54:54.999Z</time></trkpt><trkpt lat="36.90982936718906" lon="15.150747250516476"><ele>11.4</ele><time>2026-03-28T17:54:55.999Z</time></trkpt><trkpt lat="36.90974215039149" lon="15.150701000837438"><ele>11.6</ele><time>2026-03-28T17:54:56.999Z</time></trkpt><trkpt lat="36.90966292604019" lon="15.150645787370937"><ele>11.8</ele><time>2026-03-28T17:54:57.999Z</time></trkpt><trkpt lat="36.909584145957666" lon="15.15060348400127"><ele>12.0</ele><time>2026-03-28T17:54:58.999Z</time></trkpt><trkpt lat="36.90948427292592" lon="15.150549665009734"><ele>12.0</ele><time>2026-03-28T17:54:59.999Z</time></trkpt><trkpt lat="36.909335945103095" lon="15.150479411280815"><ele>12.0</ele><time>2026-03-28T17:55:00.999Z</time></trkpt><trkpt lat="36.90917691953322" lon="15.150391148127921"><ele>12.0</ele><time>2026-03-28T17:55:01.999Z</time></trkpt><trkpt lat="36.909012495851485" lon="15.150295000742405"><ele>11.5</ele><time>2026-03-28T17:55:02.999Z</time></trkpt><trkpt lat="36.90886402704406" lon="15.150229049743555"><ele>11.0</ele><time>2026-03-28T17:55:03.999Z</time></trkpt><trkpt lat="36.9087394361278" lon="15.150155070805717"><ele>10.5</ele><time>2026-03-28T17:55:04.999Z</time></trkpt><trkpt lat="36.908624888349934" lon="15.150093649702105"><ele>10.0</ele><time>2026-03-28T17:55:05.999Z</time></trkpt><trkpt lat="36.90851812794075" lon="15.150050912687021"><ele>10.0</ele><time>2026-03-28T17:55:06.999Z</time></trkpt><trkpt lat="36.908417584923974" lon="15.149995458453944"><ele>10.0</ele><time>2026-03-28T17:55:07.999Z</time></trkpt><trkpt lat="36.90828202234369" lon="15.14994882657348"><ele>10.0</ele><time>2026-03-28T17:55:08.999Z</time></trkpt><trkpt lat="36.908147731706876" lon="15.149913364431958"><ele>10.0</ele><time>2026-03-28T17:55:09.999Z</time></trkpt><trkpt lat="36.908036242234274" lon="15.14989688427911"><ele>10.4</ele><time>2026-03-28T17:55:10.999Z</time></trkpt><trkpt lat="36.90793634088759" lon="15.149868505942672"><ele>10.8</ele><time>2026-03-28T17:55:11.999Z</time></trkpt><trkpt lat="36.90783517307893" lon="15.149838012887347"><ele>11.2</ele><time>2026-03-28T17:55:12.999Z</time></trkpt><trkpt lat="36.907729544069774" lon="15.149793005441886"><ele>11.6</ele><time>2026-03-28T17:55:13.999Z</time></trkpt><trkpt lat="36.9076518243551" lon="15.149717200814226"><ele>12.0</ele><time>2026-03-28T17:55:14.999Z</time></trkpt><trkpt lat="36.90757349226868" lon="15.149664119403566"><ele>12.0</ele><time>2026-03-28T17:55:15.999Z</time></trkpt><trkpt lat="36.90751845097183" lon="15.149597093075007"><ele>12.0</ele><time>2026-03-28T17:55:16.999Z</time></trkpt><trkpt lat="36.90747256031719" lon="15.149507544835128"><ele>12.0</ele><time>2026-03-28T17:55:17.999Z</time></trkpt><trkpt lat="36.90740773578644" lon="15.149433726350626"><ele>12.0</ele><time>2026-03-28T17:55:18.999Z</time></trkpt><trkpt lat="36.90737295069473" lon="15.14935211911002"><ele>12.0</ele><time>2026-03-28T17:55:19.999Z</time></trkpt><trkpt lat="36.90733743596593" lon="15.14926745451976"><ele>12.0</ele><time>2026-03-28T17:55:20.999Z</time></trkpt><trkpt lat="36.90729283341635" lon="15.149180480458051"><ele>12.0</ele><time>2026-03-28T17:55:21.999Z</time></trkpt><trkpt lat="36.907243458954014" lon="15.149099046843068"><ele>12.0</ele><time>2026-03-28T17:55:22.999Z</time></trkpt><trkpt lat="36.90720013565977" lon="15.149024366765321"><ele>12.0</ele><time>2026-03-28T17:55:23.999Z</time></trkpt><trkpt lat="36.90714764788055" lon="15.148946968622331"><ele>12.0</ele><time>2026-03-28T17:55:24.999Z</time></trkpt><trkpt lat="36.90709150906089" lon="15.148851860587191"><ele>12.0</ele><time>2026-03-28T17:55:25.999Z</time></trkpt><trkpt lat="36.907031600281314" lon="15.148755713115728"><ele>12.0</ele><time>2026-03-28T17:55:26.999Z</time></trkpt><trkpt lat="36.90698292677895" lon="15.148672008503867"><ele>12.333333333333334</ele><time>2026-03-28T17:55:27.999Z</time></trkpt><trkpt lat="36.90693696620639" lon="15.148604865576612"><ele>12.666666666666668</ele><time>2026-03-28T17:55:28.999Z</time></trkpt><trkpt lat="36.90688964463199" lon="15.148543926926886"><ele>13.0</ele><time>2026-03-28T17:55:29.999Z</time></trkpt><trkpt lat="36.906838639656215" lon="15.148488506881588"><ele>13.333333333333334</ele><time>2026-03-28T17:55:30.999Z</time></trkpt><trkpt lat="36.90678018459476" lon="15.148430904726386"><ele>13.666666666666668</ele><time>2026-03-28T17:55:31.999Z</time></trkpt><trkpt lat="36.90670985910205" lon="15.148374143371537"><ele>14.0</ele><time>2026-03-28T17:55:32.999Z</time></trkpt><trkpt lat="36.90663341167953" lon="15.148314941427502"><ele>14.000000000000002</ele><time>2026-03-28T17:55:33.999Z</time></trkpt><trkpt lat="36.90655367817639" lon="15.148264842774854"><ele>14.0</ele><time>2026-03-28T17:55:34.999Z</time></trkpt><trkpt lat="36.90648342052716" lon="15.148206229604732"><ele>14.0</ele><time>2026-03-28T17:55:35.999Z</time></trkpt><trkpt lat="36.906397665264635" lon="15.148169691013447"><ele>14.0</ele><time>2026-03-28T17:55:36.999Z</time></trkpt><trkpt lat="36.90631292914146" lon="15.148141321289794"><ele>14.000000000000002</ele><time>2026-03-28T17:55:37.999Z</time></trkpt><trkpt lat="36.9062265762716" lon="15.148115012702512"><ele>14.0</ele><time>2026-03-28T17:55:38.999Z</time></trkpt><trkpt lat="36.9061212249103" lon="15.14808314332275"><ele>14.0</ele><time>2026-03-28T17:55:39.999Z</time></trkpt><trkpt lat="36.90598193544789" lon="15.148042779857699"><ele>14.0</ele><time>2026-03-28T17:55:40.998Z</time></trkpt><trkpt lat="36.90584815498923" lon="15.14800404826439"><ele>14.0</ele><time>2026-03-28T17:55:41.998Z</time></trkpt><trkpt lat="36.905744601731286" lon="15.147974098811433"><ele>14.0</ele><time>2026-03-28T17:55:42.998Z</time></trkpt><trkpt lat="36.90567390508247" lon="15.147953691512356"><ele>14.0</ele><time>2026-03-28T17:55:43.998Z</time></trkpt><trkpt lat="36.905557048906715" lon="15.147919959846165"><ele>13.999999999999998</ele><time>2026-03-28T17:55:45.998Z</time></trkpt><trkpt lat="36.905446540892896" lon="15.147887263602456"><ele>13.999999999999998</ele><time>2026-03-28T17:55:47.998Z</time></trkpt><trkpt lat="36.90538290627664" lon="15.147868048002685"><ele>14.0</ele><time>2026-03-28T17:55:48.998Z</time></trkpt><trkpt lat="36.90531854723063" lon="15.147848669707516"><ele>14.0</ele><time>2026-03-28T17:55:49.998Z</time></trkpt><trkpt lat="36.90520027940489" lon="15.147813059494238"><ele>14.000000000000002</ele><time>2026-03-28T17:55:52Z</time></trkpt><trkpt lat="36.905134683249756" lon="15.147794276063316"><ele>14.0</ele><time>2026-03-28T17:55:53Z</time></trkpt><trkpt lat="36.90503148085117" lon="15.147764021106465"><ele>14.0</ele><time>2026-03-28T17:55:54Z</time></trkpt><trkpt lat="36.9049350123312" lon="15.147735740249352"><ele>14.0</ele><time>2026-03-28T17:55:55Z</time></trkpt><trkpt lat="36.90484959095869" lon="15.147710698005827"><ele>14.000000000000002</ele><time>2026-03-28T17:55:56Z</time></trkpt><trkpt lat="36.90477330908565" lon="15.147688335101396"><ele>14.0</ele><time>2026-03-28T17:55:57Z</time></trkpt><trkpt lat="36.90470276044542" lon="15.147667397572343"><ele>13.25</ele><time>2026-03-28T17:55:58Z</time></trkpt><trkpt lat="36.90463422377078" lon="15.147646366467358"><ele>12.5</ele><time>2026-03-28T17:55:59Z</time></trkpt><trkpt lat="36.90453201652737" lon="15.147615003167227"><ele>11.75</ele><time>2026-03-28T17:56:00Z</time></trkpt><trkpt lat="36.90438565373119" lon="15.147566990211802"><ele>11.0</ele><time>2026-03-28T17:56:01Z</time></trkpt><trkpt lat="36.90422451246471" lon="15.147516382776509"><ele>10.75</ele><time>2026-03-28T17:56:02Z</time></trkpt><trkpt lat="36.90406663080632" lon="15.147484608050918"><ele>10.5</ele><time>2026-03-28T17:56:03Z</time></trkpt><trkpt lat="36.903938996862905" lon="15.14744949835005"><ele>10.25</ele><time>2026-03-28T17:56:04Z</time></trkpt><trkpt lat="36.90382494586835" lon="15.147403193822733"><ele>10.0</ele><time>2026-03-28T17:56:05Z</time></trkpt><trkpt lat="36.90373018395608" lon="15.1473704584531"><ele>10.6</ele><time>2026-03-28T17:56:06Z</time></trkpt><trkpt lat="36.90366871053509" lon="15.14734166648766"><ele>11.2</ele><time>2026-03-28T17:56:07Z</time></trkpt><trkpt lat="36.90367189786214" lon="15.14725830035844"><ele>11.8</ele><time>2026-03-28T17:56:09Z</time></trkpt><trkpt lat="36.90374336379445" lon="15.147104501388482"><ele>12.4</ele><time>2026-03-28T17:56:10Z</time></trkpt><trkpt lat="36.903805694806" lon="15.14697736345853"><ele>13.0</ele><time>2026-03-28T17:56:11Z</time></trkpt><trkpt lat="36.903879327459286" lon="15.146797420053849"><ele>13.0</ele><time>2026-03-28T17:56:12Z</time></trkpt><trkpt lat="36.90396447352616" lon="15.14658882409687"><ele>13.0</ele><time>2026-03-28T17:56:13Z</time></trkpt><trkpt lat="36.90405789707776" lon="15.146398224512698"><ele>13.0</ele><time>2026-03-28T17:56:14Z</time></trkpt><trkpt lat="36.904157935887646" lon="15.146186767655282"><ele>14.0</ele><time>2026-03-28T17:56:15Z</time></trkpt><trkpt lat="36.9042628182062" lon="15.145928536740426"><ele>15.0</ele><time>2026-03-28T17:56:16Z</time></trkpt><trkpt lat="36.904372995920895" lon="15.145657925749175"><ele>15.0</ele><time>2026-03-28T17:56:17Z</time></trkpt><trkpt lat="36.904483441991644" lon="15.145378288817831"><ele>15.0</ele><time>2026-03-28T17:56:18Z</time></trkpt><trkpt lat="36.904588963260295" lon="15.14512829438224"><ele>15.0</ele><time>2026-03-28T17:56:19Z</time></trkpt><trkpt lat="36.90468577983122" lon="15.144889648135706"><ele>15.0</ele><time>2026-03-28T17:56:20Z</time></trkpt><trkpt lat="36.90477881171238" lon="15.144670142883825"><ele>15.0</ele><time>2026-03-28T17:56:21Z</time></trkpt><trkpt lat="36.90484241879157" lon="15.144462427993815"><ele>15.5</ele><time>2026-03-28T17:56:22Z</time></trkpt><trkpt lat="36.90491016185014" lon="15.144279394808683"><ele>16.0</ele><time>2026-03-28T17:56:23Z</time></trkpt><trkpt lat="36.904987985952204" lon="15.144124153396314"><ele>16.5</ele><time>2026-03-28T17:56:24Z</time></trkpt><trkpt lat="36.90504813899962" lon="15.144027576408535"><ele>17.0</ele><time>2026-03-28T17:56:25Z</time></trkpt><trkpt lat="36.90506335252271" lon="15.143922745324486"><ele>17.5</ele><time>2026-03-28T17:56:27Z</time></trkpt><trkpt lat="36.90507654397827" lon="15.143842771784941"><ele>18.0</ele><time>2026-03-28T17:56:28Z</time></trkpt><trkpt lat="36.9051906390774" lon="15.143728361800939"><ele>18.5</ele><time>2026-03-28T17:56:29Z</time></trkpt><trkpt lat="36.90526569992992" lon="15.143552501549609"><ele>19.0</ele><time>2026-03-28T17:56:30Z</time></trkpt><trkpt lat="36.90535853808228" lon="15.14334235409167"><ele>20.0</ele><time>2026-03-28T17:56:31Z</time></trkpt><trkpt lat="36.9054644206922" lon="15.143104946279328"><ele>21.0</ele><time>2026-03-28T17:56:32Z</time></trkpt><trkpt lat="36.905571453639425" lon="15.142870340066235"><ele>22.0</ele><time>2026-03-28T17:56:33Z</time></trkpt><trkpt lat="36.905672789388525" lon="15.142623341280176"><ele>22.333333333333332</ele><time>2026-03-28T17:56:34Z</time></trkpt><trkpt lat="36.90576538031186" lon="15.142379410830717"><ele>22.666666666666668</ele><time>2026-03-28T17:56:35Z</time></trkpt><trkpt lat="36.90585940138347" lon="15.14216201159844"><ele>23.0</ele><time>2026-03-28T17:56:36Z</time></trkpt><trkpt lat="36.90595201150617" lon="15.141980045893831"><ele>23.0</ele><time>2026-03-28T17:56:37Z</time></trkpt><trkpt lat="36.906021671114104" lon="15.141799907112016"><ele>23.0</ele><time>2026-03-28T17:56:37.999Z</time></trkpt><trkpt lat="36.90608054774699" lon="15.141650415946858"><ele>23.0</ele><time>2026-03-28T17:56:38.999Z</time></trkpt><trkpt lat="36.90612385552777" lon="15.141544546784411"><ele>23.0</ele><time>2026-03-28T17:56:39.999Z</time></trkpt><trkpt lat="36.90616269028148" lon="15.141441000434735"><ele>23.0</ele><time>2026-03-28T17:56:41.999Z</time></trkpt><trkpt lat="36.906021754091036" lon="15.141476647550123"><ele>23.0</ele><time>2026-03-28T17:56:45.999Z</time></trkpt><trkpt lat="36.90596557504674" lon="15.141634002343945"><ele>23.0</ele><time>2026-03-28T17:56:46.999Z</time></trkpt><trkpt lat="36.90590342049476" lon="15.141800304000775"><ele>23.0</ele><time>2026-03-28T17:56:47.999Z</time></trkpt><trkpt lat="36.905860427976336" lon="15.141909824783994"><ele>23.0</ele><time>2026-03-28T17:56:48.999Z</time></trkpt><trkpt lat="36.90582407849516" lon="15.142003883606785"><ele>23.0</ele><time>2026-03-28T17:56:49.999Z</time></trkpt><trkpt lat="36.905740853257825" lon="15.142020492612728"><ele>23.0</ele><time>2026-03-28T17:56:51.999Z</time></trkpt><trkpt lat="36.905700184265804" lon="15.141925888348782"><ele>23.0</ele><time>2026-03-28T17:56:53.999Z</time></trkpt><trkpt lat="36.905726672868" lon="15.141797268619115"><ele>23.0</ele><time>2026-03-28T17:56:55.999Z</time></trkpt><trkpt lat="36.905732991267406" lon="15.141701279279072"><ele>23.0</ele><time>2026-03-28T17:56:57.999Z</time></trkpt><trkpt lat="36.905681563586626" lon="15.141626329878033"><ele>23.0</ele><time>2026-03-28T17:59:17.999Z</time></trkpt><trkpt lat="36.90574180845497" lon="15.141664515347166"><ele>23.0</ele><time>2026-03-28T17:59:35.999Z</time></trkpt><trkpt lat="36.905677032444764" lon="15.141629835896264"><ele>23.0</ele><time>2026-03-28T17:59:46.999Z</time></trkpt><trkpt lat="36.90560447347514" lon="15.141584270712794"><ele>23.0</ele><time>2026-03-28T17:59:51.999Z</time></trkpt><trkpt lat="36.905537789147616" lon="15.141559885463947"><ele>23.0</ele><time>2026-03-28T17:59:55.998Z</time></trkpt><trkpt lat="36.90560343425866" lon="15.141634850153983"><ele>23.0</ele><time>2026-03-28T18:00:01.998Z</time></trkpt><trkpt lat="36.905659701151144" lon="15.14169494717202"><ele>23.0</ele><time>2026-03-28T18:00:05Z</time></trkpt><trkpt lat="36.90572166317376" lon="15.141655517285939"><ele>23.0</ele><time>2026-03-28T18:00:09Z</time></trkpt><trkpt lat="36.90571593371835" lon="15.141770332554712"><ele>23.0</ele><time>2026-03-28T18:00:56.999Z</time></trkpt><trkpt lat="36.905761440968455" lon="15.141669221196818"><ele>23.0</ele><time>2026-03-28T18:01:07.999Z</time></trkpt><trkpt lat="36.905775752667296" lon="15.14154340803221"><ele>23.0</ele><time>2026-03-28T18:01:09.999Z</time></trkpt><trkpt lat="36.90579845020348" lon="15.14144096303305"><ele>23.0</ele><time>2026-03-28T18:01:11.999Z</time></trkpt><trkpt lat="36.90580973161251" lon="15.141319179811871"><ele>23.4</ele><time>2026-03-28T18:01:13.999Z</time></trkpt><trkpt lat="36.90574471750114" lon="15.141228926806603"><ele>23.799999999999997</ele><time>2026-03-28T18:01:15.999Z</time></trkpt><trkpt lat="36.90576392071898" lon="15.141041202639931"><ele>24.2</ele><time>2026-03-28T18:01:16.999Z</time></trkpt><trkpt lat="36.90567789482137" lon="15.14097991080402"><ele>24.6</ele><time>2026-03-28T18:01:18.999Z</time></trkpt><trkpt lat="36.9056171513552" lon="15.140943083166507"><ele>25.0</ele><time>2026-03-28T18:01:23.999Z</time></trkpt><trkpt lat="36.90552701848365" lon="15.140871251872774"><ele>25.000000000000004</ele><time>2026-03-28T18:01:25.999Z</time></trkpt><trkpt lat="36.90543361180924" lon="15.140805511352882"><ele>25.0</ele><time>2026-03-28T18:01:27.999Z</time></trkpt><trkpt lat="36.905376808916955" lon="15.140765276882231"><ele>25.0</ele><time>2026-03-28T18:01:28.999Z</time></trkpt><trkpt lat="36.90531068072375" lon="15.140719000250543"><ele>25.0</ele><time>2026-03-28T18:01:29.999Z</time></trkpt><trkpt lat="36.90523790331958" lon="15.140666192623808"><ele>25.000000000000004</ele><time>2026-03-28T18:01:30.999Z</time></trkpt><trkpt lat="36.9051594346701" lon="15.140617288888189"><ele>25.0</ele><time>2026-03-28T18:01:31.999Z</time></trkpt><trkpt lat="36.905092306356366" lon="15.140570487768283"><ele>25.000000000000004</ele><time>2026-03-28T18:01:32.999Z</time></trkpt><trkpt lat="36.90503246685822" lon="15.140529788982953"><ele>25.0</ele><time>2026-03-28T18:01:33.999Z</time></trkpt><trkpt lat="36.90497885301422" lon="15.140488115856858"><ele>25.0</ele><time>2026-03-28T18:01:34.999Z</time></trkpt><trkpt lat="36.904883505151794" lon="15.140440228249597"><ele>25.0</ele><time>2026-03-28T18:01:36.999Z</time></trkpt><trkpt lat="36.90478997845982" lon="15.140432793956869"><ele>25.000000000000004</ele><time>2026-03-28T18:01:38.999Z</time></trkpt><trkpt lat="36.90471846707736" lon="15.140388449300401"><ele>25.0</ele><time>2026-03-28T18:01:40.999Z</time></trkpt><trkpt lat="36.904618986609314" lon="15.140308779037598"><ele>25.0</ele><time>2026-03-28T18:01:42.999Z</time></trkpt><trkpt lat="36.90453470424177" lon="15.14023993795785"><ele>25.0</ele><time>2026-03-28T18:01:44.999Z</time></trkpt><trkpt lat="36.90446117600195" lon="15.140186918666794"><ele>25.0</ele><time>2026-03-28T18:01:46.999Z</time></trkpt><trkpt lat="36.904395220774326" lon="15.14014075969564"><ele>25.0</ele><time>2026-03-28T18:01:48.999Z</time></trkpt><trkpt lat="36.9043216902782" lon="15.140071166702972"><ele>25.0</ele><time>2026-03-28T18:01:50.999Z</time></trkpt><trkpt lat="36.90421825288767" lon="15.139988197200262"><ele>25.333333333333336</ele><time>2026-03-28T18:01:52.999Z</time></trkpt><trkpt lat="36.90414947809556" lon="15.139936803992013"><ele>25.666666666666668</ele><time>2026-03-28T18:01:53.999Z</time></trkpt><trkpt lat="36.90408054357526" lon="15.139882632213034"><ele>26.0</ele><time>2026-03-28T18:01:54.999Z</time></trkpt><trkpt lat="36.9040097542806" lon="15.139822021776997"><ele>26.333333333333336</ele><time>2026-03-28T18:01:55.999Z</time></trkpt><trkpt lat="36.90394410612204" lon="15.13976912146742"><ele>26.666666666666668</ele><time>2026-03-28T18:01:56.999Z</time></trkpt><trkpt lat="36.903853639092915" lon="15.139702154847285"><ele>27.0</ele><time>2026-03-28T18:01:58.998Z</time></trkpt><trkpt lat="36.903814856689706" lon="15.13963727333558"><ele>27.200000000000003</ele><time>2026-03-28T18:02:04.998Z</time></trkpt><trkpt lat="36.903828593114376" lon="15.139481960634809"><ele>27.400000000000002</ele><time>2026-03-28T18:02:09Z</time></trkpt><trkpt lat="36.90395031381498" lon="15.139446140778217"><ele>27.599999999999998</ele><time>2026-03-28T18:02:10Z</time></trkpt><trkpt lat="36.90399241170225" lon="15.139381566597212"><ele>27.799999999999997</ele><time>2026-03-28T18:02:12Z</time></trkpt><trkpt lat="36.90401398189085" lon="15.13927919143053"><ele>28.0</ele><time>2026-03-28T18:02:14Z</time></trkpt><trkpt lat="36.904107806532714" lon="15.139181872922887"><ele>28.0</ele><time>2026-03-28T18:02:16Z</time></trkpt><trkpt lat="36.90416669893049" lon="15.139115568280985"><ele>27.999999999999996</ele><time>2026-03-28T18:02:17Z</time></trkpt><trkpt lat="36.904231928755564" lon="15.13903460101164"><ele>27.999999999999996</ele><time>2026-03-28T18:02:18Z</time></trkpt><trkpt lat="36.90430110670173" lon="15.138953699808937"><ele>28.0</ele><time>2026-03-28T18:02:19Z</time></trkpt><trkpt lat="36.9043692439219" lon="15.138866382656039"><ele>28.0</ele><time>2026-03-28T18:02:20Z</time></trkpt><trkpt lat="36.90443948156146" lon="15.138786661945131"><ele>28.4</ele><time>2026-03-28T18:02:21Z</time></trkpt><trkpt lat="36.90450440404403" lon="15.138703439242073"><ele>28.799999999999997</ele><time>2026-03-28T18:02:22Z</time></trkpt><trkpt lat="36.90456402110872" lon="15.138614747011896"><ele>29.2</ele><time>2026-03-28T18:02:23Z</time></trkpt><trkpt lat="36.90462327994209" lon="15.138522494247955"><ele>29.6</ele><time>2026-03-28T18:02:24Z</time></trkpt><trkpt lat="36.904680824235875" lon="15.138426530350063"><ele>30.0</ele><time>2026-03-28T18:02:25Z</time></trkpt><trkpt lat="36.904747826616116" lon="15.138330718128872"><ele>30.0</ele><time>2026-03-28T18:02:26Z</time></trkpt><trkpt lat="36.90481241852672" lon="15.138231595391522"><ele>30.0</ele><time>2026-03-28T18:02:27Z</time></trkpt><trkpt lat="36.90487330708476" lon="15.138132410747327"><ele>30.0</ele><time>2026-03-28T18:02:28Z</time></trkpt><trkpt lat="36.90492586726512" lon="15.13804064630077"><ele>30.0</ele><time>2026-03-28T18:02:29Z</time></trkpt><trkpt lat="36.904976379739445" lon="15.137957462685744"><ele>30.0</ele><time>2026-03-28T18:02:30Z</time></trkpt><trkpt lat="36.90502602073523" lon="15.13787102127772"><ele>30.5</ele><time>2026-03-28T18:02:31Z</time></trkpt><trkpt lat="36.90507837832156" lon="15.13778424350957"><ele>31.0</ele><time>2026-03-28T18:02:32Z</time></trkpt><trkpt lat="36.90512485944658" lon="15.1376879541606"><ele>31.5</ele><time>2026-03-28T18:02:33Z</time></trkpt><trkpt lat="36.90517993537192" lon="15.13759418747505"><ele>32.0</ele><time>2026-03-28T18:02:34Z</time></trkpt><trkpt lat="36.90522351525428" lon="15.137501271581316"><ele>32.5</ele><time>2026-03-28T18:02:35Z</time></trkpt><trkpt lat="36.905251376137464" lon="15.13741580889485"><ele>33.0</ele><time>2026-03-28T18:02:36Z</time></trkpt><trkpt lat="36.905295799101786" lon="15.137343115107285"><ele>33.5</ele><time>2026-03-28T18:02:37Z</time></trkpt><trkpt lat="36.90533198094267" lon="15.137265576327582"><ele>34.0</ele><time>2026-03-28T18:02:38Z</time></trkpt><trkpt lat="36.90535869796786" lon="15.137188478218969"><ele>34.5</ele><time>2026-03-28T18:02:39Z</time></trkpt><trkpt lat="36.905397100115266" lon="15.137116573355863"><ele>35.0</ele><time>2026-03-28T18:02:41Z</time></trkpt><trkpt lat="36.90543029590626" lon="15.13704088571985"><ele>35.5</ele><time>2026-03-28T18:02:50Z</time></trkpt><trkpt lat="36.90544098821366" lon="15.136904822942794"><ele>36.0</ele><time>2026-03-28T18:02:53Z</time></trkpt><trkpt lat="36.90551527406909" lon="15.136826453151624"><ele>36.0</ele><time>2026-03-28T18:02:55Z</time></trkpt><trkpt lat="36.90558978763264" lon="15.136738558778633"><ele>36.0</ele><time>2026-03-28T18:02:56.999Z</time></trkpt></trkseg></trk></gpx>